<?xml version="1.0" encoding="UTF-8" standalone="no" ?>
<gpx xmlns="http://www.topografix.com/GPX/1/1" xmlns:xsi="http://www.w3.org/2001/XMLSchema-instance" xsi:schemaLocation="http://www.topografix.com/GPX/1/1 http://www.topografix.com/GPX/1/1/gpx.xsd" version="1.1" creator="VisuGPX - https://www.visugpx.com">
  <metadata>
    <name>SPEEDEURE - Parcours permanent VERT</name>
    <desc><![CDATA[Parcours VERT adapté en janvier 2019]]></desc>
  </metadata>
  <trk>
    <name><![CDATA[SPEEDEURE - Parcours permanent VERT_1]]></name>
    <trkseg>
      <trkpt lat="49.02249" lon="1.14071">
        <ele>62.900002</ele>
        <time>2019-01-06T07:56:20Z</time>
      </trkpt>
      <trkpt lat="49.02258" lon="1.14062">
        <ele>62.900002</ele>
        <time>2019-01-06T07:56:25Z</time>
      </trkpt>
      <trkpt lat="49.02262" lon="1.1405">
        <ele>62.799999</ele>
        <time>2019-01-06T07:56:30Z</time>
      </trkpt>
      <trkpt lat="49.02258" lon="1.14037">
        <ele>62.799999</ele>
        <time>2019-01-06T07:56:46Z</time>
      </trkpt>
      <trkpt lat="49.02259" lon="1.14023">
        <ele>61.299999</ele>
        <time>2019-01-06T08:09:44Z</time>
      </trkpt>
      <trkpt lat="49.02253" lon="1.14012">
        <ele>61.5</ele>
        <time>2019-01-06T08:09:49Z</time>
      </trkpt>
      <trkpt lat="49.02251" lon="1.13998">
        <ele>61.5</ele>
        <time>2019-01-06T08:09:54Z</time>
      </trkpt>
      <trkpt lat="49.02249" lon="1.1398">
        <ele>61.599998</ele>
        <time>2019-01-06T08:09:59Z</time>
      </trkpt>
      <trkpt lat="49.02244" lon="1.13966">
        <ele>61.5</ele>
        <time>2019-01-06T08:10:03Z</time>
      </trkpt>
      <trkpt lat="49.0224" lon="1.13953">
        <ele>61.400002</ele>
        <time>2019-01-06T08:10:06Z</time>
      </trkpt>
      <trkpt lat="49.02235" lon="1.1394">
        <ele>61.299999</ele>
        <time>2019-01-06T08:10:09Z</time>
      </trkpt>
      <trkpt lat="49.02229" lon="1.13925">
        <ele>61.400002</ele>
        <time>2019-01-06T08:10:12Z</time>
      </trkpt>
      <trkpt lat="49.02224" lon="1.13911">
        <ele>61.599998</ele>
        <time>2019-01-06T08:10:15Z</time>
      </trkpt>
      <trkpt lat="49.02222" lon="1.13897">
        <ele>61.799999</ele>
        <time>2019-01-06T08:10:18Z</time>
      </trkpt>
      <trkpt lat="49.0223" lon="1.13886">
        <ele>61.5</ele>
        <time>2019-01-06T08:10:21Z</time>
      </trkpt>
      <trkpt lat="49.02237" lon="1.13877">
        <ele>62.099998</ele>
        <time>2019-01-06T08:10:24Z</time>
      </trkpt>
      <trkpt lat="49.0223" lon="1.13864">
        <ele>61.799999</ele>
        <time>2019-01-06T08:10:27Z</time>
      </trkpt>
      <trkpt lat="49.02225" lon="1.13849">
        <ele>61.5</ele>
        <time>2019-01-06T08:10:29Z</time>
      </trkpt>
      <trkpt lat="49.02221" lon="1.13835">
        <ele>61.400002</ele>
        <time>2019-01-06T08:10:31Z</time>
      </trkpt>
      <trkpt lat="49.02214" lon="1.13815">
        <ele>61</ele>
        <time>2019-01-06T08:10:35Z</time>
      </trkpt>
      <trkpt lat="49.02209" lon="1.138">
        <ele>61.799999</ele>
        <time>2019-01-06T08:10:38Z</time>
      </trkpt>
      <trkpt lat="49.02208" lon="1.13783">
        <ele>62</ele>
        <time>2019-01-06T08:10:41Z</time>
      </trkpt>
      <trkpt lat="49.02211" lon="1.13767">
        <ele>62</ele>
        <time>2019-01-06T08:10:44Z</time>
      </trkpt>
      <trkpt lat="49.02208" lon="1.13751">
        <ele>61.900002</ele>
        <time>2019-01-06T08:10:47Z</time>
      </trkpt>
      <trkpt lat="49.02197" lon="1.13748">
        <ele>61.400002</ele>
        <time>2019-01-06T08:10:51Z</time>
      </trkpt>
      <trkpt lat="49.0219" lon="1.13735">
        <ele>61.299999</ele>
        <time>2019-01-06T08:10:55Z</time>
      </trkpt>
      <trkpt lat="49.02184" lon="1.13725">
        <ele>61.400002</ele>
        <time>2019-01-06T08:10:58Z</time>
      </trkpt>
      <trkpt lat="49.02179" lon="1.13712">
        <ele>61.200001</ele>
        <time>2019-01-06T08:11:01Z</time>
      </trkpt>
      <trkpt lat="49.02173" lon="1.13695">
        <ele>61.099998</ele>
        <time>2019-01-06T08:11:04Z</time>
      </trkpt>
      <trkpt lat="49.02167" lon="1.13679">
        <ele>60.799999</ele>
        <time>2019-01-06T08:11:07Z</time>
      </trkpt>
      <trkpt lat="49.02161" lon="1.13663">
        <ele>61.200001</ele>
        <time>2019-01-06T08:11:10Z</time>
      </trkpt>
      <trkpt lat="49.02157" lon="1.13646">
        <ele>61.200001</ele>
        <time>2019-01-06T08:11:13Z</time>
      </trkpt>
      <trkpt lat="49.02153" lon="1.1363">
        <ele>61.099998</ele>
        <time>2019-01-06T08:11:16Z</time>
      </trkpt>
      <trkpt lat="49.02152" lon="1.13611">
        <ele>60.900002</ele>
        <time>2019-01-06T08:11:19Z</time>
      </trkpt>
      <trkpt lat="49.02152" lon="1.13591">
        <ele>61</ele>
        <time>2019-01-06T08:11:22Z</time>
      </trkpt>
      <trkpt lat="49.02152" lon="1.13577">
        <ele>61.099998</ele>
        <time>2019-01-06T08:11:24Z</time>
      </trkpt>
      <trkpt lat="49.0215" lon="1.13559">
        <ele>60.900002</ele>
        <time>2019-01-06T08:11:27Z</time>
      </trkpt>
      <trkpt lat="49.02146" lon="1.13541">
        <ele>60.900002</ele>
        <time>2019-01-06T08:11:30Z</time>
      </trkpt>
      <trkpt lat="49.02143" lon="1.13524">
        <ele>60.900002</ele>
        <time>2019-01-06T08:11:33Z</time>
      </trkpt>
      <trkpt lat="49.02139" lon="1.13506">
        <ele>61</ele>
        <time>2019-01-06T08:11:36Z</time>
      </trkpt>
      <trkpt lat="49.02135" lon="1.13491">
        <ele>61.200001</ele>
        <time>2019-01-06T08:11:39Z</time>
      </trkpt>
      <trkpt lat="49.02132" lon="1.13476">
        <ele>61.200001</ele>
        <time>2019-01-06T08:11:42Z</time>
      </trkpt>
      <trkpt lat="49.02128" lon="1.13462">
        <ele>61.299999</ele>
        <time>2019-01-06T08:11:45Z</time>
      </trkpt>
      <trkpt lat="49.02124" lon="1.13445">
        <ele>61.099998</ele>
        <time>2019-01-06T08:11:48Z</time>
      </trkpt>
      <trkpt lat="49.0212" lon="1.13431">
        <ele>61</ele>
        <time>2019-01-06T08:11:51Z</time>
      </trkpt>
      <trkpt lat="49.02116" lon="1.13414">
        <ele>61.200001</ele>
        <time>2019-01-06T08:11:54Z</time>
      </trkpt>
      <trkpt lat="49.02111" lon="1.13398">
        <ele>60.900002</ele>
        <time>2019-01-06T08:11:57Z</time>
      </trkpt>
      <trkpt lat="49.02106" lon="1.13381">
        <ele>60.900002</ele>
        <time>2019-01-06T08:12:00Z</time>
      </trkpt>
      <trkpt lat="49.02103" lon="1.13364">
        <ele>61.099998</ele>
        <time>2019-01-06T08:12:03Z</time>
      </trkpt>
      <trkpt lat="49.02098" lon="1.13347">
        <ele>61.299999</ele>
        <time>2019-01-06T08:12:06Z</time>
      </trkpt>
      <trkpt lat="49.02094" lon="1.13329">
        <ele>61.299999</ele>
        <time>2019-01-06T08:12:09Z</time>
      </trkpt>
      <trkpt lat="49.02089" lon="1.13312">
        <ele>61</ele>
        <time>2019-01-06T08:12:12Z</time>
      </trkpt>
      <trkpt lat="49.02085" lon="1.13295">
        <ele>61.099998</ele>
        <time>2019-01-06T08:12:15Z</time>
      </trkpt>
      <trkpt lat="49.02081" lon="1.1328">
        <ele>60.799999</ele>
        <time>2019-01-06T08:12:18Z</time>
      </trkpt>
      <trkpt lat="49.02077" lon="1.13266">
        <ele>60.900002</ele>
        <time>2019-01-06T08:12:22Z</time>
      </trkpt>
      <trkpt lat="49.02071" lon="1.13253">
        <ele>60.900002</ele>
        <time>2019-01-06T08:12:30Z</time>
      </trkpt>
      <trkpt lat="49.02065" lon="1.1324">
        <ele>61</ele>
        <time>2019-01-06T08:12:34Z</time>
      </trkpt>
      <trkpt lat="49.02064" lon="1.13225">
        <ele>60.900002</ele>
        <time>2019-01-06T08:12:41Z</time>
      </trkpt>
      <trkpt lat="49.02059" lon="1.13211">
        <ele>61</ele>
        <time>2019-01-06T08:12:45Z</time>
      </trkpt>
      <trkpt lat="49.02054" lon="1.13196">
        <ele>61.200001</ele>
        <time>2019-01-06T08:12:48Z</time>
      </trkpt>
      <trkpt lat="49.0205" lon="1.13183">
        <ele>61.200001</ele>
        <time>2019-01-06T08:12:50Z</time>
      </trkpt>
      <trkpt lat="49.02044" lon="1.13164">
        <ele>61.299999</ele>
        <time>2019-01-06T08:12:53Z</time>
      </trkpt>
      <trkpt lat="49.0204" lon="1.1315">
        <ele>61.299999</ele>
        <time>2019-01-06T08:12:55Z</time>
      </trkpt>
      <trkpt lat="49.02035" lon="1.13138">
        <ele>61.400002</ele>
        <time>2019-01-06T08:12:57Z</time>
      </trkpt>
      <trkpt lat="49.02031" lon="1.13125">
        <ele>61.400002</ele>
        <time>2019-01-06T08:12:59Z</time>
      </trkpt>
      <trkpt lat="49.02027" lon="1.13113">
        <ele>61.5</ele>
        <time>2019-01-06T08:13:01Z</time>
      </trkpt>
      <trkpt lat="49.02022" lon="1.13101">
        <ele>61.400002</ele>
        <time>2019-01-06T08:13:03Z</time>
      </trkpt>
      <trkpt lat="49.02018" lon="1.13089">
        <ele>61.299999</ele>
        <time>2019-01-06T08:13:05Z</time>
      </trkpt>
      <trkpt lat="49.02011" lon="1.13071">
        <ele>61.5</ele>
        <time>2019-01-06T08:13:08Z</time>
      </trkpt>
      <trkpt lat="49.02004" lon="1.13055">
        <ele>61.5</ele>
        <time>2019-01-06T08:13:11Z</time>
      </trkpt>
      <trkpt lat="49.02" lon="1.13043">
        <ele>61.599998</ele>
        <time>2019-01-06T08:13:13Z</time>
      </trkpt>
      <trkpt lat="49.01996" lon="1.1303">
        <ele>61.400002</ele>
        <time>2019-01-06T08:13:15Z</time>
      </trkpt>
      <trkpt lat="49.01991" lon="1.13011">
        <ele>61.400002</ele>
        <time>2019-01-06T08:13:18Z</time>
      </trkpt>
      <trkpt lat="49.01987" lon="1.12993">
        <ele>61.099998</ele>
        <time>2019-01-06T08:13:21Z</time>
      </trkpt>
      <trkpt lat="49.01984" lon="1.12973">
        <ele>61.5</ele>
        <time>2019-01-06T08:13:24Z</time>
      </trkpt>
      <trkpt lat="49.01981" lon="1.12957">
        <ele>61.599998</ele>
        <time>2019-01-06T08:13:27Z</time>
      </trkpt>
      <trkpt lat="49.01979" lon="1.12943">
        <ele>61.5</ele>
        <time>2019-01-06T08:13:32Z</time>
      </trkpt>
      <trkpt lat="49.01979" lon="1.12929">
        <ele>61.799999</ele>
        <time>2019-01-06T08:13:44Z</time>
      </trkpt>
      <trkpt lat="49.01969" lon="1.12934">
        <ele>61.599998</ele>
        <time>2019-01-06T08:13:49Z</time>
      </trkpt>
      <trkpt lat="49.01959" lon="1.1294">
        <ele>61.599998</ele>
        <time>2019-01-06T08:13:52Z</time>
      </trkpt>
      <trkpt lat="49.01949" lon="1.12946">
        <ele>61.599998</ele>
        <time>2019-01-06T08:13:55Z</time>
      </trkpt>
      <trkpt lat="49.01939" lon="1.12956">
        <ele>60.799999</ele>
        <time>2019-01-06T08:13:58Z</time>
      </trkpt>
      <trkpt lat="49.01929" lon="1.12964">
        <ele>60.700001</ele>
        <time>2019-01-06T08:14:01Z</time>
      </trkpt>
      <trkpt lat="49.01923" lon="1.12976">
        <ele>60.599998</ele>
        <time>2019-01-06T08:14:07Z</time>
      </trkpt>
      <trkpt lat="49.01923" lon="1.12992">
        <ele>60.5</ele>
        <time>2019-01-06T08:14:10Z</time>
      </trkpt>
      <trkpt lat="49.01925" lon="1.13012">
        <ele>60.599998</ele>
        <time>2019-01-06T08:14:13Z</time>
      </trkpt>
      <trkpt lat="49.01927" lon="1.1303">
        <ele>60.5</ele>
        <time>2019-01-06T08:14:16Z</time>
      </trkpt>
      <trkpt lat="49.01924" lon="1.13046">
        <ele>60.400002</ele>
        <time>2019-01-06T08:14:19Z</time>
      </trkpt>
      <trkpt lat="49.01912" lon="1.13053">
        <ele>60.5</ele>
        <time>2019-01-06T08:14:22Z</time>
      </trkpt>
      <trkpt lat="49.01901" lon="1.1306">
        <ele>60.599998</ele>
        <time>2019-01-06T08:14:25Z</time>
      </trkpt>
      <trkpt lat="49.01891" lon="1.13067">
        <ele>60.799999</ele>
        <time>2019-01-06T08:14:28Z</time>
      </trkpt>
      <trkpt lat="49.0188" lon="1.13074">
        <ele>60.799999</ele>
        <time>2019-01-06T08:14:31Z</time>
      </trkpt>
      <trkpt lat="49.01868" lon="1.13081">
        <ele>60.900002</ele>
        <time>2019-01-06T08:14:34Z</time>
      </trkpt>
      <trkpt lat="49.0186" lon="1.13087">
        <ele>61</ele>
        <time>2019-01-06T08:14:36Z</time>
      </trkpt>
      <trkpt lat="49.01848" lon="1.13094">
        <ele>61.099998</ele>
        <time>2019-01-06T08:14:39Z</time>
      </trkpt>
      <trkpt lat="49.01838" lon="1.13101">
        <ele>61.200001</ele>
        <time>2019-01-06T08:14:42Z</time>
      </trkpt>
      <trkpt lat="49.01826" lon="1.13107">
        <ele>61.200001</ele>
        <time>2019-01-06T08:14:45Z</time>
      </trkpt>
      <trkpt lat="49.01816" lon="1.13114">
        <ele>61.400002</ele>
        <time>2019-01-06T08:14:48Z</time>
      </trkpt>
      <trkpt lat="49.01806" lon="1.13119">
        <ele>61.400002</ele>
        <time>2019-01-06T08:14:51Z</time>
      </trkpt>
      <trkpt lat="49.01797" lon="1.13109">
        <ele>61.299999</ele>
        <time>2019-01-06T08:14:56Z</time>
      </trkpt>
      <trkpt lat="49.01794" lon="1.13093">
        <ele>61.400002</ele>
        <time>2019-01-06T08:14:59Z</time>
      </trkpt>
      <trkpt lat="49.01789" lon="1.13078">
        <ele>61.400002</ele>
        <time>2019-01-06T08:15:02Z</time>
      </trkpt>
      <trkpt lat="49.01785" lon="1.1306">
        <ele>61.5</ele>
        <time>2019-01-06T08:15:05Z</time>
      </trkpt>
      <trkpt lat="49.01778" lon="1.1304">
        <ele>61</ele>
        <time>2019-01-06T08:15:09Z</time>
      </trkpt>
      <trkpt lat="49.01769" lon="1.13034">
        <ele>61.599998</ele>
        <time>2019-01-06T08:15:12Z</time>
      </trkpt>
      <trkpt lat="49.01757" lon="1.13042">
        <ele>61.400002</ele>
        <time>2019-01-06T08:15:15Z</time>
      </trkpt>
      <trkpt lat="49.01749" lon="1.13052">
        <ele>61.200001</ele>
        <time>2019-01-06T08:15:18Z</time>
      </trkpt>
      <trkpt lat="49.01744" lon="1.13064">
        <ele>61.299999</ele>
        <time>2019-01-06T08:15:21Z</time>
      </trkpt>
      <trkpt lat="49.01736" lon="1.13077">
        <ele>61.099998</ele>
        <time>2019-01-06T08:15:24Z</time>
      </trkpt>
      <trkpt lat="49.01728" lon="1.1309">
        <ele>61</ele>
        <time>2019-01-06T08:15:27Z</time>
      </trkpt>
      <trkpt lat="49.01718" lon="1.13098">
        <ele>60.900002</ele>
        <time>2019-01-06T08:15:30Z</time>
      </trkpt>
      <trkpt lat="49.01706" lon="1.131">
        <ele>60.799999</ele>
        <time>2019-01-06T08:15:33Z</time>
      </trkpt>
      <trkpt lat="49.01694" lon="1.13102">
        <ele>61</ele>
        <time>2019-01-06T08:15:36Z</time>
      </trkpt>
      <trkpt lat="49.01683" lon="1.13105">
        <ele>61.299999</ele>
        <time>2019-01-06T08:15:39Z</time>
      </trkpt>
      <trkpt lat="49.01672" lon="1.13107">
        <ele>61.599998</ele>
        <time>2019-01-06T08:15:42Z</time>
      </trkpt>
      <trkpt lat="49.01661" lon="1.1311">
        <ele>61.900002</ele>
        <time>2019-01-06T08:15:45Z</time>
      </trkpt>
      <trkpt lat="49.01649" lon="1.13113">
        <ele>62.400002</ele>
        <time>2019-01-06T08:15:48Z</time>
      </trkpt>
      <trkpt lat="49.0164" lon="1.13108">
        <ele>63</ele>
        <time>2019-01-06T08:15:51Z</time>
      </trkpt>
      <trkpt lat="49.01634" lon="1.13095">
        <ele>63.700001</ele>
        <time>2019-01-06T08:15:54Z</time>
      </trkpt>
      <trkpt lat="49.01631" lon="1.13079">
        <ele>64.099998</ele>
        <time>2019-01-06T08:15:57Z</time>
      </trkpt>
      <trkpt lat="49.01628" lon="1.13061">
        <ele>64.300003</ele>
        <time>2019-01-06T08:16:00Z</time>
      </trkpt>
      <trkpt lat="49.01625" lon="1.13044">
        <ele>64.300003</ele>
        <time>2019-01-06T08:16:03Z</time>
      </trkpt>
      <trkpt lat="49.01622" lon="1.13025">
        <ele>64.400002</ele>
        <time>2019-01-06T08:16:06Z</time>
      </trkpt>
      <trkpt lat="49.01615" lon="1.13011">
        <ele>64.400002</ele>
        <time>2019-01-06T08:16:09Z</time>
      </trkpt>
      <trkpt lat="49.01607" lon="1.13001">
        <ele>64.699997</ele>
        <time>2019-01-06T08:16:12Z</time>
      </trkpt>
      <trkpt lat="49.01602" lon="1.12986">
        <ele>65.099998</ele>
        <time>2019-01-06T08:16:15Z</time>
      </trkpt>
      <trkpt lat="49.01598" lon="1.12972">
        <ele>65.599998</ele>
        <time>2019-01-06T08:16:18Z</time>
      </trkpt>
      <trkpt lat="49.01593" lon="1.12958">
        <ele>66.300003</ele>
        <time>2019-01-06T08:16:21Z</time>
      </trkpt>
      <trkpt lat="49.01586" lon="1.12947">
        <ele>66.900002</ele>
        <time>2019-01-06T08:16:24Z</time>
      </trkpt>
      <trkpt lat="49.01578" lon="1.1294">
        <ele>67.400002</ele>
        <time>2019-01-06T08:16:27Z</time>
      </trkpt>
      <trkpt lat="49.01568" lon="1.1294">
        <ele>69.400002</ele>
        <time>2019-01-06T08:16:33Z</time>
      </trkpt>
      <trkpt lat="49.01557" lon="1.12942">
        <ele>71.199997</ele>
        <time>2019-01-06T08:16:38Z</time>
      </trkpt>
      <trkpt lat="49.01548" lon="1.12933">
        <ele>71.199997</ele>
        <time>2019-01-06T08:16:42Z</time>
      </trkpt>
      <trkpt lat="49.0155" lon="1.12919">
        <ele>70.099998</ele>
        <time>2019-01-06T08:16:46Z</time>
      </trkpt>
      <trkpt lat="49.01548" lon="1.12904">
        <ele>69.599998</ele>
        <time>2019-01-06T08:16:50Z</time>
      </trkpt>
      <trkpt lat="49.0155" lon="1.12888">
        <ele>69.300003</ele>
        <time>2019-01-06T08:16:53Z</time>
      </trkpt>
      <trkpt lat="49.0155" lon="1.12871">
        <ele>69.300003</ele>
        <time>2019-01-06T08:16:56Z</time>
      </trkpt>
      <trkpt lat="49.01548" lon="1.12854">
        <ele>69</ele>
        <time>2019-01-06T08:16:59Z</time>
      </trkpt>
      <trkpt lat="49.0155" lon="1.12837">
        <ele>68.800003</ele>
        <time>2019-01-06T08:17:02Z</time>
      </trkpt>
      <trkpt lat="49.01551" lon="1.12823">
        <ele>68.5</ele>
        <time>2019-01-06T08:17:04Z</time>
      </trkpt>
      <trkpt lat="49.01552" lon="1.12803">
        <ele>68.199997</ele>
        <time>2019-01-06T08:17:07Z</time>
      </trkpt>
      <trkpt lat="49.01554" lon="1.12784">
        <ele>68</ele>
        <time>2019-01-06T08:17:10Z</time>
      </trkpt>
      <trkpt lat="49.01557" lon="1.12764">
        <ele>67.599998</ele>
        <time>2019-01-06T08:17:13Z</time>
      </trkpt>
      <trkpt lat="49.01559" lon="1.1275">
        <ele>67.099998</ele>
        <time>2019-01-06T08:17:15Z</time>
      </trkpt>
      <trkpt lat="49.01561" lon="1.12737">
        <ele>67</ele>
        <time>2019-01-06T08:17:17Z</time>
      </trkpt>
      <trkpt lat="49.01564" lon="1.12717">
        <ele>66.400002</ele>
        <time>2019-01-06T08:17:20Z</time>
      </trkpt>
      <trkpt lat="49.01566" lon="1.12704">
        <ele>66.199997</ele>
        <time>2019-01-06T08:17:22Z</time>
      </trkpt>
      <trkpt lat="49.0157" lon="1.12684">
        <ele>66.099998</ele>
        <time>2019-01-06T08:17:25Z</time>
      </trkpt>
      <trkpt lat="49.0157" lon="1.12668">
        <ele>65.900002</ele>
        <time>2019-01-06T08:17:28Z</time>
      </trkpt>
      <trkpt lat="49.01559" lon="1.12667">
        <ele>66.099998</ele>
        <time>2019-01-06T08:17:33Z</time>
      </trkpt>
      <trkpt lat="49.0155" lon="1.12671">
        <ele>67.199997</ele>
        <time>2019-01-06T08:17:38Z</time>
      </trkpt>
      <trkpt lat="49.0154" lon="1.12676">
        <ele>68.699997</ele>
        <time>2019-01-06T08:17:43Z</time>
      </trkpt>
      <trkpt lat="49.01531" lon="1.1268">
        <ele>70</ele>
        <time>2019-01-06T08:17:48Z</time>
      </trkpt>
      <trkpt lat="49.01521" lon="1.12687">
        <ele>72.199997</ele>
        <time>2019-01-06T08:17:56Z</time>
      </trkpt>
      <trkpt lat="49.0151" lon="1.12693">
        <ele>74.900002</ele>
        <time>2019-01-06T08:18:04Z</time>
      </trkpt>
      <trkpt lat="49.01501" lon="1.12696">
        <ele>75.699997</ele>
        <time>2019-01-06T08:18:08Z</time>
      </trkpt>
      <trkpt lat="49.01492" lon="1.12698">
        <ele>77.099998</ele>
        <time>2019-01-06T08:18:13Z</time>
      </trkpt>
      <trkpt lat="49.01484" lon="1.12709">
        <ele>79.400002</ele>
        <time>2019-01-06T08:18:20Z</time>
      </trkpt>
      <trkpt lat="49.01482" lon="1.12725">
        <ele>80.599998</ele>
        <time>2019-01-06T08:18:27Z</time>
      </trkpt>
      <trkpt lat="49.0148" lon="1.12739">
        <ele>81.599998</ele>
        <time>2019-01-06T08:18:32Z</time>
      </trkpt>
      <trkpt lat="49.01475" lon="1.12756">
        <ele>82.800003</ele>
        <time>2019-01-06T08:18:39Z</time>
      </trkpt>
      <trkpt lat="49.01474" lon="1.12772">
        <ele>84.199997</ele>
        <time>2019-01-06T08:18:46Z</time>
      </trkpt>
      <trkpt lat="49.01473" lon="1.12788">
        <ele>85.300003</ele>
        <time>2019-01-06T08:18:52Z</time>
      </trkpt>
      <trkpt lat="49.01472" lon="1.12804">
        <ele>86.699997</ele>
        <time>2019-01-06T08:18:58Z</time>
      </trkpt>
      <trkpt lat="49.01468" lon="1.1282">
        <ele>87.900002</ele>
        <time>2019-01-06T08:19:04Z</time>
      </trkpt>
      <trkpt lat="49.01471" lon="1.12834">
        <ele>89.199997</ele>
        <time>2019-01-06T08:19:09Z</time>
      </trkpt>
      <trkpt lat="49.0147" lon="1.12849">
        <ele>89.800003</ele>
        <time>2019-01-06T08:19:14Z</time>
      </trkpt>
      <trkpt lat="49.0147" lon="1.12865">
        <ele>90.699997</ele>
        <time>2019-01-06T08:19:19Z</time>
      </trkpt>
      <trkpt lat="49.01467" lon="1.12879">
        <ele>91.800003</ele>
        <time>2019-01-06T08:19:24Z</time>
      </trkpt>
      <trkpt lat="49.01465" lon="1.12894">
        <ele>93.300003</ele>
        <time>2019-01-06T08:19:30Z</time>
      </trkpt>
      <trkpt lat="49.01463" lon="1.12909">
        <ele>94.300003</ele>
        <time>2019-01-06T08:19:36Z</time>
      </trkpt>
      <trkpt lat="49.01466" lon="1.12922">
        <ele>95</ele>
        <time>2019-01-06T08:19:42Z</time>
      </trkpt>
      <trkpt lat="49.01468" lon="1.12936">
        <ele>96</ele>
        <time>2019-01-06T08:19:51Z</time>
      </trkpt>
      <trkpt lat="49.01469" lon="1.1295">
        <ele>94.199997</ele>
        <time>2019-01-06T08:19:59Z</time>
      </trkpt>
      <trkpt lat="49.01466" lon="1.12963">
        <ele>90.800003</ele>
        <time>2019-01-06T08:20:05Z</time>
      </trkpt>
      <trkpt lat="49.01457" lon="1.12966">
        <ele>89.099998</ele>
        <time>2019-01-06T08:20:10Z</time>
      </trkpt>
      <trkpt lat="49.01446" lon="1.1297">
        <ele>89.5</ele>
        <time>2019-01-06T08:20:14Z</time>
      </trkpt>
      <trkpt lat="49.01434" lon="1.12971">
        <ele>90.099998</ele>
        <time>2019-01-06T08:20:20Z</time>
      </trkpt>
      <trkpt lat="49.01424" lon="1.1297">
        <ele>91</ele>
        <time>2019-01-06T08:20:25Z</time>
      </trkpt>
      <trkpt lat="49.01414" lon="1.1297">
        <ele>92.199997</ele>
        <time>2019-01-06T08:20:29Z</time>
      </trkpt>
      <trkpt lat="49.01405" lon="1.12966">
        <ele>93.699997</ele>
        <time>2019-01-06T08:20:35Z</time>
      </trkpt>
      <trkpt lat="49.01396" lon="1.12962">
        <ele>94.900002</ele>
        <time>2019-01-06T08:20:41Z</time>
      </trkpt>
      <trkpt lat="49.01385" lon="1.12963">
        <ele>96.400002</ele>
        <time>2019-01-06T08:20:48Z</time>
      </trkpt>
      <trkpt lat="49.01375" lon="1.12965">
        <ele>97.599998</ele>
        <time>2019-01-06T08:20:53Z</time>
      </trkpt>
      <trkpt lat="49.01365" lon="1.12964">
        <ele>98.900002</ele>
        <time>2019-01-06T08:20:58Z</time>
      </trkpt>
      <trkpt lat="49.01355" lon="1.12962">
        <ele>100.199997</ele>
        <time>2019-01-06T08:21:03Z</time>
      </trkpt>
      <trkpt lat="49.01345" lon="1.12961">
        <ele>101.5</ele>
        <time>2019-01-06T08:21:09Z</time>
      </trkpt>
      <trkpt lat="49.01335" lon="1.12964">
        <ele>102.800003</ele>
        <time>2019-01-06T08:21:14Z</time>
      </trkpt>
      <trkpt lat="49.01326" lon="1.12968">
        <ele>104.5</ele>
        <time>2019-01-06T08:21:20Z</time>
      </trkpt>
      <trkpt lat="49.01317" lon="1.12975">
        <ele>105.699997</ele>
        <time>2019-01-06T08:21:25Z</time>
      </trkpt>
      <trkpt lat="49.01308" lon="1.12982">
        <ele>107.199997</ele>
        <time>2019-01-06T08:21:30Z</time>
      </trkpt>
      <trkpt lat="49.01299" lon="1.12988">
        <ele>108.400002</ele>
        <time>2019-01-06T08:21:35Z</time>
      </trkpt>
      <trkpt lat="49.01292" lon="1.12995">
        <ele>109.900002</ele>
        <time>2019-01-06T08:21:40Z</time>
      </trkpt>
      <trkpt lat="49.01284" lon="1.13006">
        <ele>111.300003</ele>
        <time>2019-01-06T08:21:45Z</time>
      </trkpt>
      <trkpt lat="49.01276" lon="1.13011">
        <ele>112.5</ele>
        <time>2019-01-06T08:21:51Z</time>
      </trkpt>
      <trkpt lat="49.01271" lon="1.12999">
        <ele>114.400002</ele>
        <time>2019-01-06T08:21:57Z</time>
      </trkpt>
      <trkpt lat="49.01267" lon="1.12984">
        <ele>115.699997</ele>
        <time>2019-01-06T08:22:02Z</time>
      </trkpt>
      <trkpt lat="49.01264" lon="1.1297">
        <ele>116.400002</ele>
        <time>2019-01-06T08:22:06Z</time>
      </trkpt>
      <trkpt lat="49.0126" lon="1.12955">
        <ele>117.5</ele>
        <time>2019-01-06T08:22:11Z</time>
      </trkpt>
      <trkpt lat="49.01253" lon="1.12945">
        <ele>118.199997</ele>
        <time>2019-01-06T08:22:15Z</time>
      </trkpt>
      <trkpt lat="49.01249" lon="1.12959">
        <ele>118.599998</ele>
        <time>2019-01-06T08:22:21Z</time>
      </trkpt>
      <trkpt lat="49.01254" lon="1.12948">
        <ele>118.5</ele>
        <time>2019-01-06T08:22:31Z</time>
      </trkpt>
      <trkpt lat="49.01246" lon="1.12956">
        <ele>118.800003</ele>
        <time>2019-01-06T08:22:41Z</time>
      </trkpt>
      <trkpt lat="49.01252" lon="1.12944">
        <ele>118.5</ele>
        <time>2019-01-06T08:22:47Z</time>
      </trkpt>
      <trkpt lat="49.01247" lon="1.12957">
        <ele>119.199997</ele>
        <time>2019-01-06T08:23:01Z</time>
      </trkpt>
      <trkpt lat="49.0125" lon="1.12943">
        <ele>118.800003</ele>
        <time>2019-01-06T08:23:06Z</time>
      </trkpt>
      <trkpt lat="49.01246" lon="1.12958">
        <ele>118.800003</ele>
        <time>2019-01-06T08:23:14Z</time>
      </trkpt>
      <trkpt lat="49.01253" lon="1.1295">
        <ele>118.699997</ele>
        <time>2019-01-06T08:23:24Z</time>
      </trkpt>
      <trkpt lat="49.01244" lon="1.12947">
        <ele>119</ele>
        <time>2019-01-06T08:25:59Z</time>
      </trkpt>
      <trkpt lat="49.01234" lon="1.12946">
        <ele>119</ele>
        <time>2019-01-06T08:26:04Z</time>
      </trkpt>
      <trkpt lat="49.01225" lon="1.12943">
        <ele>119.099998</ele>
        <time>2019-01-06T08:26:09Z</time>
      </trkpt>
      <trkpt lat="49.01215" lon="1.12943">
        <ele>119.400002</ele>
        <time>2019-01-06T08:26:14Z</time>
      </trkpt>
      <trkpt lat="49.01205" lon="1.12943">
        <ele>119.699997</ele>
        <time>2019-01-06T08:26:18Z</time>
      </trkpt>
      <trkpt lat="49.01194" lon="1.12944">
        <ele>120.5</ele>
        <time>2019-01-06T08:26:23Z</time>
      </trkpt>
      <trkpt lat="49.01183" lon="1.12943">
        <ele>121.400002</ele>
        <time>2019-01-06T08:26:28Z</time>
      </trkpt>
      <trkpt lat="49.01171" lon="1.1294">
        <ele>122</ele>
        <time>2019-01-06T08:26:33Z</time>
      </trkpt>
      <trkpt lat="49.01161" lon="1.12939">
        <ele>122.099998</ele>
        <time>2019-01-06T08:26:36Z</time>
      </trkpt>
      <trkpt lat="49.01151" lon="1.12939">
        <ele>122.099998</ele>
        <time>2019-01-06T08:26:39Z</time>
      </trkpt>
      <trkpt lat="49.0114" lon="1.12932">
        <ele>122.400002</ele>
        <time>2019-01-06T08:26:43Z</time>
      </trkpt>
      <trkpt lat="49.01132" lon="1.12927">
        <ele>122.300003</ele>
        <time>2019-01-06T08:26:46Z</time>
      </trkpt>
      <trkpt lat="49.01123" lon="1.12917">
        <ele>122.5</ele>
        <time>2019-01-06T08:26:50Z</time>
      </trkpt>
      <trkpt lat="49.01115" lon="1.12906">
        <ele>123.099998</ele>
        <time>2019-01-06T08:26:54Z</time>
      </trkpt>
      <trkpt lat="49.01106" lon="1.12894">
        <ele>123.300003</ele>
        <time>2019-01-06T08:26:58Z</time>
      </trkpt>
      <trkpt lat="49.01098" lon="1.12883">
        <ele>123.5</ele>
        <time>2019-01-06T08:27:02Z</time>
      </trkpt>
      <trkpt lat="49.0109" lon="1.1287">
        <ele>123.900002</ele>
        <time>2019-01-06T08:27:06Z</time>
      </trkpt>
      <trkpt lat="49.01083" lon="1.1286">
        <ele>124</ele>
        <time>2019-01-06T08:27:09Z</time>
      </trkpt>
      <trkpt lat="49.01075" lon="1.12851">
        <ele>124.099998</ele>
        <time>2019-01-06T08:27:12Z</time>
      </trkpt>
      <trkpt lat="49.01067" lon="1.12842">
        <ele>123.800003</ele>
        <time>2019-01-06T08:27:15Z</time>
      </trkpt>
      <trkpt lat="49.01059" lon="1.12833">
        <ele>123.800003</ele>
        <time>2019-01-06T08:27:18Z</time>
      </trkpt>
      <trkpt lat="49.01053" lon="1.12822">
        <ele>124.099998</ele>
        <time>2019-01-06T08:27:21Z</time>
      </trkpt>
      <trkpt lat="49.01046" lon="1.12813">
        <ele>124.5</ele>
        <time>2019-01-06T08:27:24Z</time>
      </trkpt>
      <trkpt lat="49.01039" lon="1.12801">
        <ele>124.900002</ele>
        <time>2019-01-06T08:27:28Z</time>
      </trkpt>
      <trkpt lat="49.01031" lon="1.1279">
        <ele>124.900002</ele>
        <time>2019-01-06T08:27:31Z</time>
      </trkpt>
      <trkpt lat="49.01024" lon="1.12778">
        <ele>124.800003</ele>
        <time>2019-01-06T08:27:34Z</time>
      </trkpt>
      <trkpt lat="49.01016" lon="1.12767">
        <ele>124.900002</ele>
        <time>2019-01-06T08:27:37Z</time>
      </trkpt>
      <trkpt lat="49.01009" lon="1.12758">
        <ele>125.300003</ele>
        <time>2019-01-06T08:27:40Z</time>
      </trkpt>
      <trkpt lat="49.01002" lon="1.12747">
        <ele>125.599998</ele>
        <time>2019-01-06T08:27:43Z</time>
      </trkpt>
      <trkpt lat="49.00995" lon="1.12737">
        <ele>125.599998</ele>
        <time>2019-01-06T08:27:46Z</time>
      </trkpt>
      <trkpt lat="49.00987" lon="1.12728">
        <ele>125.800003</ele>
        <time>2019-01-06T08:27:49Z</time>
      </trkpt>
      <trkpt lat="49.00979" lon="1.12718">
        <ele>126.099998</ele>
        <time>2019-01-06T08:27:52Z</time>
      </trkpt>
      <trkpt lat="49.00972" lon="1.12708">
        <ele>126.300003</ele>
        <time>2019-01-06T08:27:55Z</time>
      </trkpt>
      <trkpt lat="49.00966" lon="1.12694">
        <ele>126.599998</ele>
        <time>2019-01-06T08:27:58Z</time>
      </trkpt>
      <trkpt lat="49.00959" lon="1.12683">
        <ele>126.900002</ele>
        <time>2019-01-06T08:28:01Z</time>
      </trkpt>
      <trkpt lat="49.00952" lon="1.12673">
        <ele>127</ele>
        <time>2019-01-06T08:28:04Z</time>
      </trkpt>
      <trkpt lat="49.00944" lon="1.12661">
        <ele>127.300003</ele>
        <time>2019-01-06T08:28:07Z</time>
      </trkpt>
      <trkpt lat="49.00936" lon="1.12649">
        <ele>127.199997</ele>
        <time>2019-01-06T08:28:10Z</time>
      </trkpt>
      <trkpt lat="49.00928" lon="1.12639">
        <ele>127.599998</ele>
        <time>2019-01-06T08:28:13Z</time>
      </trkpt>
      <trkpt lat="49.00921" lon="1.12628">
        <ele>127.900002</ele>
        <time>2019-01-06T08:28:16Z</time>
      </trkpt>
      <trkpt lat="49.00914" lon="1.12616">
        <ele>128.199997</ele>
        <time>2019-01-06T08:28:19Z</time>
      </trkpt>
      <trkpt lat="49.00906" lon="1.12604">
        <ele>128.199997</ele>
        <time>2019-01-06T08:28:22Z</time>
      </trkpt>
      <trkpt lat="49.009" lon="1.12593">
        <ele>128.5</ele>
        <time>2019-01-06T08:28:25Z</time>
      </trkpt>
      <trkpt lat="49.00893" lon="1.1258">
        <ele>128.600006</ele>
        <time>2019-01-06T08:28:28Z</time>
      </trkpt>
      <trkpt lat="49.00883" lon="1.1257">
        <ele>128.600006</ele>
        <time>2019-01-06T08:28:31Z</time>
      </trkpt>
      <trkpt lat="49.00875" lon="1.12559">
        <ele>129.199997</ele>
        <time>2019-01-06T08:28:34Z</time>
      </trkpt>
      <trkpt lat="49.00866" lon="1.12548">
        <ele>128.600006</ele>
        <time>2019-01-06T08:28:37Z</time>
      </trkpt>
      <trkpt lat="49.00856" lon="1.12536">
        <ele>129.100006</ele>
        <time>2019-01-06T08:28:40Z</time>
      </trkpt>
      <trkpt lat="49.00847" lon="1.12525">
        <ele>128.5</ele>
        <time>2019-01-06T08:28:43Z</time>
      </trkpt>
      <trkpt lat="49.00837" lon="1.12512">
        <ele>128.300003</ele>
        <time>2019-01-06T08:28:46Z</time>
      </trkpt>
      <trkpt lat="49.00826" lon="1.125">
        <ele>128.300003</ele>
        <time>2019-01-06T08:28:49Z</time>
      </trkpt>
      <trkpt lat="49.00818" lon="1.12492">
        <ele>128</ele>
        <time>2019-01-06T08:28:51Z</time>
      </trkpt>
      <trkpt lat="49.00807" lon="1.12481">
        <ele>128.399994</ele>
        <time>2019-01-06T08:28:54Z</time>
      </trkpt>
      <trkpt lat="49.00799" lon="1.12475">
        <ele>128.300003</ele>
        <time>2019-01-06T08:28:56Z</time>
      </trkpt>
      <trkpt lat="49.0079" lon="1.12469">
        <ele>128.300003</ele>
        <time>2019-01-06T08:28:58Z</time>
      </trkpt>
      <trkpt lat="49.0078" lon="1.12459">
        <ele>128.100006</ele>
        <time>2019-01-06T08:29:01Z</time>
      </trkpt>
      <trkpt lat="49.00769" lon="1.12449">
        <ele>127.699997</ele>
        <time>2019-01-06T08:29:04Z</time>
      </trkpt>
      <trkpt lat="49.00757" lon="1.1244">
        <ele>128</ele>
        <time>2019-01-06T08:29:07Z</time>
      </trkpt>
      <trkpt lat="49.00744" lon="1.12433">
        <ele>127.199997</ele>
        <time>2019-01-06T08:29:10Z</time>
      </trkpt>
      <trkpt lat="49.00733" lon="1.12428">
        <ele>127.400002</ele>
        <time>2019-01-06T08:29:13Z</time>
      </trkpt>
      <trkpt lat="49.0072" lon="1.12424">
        <ele>127.400002</ele>
        <time>2019-01-06T08:29:16Z</time>
      </trkpt>
      <trkpt lat="49.00711" lon="1.12419">
        <ele>127</ele>
        <time>2019-01-06T08:29:18Z</time>
      </trkpt>
      <trkpt lat="49.00698" lon="1.12415">
        <ele>126.900002</ele>
        <time>2019-01-06T08:29:21Z</time>
      </trkpt>
      <trkpt lat="49.00686" lon="1.12412">
        <ele>126.5</ele>
        <time>2019-01-06T08:29:24Z</time>
      </trkpt>
      <trkpt lat="49.00673" lon="1.12408">
        <ele>126.099998</ele>
        <time>2019-01-06T08:29:27Z</time>
      </trkpt>
      <trkpt lat="49.00664" lon="1.12405">
        <ele>126</ele>
        <time>2019-01-06T08:29:29Z</time>
      </trkpt>
      <trkpt lat="49.00654" lon="1.12402">
        <ele>126.099998</ele>
        <time>2019-01-06T08:29:31Z</time>
      </trkpt>
      <trkpt lat="49.00644" lon="1.12397">
        <ele>126</ele>
        <time>2019-01-06T08:29:33Z</time>
      </trkpt>
      <trkpt lat="49.00632" lon="1.12394">
        <ele>125.900002</ele>
        <time>2019-01-06T08:29:35Z</time>
      </trkpt>
      <trkpt lat="49.00622" lon="1.12391">
        <ele>125.300003</ele>
        <time>2019-01-06T08:29:37Z</time>
      </trkpt>
      <trkpt lat="49.00612" lon="1.12387">
        <ele>125.199997</ele>
        <time>2019-01-06T08:29:39Z</time>
      </trkpt>
      <trkpt lat="49.00601" lon="1.12377">
        <ele>124.800003</ele>
        <time>2019-01-06T08:29:42Z</time>
      </trkpt>
      <trkpt lat="49.0059" lon="1.12365">
        <ele>124.599998</ele>
        <time>2019-01-06T08:29:45Z</time>
      </trkpt>
      <trkpt lat="49.00583" lon="1.12357">
        <ele>124.300003</ele>
        <time>2019-01-06T08:29:47Z</time>
      </trkpt>
      <trkpt lat="49.00574" lon="1.12348">
        <ele>124.099998</ele>
        <time>2019-01-06T08:29:49Z</time>
      </trkpt>
      <trkpt lat="49.00566" lon="1.12339">
        <ele>124</ele>
        <time>2019-01-06T08:29:51Z</time>
      </trkpt>
      <trkpt lat="49.00557" lon="1.1233">
        <ele>123.800003</ele>
        <time>2019-01-06T08:29:53Z</time>
      </trkpt>
      <trkpt lat="49.00548" lon="1.12321">
        <ele>123.400002</ele>
        <time>2019-01-06T08:29:55Z</time>
      </trkpt>
      <trkpt lat="49.00538" lon="1.12311">
        <ele>123.400002</ele>
        <time>2019-01-06T08:29:57Z</time>
      </trkpt>
      <trkpt lat="49.00529" lon="1.12301">
        <ele>122.699997</ele>
        <time>2019-01-06T08:29:59Z</time>
      </trkpt>
      <trkpt lat="49.00521" lon="1.12291">
        <ele>121.900002</ele>
        <time>2019-01-06T08:30:01Z</time>
      </trkpt>
      <trkpt lat="49.00512" lon="1.12283">
        <ele>121.199997</ele>
        <time>2019-01-06T08:30:03Z</time>
      </trkpt>
      <trkpt lat="49.00504" lon="1.12276">
        <ele>120.800003</ele>
        <time>2019-01-06T08:30:05Z</time>
      </trkpt>
      <trkpt lat="49.0049" lon="1.12271">
        <ele>119.099998</ele>
        <time>2019-01-06T08:30:08Z</time>
      </trkpt>
      <trkpt lat="49.0048" lon="1.12266">
        <ele>119.199997</ele>
        <time>2019-01-06T08:30:10Z</time>
      </trkpt>
      <trkpt lat="49.00474" lon="1.12255">
        <ele>118.900002</ele>
        <time>2019-01-06T08:30:12Z</time>
      </trkpt>
      <trkpt lat="49.00472" lon="1.12239">
        <ele>118.699997</ele>
        <time>2019-01-06T08:30:15Z</time>
      </trkpt>
      <trkpt lat="49.00471" lon="1.12225">
        <ele>119</ele>
        <time>2019-01-06T08:30:18Z</time>
      </trkpt>
      <trkpt lat="49.00471" lon="1.1221">
        <ele>120.400002</ele>
        <time>2019-01-06T08:30:21Z</time>
      </trkpt>
      <trkpt lat="49.00473" lon="1.12194">
        <ele>121.400002</ele>
        <time>2019-01-06T08:30:24Z</time>
      </trkpt>
      <trkpt lat="49.00474" lon="1.12177">
        <ele>121.599998</ele>
        <time>2019-01-06T08:30:27Z</time>
      </trkpt>
      <trkpt lat="49.00475" lon="1.1216">
        <ele>121.699997</ele>
        <time>2019-01-06T08:30:30Z</time>
      </trkpt>
      <trkpt lat="49.00475" lon="1.12144">
        <ele>122</ele>
        <time>2019-01-06T08:30:33Z</time>
      </trkpt>
      <trkpt lat="49.00476" lon="1.1213">
        <ele>122.199997</ele>
        <time>2019-01-06T08:30:36Z</time>
      </trkpt>
      <trkpt lat="49.00477" lon="1.12114">
        <ele>122.300003</ele>
        <time>2019-01-06T08:30:39Z</time>
      </trkpt>
      <trkpt lat="49.00478" lon="1.12096">
        <ele>122.800003</ele>
        <time>2019-01-06T08:30:42Z</time>
      </trkpt>
      <trkpt lat="49.00481" lon="1.12077">
        <ele>122.900002</ele>
        <time>2019-01-06T08:30:45Z</time>
      </trkpt>
      <trkpt lat="49.00482" lon="1.12061">
        <ele>123.199997</ele>
        <time>2019-01-06T08:30:48Z</time>
      </trkpt>
      <trkpt lat="49.0048" lon="1.12046">
        <ele>123</ele>
        <time>2019-01-06T08:30:52Z</time>
      </trkpt>
      <trkpt lat="49.00468" lon="1.12044">
        <ele>122.800003</ele>
        <time>2019-01-06T08:30:56Z</time>
      </trkpt>
      <trkpt lat="49.00459" lon="1.12045">
        <ele>122.400002</ele>
        <time>2019-01-06T08:30:59Z</time>
      </trkpt>
      <trkpt lat="49.00449" lon="1.1205">
        <ele>122.400002</ele>
        <time>2019-01-06T08:31:02Z</time>
      </trkpt>
      <trkpt lat="49.00438" lon="1.12054">
        <ele>121.699997</ele>
        <time>2019-01-06T08:31:05Z</time>
      </trkpt>
      <trkpt lat="49.00428" lon="1.12058">
        <ele>121.5</ele>
        <time>2019-01-06T08:31:08Z</time>
      </trkpt>
      <trkpt lat="49.00418" lon="1.12062">
        <ele>120.699997</ele>
        <time>2019-01-06T08:31:11Z</time>
      </trkpt>
      <trkpt lat="49.00407" lon="1.12061">
        <ele>119.699997</ele>
        <time>2019-01-06T08:31:14Z</time>
      </trkpt>
      <trkpt lat="49.00397" lon="1.12066">
        <ele>118</ele>
        <time>2019-01-06T08:31:18Z</time>
      </trkpt>
      <trkpt lat="49.00387" lon="1.12069">
        <ele>116.400002</ele>
        <time>2019-01-06T08:31:22Z</time>
      </trkpt>
      <trkpt lat="49.00378" lon="1.12074">
        <ele>116.300003</ele>
        <time>2019-01-06T08:31:25Z</time>
      </trkpt>
      <trkpt lat="49.00368" lon="1.12079">
        <ele>115.300003</ele>
        <time>2019-01-06T08:31:28Z</time>
      </trkpt>
      <trkpt lat="49.00357" lon="1.12086">
        <ele>114.900002</ele>
        <time>2019-01-06T08:31:31Z</time>
      </trkpt>
      <trkpt lat="49.00347" lon="1.12083">
        <ele>114.400002</ele>
        <time>2019-01-06T08:31:34Z</time>
      </trkpt>
      <trkpt lat="49.00337" lon="1.1208">
        <ele>113.599998</ele>
        <time>2019-01-06T08:31:38Z</time>
      </trkpt>
      <trkpt lat="49.00328" lon="1.12081">
        <ele>112.599998</ele>
        <time>2019-01-06T08:31:42Z</time>
      </trkpt>
      <trkpt lat="49.00317" lon="1.12085">
        <ele>112.400002</ele>
        <time>2019-01-06T08:31:46Z</time>
      </trkpt>
      <trkpt lat="49.0031" lon="1.12097">
        <ele>112.5</ele>
        <time>2019-01-06T08:31:52Z</time>
      </trkpt>
      <trkpt lat="49.00306" lon="1.1211">
        <ele>111.099998</ele>
        <time>2019-01-06T08:31:55Z</time>
      </trkpt>
      <trkpt lat="49.00302" lon="1.12124">
        <ele>110.800003</ele>
        <time>2019-01-06T08:31:59Z</time>
      </trkpt>
      <trkpt lat="49.00295" lon="1.12132">
        <ele>108.599998</ele>
        <time>2019-01-06T08:32:03Z</time>
      </trkpt>
      <trkpt lat="49.00285" lon="1.12136">
        <ele>106.699997</ele>
        <time>2019-01-06T08:32:08Z</time>
      </trkpt>
      <trkpt lat="49.00276" lon="1.12137">
        <ele>104.599998</ele>
        <time>2019-01-06T08:32:16Z</time>
      </trkpt>
      <trkpt lat="49.00265" lon="1.1214">
        <ele>102.199997</ele>
        <time>2019-01-06T08:32:21Z</time>
      </trkpt>
      <trkpt lat="49.00275" lon="1.12168">
        <ele>125.108604</ele>
        <time>2019-01-06T08:32:28Z</time>
      </trkpt>
      <trkpt lat="49.00297" lon="1.12184">
        <ele>127.163322</ele>
        <time>2019-01-06T08:32:33Z</time>
      </trkpt>
      <trkpt lat="49.0033" lon="1.122">
        <ele>129.745697</ele>
        <time>2019-01-06T08:32:38Z</time>
      </trkpt>
      <trkpt lat="49.00329" lon="1.12231">
        <ele>129.712784</ele>
        <time>2019-01-06T08:32:42Z</time>
      </trkpt>
      <trkpt lat="49.00298" lon="1.12257">
        <ele>127.930878</ele>
        <time>2019-01-06T08:32:46Z</time>
      </trkpt>
      <trkpt lat="49.00254" lon="1.12245">
        <ele>125.136345</ele>
        <time>2019-01-06T08:32:49Z</time>
      </trkpt>
      <trkpt lat="49.00211" lon="1.12205">
        <ele>122.148598</ele>
        <time>2019-01-06T08:32:54Z</time>
      </trkpt>
      <trkpt lat="49.00154" lon="1.12146">
        <ele>114.525467</ele>
        <time>2019-01-06T08:33:22Z</time>
      </trkpt>
      <trkpt lat="49.0013" lon="1.12121">
        <ele>111.584488</ele>
        <time>2019-01-06T08:33:25Z</time>
      </trkpt>
      <trkpt lat="49.00138" lon="1.12097">
        <ele>109.735268</ele>
        <time>2019-01-06T08:33:27Z</time>
      </trkpt>
      <trkpt lat="49.00135" lon="1.12081">
        <ele>108.559006</ele>
        <time>2019-01-06T08:33:29Z</time>
      </trkpt>
      <trkpt lat="49.00122" lon="1.12065">
        <ele>108.169945</ele>
        <time>2019-01-06T08:33:31Z</time>
      </trkpt>
      <trkpt lat="49.00111" lon="1.1204">
        <ele>107.989098</ele>
        <time>2019-01-06T08:33:33Z</time>
      </trkpt>
      <trkpt lat="49.00105" lon="1.12026">
        <ele>108.057495</ele>
        <time>2019-01-06T08:33:35Z</time>
      </trkpt>
      <trkpt lat="49.0011" lon="1.11995">
        <ele>107.95443</ele>
        <time>2019-01-06T08:33:37Z</time>
      </trkpt>
      <trkpt lat="49.00121" lon="1.11947">
        <ele>109.093697</ele>
        <time>2019-01-06T08:33:39Z</time>
      </trkpt>
      <trkpt lat="49.00094" lon="1.11915">
        <ele>114.492546</ele>
        <time>2019-01-06T08:33:41Z</time>
      </trkpt>
      <trkpt lat="49.00084" lon="1.11864">
        <ele>119.644287</ele>
        <time>2019-01-06T08:33:43Z</time>
      </trkpt>
      <trkpt lat="49.00074" lon="1.1179">
        <ele>124.375786</ele>
        <time>2019-01-06T08:33:45Z</time>
      </trkpt>
      <trkpt lat="49.00057" lon="1.11723">
        <ele>127.300293</ele>
        <time>2019-01-06T08:33:47Z</time>
      </trkpt>
      <trkpt lat="49.0004" lon="1.11647">
        <ele>129.627945</ele>
        <time>2019-01-06T08:33:49Z</time>
      </trkpt>
      <trkpt lat="49.00025" lon="1.11569">
        <ele>131.849762</ele>
        <time>2019-01-06T08:33:51Z</time>
      </trkpt>
      <trkpt lat="49.00012" lon="1.11506">
        <ele>131.50061</ele>
        <time>2019-01-06T08:33:53Z</time>
      </trkpt>
      <trkpt lat="49.00023" lon="1.115">
        <ele>130.877197</ele>
        <time>2019-01-06T08:33:55Z</time>
      </trkpt>
      <trkpt lat="49.00031" lon="1.11487">
        <ele>130.094727</ele>
        <time>2019-01-06T08:33:57Z</time>
      </trkpt>
      <trkpt lat="49.00027" lon="1.11466">
        <ele>129.589767</ele>
        <time>2019-01-06T08:33:59Z</time>
      </trkpt>
      <trkpt lat="49.00029" lon="1.11438">
        <ele>128.587997</ele>
        <time>2019-01-06T08:34:01Z</time>
      </trkpt>
      <trkpt lat="49.00013" lon="1.11394">
        <ele>127.323326</ele>
        <time>2019-01-06T08:34:03Z</time>
      </trkpt>
      <trkpt lat="49.00006" lon="1.1136">
        <ele>125.424202</ele>
        <time>2019-01-06T08:34:05Z</time>
      </trkpt>
      <trkpt lat="49.00016" lon="1.11329">
        <ele>122.104736</ele>
        <time>2019-01-06T08:34:07Z</time>
      </trkpt>
      <trkpt lat="49.00015" lon="1.11285">
        <ele>116.932907</ele>
        <time>2019-01-06T08:34:09Z</time>
      </trkpt>
      <trkpt lat="49.0002" lon="1.11242">
        <ele>110.806305</ele>
        <time>2019-01-06T08:34:11Z</time>
      </trkpt>
      <trkpt lat="49.00027" lon="1.11189">
        <ele>101.987747</ele>
        <time>2019-01-06T08:34:15Z</time>
      </trkpt>
      <trkpt lat="49.00025" lon="1.11177">
        <ele>98.699997</ele>
        <time>2019-01-06T08:37:54Z</time>
      </trkpt>
      <trkpt lat="49.00016" lon="1.11168">
        <ele>99.400002</ele>
        <time>2019-01-06T08:37:58Z</time>
      </trkpt>
      <trkpt lat="49.00006" lon="1.11161">
        <ele>99.900002</ele>
        <time>2019-01-06T08:38:02Z</time>
      </trkpt>
      <trkpt lat="48.99996" lon="1.11157">
        <ele>101</ele>
        <time>2019-01-06T08:38:07Z</time>
      </trkpt>
      <trkpt lat="48.99988" lon="1.11162">
        <ele>102.099998</ele>
        <time>2019-01-06T08:38:12Z</time>
      </trkpt>
      <trkpt lat="48.9998" lon="1.11173">
        <ele>103.900002</ele>
        <time>2019-01-06T08:38:20Z</time>
      </trkpt>
      <trkpt lat="48.99974" lon="1.11184">
        <ele>105.400002</ele>
        <time>2019-01-06T08:38:25Z</time>
      </trkpt>
      <trkpt lat="48.99969" lon="1.11198">
        <ele>106.900002</ele>
        <time>2019-01-06T08:38:31Z</time>
      </trkpt>
      <trkpt lat="48.99965" lon="1.11211">
        <ele>108.099998</ele>
        <time>2019-01-06T08:38:36Z</time>
      </trkpt>
      <trkpt lat="48.99961" lon="1.11223">
        <ele>109.900002</ele>
        <time>2019-01-06T08:38:42Z</time>
      </trkpt>
      <trkpt lat="48.99955" lon="1.11235">
        <ele>111.099998</ele>
        <time>2019-01-06T08:38:48Z</time>
      </trkpt>
      <trkpt lat="48.99948" lon="1.11247">
        <ele>112.300003</ele>
        <time>2019-01-06T08:38:56Z</time>
      </trkpt>
      <trkpt lat="48.99941" lon="1.11258">
        <ele>113.099998</ele>
        <time>2019-01-06T08:39:03Z</time>
      </trkpt>
      <trkpt lat="48.99932" lon="1.11263">
        <ele>114.199997</ele>
        <time>2019-01-06T08:39:11Z</time>
      </trkpt>
      <trkpt lat="48.99927" lon="1.11251">
        <ele>115.199997</ele>
        <time>2019-01-06T08:39:19Z</time>
      </trkpt>
      <trkpt lat="48.99923" lon="1.11237">
        <ele>115.300003</ele>
        <time>2019-01-06T08:39:26Z</time>
      </trkpt>
      <trkpt lat="48.99918" lon="1.11225">
        <ele>114.800003</ele>
        <time>2019-01-06T08:39:30Z</time>
      </trkpt>
      <trkpt lat="48.99911" lon="1.11213">
        <ele>115.599998</ele>
        <time>2019-01-06T08:39:36Z</time>
      </trkpt>
      <trkpt lat="48.99904" lon="1.11206">
        <ele>115.800003</ele>
        <time>2019-01-06T08:39:41Z</time>
      </trkpt>
      <trkpt lat="48.99899" lon="1.11193">
        <ele>115.699997</ele>
        <time>2019-01-06T08:39:47Z</time>
      </trkpt>
      <trkpt lat="48.99891" lon="1.1118">
        <ele>115.900002</ele>
        <time>2019-01-06T08:39:52Z</time>
      </trkpt>
      <trkpt lat="48.99885" lon="1.1117">
        <ele>115.5</ele>
        <time>2019-01-06T08:39:57Z</time>
      </trkpt>
      <trkpt lat="48.99882" lon="1.11156">
        <ele>115.199997</ele>
        <time>2019-01-06T08:40:04Z</time>
      </trkpt>
      <trkpt lat="48.99891" lon="1.11149">
        <ele>113.300003</ele>
        <time>2019-01-06T08:40:17Z</time>
      </trkpt>
      <trkpt lat="48.99886" lon="1.11137">
        <ele>113.099998</ele>
        <time>2019-01-06T08:40:26Z</time>
      </trkpt>
      <trkpt lat="48.99882" lon="1.11122">
        <ele>111.199997</ele>
        <time>2019-01-06T08:40:29Z</time>
      </trkpt>
      <trkpt lat="48.99886" lon="1.11108">
        <ele>108.099998</ele>
        <time>2019-01-06T08:40:34Z</time>
      </trkpt>
      <trkpt lat="48.99896" lon="1.11109">
        <ele>107.300003</ele>
        <time>2019-01-06T08:40:37Z</time>
      </trkpt>
      <trkpt lat="48.99906" lon="1.1111">
        <ele>106.400002</ele>
        <time>2019-01-06T08:40:39Z</time>
      </trkpt>
      <trkpt lat="48.99916" lon="1.11106">
        <ele>105.599998</ele>
        <time>2019-01-06T08:40:42Z</time>
      </trkpt>
      <trkpt lat="48.99912" lon="1.11094">
        <ele>102.900002</ele>
        <time>2019-01-06T08:40:50Z</time>
      </trkpt>
      <trkpt lat="48.99903" lon="1.11089">
        <ele>103.400002</ele>
        <time>2019-01-06T08:40:55Z</time>
      </trkpt>
      <trkpt lat="48.99894" lon="1.11085">
        <ele>103.699997</ele>
        <time>2019-01-06T08:40:59Z</time>
      </trkpt>
      <trkpt lat="48.99885" lon="1.11089">
        <ele>105.099998</ele>
        <time>2019-01-06T08:41:04Z</time>
      </trkpt>
      <trkpt lat="48.99876" lon="1.11097">
        <ele>106.199997</ele>
        <time>2019-01-06T08:41:10Z</time>
      </trkpt>
      <trkpt lat="48.99868" lon="1.11105">
        <ele>107.900002</ele>
        <time>2019-01-06T08:41:16Z</time>
      </trkpt>
      <trkpt lat="48.9986" lon="1.11113">
        <ele>109.199997</ele>
        <time>2019-01-06T08:41:23Z</time>
      </trkpt>
      <trkpt lat="48.99851" lon="1.11122">
        <ele>110.599998</ele>
        <time>2019-01-06T08:41:29Z</time>
      </trkpt>
      <trkpt lat="48.99843" lon="1.11131">
        <ele>112.400002</ele>
        <time>2019-01-06T08:41:36Z</time>
      </trkpt>
      <trkpt lat="48.99833" lon="1.1114">
        <ele>113.599998</ele>
        <time>2019-01-06T08:41:41Z</time>
      </trkpt>
      <trkpt lat="48.99825" lon="1.1115">
        <ele>114.599998</ele>
        <time>2019-01-06T08:41:47Z</time>
      </trkpt>
      <trkpt lat="48.99817" lon="1.1116">
        <ele>115.5</ele>
        <time>2019-01-06T08:41:52Z</time>
      </trkpt>
      <trkpt lat="48.9981" lon="1.11168">
        <ele>116.099998</ele>
        <time>2019-01-06T08:41:56Z</time>
      </trkpt>
      <trkpt lat="48.99802" lon="1.11179">
        <ele>116.900002</ele>
        <time>2019-01-06T08:42:00Z</time>
      </trkpt>
      <trkpt lat="48.99795" lon="1.11187">
        <ele>117.300003</ele>
        <time>2019-01-06T08:42:05Z</time>
      </trkpt>
      <trkpt lat="48.99787" lon="1.112">
        <ele>117.800003</ele>
        <time>2019-01-06T08:42:10Z</time>
      </trkpt>
      <trkpt lat="48.99779" lon="1.11212">
        <ele>118.400002</ele>
        <time>2019-01-06T08:42:15Z</time>
      </trkpt>
      <trkpt lat="48.99773" lon="1.11222">
        <ele>118.699997</ele>
        <time>2019-01-06T08:42:19Z</time>
      </trkpt>
      <trkpt lat="48.99766" lon="1.11232">
        <ele>118.800003</ele>
        <time>2019-01-06T08:42:24Z</time>
      </trkpt>
      <trkpt lat="48.9976" lon="1.11247">
        <ele>119.400002</ele>
        <time>2019-01-06T08:42:30Z</time>
      </trkpt>
      <trkpt lat="48.99753" lon="1.11258">
        <ele>119.5</ele>
        <time>2019-01-06T08:42:33Z</time>
      </trkpt>
      <trkpt lat="48.99747" lon="1.11271">
        <ele>120</ele>
        <time>2019-01-06T08:42:39Z</time>
      </trkpt>
      <trkpt lat="48.99737" lon="1.11286">
        <ele>120.300003</ele>
        <time>2019-01-06T08:42:44Z</time>
      </trkpt>
      <trkpt lat="48.99729" lon="1.11296">
        <ele>120.599998</ele>
        <time>2019-01-06T08:42:47Z</time>
      </trkpt>
      <trkpt lat="48.99723" lon="1.11305">
        <ele>120.800003</ele>
        <time>2019-01-06T08:42:50Z</time>
      </trkpt>
      <trkpt lat="48.99716" lon="1.11317">
        <ele>122.099998</ele>
        <time>2019-01-06T08:42:54Z</time>
      </trkpt>
      <trkpt lat="48.99706" lon="1.11328">
        <ele>122.5</ele>
        <time>2019-01-06T08:42:58Z</time>
      </trkpt>
      <trkpt lat="48.99699" lon="1.11336">
        <ele>123.199997</ele>
        <time>2019-01-06T08:43:01Z</time>
      </trkpt>
      <trkpt lat="48.99692" lon="1.11346">
        <ele>124.099998</ele>
        <time>2019-01-06T08:43:05Z</time>
      </trkpt>
      <trkpt lat="48.99685" lon="1.11357">
        <ele>124.800003</ele>
        <time>2019-01-06T08:43:10Z</time>
      </trkpt>
      <trkpt lat="48.99677" lon="1.11366">
        <ele>125.099998</ele>
        <time>2019-01-06T08:43:15Z</time>
      </trkpt>
      <trkpt lat="48.9967" lon="1.11378">
        <ele>124.400002</ele>
        <time>2019-01-06T08:43:20Z</time>
      </trkpt>
      <trkpt lat="48.99663" lon="1.1139">
        <ele>124.699997</ele>
        <time>2019-01-06T08:43:24Z</time>
      </trkpt>
      <trkpt lat="48.99655" lon="1.11404">
        <ele>124</ele>
        <time>2019-01-06T08:43:28Z</time>
      </trkpt>
      <trkpt lat="48.9965" lon="1.11415">
        <ele>124.300003</ele>
        <time>2019-01-06T08:43:32Z</time>
      </trkpt>
      <trkpt lat="48.99642" lon="1.11424">
        <ele>123.699997</ele>
        <time>2019-01-06T08:43:35Z</time>
      </trkpt>
      <trkpt lat="48.99635" lon="1.11433">
        <ele>124.099998</ele>
        <time>2019-01-06T08:43:38Z</time>
      </trkpt>
      <trkpt lat="48.99628" lon="1.11442">
        <ele>124.199997</ele>
        <time>2019-01-06T08:43:41Z</time>
      </trkpt>
      <trkpt lat="48.99621" lon="1.11452">
        <ele>123.699997</ele>
        <time>2019-01-06T08:43:44Z</time>
      </trkpt>
      <trkpt lat="48.99614" lon="1.11462">
        <ele>124.300003</ele>
        <time>2019-01-06T08:43:47Z</time>
      </trkpt>
      <trkpt lat="48.99605" lon="1.11476">
        <ele>124.599998</ele>
        <time>2019-01-06T08:43:50Z</time>
      </trkpt>
      <trkpt lat="48.99598" lon="1.11486">
        <ele>124.599998</ele>
        <time>2019-01-06T08:43:53Z</time>
      </trkpt>
      <trkpt lat="48.99589" lon="1.11499">
        <ele>124.599998</ele>
        <time>2019-01-06T08:43:57Z</time>
      </trkpt>
      <trkpt lat="48.99582" lon="1.1151">
        <ele>124.599998</ele>
        <time>2019-01-06T08:44:00Z</time>
      </trkpt>
      <trkpt lat="48.99573" lon="1.11522">
        <ele>124.900002</ele>
        <time>2019-01-06T08:44:03Z</time>
      </trkpt>
      <trkpt lat="48.99565" lon="1.11534">
        <ele>124.599998</ele>
        <time>2019-01-06T08:44:06Z</time>
      </trkpt>
      <trkpt lat="48.99556" lon="1.11545">
        <ele>124.699997</ele>
        <time>2019-01-06T08:44:09Z</time>
      </trkpt>
      <trkpt lat="48.99545" lon="1.11558">
        <ele>124.5</ele>
        <time>2019-01-06T08:44:13Z</time>
      </trkpt>
      <trkpt lat="48.99538" lon="1.11567">
        <ele>124.400002</ele>
        <time>2019-01-06T08:44:15Z</time>
      </trkpt>
      <trkpt lat="48.99531" lon="1.11576">
        <ele>124.5</ele>
        <time>2019-01-06T08:44:17Z</time>
      </trkpt>
      <trkpt lat="48.99524" lon="1.11587">
        <ele>124.5</ele>
        <time>2019-01-06T08:44:19Z</time>
      </trkpt>
      <trkpt lat="48.99517" lon="1.11599">
        <ele>124.5</ele>
        <time>2019-01-06T08:44:21Z</time>
      </trkpt>
      <trkpt lat="48.99511" lon="1.11612">
        <ele>123.900002</ele>
        <time>2019-01-06T08:44:23Z</time>
      </trkpt>
      <trkpt lat="48.99506" lon="1.11626">
        <ele>123.900002</ele>
        <time>2019-01-06T08:44:25Z</time>
      </trkpt>
      <trkpt lat="48.99501" lon="1.11645">
        <ele>123.699997</ele>
        <time>2019-01-06T08:44:28Z</time>
      </trkpt>
      <trkpt lat="48.99494" lon="1.11659">
        <ele>123.5</ele>
        <time>2019-01-06T08:44:30Z</time>
      </trkpt>
      <trkpt lat="48.99489" lon="1.1167">
        <ele>123.099998</ele>
        <time>2019-01-06T08:44:32Z</time>
      </trkpt>
      <trkpt lat="48.99483" lon="1.11681">
        <ele>123.199997</ele>
        <time>2019-01-06T08:44:34Z</time>
      </trkpt>
      <trkpt lat="48.99477" lon="1.11692">
        <ele>123.5</ele>
        <time>2019-01-06T08:44:36Z</time>
      </trkpt>
      <trkpt lat="48.9947" lon="1.11703">
        <ele>123</ele>
        <time>2019-01-06T08:44:38Z</time>
      </trkpt>
      <trkpt lat="48.99463" lon="1.11714">
        <ele>122.599998</ele>
        <time>2019-01-06T08:44:40Z</time>
      </trkpt>
      <trkpt lat="48.99455" lon="1.11729">
        <ele>122.099998</ele>
        <time>2019-01-06T08:44:43Z</time>
      </trkpt>
      <trkpt lat="48.99449" lon="1.1174">
        <ele>121.800003</ele>
        <time>2019-01-06T08:44:45Z</time>
      </trkpt>
      <trkpt lat="48.99445" lon="1.11753">
        <ele>121.5</ele>
        <time>2019-01-06T08:44:47Z</time>
      </trkpt>
      <trkpt lat="48.9944" lon="1.11766">
        <ele>121.599998</ele>
        <time>2019-01-06T08:44:49Z</time>
      </trkpt>
      <trkpt lat="48.99434" lon="1.11778">
        <ele>121.199997</ele>
        <time>2019-01-06T08:44:51Z</time>
      </trkpt>
      <trkpt lat="48.99429" lon="1.1179">
        <ele>120</ele>
        <time>2019-01-06T08:44:53Z</time>
      </trkpt>
      <trkpt lat="48.99421" lon="1.11806">
        <ele>120.300003</ele>
        <time>2019-01-06T08:44:56Z</time>
      </trkpt>
      <trkpt lat="48.99415" lon="1.11818">
        <ele>120.300003</ele>
        <time>2019-01-06T08:44:58Z</time>
      </trkpt>
      <trkpt lat="48.99407" lon="1.11834">
        <ele>120.199997</ele>
        <time>2019-01-06T08:45:01Z</time>
      </trkpt>
      <trkpt lat="48.99401" lon="1.11845">
        <ele>120.800003</ele>
        <time>2019-01-06T08:45:03Z</time>
      </trkpt>
      <trkpt lat="48.99394" lon="1.1186">
        <ele>120.099998</ele>
        <time>2019-01-06T08:45:05Z</time>
      </trkpt>
      <trkpt lat="48.99388" lon="1.11872">
        <ele>120.300003</ele>
        <time>2019-01-06T08:45:07Z</time>
      </trkpt>
      <trkpt lat="48.99381" lon="1.11887">
        <ele>120.300003</ele>
        <time>2019-01-06T08:45:10Z</time>
      </trkpt>
      <trkpt lat="48.99372" lon="1.11902">
        <ele>120.300003</ele>
        <time>2019-01-06T08:45:13Z</time>
      </trkpt>
      <trkpt lat="48.99365" lon="1.11912">
        <ele>120.099998</ele>
        <time>2019-01-06T08:45:15Z</time>
      </trkpt>
      <trkpt lat="48.99357" lon="1.11922">
        <ele>120</ele>
        <time>2019-01-06T08:45:17Z</time>
      </trkpt>
      <trkpt lat="48.99349" lon="1.11932">
        <ele>120.300003</ele>
        <time>2019-01-06T08:45:19Z</time>
      </trkpt>
      <trkpt lat="48.9934" lon="1.11944">
        <ele>120.099998</ele>
        <time>2019-01-06T08:45:21Z</time>
      </trkpt>
      <trkpt lat="48.99332" lon="1.11953">
        <ele>120.599998</ele>
        <time>2019-01-06T08:45:23Z</time>
      </trkpt>
      <trkpt lat="48.99323" lon="1.11965">
        <ele>121</ele>
        <time>2019-01-06T08:45:25Z</time>
      </trkpt>
      <trkpt lat="48.99315" lon="1.11975">
        <ele>120.699997</ele>
        <time>2019-01-06T08:45:27Z</time>
      </trkpt>
      <trkpt lat="48.99305" lon="1.11986">
        <ele>121</ele>
        <time>2019-01-06T08:45:29Z</time>
      </trkpt>
      <trkpt lat="48.99298" lon="1.11994">
        <ele>120.800003</ele>
        <time>2019-01-06T08:45:31Z</time>
      </trkpt>
      <trkpt lat="48.99289" lon="1.12004">
        <ele>119.800003</ele>
        <time>2019-01-06T08:45:33Z</time>
      </trkpt>
      <trkpt lat="48.99281" lon="1.12013">
        <ele>120.400002</ele>
        <time>2019-01-06T08:45:35Z</time>
      </trkpt>
      <trkpt lat="48.99273" lon="1.12022">
        <ele>120.300003</ele>
        <time>2019-01-06T08:45:37Z</time>
      </trkpt>
      <trkpt lat="48.99264" lon="1.12034">
        <ele>120.699997</ele>
        <time>2019-01-06T08:45:40Z</time>
      </trkpt>
      <trkpt lat="48.99255" lon="1.12045">
        <ele>120.400002</ele>
        <time>2019-01-06T08:45:43Z</time>
      </trkpt>
      <trkpt lat="48.99246" lon="1.12056">
        <ele>120.699997</ele>
        <time>2019-01-06T08:45:45Z</time>
      </trkpt>
      <trkpt lat="48.99237" lon="1.12067">
        <ele>120.5</ele>
        <time>2019-01-06T08:45:48Z</time>
      </trkpt>
      <trkpt lat="48.99229" lon="1.12078">
        <ele>121</ele>
        <time>2019-01-06T08:45:51Z</time>
      </trkpt>
      <trkpt lat="48.9922" lon="1.12088">
        <ele>121.599998</ele>
        <time>2019-01-06T08:45:54Z</time>
      </trkpt>
      <trkpt lat="48.99211" lon="1.12097">
        <ele>122.199997</ele>
        <time>2019-01-06T08:45:57Z</time>
      </trkpt>
      <trkpt lat="48.99202" lon="1.12105">
        <ele>121.5</ele>
        <time>2019-01-06T08:45:59Z</time>
      </trkpt>
      <trkpt lat="48.99194" lon="1.12114">
        <ele>122</ele>
        <time>2019-01-06T08:46:02Z</time>
      </trkpt>
      <trkpt lat="48.99187" lon="1.12122">
        <ele>122</ele>
        <time>2019-01-06T08:46:04Z</time>
      </trkpt>
      <trkpt lat="48.99175" lon="1.12134">
        <ele>122.199997</ele>
        <time>2019-01-06T08:46:07Z</time>
      </trkpt>
      <trkpt lat="48.99167" lon="1.12142">
        <ele>122.599998</ele>
        <time>2019-01-06T08:46:09Z</time>
      </trkpt>
      <trkpt lat="48.99156" lon="1.12154">
        <ele>122.400002</ele>
        <time>2019-01-06T08:46:12Z</time>
      </trkpt>
      <trkpt lat="48.99149" lon="1.12163">
        <ele>122.800003</ele>
        <time>2019-01-06T08:46:14Z</time>
      </trkpt>
      <trkpt lat="48.99138" lon="1.12173">
        <ele>123.199997</ele>
        <time>2019-01-06T08:46:17Z</time>
      </trkpt>
      <trkpt lat="48.9913" lon="1.12183">
        <ele>123</ele>
        <time>2019-01-06T08:46:20Z</time>
      </trkpt>
      <trkpt lat="48.99122" lon="1.12192">
        <ele>123.099998</ele>
        <time>2019-01-06T08:46:23Z</time>
      </trkpt>
      <trkpt lat="48.99114" lon="1.122">
        <ele>122.800003</ele>
        <time>2019-01-06T08:46:25Z</time>
      </trkpt>
      <trkpt lat="48.99105" lon="1.12206">
        <ele>123.099998</ele>
        <time>2019-01-06T08:46:27Z</time>
      </trkpt>
      <trkpt lat="48.99096" lon="1.12214">
        <ele>122.900002</ele>
        <time>2019-01-06T08:46:30Z</time>
      </trkpt>
      <trkpt lat="48.99085" lon="1.12226">
        <ele>123.099998</ele>
        <time>2019-01-06T08:46:33Z</time>
      </trkpt>
      <trkpt lat="48.99076" lon="1.12236">
        <ele>123.699997</ele>
        <time>2019-01-06T08:46:36Z</time>
      </trkpt>
      <trkpt lat="48.99065" lon="1.1224">
        <ele>123.800003</ele>
        <time>2019-01-06T08:46:39Z</time>
      </trkpt>
      <trkpt lat="48.99056" lon="1.12231">
        <ele>124.5</ele>
        <time>2019-01-06T08:46:42Z</time>
      </trkpt>
      <trkpt lat="48.9905" lon="1.12218">
        <ele>124.900002</ele>
        <time>2019-01-06T08:46:45Z</time>
      </trkpt>
      <trkpt lat="48.99045" lon="1.12205">
        <ele>125.599998</ele>
        <time>2019-01-06T08:46:48Z</time>
      </trkpt>
      <trkpt lat="48.99039" lon="1.12192">
        <ele>125.5</ele>
        <time>2019-01-06T08:46:51Z</time>
      </trkpt>
      <trkpt lat="48.99036" lon="1.12178">
        <ele>125.800003</ele>
        <time>2019-01-06T08:46:54Z</time>
      </trkpt>
      <trkpt lat="48.9903" lon="1.12166">
        <ele>126.5</ele>
        <time>2019-01-06T08:46:57Z</time>
      </trkpt>
      <trkpt lat="48.99024" lon="1.12153">
        <ele>126.300003</ele>
        <time>2019-01-06T08:47:00Z</time>
      </trkpt>
      <trkpt lat="48.99018" lon="1.12136">
        <ele>126.900002</ele>
        <time>2019-01-06T08:47:04Z</time>
      </trkpt>
      <trkpt lat="48.99014" lon="1.12123">
        <ele>126.699997</ele>
        <time>2019-01-06T08:47:07Z</time>
      </trkpt>
      <trkpt lat="48.9901" lon="1.12109">
        <ele>127</ele>
        <time>2019-01-06T08:47:10Z</time>
      </trkpt>
      <trkpt lat="48.99006" lon="1.12095">
        <ele>127.5</ele>
        <time>2019-01-06T08:47:13Z</time>
      </trkpt>
      <trkpt lat="48.99001" lon="1.12079">
        <ele>127.599998</ele>
        <time>2019-01-06T08:47:17Z</time>
      </trkpt>
      <trkpt lat="48.98998" lon="1.12065">
        <ele>127.400002</ele>
        <time>2019-01-06T08:47:20Z</time>
      </trkpt>
      <trkpt lat="48.99" lon="1.12052">
        <ele>128</ele>
        <time>2019-01-06T08:47:23Z</time>
      </trkpt>
      <trkpt lat="48.99004" lon="1.12037">
        <ele>127.5</ele>
        <time>2019-01-06T08:47:26Z</time>
      </trkpt>
      <trkpt lat="48.9901" lon="1.12025">
        <ele>127.199997</ele>
        <time>2019-01-06T08:47:29Z</time>
      </trkpt>
      <trkpt lat="48.99018" lon="1.12012">
        <ele>127</ele>
        <time>2019-01-06T08:47:32Z</time>
      </trkpt>
      <trkpt lat="48.99018" lon="1.11992">
        <ele>126</ele>
        <time>2019-01-06T08:47:35Z</time>
      </trkpt>
      <trkpt lat="48.99013" lon="1.11976">
        <ele>125.699997</ele>
        <time>2019-01-06T08:47:37Z</time>
      </trkpt>
      <trkpt lat="48.99008" lon="1.1196">
        <ele>125.699997</ele>
        <time>2019-01-06T08:47:39Z</time>
      </trkpt>
      <trkpt lat="48.99002" lon="1.11944">
        <ele>125.300003</ele>
        <time>2019-01-06T08:47:41Z</time>
      </trkpt>
      <trkpt lat="48.98994" lon="1.11932">
        <ele>122.599998</ele>
        <time>2019-01-06T08:47:43Z</time>
      </trkpt>
      <trkpt lat="48.98984" lon="1.11924">
        <ele>120.400002</ele>
        <time>2019-01-06T08:47:45Z</time>
      </trkpt>
      <trkpt lat="48.98977" lon="1.11914">
        <ele>118.900002</ele>
        <time>2019-01-06T08:47:47Z</time>
      </trkpt>
      <trkpt lat="48.98978" lon="1.11899">
        <ele>116.599998</ele>
        <time>2019-01-06T08:47:49Z</time>
      </trkpt>
      <trkpt lat="48.98986" lon="1.11888">
        <ele>113.699997</ele>
        <time>2019-01-06T08:47:51Z</time>
      </trkpt>
      <trkpt lat="48.98997" lon="1.11875">
        <ele>111</ele>
        <time>2019-01-06T08:47:53Z</time>
      </trkpt>
      <trkpt lat="48.99009" lon="1.11867">
        <ele>108.099998</ele>
        <time>2019-01-06T08:47:55Z</time>
      </trkpt>
      <trkpt lat="48.99022" lon="1.11862">
        <ele>106.800003</ele>
        <time>2019-01-06T08:47:57Z</time>
      </trkpt>
      <trkpt lat="48.99031" lon="1.11855">
        <ele>104.900002</ele>
        <time>2019-01-06T08:48:00Z</time>
      </trkpt>
      <trkpt lat="48.99032" lon="1.11836">
        <ele>102.300003</ele>
        <time>2019-01-06T08:48:03Z</time>
      </trkpt>
      <trkpt lat="48.99026" lon="1.11823">
        <ele>100</ele>
        <time>2019-01-06T08:48:05Z</time>
      </trkpt>
      <trkpt lat="48.99015" lon="1.11809">
        <ele>98.400002</ele>
        <time>2019-01-06T08:48:07Z</time>
      </trkpt>
      <trkpt lat="48.99005" lon="1.11796">
        <ele>96.199997</ele>
        <time>2019-01-06T08:48:09Z</time>
      </trkpt>
      <trkpt lat="48.98993" lon="1.1179">
        <ele>93.699997</ele>
        <time>2019-01-06T08:48:11Z</time>
      </trkpt>
      <trkpt lat="48.98981" lon="1.11782">
        <ele>93</ele>
        <time>2019-01-06T08:48:13Z</time>
      </trkpt>
      <trkpt lat="48.98972" lon="1.11772">
        <ele>91.199997</ele>
        <time>2019-01-06T08:48:15Z</time>
      </trkpt>
      <trkpt lat="48.98965" lon="1.11762">
        <ele>89</ele>
        <time>2019-01-06T08:48:18Z</time>
      </trkpt>
      <trkpt lat="48.98954" lon="1.11762">
        <ele>86.400002</ele>
        <time>2019-01-06T08:48:22Z</time>
      </trkpt>
      <trkpt lat="48.98944" lon="1.11761">
        <ele>85.400002</ele>
        <time>2019-01-06T08:48:25Z</time>
      </trkpt>
      <trkpt lat="48.98931" lon="1.11759">
        <ele>84.699997</ele>
        <time>2019-01-06T08:48:29Z</time>
      </trkpt>
      <trkpt lat="48.98922" lon="1.11752">
        <ele>84.400002</ele>
        <time>2019-01-06T08:48:36Z</time>
      </trkpt>
      <trkpt lat="48.98913" lon="1.11747">
        <ele>84.400002</ele>
        <time>2019-01-06T08:49:03Z</time>
      </trkpt>
      <trkpt lat="48.98903" lon="1.11748">
        <ele>84.199997</ele>
        <time>2019-01-06T08:49:08Z</time>
      </trkpt>
      <trkpt lat="48.98894" lon="1.11752">
        <ele>84.5</ele>
        <time>2019-01-06T08:49:11Z</time>
      </trkpt>
      <trkpt lat="48.98884" lon="1.11757">
        <ele>84.599998</ele>
        <time>2019-01-06T08:49:14Z</time>
      </trkpt>
      <trkpt lat="48.98876" lon="1.11765">
        <ele>84.300003</ele>
        <time>2019-01-06T08:49:17Z</time>
      </trkpt>
      <trkpt lat="48.98868" lon="1.11776">
        <ele>84.199997</ele>
        <time>2019-01-06T08:49:21Z</time>
      </trkpt>
      <trkpt lat="48.98857" lon="1.11788">
        <ele>84.599998</ele>
        <time>2019-01-06T08:49:25Z</time>
      </trkpt>
      <trkpt lat="48.98849" lon="1.11798">
        <ele>83.699997</ele>
        <time>2019-01-06T08:49:28Z</time>
      </trkpt>
      <trkpt lat="48.98839" lon="1.11809">
        <ele>83.900002</ele>
        <time>2019-01-06T08:49:31Z</time>
      </trkpt>
      <trkpt lat="48.9883" lon="1.11823">
        <ele>84.099998</ele>
        <time>2019-01-06T08:49:35Z</time>
      </trkpt>
      <trkpt lat="48.98821" lon="1.11835">
        <ele>84.099998</ele>
        <time>2019-01-06T08:49:38Z</time>
      </trkpt>
      <trkpt lat="48.98812" lon="1.11847">
        <ele>84.5</ele>
        <time>2019-01-06T08:49:41Z</time>
      </trkpt>
      <trkpt lat="48.98805" lon="1.11858">
        <ele>84.400002</ele>
        <time>2019-01-06T08:49:44Z</time>
      </trkpt>
      <trkpt lat="48.98799" lon="1.11871">
        <ele>84.699997</ele>
        <time>2019-01-06T08:49:47Z</time>
      </trkpt>
      <trkpt lat="48.98793" lon="1.11881">
        <ele>84.599998</ele>
        <time>2019-01-06T08:49:51Z</time>
      </trkpt>
      <trkpt lat="48.98786" lon="1.11892">
        <ele>85.300003</ele>
        <time>2019-01-06T08:49:55Z</time>
      </trkpt>
      <trkpt lat="48.98778" lon="1.11903">
        <ele>85.800003</ele>
        <time>2019-01-06T08:49:58Z</time>
      </trkpt>
      <trkpt lat="48.98769" lon="1.11914">
        <ele>85.900002</ele>
        <time>2019-01-06T08:50:01Z</time>
      </trkpt>
      <trkpt lat="48.98759" lon="1.11925">
        <ele>85.800003</ele>
        <time>2019-01-06T08:50:04Z</time>
      </trkpt>
      <trkpt lat="48.98751" lon="1.11933">
        <ele>85.900002</ele>
        <time>2019-01-06T08:50:07Z</time>
      </trkpt>
      <trkpt lat="48.98742" lon="1.1194">
        <ele>86.099998</ele>
        <time>2019-01-06T08:50:10Z</time>
      </trkpt>
      <trkpt lat="48.98734" lon="1.11948">
        <ele>86.5</ele>
        <time>2019-01-06T08:50:13Z</time>
      </trkpt>
      <trkpt lat="48.98727" lon="1.11958">
        <ele>86.400002</ele>
        <time>2019-01-06T08:50:17Z</time>
      </trkpt>
      <trkpt lat="48.98718" lon="1.11965">
        <ele>85.900002</ele>
        <time>2019-01-06T08:50:21Z</time>
      </trkpt>
      <trkpt lat="48.98707" lon="1.11971">
        <ele>86.900002</ele>
        <time>2019-01-06T08:50:24Z</time>
      </trkpt>
      <trkpt lat="48.98696" lon="1.11978">
        <ele>86.599998</ele>
        <time>2019-01-06T08:50:27Z</time>
      </trkpt>
      <trkpt lat="48.98684" lon="1.11986">
        <ele>86.599998</ele>
        <time>2019-01-06T08:50:30Z</time>
      </trkpt>
      <trkpt lat="48.98674" lon="1.11994">
        <ele>85.400002</ele>
        <time>2019-01-06T08:50:33Z</time>
      </trkpt>
      <trkpt lat="48.98662" lon="1.12002">
        <ele>85.699997</ele>
        <time>2019-01-06T08:50:36Z</time>
      </trkpt>
      <trkpt lat="48.98649" lon="1.12009">
        <ele>86.199997</ele>
        <time>2019-01-06T08:50:39Z</time>
      </trkpt>
      <trkpt lat="48.98636" lon="1.12013">
        <ele>86.5</ele>
        <time>2019-01-06T08:50:42Z</time>
      </trkpt>
      <trkpt lat="48.98626" lon="1.12017">
        <ele>86.300003</ele>
        <time>2019-01-06T08:50:45Z</time>
      </trkpt>
      <trkpt lat="48.98615" lon="1.1202">
        <ele>86.900002</ele>
        <time>2019-01-06T08:50:48Z</time>
      </trkpt>
      <trkpt lat="48.98604" lon="1.12024">
        <ele>87.5</ele>
        <time>2019-01-06T08:50:52Z</time>
      </trkpt>
      <trkpt lat="48.98593" lon="1.1203">
        <ele>87.400002</ele>
        <time>2019-01-06T08:50:55Z</time>
      </trkpt>
      <trkpt lat="48.98582" lon="1.12036">
        <ele>87.300003</ele>
        <time>2019-01-06T08:50:58Z</time>
      </trkpt>
      <trkpt lat="48.98573" lon="1.12042">
        <ele>86.599998</ele>
        <time>2019-01-06T08:51:01Z</time>
      </trkpt>
      <trkpt lat="48.98564" lon="1.12051">
        <ele>86.800003</ele>
        <time>2019-01-06T08:51:04Z</time>
      </trkpt>
      <trkpt lat="48.98556" lon="1.12058">
        <ele>86.599998</ele>
        <time>2019-01-06T08:51:07Z</time>
      </trkpt>
      <trkpt lat="48.98549" lon="1.12072">
        <ele>87</ele>
        <time>2019-01-06T08:51:11Z</time>
      </trkpt>
      <trkpt lat="48.98542" lon="1.12084">
        <ele>87.300003</ele>
        <time>2019-01-06T08:51:15Z</time>
      </trkpt>
      <trkpt lat="48.98537" lon="1.12099">
        <ele>87.800003</ele>
        <time>2019-01-06T08:51:20Z</time>
      </trkpt>
      <trkpt lat="48.9853" lon="1.12115">
        <ele>87.900002</ele>
        <time>2019-01-06T08:51:24Z</time>
      </trkpt>
      <trkpt lat="48.98525" lon="1.12125">
        <ele>88.300003</ele>
        <time>2019-01-06T08:51:26Z</time>
      </trkpt>
      <trkpt lat="48.98513" lon="1.12155">
        <ele>88</ele>
        <time>2019-01-06T08:51:32Z</time>
      </trkpt>
      <trkpt lat="48.98509" lon="1.12172">
        <ele>88.699997</ele>
        <time>2019-01-06T08:51:35Z</time>
      </trkpt>
      <trkpt lat="48.98499" lon="1.12201">
        <ele>89.300003</ele>
        <time>2019-01-06T08:51:40Z</time>
      </trkpt>
      <trkpt lat="48.98498" lon="1.12217">
        <ele>88.900002</ele>
        <time>2019-01-06T08:51:43Z</time>
      </trkpt>
      <trkpt lat="48.98496" lon="1.12235">
        <ele>89.199997</ele>
        <time>2019-01-06T08:51:46Z</time>
      </trkpt>
      <trkpt lat="48.98497" lon="1.12252">
        <ele>89.800003</ele>
        <time>2019-01-06T08:51:49Z</time>
      </trkpt>
      <trkpt lat="48.98496" lon="1.12268">
        <ele>89.199997</ele>
        <time>2019-01-06T08:51:51Z</time>
      </trkpt>
      <trkpt lat="48.98498" lon="1.12288">
        <ele>89.099998</ele>
        <time>2019-01-06T08:51:54Z</time>
      </trkpt>
      <trkpt lat="48.985" lon="1.12305">
        <ele>89.599998</ele>
        <time>2019-01-06T08:51:57Z</time>
      </trkpt>
      <trkpt lat="48.98504" lon="1.12323">
        <ele>89.5</ele>
        <time>2019-01-06T08:52:00Z</time>
      </trkpt>
      <trkpt lat="48.98507" lon="1.12341">
        <ele>88.900002</ele>
        <time>2019-01-06T08:52:03Z</time>
      </trkpt>
      <trkpt lat="48.98512" lon="1.12357">
        <ele>89.400002</ele>
        <time>2019-01-06T08:52:06Z</time>
      </trkpt>
      <trkpt lat="48.98517" lon="1.12373">
        <ele>89.5</ele>
        <time>2019-01-06T08:52:09Z</time>
      </trkpt>
      <trkpt lat="48.98523" lon="1.12388">
        <ele>89.199997</ele>
        <time>2019-01-06T08:52:12Z</time>
      </trkpt>
      <trkpt lat="48.98529" lon="1.12405">
        <ele>89.300003</ele>
        <time>2019-01-06T08:52:15Z</time>
      </trkpt>
      <trkpt lat="48.98534" lon="1.12422">
        <ele>89.300003</ele>
        <time>2019-01-06T08:52:18Z</time>
      </trkpt>
      <trkpt lat="48.98531" lon="1.12435">
        <ele>89.800003</ele>
        <time>2019-01-06T08:52:20Z</time>
      </trkpt>
      <trkpt lat="48.98526" lon="1.12452">
        <ele>89.099998</ele>
        <time>2019-01-06T08:52:23Z</time>
      </trkpt>
      <trkpt lat="48.98518" lon="1.12467">
        <ele>90.099998</ele>
        <time>2019-01-06T08:52:26Z</time>
      </trkpt>
      <trkpt lat="48.98511" lon="1.12479">
        <ele>89.699997</ele>
        <time>2019-01-06T08:52:29Z</time>
      </trkpt>
      <trkpt lat="48.98502" lon="1.12488">
        <ele>89.800003</ele>
        <time>2019-01-06T08:52:32Z</time>
      </trkpt>
      <trkpt lat="48.9849" lon="1.1249">
        <ele>90.300003</ele>
        <time>2019-01-06T08:52:35Z</time>
      </trkpt>
      <trkpt lat="48.98479" lon="1.12487">
        <ele>90.400002</ele>
        <time>2019-01-06T08:52:38Z</time>
      </trkpt>
      <trkpt lat="48.98469" lon="1.12481">
        <ele>90.800003</ele>
        <time>2019-01-06T08:52:41Z</time>
      </trkpt>
      <trkpt lat="48.98459" lon="1.12475">
        <ele>91.099998</ele>
        <time>2019-01-06T08:52:44Z</time>
      </trkpt>
      <trkpt lat="48.98448" lon="1.12468">
        <ele>91.300003</ele>
        <time>2019-01-06T08:52:47Z</time>
      </trkpt>
      <trkpt lat="48.98438" lon="1.12459">
        <ele>91.300003</ele>
        <time>2019-01-06T08:52:50Z</time>
      </trkpt>
      <trkpt lat="48.98428" lon="1.12449">
        <ele>91.599998</ele>
        <time>2019-01-06T08:52:53Z</time>
      </trkpt>
      <trkpt lat="48.9842" lon="1.12437">
        <ele>91.800003</ele>
        <time>2019-01-06T08:52:56Z</time>
      </trkpt>
      <trkpt lat="48.9841" lon="1.12425">
        <ele>92</ele>
        <time>2019-01-06T08:52:59Z</time>
      </trkpt>
      <trkpt lat="48.984" lon="1.12415">
        <ele>91.699997</ele>
        <time>2019-01-06T08:53:02Z</time>
      </trkpt>
      <trkpt lat="48.9839" lon="1.12403">
        <ele>92.199997</ele>
        <time>2019-01-06T08:53:05Z</time>
      </trkpt>
      <trkpt lat="48.9838" lon="1.12391">
        <ele>92.300003</ele>
        <time>2019-01-06T08:53:08Z</time>
      </trkpt>
      <trkpt lat="48.98372" lon="1.12379">
        <ele>92.199997</ele>
        <time>2019-01-06T08:53:11Z</time>
      </trkpt>
      <trkpt lat="48.98364" lon="1.12367">
        <ele>92.800003</ele>
        <time>2019-01-06T08:53:14Z</time>
      </trkpt>
      <trkpt lat="48.98356" lon="1.12355">
        <ele>92.400002</ele>
        <time>2019-01-06T08:53:17Z</time>
      </trkpt>
      <trkpt lat="48.98348" lon="1.12344">
        <ele>93</ele>
        <time>2019-01-06T08:53:20Z</time>
      </trkpt>
      <trkpt lat="48.9834" lon="1.12331">
        <ele>92.800003</ele>
        <time>2019-01-06T08:53:23Z</time>
      </trkpt>
      <trkpt lat="48.98331" lon="1.12318">
        <ele>92.699997</ele>
        <time>2019-01-06T08:53:26Z</time>
      </trkpt>
      <trkpt lat="48.98323" lon="1.12306">
        <ele>92.900002</ele>
        <time>2019-01-06T08:53:29Z</time>
      </trkpt>
      <trkpt lat="48.98316" lon="1.12296">
        <ele>93.400002</ele>
        <time>2019-01-06T08:53:32Z</time>
      </trkpt>
      <trkpt lat="48.98309" lon="1.12286">
        <ele>93.900002</ele>
        <time>2019-01-06T08:53:35Z</time>
      </trkpt>
      <trkpt lat="48.98302" lon="1.12277">
        <ele>93.800003</ele>
        <time>2019-01-06T08:53:38Z</time>
      </trkpt>
      <trkpt lat="48.98294" lon="1.12267">
        <ele>93.699997</ele>
        <time>2019-01-06T08:53:41Z</time>
      </trkpt>
      <trkpt lat="48.98287" lon="1.12258">
        <ele>94.300003</ele>
        <time>2019-01-06T08:53:44Z</time>
      </trkpt>
      <trkpt lat="48.98279" lon="1.12248">
        <ele>94</ele>
        <time>2019-01-06T08:53:47Z</time>
      </trkpt>
      <trkpt lat="48.98272" lon="1.12239">
        <ele>94.300003</ele>
        <time>2019-01-06T08:53:50Z</time>
      </trkpt>
      <trkpt lat="48.98263" lon="1.12237">
        <ele>94.599998</ele>
        <time>2019-01-06T08:53:54Z</time>
      </trkpt>
      <trkpt lat="48.98252" lon="1.12237">
        <ele>94.400002</ele>
        <time>2019-01-06T08:53:59Z</time>
      </trkpt>
      <trkpt lat="48.98242" lon="1.12238">
        <ele>94.800003</ele>
        <time>2019-01-06T08:54:04Z</time>
      </trkpt>
      <trkpt lat="48.98233" lon="1.1224">
        <ele>94.900002</ele>
        <time>2019-01-06T08:54:09Z</time>
      </trkpt>
      <trkpt lat="48.98223" lon="1.12245">
        <ele>95.199997</ele>
        <time>2019-01-06T08:54:14Z</time>
      </trkpt>
      <trkpt lat="48.98214" lon="1.12247">
        <ele>95.099998</ele>
        <time>2019-01-06T08:54:18Z</time>
      </trkpt>
      <trkpt lat="48.98204" lon="1.12252">
        <ele>94.800003</ele>
        <time>2019-01-06T08:54:22Z</time>
      </trkpt>
      <trkpt lat="48.98195" lon="1.12256">
        <ele>95</ele>
        <time>2019-01-06T08:54:26Z</time>
      </trkpt>
      <trkpt lat="48.98186" lon="1.12261">
        <ele>96</ele>
        <time>2019-01-06T08:54:43Z</time>
      </trkpt>
      <trkpt lat="48.98177" lon="1.12265">
        <ele>95.800003</ele>
        <time>2019-01-06T08:54:52Z</time>
      </trkpt>
      <trkpt lat="48.98168" lon="1.12267">
        <ele>96</ele>
        <time>2019-01-06T08:55:16Z</time>
      </trkpt>
      <trkpt lat="48.98158" lon="1.12269">
        <ele>95.800003</ele>
        <time>2019-01-06T08:55:42Z</time>
      </trkpt>
      <trkpt lat="48.98148" lon="1.1227">
        <ele>95.5</ele>
        <time>2019-01-06T08:55:48Z</time>
      </trkpt>
      <trkpt lat="48.98139" lon="1.12275">
        <ele>96</ele>
        <time>2019-01-06T08:55:51Z</time>
      </trkpt>
      <trkpt lat="48.9813" lon="1.12277">
        <ele>96.099998</ele>
        <time>2019-01-06T08:55:54Z</time>
      </trkpt>
      <trkpt lat="48.98118" lon="1.12277">
        <ele>95.099998</ele>
        <time>2019-01-06T08:55:58Z</time>
      </trkpt>
      <trkpt lat="48.98107" lon="1.12277">
        <ele>95.900002</ele>
        <time>2019-01-06T08:56:02Z</time>
      </trkpt>
      <trkpt lat="48.98096" lon="1.12273">
        <ele>96.599998</ele>
        <time>2019-01-06T08:56:06Z</time>
      </trkpt>
      <trkpt lat="48.98086" lon="1.12266">
        <ele>97.300003</ele>
        <time>2019-01-06T08:56:11Z</time>
      </trkpt>
      <trkpt lat="48.98077" lon="1.12265">
        <ele>97.800003</ele>
        <time>2019-01-06T08:56:15Z</time>
      </trkpt>
      <trkpt lat="48.98067" lon="1.12267">
        <ele>97.699997</ele>
        <time>2019-01-06T08:56:19Z</time>
      </trkpt>
      <trkpt lat="48.98057" lon="1.12271">
        <ele>98.400002</ele>
        <time>2019-01-06T08:56:27Z</time>
      </trkpt>
      <trkpt lat="48.98047" lon="1.12275">
        <ele>98</ele>
        <time>2019-01-06T08:56:34Z</time>
      </trkpt>
      <trkpt lat="48.98038" lon="1.12277">
        <ele>98.099998</ele>
        <time>2019-01-06T08:56:40Z</time>
      </trkpt>
      <trkpt lat="48.98027" lon="1.12281">
        <ele>97.900002</ele>
        <time>2019-01-06T08:56:45Z</time>
      </trkpt>
      <trkpt lat="48.98017" lon="1.12283">
        <ele>97.800003</ele>
        <time>2019-01-06T08:56:49Z</time>
      </trkpt>
      <trkpt lat="48.98006" lon="1.12282">
        <ele>97.699997</ele>
        <time>2019-01-06T08:56:54Z</time>
      </trkpt>
      <trkpt lat="48.97996" lon="1.12285">
        <ele>98</ele>
        <time>2019-01-06T08:56:58Z</time>
      </trkpt>
      <trkpt lat="48.97985" lon="1.12288">
        <ele>97.800003</ele>
        <time>2019-01-06T08:57:03Z</time>
      </trkpt>
      <trkpt lat="48.97975" lon="1.12292">
        <ele>97.800003</ele>
        <time>2019-01-06T08:57:07Z</time>
      </trkpt>
      <trkpt lat="48.97966" lon="1.12295">
        <ele>98.199997</ele>
        <time>2019-01-06T08:57:12Z</time>
      </trkpt>
      <trkpt lat="48.97953" lon="1.12296">
        <ele>98.300003</ele>
        <time>2019-01-06T08:57:17Z</time>
      </trkpt>
      <trkpt lat="48.97943" lon="1.12299">
        <ele>98.199997</ele>
        <time>2019-01-06T08:57:20Z</time>
      </trkpt>
      <trkpt lat="48.97932" lon="1.12303">
        <ele>98.199997</ele>
        <time>2019-01-06T08:57:24Z</time>
      </trkpt>
      <trkpt lat="48.97922" lon="1.12305">
        <ele>97.900002</ele>
        <time>2019-01-06T08:57:29Z</time>
      </trkpt>
      <trkpt lat="48.97912" lon="1.12309">
        <ele>98</ele>
        <time>2019-01-06T08:57:33Z</time>
      </trkpt>
      <trkpt lat="48.97903" lon="1.12315">
        <ele>98.800003</ele>
        <time>2019-01-06T08:57:36Z</time>
      </trkpt>
      <trkpt lat="48.97895" lon="1.12322">
        <ele>99.300003</ele>
        <time>2019-01-06T08:57:39Z</time>
      </trkpt>
      <trkpt lat="48.97887" lon="1.12333">
        <ele>99.400002</ele>
        <time>2019-01-06T08:57:43Z</time>
      </trkpt>
      <trkpt lat="48.97879" lon="1.12344">
        <ele>99.400002</ele>
        <time>2019-01-06T08:57:47Z</time>
      </trkpt>
      <trkpt lat="48.97873" lon="1.12357">
        <ele>99.099998</ele>
        <time>2019-01-06T08:57:50Z</time>
      </trkpt>
      <trkpt lat="48.97866" lon="1.1237">
        <ele>98.5</ele>
        <time>2019-01-06T08:57:54Z</time>
      </trkpt>
      <trkpt lat="48.97859" lon="1.12383">
        <ele>98.900002</ele>
        <time>2019-01-06T08:57:58Z</time>
      </trkpt>
      <trkpt lat="48.97853" lon="1.12395">
        <ele>99.400002</ele>
        <time>2019-01-06T08:58:02Z</time>
      </trkpt>
      <trkpt lat="48.97849" lon="1.12408">
        <ele>99.199997</ele>
        <time>2019-01-06T08:58:05Z</time>
      </trkpt>
      <trkpt lat="48.97845" lon="1.12424">
        <ele>99.5</ele>
        <time>2019-01-06T08:58:09Z</time>
      </trkpt>
      <trkpt lat="48.97842" lon="1.12438">
        <ele>99.900002</ele>
        <time>2019-01-06T08:58:12Z</time>
      </trkpt>
      <trkpt lat="48.9784" lon="1.12452">
        <ele>99.400002</ele>
        <time>2019-01-06T08:58:15Z</time>
      </trkpt>
      <trkpt lat="48.9784" lon="1.12467">
        <ele>99.800003</ele>
        <time>2019-01-06T08:58:18Z</time>
      </trkpt>
      <trkpt lat="48.97841" lon="1.12482">
        <ele>98.599998</ele>
        <time>2019-01-06T08:58:21Z</time>
      </trkpt>
      <trkpt lat="48.97841" lon="1.12497">
        <ele>98.900002</ele>
        <time>2019-01-06T08:58:24Z</time>
      </trkpt>
      <trkpt lat="48.97842" lon="1.12512">
        <ele>99.199997</ele>
        <time>2019-01-06T08:58:27Z</time>
      </trkpt>
      <trkpt lat="48.97843" lon="1.1253">
        <ele>98.5</ele>
        <time>2019-01-06T08:58:31Z</time>
      </trkpt>
      <trkpt lat="48.97842" lon="1.12544">
        <ele>99.400002</ele>
        <time>2019-01-06T08:58:34Z</time>
      </trkpt>
      <trkpt lat="48.97838" lon="1.12558">
        <ele>99.599998</ele>
        <time>2019-01-06T08:58:37Z</time>
      </trkpt>
      <trkpt lat="48.97832" lon="1.12572">
        <ele>100.400002</ele>
        <time>2019-01-06T08:58:41Z</time>
      </trkpt>
      <trkpt lat="48.97826" lon="1.12585">
        <ele>100.300003</ele>
        <time>2019-01-06T08:58:45Z</time>
      </trkpt>
      <trkpt lat="48.9782" lon="1.12595">
        <ele>101</ele>
        <time>2019-01-06T08:58:50Z</time>
      </trkpt>
      <trkpt lat="48.97812" lon="1.12603">
        <ele>101.400002</ele>
        <time>2019-01-06T08:58:56Z</time>
      </trkpt>
      <trkpt lat="48.97803" lon="1.12602">
        <ele>101.699997</ele>
        <time>2019-01-06T08:59:02Z</time>
      </trkpt>
      <trkpt lat="48.97792" lon="1.12602">
        <ele>101.699997</ele>
        <time>2019-01-06T08:59:08Z</time>
      </trkpt>
      <trkpt lat="48.97782" lon="1.12601">
        <ele>103.099998</ele>
        <time>2019-01-06T08:59:14Z</time>
      </trkpt>
      <trkpt lat="48.97772" lon="1.126">
        <ele>104.199997</ele>
        <time>2019-01-06T08:59:20Z</time>
      </trkpt>
      <trkpt lat="48.97762" lon="1.126">
        <ele>105</ele>
        <time>2019-01-06T08:59:26Z</time>
      </trkpt>
      <trkpt lat="48.97754" lon="1.12597">
        <ele>105.900002</ele>
        <time>2019-01-06T08:59:32Z</time>
      </trkpt>
      <trkpt lat="48.97744" lon="1.12596">
        <ele>106.699997</ele>
        <time>2019-01-06T08:59:37Z</time>
      </trkpt>
      <trkpt lat="48.97734" lon="1.12596">
        <ele>106.900002</ele>
        <time>2019-01-06T08:59:42Z</time>
      </trkpt>
      <trkpt lat="48.97724" lon="1.12594">
        <ele>107.5</ele>
        <time>2019-01-06T08:59:48Z</time>
      </trkpt>
      <trkpt lat="48.97714" lon="1.12591">
        <ele>108.300003</ele>
        <time>2019-01-06T08:59:54Z</time>
      </trkpt>
      <trkpt lat="48.97704" lon="1.1259">
        <ele>108.900002</ele>
        <time>2019-01-06T08:59:58Z</time>
      </trkpt>
      <trkpt lat="48.97693" lon="1.12589">
        <ele>108.900002</ele>
        <time>2019-01-06T09:00:02Z</time>
      </trkpt>
      <trkpt lat="48.97682" lon="1.12587">
        <ele>108.400002</ele>
        <time>2019-01-06T09:00:06Z</time>
      </trkpt>
      <trkpt lat="48.97672" lon="1.12585">
        <ele>108.300003</ele>
        <time>2019-01-06T09:00:10Z</time>
      </trkpt>
      <trkpt lat="48.97661" lon="1.12585">
        <ele>108.099998</ele>
        <time>2019-01-06T09:00:14Z</time>
      </trkpt>
      <trkpt lat="48.97651" lon="1.12585">
        <ele>108.400002</ele>
        <time>2019-01-06T09:00:18Z</time>
      </trkpt>
      <trkpt lat="48.97641" lon="1.12586">
        <ele>109.199997</ele>
        <time>2019-01-06T09:00:23Z</time>
      </trkpt>
      <trkpt lat="48.97633" lon="1.12582">
        <ele>110.300003</ele>
        <time>2019-01-06T09:00:28Z</time>
      </trkpt>
      <trkpt lat="48.97623" lon="1.1258">
        <ele>110.099998</ele>
        <time>2019-01-06T09:00:32Z</time>
      </trkpt>
      <trkpt lat="48.97613" lon="1.12578">
        <ele>111.300003</ele>
        <time>2019-01-06T09:00:37Z</time>
      </trkpt>
      <trkpt lat="48.97604" lon="1.12577">
        <ele>112.400002</ele>
        <time>2019-01-06T09:00:42Z</time>
      </trkpt>
      <trkpt lat="48.97594" lon="1.12576">
        <ele>113.5</ele>
        <time>2019-01-06T09:00:47Z</time>
      </trkpt>
      <trkpt lat="48.97585" lon="1.12575">
        <ele>114.599998</ele>
        <time>2019-01-06T09:00:52Z</time>
      </trkpt>
      <trkpt lat="48.97575" lon="1.12574">
        <ele>115.599998</ele>
        <time>2019-01-06T09:00:57Z</time>
      </trkpt>
      <trkpt lat="48.97564" lon="1.12573">
        <ele>117.099998</ele>
        <time>2019-01-06T09:01:03Z</time>
      </trkpt>
      <trkpt lat="48.97555" lon="1.12572">
        <ele>117.300003</ele>
        <time>2019-01-06T09:01:08Z</time>
      </trkpt>
      <trkpt lat="48.97545" lon="1.12571">
        <ele>118.900002</ele>
        <time>2019-01-06T09:01:14Z</time>
      </trkpt>
      <trkpt lat="48.97535" lon="1.1257">
        <ele>119.5</ele>
        <time>2019-01-06T09:01:21Z</time>
      </trkpt>
      <trkpt lat="48.97526" lon="1.12567">
        <ele>120.599998</ele>
        <time>2019-01-06T09:01:28Z</time>
      </trkpt>
      <trkpt lat="48.97517" lon="1.12565">
        <ele>121.699997</ele>
        <time>2019-01-06T09:01:34Z</time>
      </trkpt>
      <trkpt lat="48.97508" lon="1.12563">
        <ele>122.400002</ele>
        <time>2019-01-06T09:01:40Z</time>
      </trkpt>
      <trkpt lat="48.97499" lon="1.12563">
        <ele>123.599998</ele>
        <time>2019-01-06T09:01:46Z</time>
      </trkpt>
      <trkpt lat="48.97489" lon="1.12564">
        <ele>124.900002</ele>
        <time>2019-01-06T09:01:52Z</time>
      </trkpt>
      <trkpt lat="48.97477" lon="1.12564">
        <ele>125.900002</ele>
        <time>2019-01-06T09:01:59Z</time>
      </trkpt>
      <trkpt lat="48.97468" lon="1.12562">
        <ele>126.5</ele>
        <time>2019-01-06T09:02:04Z</time>
      </trkpt>
      <trkpt lat="48.97459" lon="1.1256">
        <ele>127</ele>
        <time>2019-01-06T09:02:09Z</time>
      </trkpt>
      <trkpt lat="48.97448" lon="1.12559">
        <ele>127.900002</ele>
        <time>2019-01-06T09:02:15Z</time>
      </trkpt>
      <trkpt lat="48.97437" lon="1.12558">
        <ele>128.699997</ele>
        <time>2019-01-06T09:02:20Z</time>
      </trkpt>
      <trkpt lat="48.97427" lon="1.12557">
        <ele>129</ele>
        <time>2019-01-06T09:02:24Z</time>
      </trkpt>
      <trkpt lat="48.97418" lon="1.12557">
        <ele>130</ele>
        <time>2019-01-06T09:02:28Z</time>
      </trkpt>
      <trkpt lat="48.97407" lon="1.12557">
        <ele>130.5</ele>
        <time>2019-01-06T09:02:33Z</time>
      </trkpt>
      <trkpt lat="48.97398" lon="1.12556">
        <ele>130.399994</ele>
        <time>2019-01-06T09:02:38Z</time>
      </trkpt>
      <trkpt lat="48.97388" lon="1.12555">
        <ele>130.800003</ele>
        <time>2019-01-06T09:02:43Z</time>
      </trkpt>
      <trkpt lat="48.97377" lon="1.12554">
        <ele>131.600006</ele>
        <time>2019-01-06T09:02:48Z</time>
      </trkpt>
      <trkpt lat="48.97366" lon="1.12552">
        <ele>131.699997</ele>
        <time>2019-01-06T09:02:53Z</time>
      </trkpt>
      <trkpt lat="48.97356" lon="1.12551">
        <ele>132.199997</ele>
        <time>2019-01-06T09:02:58Z</time>
      </trkpt>
      <trkpt lat="48.97347" lon="1.12551">
        <ele>132.5</ele>
        <time>2019-01-06T09:03:02Z</time>
      </trkpt>
      <trkpt lat="48.97336" lon="1.12549">
        <ele>133.100006</ele>
        <time>2019-01-06T09:03:07Z</time>
      </trkpt>
      <trkpt lat="48.97326" lon="1.12548">
        <ele>133.300003</ele>
        <time>2019-01-06T09:03:11Z</time>
      </trkpt>
      <trkpt lat="48.97316" lon="1.12547">
        <ele>133</ele>
        <time>2019-01-06T09:03:15Z</time>
      </trkpt>
      <trkpt lat="48.97306" lon="1.12545">
        <ele>133.699997</ele>
        <time>2019-01-06T09:03:19Z</time>
      </trkpt>
      <trkpt lat="48.97297" lon="1.12544">
        <ele>134.199997</ele>
        <time>2019-01-06T09:03:23Z</time>
      </trkpt>
      <trkpt lat="48.97286" lon="1.12543">
        <ele>134.399994</ele>
        <time>2019-01-06T09:03:28Z</time>
      </trkpt>
      <trkpt lat="48.97277" lon="1.12542">
        <ele>134.5</ele>
        <time>2019-01-06T09:03:32Z</time>
      </trkpt>
      <trkpt lat="48.97266" lon="1.12541">
        <ele>134.800003</ele>
        <time>2019-01-06T09:03:37Z</time>
      </trkpt>
      <trkpt lat="48.97257" lon="1.1254">
        <ele>135.399994</ele>
        <time>2019-01-06T09:03:41Z</time>
      </trkpt>
      <trkpt lat="48.97247" lon="1.12539">
        <ele>135.699997</ele>
        <time>2019-01-06T09:03:45Z</time>
      </trkpt>
      <trkpt lat="48.97237" lon="1.12537">
        <ele>135.699997</ele>
        <time>2019-01-06T09:03:49Z</time>
      </trkpt>
      <trkpt lat="48.97227" lon="1.12536">
        <ele>135.899994</ele>
        <time>2019-01-06T09:03:54Z</time>
      </trkpt>
      <trkpt lat="48.97218" lon="1.12535">
        <ele>136.199997</ele>
        <time>2019-01-06T09:03:59Z</time>
      </trkpt>
      <trkpt lat="48.97208" lon="1.12534">
        <ele>136.300003</ele>
        <time>2019-01-06T09:04:03Z</time>
      </trkpt>
      <trkpt lat="48.97198" lon="1.12533">
        <ele>135.600006</ele>
        <time>2019-01-06T09:04:07Z</time>
      </trkpt>
      <trkpt lat="48.97187" lon="1.12531">
        <ele>136.399994</ele>
        <time>2019-01-06T09:04:12Z</time>
      </trkpt>
      <trkpt lat="48.97177" lon="1.12527">
        <ele>136.699997</ele>
        <time>2019-01-06T09:04:17Z</time>
      </trkpt>
      <trkpt lat="48.97167" lon="1.12528">
        <ele>137</ele>
        <time>2019-01-06T09:04:21Z</time>
      </trkpt>
      <trkpt lat="48.97158" lon="1.12536">
        <ele>137.199997</ele>
        <time>2019-01-06T09:04:26Z</time>
      </trkpt>
      <trkpt lat="48.97149" lon="1.1254">
        <ele>137.300003</ele>
        <time>2019-01-06T09:04:34Z</time>
      </trkpt>
      <trkpt lat="48.97141" lon="1.12548">
        <ele>136.899994</ele>
        <time>2019-01-06T09:05:50Z</time>
      </trkpt>
      <trkpt lat="48.97131" lon="1.12552">
        <ele>137</ele>
        <time>2019-01-06T09:05:55Z</time>
      </trkpt>
      <trkpt lat="48.97122" lon="1.12558">
        <ele>136.399994</ele>
        <time>2019-01-06T09:06:00Z</time>
      </trkpt>
      <trkpt lat="48.97113" lon="1.12565">
        <ele>136.300003</ele>
        <time>2019-01-06T09:06:05Z</time>
      </trkpt>
      <trkpt lat="48.97105" lon="1.12574">
        <ele>135.800003</ele>
        <time>2019-01-06T09:06:10Z</time>
      </trkpt>
      <trkpt lat="48.97097" lon="1.1258">
        <ele>136.100006</ele>
        <time>2019-01-06T09:06:14Z</time>
      </trkpt>
      <trkpt lat="48.97089" lon="1.12589">
        <ele>136</ele>
        <time>2019-01-06T09:06:18Z</time>
      </trkpt>
      <trkpt lat="48.97081" lon="1.12597">
        <ele>135.399994</ele>
        <time>2019-01-06T09:06:22Z</time>
      </trkpt>
      <trkpt lat="48.97072" lon="1.12606">
        <ele>135.5</ele>
        <time>2019-01-06T09:06:27Z</time>
      </trkpt>
      <trkpt lat="48.97062" lon="1.12615">
        <ele>134.800003</ele>
        <time>2019-01-06T09:06:31Z</time>
      </trkpt>
      <trkpt lat="48.97054" lon="1.12623">
        <ele>135</ele>
        <time>2019-01-06T09:06:34Z</time>
      </trkpt>
      <trkpt lat="48.97045" lon="1.12632">
        <ele>135.199997</ele>
        <time>2019-01-06T09:06:37Z</time>
      </trkpt>
      <trkpt lat="48.97037" lon="1.1264">
        <ele>135.800003</ele>
        <time>2019-01-06T09:06:40Z</time>
      </trkpt>
      <trkpt lat="48.97029" lon="1.12649">
        <ele>135.899994</ele>
        <time>2019-01-06T09:06:43Z</time>
      </trkpt>
      <trkpt lat="48.9702" lon="1.12658">
        <ele>136</ele>
        <time>2019-01-06T09:06:46Z</time>
      </trkpt>
      <trkpt lat="48.97012" lon="1.12666">
        <ele>136.199997</ele>
        <time>2019-01-06T09:06:49Z</time>
      </trkpt>
      <trkpt lat="48.97004" lon="1.12673">
        <ele>136.699997</ele>
        <time>2019-01-06T09:06:52Z</time>
      </trkpt>
      <trkpt lat="48.96995" lon="1.12682">
        <ele>136.399994</ele>
        <time>2019-01-06T09:06:55Z</time>
      </trkpt>
      <trkpt lat="48.96987" lon="1.12691">
        <ele>137.199997</ele>
        <time>2019-01-06T09:06:58Z</time>
      </trkpt>
      <trkpt lat="48.96978" lon="1.12701">
        <ele>137.199997</ele>
        <time>2019-01-06T09:07:01Z</time>
      </trkpt>
      <trkpt lat="48.9697" lon="1.1271">
        <ele>136.899994</ele>
        <time>2019-01-06T09:07:04Z</time>
      </trkpt>
      <trkpt lat="48.96961" lon="1.12717">
        <ele>135.800003</ele>
        <time>2019-01-06T09:07:07Z</time>
      </trkpt>
      <trkpt lat="48.96952" lon="1.12725">
        <ele>136.199997</ele>
        <time>2019-01-06T09:07:10Z</time>
      </trkpt>
      <trkpt lat="48.96944" lon="1.12734">
        <ele>136.199997</ele>
        <time>2019-01-06T09:07:13Z</time>
      </trkpt>
      <trkpt lat="48.96935" lon="1.12743">
        <ele>136.600006</ele>
        <time>2019-01-06T09:07:16Z</time>
      </trkpt>
      <trkpt lat="48.96926" lon="1.12752">
        <ele>136.5</ele>
        <time>2019-01-06T09:07:19Z</time>
      </trkpt>
      <trkpt lat="48.96918" lon="1.12761">
        <ele>136.399994</ele>
        <time>2019-01-06T09:07:22Z</time>
      </trkpt>
      <trkpt lat="48.96909" lon="1.1277">
        <ele>136.600006</ele>
        <time>2019-01-06T09:07:25Z</time>
      </trkpt>
      <trkpt lat="48.969" lon="1.12779">
        <ele>136.699997</ele>
        <time>2019-01-06T09:07:28Z</time>
      </trkpt>
      <trkpt lat="48.96891" lon="1.12788">
        <ele>136.899994</ele>
        <time>2019-01-06T09:07:31Z</time>
      </trkpt>
      <trkpt lat="48.96883" lon="1.12796">
        <ele>136.899994</ele>
        <time>2019-01-06T09:07:34Z</time>
      </trkpt>
      <trkpt lat="48.96875" lon="1.12804">
        <ele>137.199997</ele>
        <time>2019-01-06T09:07:37Z</time>
      </trkpt>
      <trkpt lat="48.96867" lon="1.12814">
        <ele>137.100006</ele>
        <time>2019-01-06T09:07:40Z</time>
      </trkpt>
      <trkpt lat="48.96857" lon="1.12823">
        <ele>137.5</ele>
        <time>2019-01-06T09:07:43Z</time>
      </trkpt>
      <trkpt lat="48.96848" lon="1.12831">
        <ele>137.899994</ele>
        <time>2019-01-06T09:07:46Z</time>
      </trkpt>
      <trkpt lat="48.96839" lon="1.1284">
        <ele>138.100006</ele>
        <time>2019-01-06T09:07:49Z</time>
      </trkpt>
      <trkpt lat="48.96831" lon="1.12848">
        <ele>137.5</ele>
        <time>2019-01-06T09:07:52Z</time>
      </trkpt>
      <trkpt lat="48.96823" lon="1.12857">
        <ele>137.5</ele>
        <time>2019-01-06T09:07:55Z</time>
      </trkpt>
      <trkpt lat="48.96815" lon="1.12866">
        <ele>138.100006</ele>
        <time>2019-01-06T09:07:58Z</time>
      </trkpt>
      <trkpt lat="48.96807" lon="1.12875">
        <ele>138.5</ele>
        <time>2019-01-06T09:08:01Z</time>
      </trkpt>
      <trkpt lat="48.96798" lon="1.12884">
        <ele>138.5</ele>
        <time>2019-01-06T09:08:04Z</time>
      </trkpt>
      <trkpt lat="48.96789" lon="1.12892">
        <ele>139</ele>
        <time>2019-01-06T09:08:07Z</time>
      </trkpt>
      <trkpt lat="48.96781" lon="1.129">
        <ele>139</ele>
        <time>2019-01-06T09:08:10Z</time>
      </trkpt>
      <trkpt lat="48.96772" lon="1.12909">
        <ele>138.800003</ele>
        <time>2019-01-06T09:08:13Z</time>
      </trkpt>
      <trkpt lat="48.96763" lon="1.12917">
        <ele>139.199997</ele>
        <time>2019-01-06T09:08:16Z</time>
      </trkpt>
      <trkpt lat="48.96755" lon="1.12926">
        <ele>139.300003</ele>
        <time>2019-01-06T09:08:19Z</time>
      </trkpt>
      <trkpt lat="48.96746" lon="1.12935">
        <ele>137.899994</ele>
        <time>2019-01-06T09:08:22Z</time>
      </trkpt>
      <trkpt lat="48.96737" lon="1.12943">
        <ele>138.699997</ele>
        <time>2019-01-06T09:08:25Z</time>
      </trkpt>
      <trkpt lat="48.96729" lon="1.1295">
        <ele>139.199997</ele>
        <time>2019-01-06T09:08:28Z</time>
      </trkpt>
      <trkpt lat="48.9672" lon="1.12959">
        <ele>138.899994</ele>
        <time>2019-01-06T09:08:31Z</time>
      </trkpt>
      <trkpt lat="48.96711" lon="1.12967">
        <ele>139.300003</ele>
        <time>2019-01-06T09:08:34Z</time>
      </trkpt>
      <trkpt lat="48.96702" lon="1.12976">
        <ele>139.100006</ele>
        <time>2019-01-06T09:08:37Z</time>
      </trkpt>
      <trkpt lat="48.96693" lon="1.12985">
        <ele>138.899994</ele>
        <time>2019-01-06T09:08:40Z</time>
      </trkpt>
      <trkpt lat="48.96683" lon="1.12995">
        <ele>139.300003</ele>
        <time>2019-01-06T09:08:43Z</time>
      </trkpt>
      <trkpt lat="48.96674" lon="1.13006">
        <ele>139.600006</ele>
        <time>2019-01-06T09:08:46Z</time>
      </trkpt>
      <trkpt lat="48.96664" lon="1.13016">
        <ele>139.399994</ele>
        <time>2019-01-06T09:08:49Z</time>
      </trkpt>
      <trkpt lat="48.96654" lon="1.13027">
        <ele>139.399994</ele>
        <time>2019-01-06T09:08:52Z</time>
      </trkpt>
      <trkpt lat="48.96644" lon="1.13037">
        <ele>138.300003</ele>
        <time>2019-01-06T09:08:55Z</time>
      </trkpt>
      <trkpt lat="48.96633" lon="1.13046">
        <ele>138.600006</ele>
        <time>2019-01-06T09:08:58Z</time>
      </trkpt>
      <trkpt lat="48.96623" lon="1.13056">
        <ele>138.600006</ele>
        <time>2019-01-06T09:09:01Z</time>
      </trkpt>
      <trkpt lat="48.96613" lon="1.13068">
        <ele>138.199997</ele>
        <time>2019-01-06T09:09:04Z</time>
      </trkpt>
      <trkpt lat="48.96602" lon="1.13078">
        <ele>138.100006</ele>
        <time>2019-01-06T09:09:07Z</time>
      </trkpt>
      <trkpt lat="48.96591" lon="1.13089">
        <ele>136.899994</ele>
        <time>2019-01-06T09:09:10Z</time>
      </trkpt>
      <trkpt lat="48.96583" lon="1.13097">
        <ele>136.800003</ele>
        <time>2019-01-06T09:09:12Z</time>
      </trkpt>
      <trkpt lat="48.96575" lon="1.13106">
        <ele>136.100006</ele>
        <time>2019-01-06T09:09:14Z</time>
      </trkpt>
      <trkpt lat="48.96565" lon="1.13116">
        <ele>135.899994</ele>
        <time>2019-01-06T09:09:16Z</time>
      </trkpt>
      <trkpt lat="48.96555" lon="1.13126">
        <ele>135.100006</ele>
        <time>2019-01-06T09:09:18Z</time>
      </trkpt>
      <trkpt lat="48.96546" lon="1.13135">
        <ele>134.800003</ele>
        <time>2019-01-06T09:09:20Z</time>
      </trkpt>
      <trkpt lat="48.96537" lon="1.13147">
        <ele>134.5</ele>
        <time>2019-01-06T09:09:22Z</time>
      </trkpt>
      <trkpt lat="48.96528" lon="1.13156">
        <ele>134.5</ele>
        <time>2019-01-06T09:09:24Z</time>
      </trkpt>
      <trkpt lat="48.96521" lon="1.13164">
        <ele>134</ele>
        <time>2019-01-06T09:09:26Z</time>
      </trkpt>
      <trkpt lat="48.9651" lon="1.13174">
        <ele>135</ele>
        <time>2019-01-06T09:09:29Z</time>
      </trkpt>
      <trkpt lat="48.96499" lon="1.13185">
        <ele>135.800003</ele>
        <time>2019-01-06T09:09:32Z</time>
      </trkpt>
      <trkpt lat="48.96489" lon="1.13195">
        <ele>137</ele>
        <time>2019-01-06T09:09:35Z</time>
      </trkpt>
      <trkpt lat="48.9648" lon="1.13205">
        <ele>136.399994</ele>
        <time>2019-01-06T09:09:38Z</time>
      </trkpt>
      <trkpt lat="48.9647" lon="1.13214">
        <ele>136.600006</ele>
        <time>2019-01-06T09:09:41Z</time>
      </trkpt>
      <trkpt lat="48.9646" lon="1.13223">
        <ele>137.300003</ele>
        <time>2019-01-06T09:09:44Z</time>
      </trkpt>
      <trkpt lat="48.9645" lon="1.13232">
        <ele>138.100006</ele>
        <time>2019-01-06T09:09:47Z</time>
      </trkpt>
      <trkpt lat="48.9644" lon="1.13242">
        <ele>138</ele>
        <time>2019-01-06T09:09:50Z</time>
      </trkpt>
      <trkpt lat="48.9643" lon="1.13253">
        <ele>137.800003</ele>
        <time>2019-01-06T09:09:53Z</time>
      </trkpt>
      <trkpt lat="48.96419" lon="1.13263">
        <ele>138.300003</ele>
        <time>2019-01-06T09:09:56Z</time>
      </trkpt>
      <trkpt lat="48.96409" lon="1.13273">
        <ele>138.100006</ele>
        <time>2019-01-06T09:09:59Z</time>
      </trkpt>
      <trkpt lat="48.96399" lon="1.13284">
        <ele>137.899994</ele>
        <time>2019-01-06T09:10:02Z</time>
      </trkpt>
      <trkpt lat="48.96388" lon="1.13294">
        <ele>137.899994</ele>
        <time>2019-01-06T09:10:05Z</time>
      </trkpt>
      <trkpt lat="48.96377" lon="1.13305">
        <ele>137.5</ele>
        <time>2019-01-06T09:10:08Z</time>
      </trkpt>
      <trkpt lat="48.96367" lon="1.13315">
        <ele>137.800003</ele>
        <time>2019-01-06T09:10:11Z</time>
      </trkpt>
      <trkpt lat="48.96356" lon="1.13326">
        <ele>137.899994</ele>
        <time>2019-01-06T09:10:14Z</time>
      </trkpt>
      <trkpt lat="48.96346" lon="1.13336">
        <ele>137.5</ele>
        <time>2019-01-06T09:10:17Z</time>
      </trkpt>
      <trkpt lat="48.96336" lon="1.13346">
        <ele>137.300003</ele>
        <time>2019-01-06T09:10:20Z</time>
      </trkpt>
      <trkpt lat="48.96329" lon="1.13354">
        <ele>137.399994</ele>
        <time>2019-01-06T09:10:22Z</time>
      </trkpt>
      <trkpt lat="48.9632" lon="1.13362">
        <ele>136.300003</ele>
        <time>2019-01-06T09:10:24Z</time>
      </trkpt>
      <trkpt lat="48.96312" lon="1.13371">
        <ele>135.899994</ele>
        <time>2019-01-06T09:10:26Z</time>
      </trkpt>
      <trkpt lat="48.96304" lon="1.13379">
        <ele>135.699997</ele>
        <time>2019-01-06T09:10:28Z</time>
      </trkpt>
      <trkpt lat="48.96295" lon="1.13386">
        <ele>135.600006</ele>
        <time>2019-01-06T09:10:30Z</time>
      </trkpt>
      <trkpt lat="48.96288" lon="1.13393">
        <ele>135.699997</ele>
        <time>2019-01-06T09:10:32Z</time>
      </trkpt>
      <trkpt lat="48.96277" lon="1.13404">
        <ele>135.300003</ele>
        <time>2019-01-06T09:10:35Z</time>
      </trkpt>
      <trkpt lat="48.96266" lon="1.13415">
        <ele>134.600006</ele>
        <time>2019-01-06T09:10:38Z</time>
      </trkpt>
      <trkpt lat="48.96257" lon="1.13424">
        <ele>135.300003</ele>
        <time>2019-01-06T09:10:41Z</time>
      </trkpt>
      <trkpt lat="48.96248" lon="1.13432">
        <ele>136.300003</ele>
        <time>2019-01-06T09:10:44Z</time>
      </trkpt>
      <trkpt lat="48.96239" lon="1.13442">
        <ele>136.800003</ele>
        <time>2019-01-06T09:10:47Z</time>
      </trkpt>
      <trkpt lat="48.96231" lon="1.1345">
        <ele>137.100006</ele>
        <time>2019-01-06T09:10:50Z</time>
      </trkpt>
      <trkpt lat="48.96222" lon="1.1346">
        <ele>137.699997</ele>
        <time>2019-01-06T09:10:55Z</time>
      </trkpt>
      <trkpt lat="48.96213" lon="1.13469">
        <ele>138.199997</ele>
        <time>2019-01-06T09:10:59Z</time>
      </trkpt>
      <trkpt lat="48.96203" lon="1.13479">
        <ele>138.5</ele>
        <time>2019-01-06T09:11:03Z</time>
      </trkpt>
      <trkpt lat="48.96195" lon="1.13487">
        <ele>138.800003</ele>
        <time>2019-01-06T09:11:06Z</time>
      </trkpt>
      <trkpt lat="48.96187" lon="1.13496">
        <ele>138.899994</ele>
        <time>2019-01-06T09:11:09Z</time>
      </trkpt>
      <trkpt lat="48.96179" lon="1.13505">
        <ele>139.199997</ele>
        <time>2019-01-06T09:11:12Z</time>
      </trkpt>
      <trkpt lat="48.9617" lon="1.13514">
        <ele>139.399994</ele>
        <time>2019-01-06T09:11:15Z</time>
      </trkpt>
      <trkpt lat="48.9616" lon="1.13523">
        <ele>139.699997</ele>
        <time>2019-01-06T09:11:18Z</time>
      </trkpt>
      <trkpt lat="48.96151" lon="1.13532">
        <ele>140</ele>
        <time>2019-01-06T09:11:21Z</time>
      </trkpt>
      <trkpt lat="48.96141" lon="1.13542">
        <ele>140</ele>
        <time>2019-01-06T09:11:24Z</time>
      </trkpt>
      <trkpt lat="48.96132" lon="1.13552">
        <ele>140.399994</ele>
        <time>2019-01-06T09:11:27Z</time>
      </trkpt>
      <trkpt lat="48.96122" lon="1.13561">
        <ele>140.399994</ele>
        <time>2019-01-06T09:11:30Z</time>
      </trkpt>
      <trkpt lat="48.96112" lon="1.13571">
        <ele>140.5</ele>
        <time>2019-01-06T09:11:33Z</time>
      </trkpt>
      <trkpt lat="48.96102" lon="1.1358">
        <ele>141.100006</ele>
        <time>2019-01-06T09:11:36Z</time>
      </trkpt>
      <trkpt lat="48.96092" lon="1.13591">
        <ele>141.5</ele>
        <time>2019-01-06T09:11:39Z</time>
      </trkpt>
      <trkpt lat="48.96082" lon="1.13601">
        <ele>141.800003</ele>
        <time>2019-01-06T09:11:42Z</time>
      </trkpt>
      <trkpt lat="48.96072" lon="1.13611">
        <ele>142.100006</ele>
        <time>2019-01-06T09:11:45Z</time>
      </trkpt>
      <trkpt lat="48.96061" lon="1.1362">
        <ele>142.699997</ele>
        <time>2019-01-06T09:11:48Z</time>
      </trkpt>
      <trkpt lat="48.96051" lon="1.13631">
        <ele>142.800003</ele>
        <time>2019-01-06T09:11:51Z</time>
      </trkpt>
      <trkpt lat="48.96041" lon="1.1364">
        <ele>143.300003</ele>
        <time>2019-01-06T09:11:54Z</time>
      </trkpt>
      <trkpt lat="48.96032" lon="1.1365">
        <ele>143.800003</ele>
        <time>2019-01-06T09:11:57Z</time>
      </trkpt>
      <trkpt lat="48.96022" lon="1.13659">
        <ele>144</ele>
        <time>2019-01-06T09:12:00Z</time>
      </trkpt>
      <trkpt lat="48.96014" lon="1.13672">
        <ele>144.100006</ele>
        <time>2019-01-06T09:12:03Z</time>
      </trkpt>
      <trkpt lat="48.96013" lon="1.13688">
        <ele>144.800003</ele>
        <time>2019-01-06T09:12:06Z</time>
      </trkpt>
      <trkpt lat="48.96019" lon="1.13704">
        <ele>145.100006</ele>
        <time>2019-01-06T09:12:09Z</time>
      </trkpt>
      <trkpt lat="48.96027" lon="1.13719">
        <ele>145.199997</ele>
        <time>2019-01-06T09:12:12Z</time>
      </trkpt>
      <trkpt lat="48.96035" lon="1.13735">
        <ele>145</ele>
        <time>2019-01-06T09:12:15Z</time>
      </trkpt>
      <trkpt lat="48.96042" lon="1.13752">
        <ele>144.800003</ele>
        <time>2019-01-06T09:12:18Z</time>
      </trkpt>
      <trkpt lat="48.96049" lon="1.13769">
        <ele>144.800003</ele>
        <time>2019-01-06T09:12:21Z</time>
      </trkpt>
      <trkpt lat="48.96055" lon="1.13787">
        <ele>144.899994</ele>
        <time>2019-01-06T09:12:24Z</time>
      </trkpt>
      <trkpt lat="48.96059" lon="1.138">
        <ele>144.899994</ele>
        <time>2019-01-06T09:12:26Z</time>
      </trkpt>
      <trkpt lat="48.96065" lon="1.13818">
        <ele>144.899994</ele>
        <time>2019-01-06T09:12:29Z</time>
      </trkpt>
      <trkpt lat="48.96071" lon="1.13835">
        <ele>144.600006</ele>
        <time>2019-01-06T09:12:32Z</time>
      </trkpt>
      <trkpt lat="48.96075" lon="1.13848">
        <ele>144.600006</ele>
        <time>2019-01-06T09:12:34Z</time>
      </trkpt>
      <trkpt lat="48.96079" lon="1.1386">
        <ele>144.600006</ele>
        <time>2019-01-06T09:12:36Z</time>
      </trkpt>
      <trkpt lat="48.96085" lon="1.13878">
        <ele>144.199997</ele>
        <time>2019-01-06T09:12:39Z</time>
      </trkpt>
      <trkpt lat="48.96089" lon="1.13891">
        <ele>144</ele>
        <time>2019-01-06T09:12:41Z</time>
      </trkpt>
      <trkpt lat="48.96093" lon="1.13903">
        <ele>143.899994</ele>
        <time>2019-01-06T09:12:43Z</time>
      </trkpt>
      <trkpt lat="48.96097" lon="1.13916">
        <ele>143.5</ele>
        <time>2019-01-06T09:12:45Z</time>
      </trkpt>
      <trkpt lat="48.96101" lon="1.13929">
        <ele>143.600006</ele>
        <time>2019-01-06T09:12:47Z</time>
      </trkpt>
      <trkpt lat="48.96106" lon="1.13941">
        <ele>143.800003</ele>
        <time>2019-01-06T09:12:49Z</time>
      </trkpt>
      <trkpt lat="48.96113" lon="1.13959">
        <ele>143.600006</ele>
        <time>2019-01-06T09:12:52Z</time>
      </trkpt>
      <trkpt lat="48.96117" lon="1.13971">
        <ele>143.5</ele>
        <time>2019-01-06T09:12:54Z</time>
      </trkpt>
      <trkpt lat="48.96121" lon="1.13983">
        <ele>143.699997</ele>
        <time>2019-01-06T09:12:56Z</time>
      </trkpt>
      <trkpt lat="48.96126" lon="1.13996">
        <ele>143.800003</ele>
        <time>2019-01-06T09:12:58Z</time>
      </trkpt>
      <trkpt lat="48.9613" lon="1.14008">
        <ele>143.600006</ele>
        <time>2019-01-06T09:13:00Z</time>
      </trkpt>
      <trkpt lat="48.96134" lon="1.14021">
        <ele>143.5</ele>
        <time>2019-01-06T09:13:02Z</time>
      </trkpt>
      <trkpt lat="48.96139" lon="1.14034">
        <ele>143.5</ele>
        <time>2019-01-06T09:13:04Z</time>
      </trkpt>
      <trkpt lat="48.96143" lon="1.14046">
        <ele>143.5</ele>
        <time>2019-01-06T09:13:06Z</time>
      </trkpt>
      <trkpt lat="48.96149" lon="1.14064">
        <ele>143.600006</ele>
        <time>2019-01-06T09:13:09Z</time>
      </trkpt>
      <trkpt lat="48.96155" lon="1.14082">
        <ele>143.5</ele>
        <time>2019-01-06T09:13:12Z</time>
      </trkpt>
      <trkpt lat="48.96162" lon="1.141">
        <ele>143.600006</ele>
        <time>2019-01-06T09:13:15Z</time>
      </trkpt>
      <trkpt lat="48.96164" lon="1.1412">
        <ele>143.399994</ele>
        <time>2019-01-06T09:13:18Z</time>
      </trkpt>
      <trkpt lat="48.96162" lon="1.14133">
        <ele>143.399994</ele>
        <time>2019-01-06T09:13:20Z</time>
      </trkpt>
      <trkpt lat="48.96157" lon="1.14146">
        <ele>143.5</ele>
        <time>2019-01-06T09:13:22Z</time>
      </trkpt>
      <trkpt lat="48.9615" lon="1.14163">
        <ele>143.399994</ele>
        <time>2019-01-06T09:13:25Z</time>
      </trkpt>
      <trkpt lat="48.96142" lon="1.1418">
        <ele>143.699997</ele>
        <time>2019-01-06T09:13:28Z</time>
      </trkpt>
      <trkpt lat="48.96137" lon="1.14192">
        <ele>144.300003</ele>
        <time>2019-01-06T09:13:30Z</time>
      </trkpt>
      <trkpt lat="48.96132" lon="1.14204">
        <ele>144.600006</ele>
        <time>2019-01-06T09:13:32Z</time>
      </trkpt>
      <trkpt lat="48.96127" lon="1.14216">
        <ele>144.600006</ele>
        <time>2019-01-06T09:13:34Z</time>
      </trkpt>
      <trkpt lat="48.96122" lon="1.14227">
        <ele>144.600006</ele>
        <time>2019-01-06T09:13:36Z</time>
      </trkpt>
      <trkpt lat="48.96117" lon="1.14239">
        <ele>144.5</ele>
        <time>2019-01-06T09:13:38Z</time>
      </trkpt>
      <trkpt lat="48.96111" lon="1.14251">
        <ele>144.600006</ele>
        <time>2019-01-06T09:13:40Z</time>
      </trkpt>
      <trkpt lat="48.96106" lon="1.14263">
        <ele>144.699997</ele>
        <time>2019-01-06T09:13:42Z</time>
      </trkpt>
      <trkpt lat="48.961" lon="1.14275">
        <ele>144.699997</ele>
        <time>2019-01-06T09:13:44Z</time>
      </trkpt>
      <trkpt lat="48.96095" lon="1.14287">
        <ele>144.399994</ele>
        <time>2019-01-06T09:13:46Z</time>
      </trkpt>
      <trkpt lat="48.96089" lon="1.14299">
        <ele>144.5</ele>
        <time>2019-01-06T09:13:48Z</time>
      </trkpt>
      <trkpt lat="48.96084" lon="1.1431">
        <ele>144.399994</ele>
        <time>2019-01-06T09:13:50Z</time>
      </trkpt>
      <trkpt lat="48.96078" lon="1.14322">
        <ele>144.899994</ele>
        <time>2019-01-06T09:13:52Z</time>
      </trkpt>
      <trkpt lat="48.96072" lon="1.14334">
        <ele>144.699997</ele>
        <time>2019-01-06T09:13:54Z</time>
      </trkpt>
      <trkpt lat="48.96066" lon="1.14347">
        <ele>144.5</ele>
        <time>2019-01-06T09:13:56Z</time>
      </trkpt>
      <trkpt lat="48.9606" lon="1.14359">
        <ele>144.5</ele>
        <time>2019-01-06T09:13:58Z</time>
      </trkpt>
      <trkpt lat="48.96053" lon="1.14371">
        <ele>144.600006</ele>
        <time>2019-01-06T09:14:00Z</time>
      </trkpt>
      <trkpt lat="48.96047" lon="1.14383">
        <ele>144.5</ele>
        <time>2019-01-06T09:14:02Z</time>
      </trkpt>
      <trkpt lat="48.96041" lon="1.14395">
        <ele>144.199997</ele>
        <time>2019-01-06T09:14:04Z</time>
      </trkpt>
      <trkpt lat="48.96034" lon="1.14408">
        <ele>144</ele>
        <time>2019-01-06T09:14:06Z</time>
      </trkpt>
      <trkpt lat="48.96028" lon="1.1442">
        <ele>143.300003</ele>
        <time>2019-01-06T09:14:08Z</time>
      </trkpt>
      <trkpt lat="48.96021" lon="1.14433">
        <ele>143.399994</ele>
        <time>2019-01-06T09:14:10Z</time>
      </trkpt>
      <trkpt lat="48.96014" lon="1.14446">
        <ele>143.100006</ele>
        <time>2019-01-06T09:14:12Z</time>
      </trkpt>
      <trkpt lat="48.96008" lon="1.14458">
        <ele>142.899994</ele>
        <time>2019-01-06T09:14:14Z</time>
      </trkpt>
      <trkpt lat="48.96001" lon="1.14471">
        <ele>142.600006</ele>
        <time>2019-01-06T09:14:16Z</time>
      </trkpt>
      <trkpt lat="48.95994" lon="1.14483">
        <ele>142.800003</ele>
        <time>2019-01-06T09:14:18Z</time>
      </trkpt>
      <trkpt lat="48.95987" lon="1.14496">
        <ele>142.5</ele>
        <time>2019-01-06T09:14:20Z</time>
      </trkpt>
      <trkpt lat="48.9598" lon="1.14508">
        <ele>142.399994</ele>
        <time>2019-01-06T09:14:22Z</time>
      </trkpt>
      <trkpt lat="48.95973" lon="1.1452">
        <ele>142</ele>
        <time>2019-01-06T09:14:24Z</time>
      </trkpt>
      <trkpt lat="48.95966" lon="1.14532">
        <ele>141.899994</ele>
        <time>2019-01-06T09:14:26Z</time>
      </trkpt>
      <trkpt lat="48.95959" lon="1.14543">
        <ele>141.699997</ele>
        <time>2019-01-06T09:14:28Z</time>
      </trkpt>
      <trkpt lat="48.95953" lon="1.14555">
        <ele>141.600006</ele>
        <time>2019-01-06T09:14:30Z</time>
      </trkpt>
      <trkpt lat="48.95946" lon="1.14566">
        <ele>141</ele>
        <time>2019-01-06T09:14:32Z</time>
      </trkpt>
      <trkpt lat="48.95939" lon="1.14578">
        <ele>140.699997</ele>
        <time>2019-01-06T09:14:34Z</time>
      </trkpt>
      <trkpt lat="48.95933" lon="1.14589">
        <ele>140.300003</ele>
        <time>2019-01-06T09:14:36Z</time>
      </trkpt>
      <trkpt lat="48.95927" lon="1.14601">
        <ele>140.100006</ele>
        <time>2019-01-06T09:14:38Z</time>
      </trkpt>
      <trkpt lat="48.95921" lon="1.14613">
        <ele>139.899994</ele>
        <time>2019-01-06T09:14:40Z</time>
      </trkpt>
      <trkpt lat="48.95915" lon="1.14624">
        <ele>140</ele>
        <time>2019-01-06T09:14:42Z</time>
      </trkpt>
      <trkpt lat="48.95909" lon="1.14635">
        <ele>140</ele>
        <time>2019-01-06T09:14:44Z</time>
      </trkpt>
      <trkpt lat="48.95904" lon="1.14646">
        <ele>139.699997</ele>
        <time>2019-01-06T09:14:46Z</time>
      </trkpt>
      <trkpt lat="48.95897" lon="1.14658">
        <ele>139.5</ele>
        <time>2019-01-06T09:14:48Z</time>
      </trkpt>
      <trkpt lat="48.95891" lon="1.1467">
        <ele>139.100006</ele>
        <time>2019-01-06T09:14:50Z</time>
      </trkpt>
      <trkpt lat="48.95885" lon="1.14682">
        <ele>138.5</ele>
        <time>2019-01-06T09:14:52Z</time>
      </trkpt>
      <trkpt lat="48.95878" lon="1.14692">
        <ele>138.100006</ele>
        <time>2019-01-06T09:14:54Z</time>
      </trkpt>
      <trkpt lat="48.9587" lon="1.14701">
        <ele>137.899994</ele>
        <time>2019-01-06T09:14:56Z</time>
      </trkpt>
      <trkpt lat="48.95861" lon="1.14707">
        <ele>138</ele>
        <time>2019-01-06T09:14:58Z</time>
      </trkpt>
      <trkpt lat="48.95851" lon="1.14709">
        <ele>137.800003</ele>
        <time>2019-01-06T09:15:00Z</time>
      </trkpt>
      <trkpt lat="48.95841" lon="1.14706">
        <ele>137.5</ele>
        <time>2019-01-06T09:15:02Z</time>
      </trkpt>
      <trkpt lat="48.95831" lon="1.14701">
        <ele>137.600006</ele>
        <time>2019-01-06T09:15:04Z</time>
      </trkpt>
      <trkpt lat="48.95823" lon="1.14697">
        <ele>137.699997</ele>
        <time>2019-01-06T09:15:06Z</time>
      </trkpt>
      <trkpt lat="48.95814" lon="1.14699">
        <ele>138</ele>
        <time>2019-01-06T09:15:08Z</time>
      </trkpt>
      <trkpt lat="48.95803" lon="1.14711">
        <ele>138.100006</ele>
        <time>2019-01-06T09:15:11Z</time>
      </trkpt>
      <trkpt lat="48.95797" lon="1.14727">
        <ele>138.100006</ele>
        <time>2019-01-06T09:15:14Z</time>
      </trkpt>
      <trkpt lat="48.958" lon="1.14743">
        <ele>138.5</ele>
        <time>2019-01-06T09:15:17Z</time>
      </trkpt>
      <trkpt lat="48.95808" lon="1.14758">
        <ele>139.100006</ele>
        <time>2019-01-06T09:15:20Z</time>
      </trkpt>
      <trkpt lat="48.95814" lon="1.14775">
        <ele>139.399994</ele>
        <time>2019-01-06T09:15:23Z</time>
      </trkpt>
      <trkpt lat="48.95821" lon="1.14792">
        <ele>139.800003</ele>
        <time>2019-01-06T09:15:26Z</time>
      </trkpt>
      <trkpt lat="48.95827" lon="1.1481">
        <ele>140</ele>
        <time>2019-01-06T09:15:29Z</time>
      </trkpt>
      <trkpt lat="48.95831" lon="1.14823">
        <ele>140.100006</ele>
        <time>2019-01-06T09:15:31Z</time>
      </trkpt>
      <trkpt lat="48.95835" lon="1.14836">
        <ele>139.800003</ele>
        <time>2019-01-06T09:15:33Z</time>
      </trkpt>
      <trkpt lat="48.95839" lon="1.14849">
        <ele>140.100006</ele>
        <time>2019-01-06T09:15:35Z</time>
      </trkpt>
      <trkpt lat="48.95842" lon="1.14861">
        <ele>140.199997</ele>
        <time>2019-01-06T09:15:37Z</time>
      </trkpt>
      <trkpt lat="48.95848" lon="1.14879">
        <ele>140.199997</ele>
        <time>2019-01-06T09:15:40Z</time>
      </trkpt>
      <trkpt lat="48.95849" lon="1.14897">
        <ele>139.899994</ele>
        <time>2019-01-06T09:15:43Z</time>
      </trkpt>
      <trkpt lat="48.95854" lon="1.14913">
        <ele>140</ele>
        <time>2019-01-06T09:15:46Z</time>
      </trkpt>
      <trkpt lat="48.95863" lon="1.14924">
        <ele>139.800003</ele>
        <time>2019-01-06T09:15:49Z</time>
      </trkpt>
      <trkpt lat="48.95872" lon="1.14934">
        <ele>139.699997</ele>
        <time>2019-01-06T09:15:52Z</time>
      </trkpt>
      <trkpt lat="48.95881" lon="1.14945">
        <ele>139.399994</ele>
        <time>2019-01-06T09:15:55Z</time>
      </trkpt>
      <trkpt lat="48.95891" lon="1.14955">
        <ele>139.199997</ele>
        <time>2019-01-06T09:15:58Z</time>
      </trkpt>
      <trkpt lat="48.95901" lon="1.14963">
        <ele>139.199997</ele>
        <time>2019-01-06T09:16:01Z</time>
      </trkpt>
      <trkpt lat="48.95911" lon="1.14969">
        <ele>138.800003</ele>
        <time>2019-01-06T09:16:04Z</time>
      </trkpt>
      <trkpt lat="48.95923" lon="1.14969">
        <ele>138.899994</ele>
        <time>2019-01-06T09:16:07Z</time>
      </trkpt>
      <trkpt lat="48.95932" lon="1.14966">
        <ele>137.800003</ele>
        <time>2019-01-06T09:16:09Z</time>
      </trkpt>
      <trkpt lat="48.95943" lon="1.14963">
        <ele>137.5</ele>
        <time>2019-01-06T09:16:11Z</time>
      </trkpt>
      <trkpt lat="48.95954" lon="1.14959">
        <ele>137</ele>
        <time>2019-01-06T09:16:13Z</time>
      </trkpt>
      <trkpt lat="48.95964" lon="1.14953">
        <ele>136.100006</ele>
        <time>2019-01-06T09:16:15Z</time>
      </trkpt>
      <trkpt lat="48.95974" lon="1.14945">
        <ele>135.399994</ele>
        <time>2019-01-06T09:16:17Z</time>
      </trkpt>
      <trkpt lat="48.95985" lon="1.14938">
        <ele>133.800003</ele>
        <time>2019-01-06T09:16:19Z</time>
      </trkpt>
      <trkpt lat="48.95995" lon="1.14932">
        <ele>134.399994</ele>
        <time>2019-01-06T09:16:21Z</time>
      </trkpt>
      <trkpt lat="48.96004" lon="1.14927">
        <ele>134.600006</ele>
        <time>2019-01-06T09:16:23Z</time>
      </trkpt>
      <trkpt lat="48.96014" lon="1.14924">
        <ele>134.300003</ele>
        <time>2019-01-06T09:16:25Z</time>
      </trkpt>
      <trkpt lat="48.96024" lon="1.14921">
        <ele>134.300003</ele>
        <time>2019-01-06T09:16:27Z</time>
      </trkpt>
      <trkpt lat="48.96034" lon="1.14918">
        <ele>133.199997</ele>
        <time>2019-01-06T09:16:29Z</time>
      </trkpt>
      <trkpt lat="48.96044" lon="1.14916">
        <ele>133.5</ele>
        <time>2019-01-06T09:16:31Z</time>
      </trkpt>
      <trkpt lat="48.96053" lon="1.14915">
        <ele>133.800003</ele>
        <time>2019-01-06T09:16:33Z</time>
      </trkpt>
      <trkpt lat="48.96063" lon="1.14913">
        <ele>134.699997</ele>
        <time>2019-01-06T09:16:35Z</time>
      </trkpt>
      <trkpt lat="48.96072" lon="1.14912">
        <ele>134.600006</ele>
        <time>2019-01-06T09:16:37Z</time>
      </trkpt>
      <trkpt lat="48.96081" lon="1.14911">
        <ele>135.100006</ele>
        <time>2019-01-06T09:16:39Z</time>
      </trkpt>
      <trkpt lat="48.9609" lon="1.1491">
        <ele>135.199997</ele>
        <time>2019-01-06T09:16:41Z</time>
      </trkpt>
      <trkpt lat="48.961" lon="1.14908">
        <ele>134.300003</ele>
        <time>2019-01-06T09:16:43Z</time>
      </trkpt>
      <trkpt lat="48.96109" lon="1.14907">
        <ele>135.199997</ele>
        <time>2019-01-06T09:16:45Z</time>
      </trkpt>
      <trkpt lat="48.96118" lon="1.14905">
        <ele>135.399994</ele>
        <time>2019-01-06T09:16:47Z</time>
      </trkpt>
      <trkpt lat="48.96128" lon="1.14903">
        <ele>135.800003</ele>
        <time>2019-01-06T09:16:49Z</time>
      </trkpt>
      <trkpt lat="48.96137" lon="1.14902">
        <ele>136.5</ele>
        <time>2019-01-06T09:16:51Z</time>
      </trkpt>
      <trkpt lat="48.96146" lon="1.14901">
        <ele>136.600006</ele>
        <time>2019-01-06T09:16:53Z</time>
      </trkpt>
      <trkpt lat="48.9616" lon="1.149">
        <ele>136.300003</ele>
        <time>2019-01-06T09:16:56Z</time>
      </trkpt>
      <trkpt lat="48.96169" lon="1.14899">
        <ele>136.399994</ele>
        <time>2019-01-06T09:16:58Z</time>
      </trkpt>
      <trkpt lat="48.96178" lon="1.14898">
        <ele>136.899994</ele>
        <time>2019-01-06T09:17:00Z</time>
      </trkpt>
      <trkpt lat="48.96187" lon="1.14898">
        <ele>136.399994</ele>
        <time>2019-01-06T09:17:02Z</time>
      </trkpt>
      <trkpt lat="48.96197" lon="1.14897">
        <ele>136.699997</ele>
        <time>2019-01-06T09:17:04Z</time>
      </trkpt>
      <trkpt lat="48.96206" lon="1.14896">
        <ele>137</ele>
        <time>2019-01-06T09:17:06Z</time>
      </trkpt>
      <trkpt lat="48.96216" lon="1.14896">
        <ele>136.699997</ele>
        <time>2019-01-06T09:17:08Z</time>
      </trkpt>
      <trkpt lat="48.96226" lon="1.14896">
        <ele>136.5</ele>
        <time>2019-01-06T09:17:10Z</time>
      </trkpt>
      <trkpt lat="48.96236" lon="1.14895">
        <ele>136.100006</ele>
        <time>2019-01-06T09:17:12Z</time>
      </trkpt>
      <trkpt lat="48.96246" lon="1.14895">
        <ele>136.199997</ele>
        <time>2019-01-06T09:17:14Z</time>
      </trkpt>
      <trkpt lat="48.96256" lon="1.14895">
        <ele>136</ele>
        <time>2019-01-06T09:17:16Z</time>
      </trkpt>
      <trkpt lat="48.96266" lon="1.14895">
        <ele>135.800003</ele>
        <time>2019-01-06T09:17:18Z</time>
      </trkpt>
      <trkpt lat="48.96276" lon="1.14896">
        <ele>135.800003</ele>
        <time>2019-01-06T09:17:20Z</time>
      </trkpt>
      <trkpt lat="48.96286" lon="1.14898">
        <ele>135.800003</ele>
        <time>2019-01-06T09:17:22Z</time>
      </trkpt>
      <trkpt lat="48.96297" lon="1.149">
        <ele>135.600006</ele>
        <time>2019-01-06T09:17:24Z</time>
      </trkpt>
      <trkpt lat="48.96307" lon="1.14902">
        <ele>135.199997</ele>
        <time>2019-01-06T09:17:26Z</time>
      </trkpt>
      <trkpt lat="48.96318" lon="1.14905">
        <ele>134.5</ele>
        <time>2019-01-06T09:17:28Z</time>
      </trkpt>
      <trkpt lat="48.96328" lon="1.14909">
        <ele>133.899994</ele>
        <time>2019-01-06T09:17:30Z</time>
      </trkpt>
      <trkpt lat="48.96338" lon="1.14913">
        <ele>133.600006</ele>
        <time>2019-01-06T09:17:32Z</time>
      </trkpt>
      <trkpt lat="48.96348" lon="1.14917">
        <ele>133.699997</ele>
        <time>2019-01-06T09:17:34Z</time>
      </trkpt>
      <trkpt lat="48.96358" lon="1.14922">
        <ele>133.699997</ele>
        <time>2019-01-06T09:17:36Z</time>
      </trkpt>
      <trkpt lat="48.96367" lon="1.14925">
        <ele>133.800003</ele>
        <time>2019-01-06T09:17:38Z</time>
      </trkpt>
      <trkpt lat="48.96378" lon="1.14928">
        <ele>133.899994</ele>
        <time>2019-01-06T09:17:40Z</time>
      </trkpt>
      <trkpt lat="48.96389" lon="1.1493">
        <ele>134</ele>
        <time>2019-01-06T09:17:42Z</time>
      </trkpt>
      <trkpt lat="48.96399" lon="1.14933">
        <ele>134</ele>
        <time>2019-01-06T09:17:44Z</time>
      </trkpt>
      <trkpt lat="48.96409" lon="1.14937">
        <ele>133.899994</ele>
        <time>2019-01-06T09:17:46Z</time>
      </trkpt>
      <trkpt lat="48.96419" lon="1.14941">
        <ele>133.699997</ele>
        <time>2019-01-06T09:17:48Z</time>
      </trkpt>
      <trkpt lat="48.96429" lon="1.14946">
        <ele>133.699997</ele>
        <time>2019-01-06T09:17:50Z</time>
      </trkpt>
      <trkpt lat="48.96438" lon="1.1495">
        <ele>133.699997</ele>
        <time>2019-01-06T09:17:52Z</time>
      </trkpt>
      <trkpt lat="48.96447" lon="1.14955">
        <ele>133.600006</ele>
        <time>2019-01-06T09:17:54Z</time>
      </trkpt>
      <trkpt lat="48.96459" lon="1.14963">
        <ele>133.699997</ele>
        <time>2019-01-06T09:17:57Z</time>
      </trkpt>
      <trkpt lat="48.96468" lon="1.14968">
        <ele>133.899994</ele>
        <time>2019-01-06T09:17:59Z</time>
      </trkpt>
      <trkpt lat="48.96477" lon="1.14973">
        <ele>133.899994</ele>
        <time>2019-01-06T09:18:01Z</time>
      </trkpt>
      <trkpt lat="48.96485" lon="1.14978">
        <ele>133.699997</ele>
        <time>2019-01-06T09:18:03Z</time>
      </trkpt>
      <trkpt lat="48.96494" lon="1.14983">
        <ele>133.399994</ele>
        <time>2019-01-06T09:18:05Z</time>
      </trkpt>
      <trkpt lat="48.96504" lon="1.14988">
        <ele>132.800003</ele>
        <time>2019-01-06T09:18:07Z</time>
      </trkpt>
      <trkpt lat="48.96512" lon="1.14993">
        <ele>132.300003</ele>
        <time>2019-01-06T09:18:09Z</time>
      </trkpt>
      <trkpt lat="48.96524" lon="1.15">
        <ele>132.399994</ele>
        <time>2019-01-06T09:18:12Z</time>
      </trkpt>
      <trkpt lat="48.96537" lon="1.15003">
        <ele>132.5</ele>
        <time>2019-01-06T09:18:15Z</time>
      </trkpt>
      <trkpt lat="48.96548" lon="1.15008">
        <ele>132</ele>
        <time>2019-01-06T09:18:18Z</time>
      </trkpt>
      <trkpt lat="48.9656" lon="1.15015">
        <ele>131.5</ele>
        <time>2019-01-06T09:18:21Z</time>
      </trkpt>
      <trkpt lat="48.96569" lon="1.15019">
        <ele>131.600006</ele>
        <time>2019-01-06T09:18:23Z</time>
      </trkpt>
      <trkpt lat="48.96581" lon="1.15026">
        <ele>130.800003</ele>
        <time>2019-01-06T09:18:26Z</time>
      </trkpt>
      <trkpt lat="48.96592" lon="1.15035">
        <ele>130.699997</ele>
        <time>2019-01-06T09:18:29Z</time>
      </trkpt>
      <trkpt lat="48.96605" lon="1.15046">
        <ele>130.600006</ele>
        <time>2019-01-06T09:18:32Z</time>
      </trkpt>
      <trkpt lat="48.96616" lon="1.15056">
        <ele>130.600006</ele>
        <time>2019-01-06T09:18:34Z</time>
      </trkpt>
      <trkpt lat="48.96626" lon="1.15065">
        <ele>129.100006</ele>
        <time>2019-01-06T09:18:36Z</time>
      </trkpt>
      <trkpt lat="48.96636" lon="1.15077">
        <ele>128.399994</ele>
        <time>2019-01-06T09:18:38Z</time>
      </trkpt>
      <trkpt lat="48.96643" lon="1.1509">
        <ele>128.100006</ele>
        <time>2019-01-06T09:18:40Z</time>
      </trkpt>
      <trkpt lat="48.96649" lon="1.15107">
        <ele>127.5</ele>
        <time>2019-01-06T09:18:42Z</time>
      </trkpt>
      <trkpt lat="48.96652" lon="1.15124">
        <ele>127.300003</ele>
        <time>2019-01-06T09:18:44Z</time>
      </trkpt>
      <trkpt lat="48.96658" lon="1.15139">
        <ele>126.900002</ele>
        <time>2019-01-06T09:18:46Z</time>
      </trkpt>
      <trkpt lat="48.96667" lon="1.15151">
        <ele>126.199997</ele>
        <time>2019-01-06T09:18:49Z</time>
      </trkpt>
      <trkpt lat="48.96681" lon="1.15151">
        <ele>126.400002</ele>
        <time>2019-01-06T09:18:52Z</time>
      </trkpt>
      <trkpt lat="48.96691" lon="1.1515">
        <ele>126.900002</ele>
        <time>2019-01-06T09:18:54Z</time>
      </trkpt>
      <trkpt lat="48.96704" lon="1.15148">
        <ele>126.900002</ele>
        <time>2019-01-06T09:18:56Z</time>
      </trkpt>
      <trkpt lat="48.96714" lon="1.15147">
        <ele>126.800003</ele>
        <time>2019-01-06T09:18:58Z</time>
      </trkpt>
      <trkpt lat="48.96725" lon="1.15145">
        <ele>126</ele>
        <time>2019-01-06T09:19:00Z</time>
      </trkpt>
      <trkpt lat="48.96734" lon="1.15144">
        <ele>126.099998</ele>
        <time>2019-01-06T09:19:02Z</time>
      </trkpt>
      <trkpt lat="48.96744" lon="1.15144">
        <ele>125.800003</ele>
        <time>2019-01-06T09:19:04Z</time>
      </trkpt>
      <trkpt lat="48.96753" lon="1.15144">
        <ele>126.099998</ele>
        <time>2019-01-06T09:19:06Z</time>
      </trkpt>
      <trkpt lat="48.96763" lon="1.15145">
        <ele>125</ele>
        <time>2019-01-06T09:19:08Z</time>
      </trkpt>
      <trkpt lat="48.96773" lon="1.15144">
        <ele>125.099998</ele>
        <time>2019-01-06T09:19:10Z</time>
      </trkpt>
      <trkpt lat="48.96782" lon="1.15144">
        <ele>125.300003</ele>
        <time>2019-01-06T09:19:12Z</time>
      </trkpt>
      <trkpt lat="48.96791" lon="1.15145">
        <ele>125</ele>
        <time>2019-01-06T09:19:14Z</time>
      </trkpt>
      <trkpt lat="48.96801" lon="1.15145">
        <ele>125.400002</ele>
        <time>2019-01-06T09:19:16Z</time>
      </trkpt>
      <trkpt lat="48.96811" lon="1.15147">
        <ele>125.599998</ele>
        <time>2019-01-06T09:19:18Z</time>
      </trkpt>
      <trkpt lat="48.9682" lon="1.15148">
        <ele>125.400002</ele>
        <time>2019-01-06T09:19:20Z</time>
      </trkpt>
      <trkpt lat="48.9683" lon="1.15149">
        <ele>125.5</ele>
        <time>2019-01-06T09:19:22Z</time>
      </trkpt>
      <trkpt lat="48.96839" lon="1.1515">
        <ele>125.5</ele>
        <time>2019-01-06T09:19:24Z</time>
      </trkpt>
      <trkpt lat="48.96848" lon="1.15151">
        <ele>125.199997</ele>
        <time>2019-01-06T09:19:26Z</time>
      </trkpt>
      <trkpt lat="48.96858" lon="1.15152">
        <ele>124.900002</ele>
        <time>2019-01-06T09:19:28Z</time>
      </trkpt>
      <trkpt lat="48.96868" lon="1.15153">
        <ele>125.300003</ele>
        <time>2019-01-06T09:19:30Z</time>
      </trkpt>
      <trkpt lat="48.96877" lon="1.15153">
        <ele>124.900002</ele>
        <time>2019-01-06T09:19:32Z</time>
      </trkpt>
      <trkpt lat="48.9689" lon="1.15153">
        <ele>125.099998</ele>
        <time>2019-01-06T09:19:35Z</time>
      </trkpt>
      <trkpt lat="48.96903" lon="1.15152">
        <ele>125.300003</ele>
        <time>2019-01-06T09:19:38Z</time>
      </trkpt>
      <trkpt lat="48.96913" lon="1.15153">
        <ele>125.5</ele>
        <time>2019-01-06T09:19:40Z</time>
      </trkpt>
      <trkpt lat="48.96925" lon="1.15155">
        <ele>125.5</ele>
        <time>2019-01-06T09:19:43Z</time>
      </trkpt>
      <trkpt lat="48.96943" lon="1.15158">
        <ele>125</ele>
        <time>2019-01-06T09:19:47Z</time>
      </trkpt>
      <trkpt lat="48.96953" lon="1.15162">
        <ele>125.300003</ele>
        <time>2019-01-06T09:19:50Z</time>
      </trkpt>
      <trkpt lat="48.96961" lon="1.1517">
        <ele>125.699997</ele>
        <time>2019-01-06T09:19:53Z</time>
      </trkpt>
      <trkpt lat="48.96965" lon="1.15184">
        <ele>125.5</ele>
        <time>2019-01-06T09:19:56Z</time>
      </trkpt>
      <trkpt lat="48.96966" lon="1.15202">
        <ele>125.300003</ele>
        <time>2019-01-06T09:20:00Z</time>
      </trkpt>
      <trkpt lat="48.9697" lon="1.15221">
        <ele>125.099998</ele>
        <time>2019-01-06T09:20:03Z</time>
      </trkpt>
      <trkpt lat="48.96974" lon="1.15239">
        <ele>125.199997</ele>
        <time>2019-01-06T09:20:06Z</time>
      </trkpt>
      <trkpt lat="48.96979" lon="1.15251">
        <ele>125.099998</ele>
        <time>2019-01-06T09:20:09Z</time>
      </trkpt>
      <trkpt lat="48.96983" lon="1.15267">
        <ele>125.400002</ele>
        <time>2019-01-06T09:20:12Z</time>
      </trkpt>
      <trkpt lat="48.96987" lon="1.15285">
        <ele>125.699997</ele>
        <time>2019-01-06T09:20:15Z</time>
      </trkpt>
      <trkpt lat="48.96993" lon="1.15302">
        <ele>125.300003</ele>
        <time>2019-01-06T09:20:18Z</time>
      </trkpt>
      <trkpt lat="48.97005" lon="1.15335">
        <ele>125</ele>
        <time>2019-01-06T09:20:24Z</time>
      </trkpt>
      <trkpt lat="48.9701" lon="1.15353">
        <ele>125.800003</ele>
        <time>2019-01-06T09:20:27Z</time>
      </trkpt>
      <trkpt lat="48.97012" lon="1.15371">
        <ele>126</ele>
        <time>2019-01-06T09:20:30Z</time>
      </trkpt>
      <trkpt lat="48.97016" lon="1.15388">
        <ele>125.300003</ele>
        <time>2019-01-06T09:20:33Z</time>
      </trkpt>
      <trkpt lat="48.97019" lon="1.15405">
        <ele>125.900002</ele>
        <time>2019-01-06T09:20:36Z</time>
      </trkpt>
      <trkpt lat="48.97023" lon="1.15422">
        <ele>126.400002</ele>
        <time>2019-01-06T09:20:39Z</time>
      </trkpt>
      <trkpt lat="48.97028" lon="1.15437">
        <ele>126.099998</ele>
        <time>2019-01-06T09:20:42Z</time>
      </trkpt>
      <trkpt lat="48.97036" lon="1.1545">
        <ele>126.5</ele>
        <time>2019-01-06T09:20:45Z</time>
      </trkpt>
      <trkpt lat="48.97046" lon="1.15462">
        <ele>127.400002</ele>
        <time>2019-01-06T09:20:48Z</time>
      </trkpt>
      <trkpt lat="48.97055" lon="1.15472">
        <ele>127.900002</ele>
        <time>2019-01-06T09:20:51Z</time>
      </trkpt>
      <trkpt lat="48.97063" lon="1.15481">
        <ele>128.300003</ele>
        <time>2019-01-06T09:20:54Z</time>
      </trkpt>
      <trkpt lat="48.97071" lon="1.15488">
        <ele>128.600006</ele>
        <time>2019-01-06T09:20:57Z</time>
      </trkpt>
      <trkpt lat="48.97081" lon="1.15496">
        <ele>128.600006</ele>
        <time>2019-01-06T09:21:01Z</time>
      </trkpt>
      <trkpt lat="48.97076" lon="1.15508">
        <ele>128.199997</ele>
        <time>2019-01-06T09:21:08Z</time>
      </trkpt>
      <trkpt lat="48.97064" lon="1.15512">
        <ele>127.5</ele>
        <time>2019-01-06T09:21:11Z</time>
      </trkpt>
      <trkpt lat="48.97053" lon="1.15516">
        <ele>127.5</ele>
        <time>2019-01-06T09:21:14Z</time>
      </trkpt>
      <trkpt lat="48.97042" lon="1.1552">
        <ele>127.300003</ele>
        <time>2019-01-06T09:21:17Z</time>
      </trkpt>
      <trkpt lat="48.97032" lon="1.15525">
        <ele>126.800003</ele>
        <time>2019-01-06T09:21:20Z</time>
      </trkpt>
      <trkpt lat="48.97021" lon="1.15528">
        <ele>128.100006</ele>
        <time>2019-01-06T09:21:23Z</time>
      </trkpt>
      <trkpt lat="48.97011" lon="1.15532">
        <ele>129.399994</ele>
        <time>2019-01-06T09:21:26Z</time>
      </trkpt>
      <trkpt lat="48.96999" lon="1.15535">
        <ele>129.600006</ele>
        <time>2019-01-06T09:21:29Z</time>
      </trkpt>
      <trkpt lat="48.96987" lon="1.15536">
        <ele>130.399994</ele>
        <time>2019-01-06T09:21:32Z</time>
      </trkpt>
      <trkpt lat="48.96975" lon="1.15536">
        <ele>130.300003</ele>
        <time>2019-01-06T09:21:35Z</time>
      </trkpt>
      <trkpt lat="48.96962" lon="1.15535">
        <ele>131.199997</ele>
        <time>2019-01-06T09:21:38Z</time>
      </trkpt>
      <trkpt lat="48.9695" lon="1.15533">
        <ele>132.100006</ele>
        <time>2019-01-06T09:21:41Z</time>
      </trkpt>
      <trkpt lat="48.96938" lon="1.15531">
        <ele>133.100006</ele>
        <time>2019-01-06T09:21:44Z</time>
      </trkpt>
      <trkpt lat="48.96926" lon="1.15528">
        <ele>132.5</ele>
        <time>2019-01-06T09:21:47Z</time>
      </trkpt>
      <trkpt lat="48.96915" lon="1.15525">
        <ele>132.800003</ele>
        <time>2019-01-06T09:21:50Z</time>
      </trkpt>
      <trkpt lat="48.96903" lon="1.15519">
        <ele>133</ele>
        <time>2019-01-06T09:21:53Z</time>
      </trkpt>
      <trkpt lat="48.96891" lon="1.15512">
        <ele>132.699997</ele>
        <time>2019-01-06T09:21:56Z</time>
      </trkpt>
      <trkpt lat="48.9688" lon="1.15503">
        <ele>132.600006</ele>
        <time>2019-01-06T09:21:59Z</time>
      </trkpt>
      <trkpt lat="48.96869" lon="1.15495">
        <ele>132.699997</ele>
        <time>2019-01-06T09:22:02Z</time>
      </trkpt>
      <trkpt lat="48.96858" lon="1.1549">
        <ele>132.699997</ele>
        <time>2019-01-06T09:22:05Z</time>
      </trkpt>
      <trkpt lat="48.96847" lon="1.15489">
        <ele>132.800003</ele>
        <time>2019-01-06T09:22:08Z</time>
      </trkpt>
      <trkpt lat="48.96836" lon="1.15489">
        <ele>133.399994</ele>
        <time>2019-01-06T09:22:11Z</time>
      </trkpt>
      <trkpt lat="48.96826" lon="1.15491">
        <ele>133.399994</ele>
        <time>2019-01-06T09:22:14Z</time>
      </trkpt>
      <trkpt lat="48.96815" lon="1.15494">
        <ele>133.699997</ele>
        <time>2019-01-06T09:22:17Z</time>
      </trkpt>
      <trkpt lat="48.96805" lon="1.15498">
        <ele>134.199997</ele>
        <time>2019-01-06T09:22:20Z</time>
      </trkpt>
      <trkpt lat="48.96795" lon="1.15503">
        <ele>134.699997</ele>
        <time>2019-01-06T09:22:23Z</time>
      </trkpt>
      <trkpt lat="48.96784" lon="1.15507">
        <ele>134.699997</ele>
        <time>2019-01-06T09:22:26Z</time>
      </trkpt>
      <trkpt lat="48.96774" lon="1.15509">
        <ele>135.199997</ele>
        <time>2019-01-06T09:22:29Z</time>
      </trkpt>
      <trkpt lat="48.96763" lon="1.15511">
        <ele>135.600006</ele>
        <time>2019-01-06T09:22:32Z</time>
      </trkpt>
      <trkpt lat="48.96753" lon="1.15513">
        <ele>135.800003</ele>
        <time>2019-01-06T09:22:35Z</time>
      </trkpt>
      <trkpt lat="48.96743" lon="1.15514">
        <ele>135.899994</ele>
        <time>2019-01-06T09:22:38Z</time>
      </trkpt>
      <trkpt lat="48.96733" lon="1.15512">
        <ele>135.100006</ele>
        <time>2019-01-06T09:22:41Z</time>
      </trkpt>
      <trkpt lat="48.96723" lon="1.15514">
        <ele>135</ele>
        <time>2019-01-06T09:22:44Z</time>
      </trkpt>
      <trkpt lat="48.96711" lon="1.15516">
        <ele>135.5</ele>
        <time>2019-01-06T09:22:47Z</time>
      </trkpt>
      <trkpt lat="48.96698" lon="1.1552">
        <ele>135.800003</ele>
        <time>2019-01-06T09:22:50Z</time>
      </trkpt>
      <trkpt lat="48.96689" lon="1.15524">
        <ele>135.899994</ele>
        <time>2019-01-06T09:22:52Z</time>
      </trkpt>
      <trkpt lat="48.96677" lon="1.15528">
        <ele>136</ele>
        <time>2019-01-06T09:22:55Z</time>
      </trkpt>
      <trkpt lat="48.96666" lon="1.15531">
        <ele>136.600006</ele>
        <time>2019-01-06T09:22:58Z</time>
      </trkpt>
      <trkpt lat="48.96656" lon="1.15537">
        <ele>136.699997</ele>
        <time>2019-01-06T09:23:01Z</time>
      </trkpt>
      <trkpt lat="48.96645" lon="1.15544">
        <ele>136.899994</ele>
        <time>2019-01-06T09:23:04Z</time>
      </trkpt>
      <trkpt lat="48.96633" lon="1.15553">
        <ele>136.899994</ele>
        <time>2019-01-06T09:23:07Z</time>
      </trkpt>
      <trkpt lat="48.96624" lon="1.15562">
        <ele>137.100006</ele>
        <time>2019-01-06T09:23:10Z</time>
      </trkpt>
      <trkpt lat="48.9661" lon="1.15571">
        <ele>137.100006</ele>
        <time>2019-01-06T09:23:13Z</time>
      </trkpt>
      <trkpt lat="48.96597" lon="1.15578">
        <ele>137.300003</ele>
        <time>2019-01-06T09:23:16Z</time>
      </trkpt>
      <trkpt lat="48.96585" lon="1.15585">
        <ele>136.800003</ele>
        <time>2019-01-06T09:23:19Z</time>
      </trkpt>
      <trkpt lat="48.96573" lon="1.15592">
        <ele>137.199997</ele>
        <time>2019-01-06T09:23:22Z</time>
      </trkpt>
      <trkpt lat="48.96565" lon="1.15599">
        <ele>138.300003</ele>
        <time>2019-01-06T09:23:25Z</time>
      </trkpt>
      <trkpt lat="48.96557" lon="1.1561">
        <ele>138.199997</ele>
        <time>2019-01-06T09:23:28Z</time>
      </trkpt>
      <trkpt lat="48.9655" lon="1.15621">
        <ele>138.699997</ele>
        <time>2019-01-06T09:23:31Z</time>
      </trkpt>
      <trkpt lat="48.96545" lon="1.15634">
        <ele>138.5</ele>
        <time>2019-01-06T09:23:34Z</time>
      </trkpt>
      <trkpt lat="48.96539" lon="1.15648">
        <ele>139.600006</ele>
        <time>2019-01-06T09:23:37Z</time>
      </trkpt>
      <trkpt lat="48.96531" lon="1.15657">
        <ele>139.600006</ele>
        <time>2019-01-06T09:23:39Z</time>
      </trkpt>
      <trkpt lat="48.96521" lon="1.15663">
        <ele>139.300003</ele>
        <time>2019-01-06T09:23:41Z</time>
      </trkpt>
      <trkpt lat="48.96511" lon="1.1567">
        <ele>139</ele>
        <time>2019-01-06T09:23:43Z</time>
      </trkpt>
      <trkpt lat="48.96502" lon="1.15674">
        <ele>138.899994</ele>
        <time>2019-01-06T09:23:45Z</time>
      </trkpt>
      <trkpt lat="48.96489" lon="1.15677">
        <ele>139.399994</ele>
        <time>2019-01-06T09:23:48Z</time>
      </trkpt>
      <trkpt lat="48.96478" lon="1.15678">
        <ele>139.899994</ele>
        <time>2019-01-06T09:23:51Z</time>
      </trkpt>
      <trkpt lat="48.96466" lon="1.15679">
        <ele>140.800003</ele>
        <time>2019-01-06T09:23:54Z</time>
      </trkpt>
      <trkpt lat="48.96456" lon="1.15683">
        <ele>140.699997</ele>
        <time>2019-01-06T09:23:56Z</time>
      </trkpt>
      <trkpt lat="48.96445" lon="1.15687">
        <ele>140.899994</ele>
        <time>2019-01-06T09:23:59Z</time>
      </trkpt>
      <trkpt lat="48.96435" lon="1.15688">
        <ele>140.600006</ele>
        <time>2019-01-06T09:24:02Z</time>
      </trkpt>
      <trkpt lat="48.96425" lon="1.15691">
        <ele>140.800003</ele>
        <time>2019-01-06T09:24:04Z</time>
      </trkpt>
      <trkpt lat="48.96415" lon="1.15693">
        <ele>140.399994</ele>
        <time>2019-01-06T09:24:06Z</time>
      </trkpt>
      <trkpt lat="48.96404" lon="1.15695">
        <ele>139.399994</ele>
        <time>2019-01-06T09:24:09Z</time>
      </trkpt>
      <trkpt lat="48.96393" lon="1.15695">
        <ele>139.199997</ele>
        <time>2019-01-06T09:24:12Z</time>
      </trkpt>
      <trkpt lat="48.9638" lon="1.15697">
        <ele>140.600006</ele>
        <time>2019-01-06T09:24:15Z</time>
      </trkpt>
      <trkpt lat="48.96371" lon="1.15699">
        <ele>139.800003</ele>
        <time>2019-01-06T09:24:17Z</time>
      </trkpt>
      <trkpt lat="48.96358" lon="1.15701">
        <ele>140</ele>
        <time>2019-01-06T09:24:20Z</time>
      </trkpt>
      <trkpt lat="48.96346" lon="1.15703">
        <ele>141</ele>
        <time>2019-01-06T09:24:23Z</time>
      </trkpt>
      <trkpt lat="48.96337" lon="1.15704">
        <ele>141.699997</ele>
        <time>2019-01-06T09:24:25Z</time>
      </trkpt>
      <trkpt lat="48.96327" lon="1.15706">
        <ele>141.600006</ele>
        <time>2019-01-06T09:24:27Z</time>
      </trkpt>
      <trkpt lat="48.96318" lon="1.15708">
        <ele>140.800003</ele>
        <time>2019-01-06T09:24:29Z</time>
      </trkpt>
      <trkpt lat="48.96309" lon="1.1571">
        <ele>140.800003</ele>
        <time>2019-01-06T09:24:31Z</time>
      </trkpt>
      <trkpt lat="48.96296" lon="1.15713">
        <ele>141.399994</ele>
        <time>2019-01-06T09:24:34Z</time>
      </trkpt>
      <trkpt lat="48.96286" lon="1.15715">
        <ele>141.399994</ele>
        <time>2019-01-06T09:24:36Z</time>
      </trkpt>
      <trkpt lat="48.96273" lon="1.15716">
        <ele>140.5</ele>
        <time>2019-01-06T09:24:39Z</time>
      </trkpt>
      <trkpt lat="48.9626" lon="1.15719">
        <ele>139.800003</ele>
        <time>2019-01-06T09:24:42Z</time>
      </trkpt>
      <trkpt lat="48.96246" lon="1.15721">
        <ele>140.199997</ele>
        <time>2019-01-06T09:24:45Z</time>
      </trkpt>
      <trkpt lat="48.96237" lon="1.15724">
        <ele>139</ele>
        <time>2019-01-06T09:24:47Z</time>
      </trkpt>
      <trkpt lat="48.96227" lon="1.15725">
        <ele>139.100006</ele>
        <time>2019-01-06T09:24:49Z</time>
      </trkpt>
      <trkpt lat="48.96218" lon="1.15727">
        <ele>139.899994</ele>
        <time>2019-01-06T09:24:51Z</time>
      </trkpt>
      <trkpt lat="48.96208" lon="1.15728">
        <ele>141.100006</ele>
        <time>2019-01-06T09:24:53Z</time>
      </trkpt>
      <trkpt lat="48.96199" lon="1.1573">
        <ele>141.300003</ele>
        <time>2019-01-06T09:24:55Z</time>
      </trkpt>
      <trkpt lat="48.9619" lon="1.15731">
        <ele>141.399994</ele>
        <time>2019-01-06T09:24:57Z</time>
      </trkpt>
      <trkpt lat="48.9618" lon="1.15732">
        <ele>141.5</ele>
        <time>2019-01-06T09:24:59Z</time>
      </trkpt>
      <trkpt lat="48.96171" lon="1.15734">
        <ele>140.800003</ele>
        <time>2019-01-06T09:25:01Z</time>
      </trkpt>
      <trkpt lat="48.96162" lon="1.15734">
        <ele>141.600006</ele>
        <time>2019-01-06T09:25:03Z</time>
      </trkpt>
      <trkpt lat="48.96152" lon="1.15734">
        <ele>140.5</ele>
        <time>2019-01-06T09:25:05Z</time>
      </trkpt>
      <trkpt lat="48.96142" lon="1.15735">
        <ele>140.899994</ele>
        <time>2019-01-06T09:25:07Z</time>
      </trkpt>
      <trkpt lat="48.96132" lon="1.15737">
        <ele>141.199997</ele>
        <time>2019-01-06T09:25:09Z</time>
      </trkpt>
      <trkpt lat="48.96122" lon="1.15738">
        <ele>140.800003</ele>
        <time>2019-01-06T09:25:11Z</time>
      </trkpt>
      <trkpt lat="48.96109" lon="1.1574">
        <ele>141.199997</ele>
        <time>2019-01-06T09:25:14Z</time>
      </trkpt>
      <trkpt lat="48.96096" lon="1.15742">
        <ele>140.899994</ele>
        <time>2019-01-06T09:25:17Z</time>
      </trkpt>
      <trkpt lat="48.96085" lon="1.15743">
        <ele>141.899994</ele>
        <time>2019-01-06T09:25:20Z</time>
      </trkpt>
      <trkpt lat="48.96074" lon="1.15745">
        <ele>142.300003</ele>
        <time>2019-01-06T09:25:23Z</time>
      </trkpt>
      <trkpt lat="48.96063" lon="1.15746">
        <ele>142.300003</ele>
        <time>2019-01-06T09:25:26Z</time>
      </trkpt>
      <trkpt lat="48.96052" lon="1.15749">
        <ele>142.5</ele>
        <time>2019-01-06T09:25:29Z</time>
      </trkpt>
      <trkpt lat="48.96042" lon="1.15749">
        <ele>142.100006</ele>
        <time>2019-01-06T09:25:32Z</time>
      </trkpt>
      <trkpt lat="48.96032" lon="1.15751">
        <ele>142.199997</ele>
        <time>2019-01-06T09:25:35Z</time>
      </trkpt>
      <trkpt lat="48.96021" lon="1.15752">
        <ele>142.300003</ele>
        <time>2019-01-06T09:25:38Z</time>
      </trkpt>
      <trkpt lat="48.96012" lon="1.15753">
        <ele>142.300003</ele>
        <time>2019-01-06T09:25:41Z</time>
      </trkpt>
      <trkpt lat="48.96002" lon="1.15756">
        <ele>142.300003</ele>
        <time>2019-01-06T09:25:45Z</time>
      </trkpt>
      <trkpt lat="48.95993" lon="1.15756">
        <ele>142.199997</ele>
        <time>2019-01-06T09:25:50Z</time>
      </trkpt>
      <trkpt lat="48.95989" lon="1.15743">
        <ele>142.699997</ele>
        <time>2019-01-06T09:26:05Z</time>
      </trkpt>
      <trkpt lat="48.95979" lon="1.1575">
        <ele>142.699997</ele>
        <time>2019-01-06T09:26:11Z</time>
      </trkpt>
      <trkpt lat="48.95968" lon="1.15754">
        <ele>142.699997</ele>
        <time>2019-01-06T09:26:15Z</time>
      </trkpt>
      <trkpt lat="48.95959" lon="1.1576">
        <ele>142.899994</ele>
        <time>2019-01-06T09:26:21Z</time>
      </trkpt>
      <trkpt lat="48.95948" lon="1.15764">
        <ele>142.399994</ele>
        <time>2019-01-06T09:26:25Z</time>
      </trkpt>
      <trkpt lat="48.95938" lon="1.15766">
        <ele>142.699997</ele>
        <time>2019-01-06T09:26:29Z</time>
      </trkpt>
      <trkpt lat="48.95928" lon="1.15769">
        <ele>142.600006</ele>
        <time>2019-01-06T09:26:32Z</time>
      </trkpt>
      <trkpt lat="48.95918" lon="1.15771">
        <ele>142.600006</ele>
        <time>2019-01-06T09:26:35Z</time>
      </trkpt>
      <trkpt lat="48.95908" lon="1.15774">
        <ele>142.800003</ele>
        <time>2019-01-06T09:26:38Z</time>
      </trkpt>
      <trkpt lat="48.95895" lon="1.15777">
        <ele>142.699997</ele>
        <time>2019-01-06T09:26:41Z</time>
      </trkpt>
      <trkpt lat="48.95881" lon="1.15781">
        <ele>142.600006</ele>
        <time>2019-01-06T09:26:44Z</time>
      </trkpt>
      <trkpt lat="48.95871" lon="1.15782">
        <ele>142.199997</ele>
        <time>2019-01-06T09:26:47Z</time>
      </trkpt>
      <trkpt lat="48.95857" lon="1.15785">
        <ele>142.199997</ele>
        <time>2019-01-06T09:26:50Z</time>
      </trkpt>
      <trkpt lat="48.95847" lon="1.15787">
        <ele>142</ele>
        <time>2019-01-06T09:26:52Z</time>
      </trkpt>
      <trkpt lat="48.95838" lon="1.15791">
        <ele>142.300003</ele>
        <time>2019-01-06T09:26:54Z</time>
      </trkpt>
      <trkpt lat="48.95828" lon="1.15794">
        <ele>142.199997</ele>
        <time>2019-01-06T09:26:56Z</time>
      </trkpt>
      <trkpt lat="48.95818" lon="1.15796">
        <ele>142.199997</ele>
        <time>2019-01-06T09:26:58Z</time>
      </trkpt>
      <trkpt lat="48.95808" lon="1.158">
        <ele>142.600006</ele>
        <time>2019-01-06T09:27:00Z</time>
      </trkpt>
      <trkpt lat="48.95798" lon="1.15802">
        <ele>142.699997</ele>
        <time>2019-01-06T09:27:02Z</time>
      </trkpt>
      <trkpt lat="48.95787" lon="1.15807">
        <ele>142</ele>
        <time>2019-01-06T09:27:04Z</time>
      </trkpt>
      <trkpt lat="48.95776" lon="1.15812">
        <ele>142.399994</ele>
        <time>2019-01-06T09:27:06Z</time>
      </trkpt>
      <trkpt lat="48.95767" lon="1.15816">
        <ele>142.399994</ele>
        <time>2019-01-06T09:27:08Z</time>
      </trkpt>
      <trkpt lat="48.95758" lon="1.1582">
        <ele>142.100006</ele>
        <time>2019-01-06T09:27:10Z</time>
      </trkpt>
      <trkpt lat="48.9575" lon="1.15824">
        <ele>142.100006</ele>
        <time>2019-01-06T09:27:12Z</time>
      </trkpt>
      <trkpt lat="48.95741" lon="1.15831">
        <ele>142.199997</ele>
        <time>2019-01-06T09:27:14Z</time>
      </trkpt>
      <trkpt lat="48.95733" lon="1.15837">
        <ele>142.100006</ele>
        <time>2019-01-06T09:27:16Z</time>
      </trkpt>
      <trkpt lat="48.95721" lon="1.15845">
        <ele>142.5</ele>
        <time>2019-01-06T09:27:19Z</time>
      </trkpt>
      <trkpt lat="48.9571" lon="1.15854">
        <ele>142.699997</ele>
        <time>2019-01-06T09:27:22Z</time>
      </trkpt>
      <trkpt lat="48.957" lon="1.1586">
        <ele>142.100006</ele>
        <time>2019-01-06T09:27:25Z</time>
      </trkpt>
      <trkpt lat="48.95689" lon="1.15867">
        <ele>142.100006</ele>
        <time>2019-01-06T09:27:28Z</time>
      </trkpt>
      <trkpt lat="48.95677" lon="1.15874">
        <ele>141.600006</ele>
        <time>2019-01-06T09:27:31Z</time>
      </trkpt>
      <trkpt lat="48.95665" lon="1.15881">
        <ele>141.600006</ele>
        <time>2019-01-06T09:27:34Z</time>
      </trkpt>
      <trkpt lat="48.95652" lon="1.15886">
        <ele>141.699997</ele>
        <time>2019-01-06T09:27:37Z</time>
      </trkpt>
      <trkpt lat="48.95643" lon="1.1589">
        <ele>142</ele>
        <time>2019-01-06T09:27:39Z</time>
      </trkpt>
      <trkpt lat="48.9563" lon="1.15895">
        <ele>141.800003</ele>
        <time>2019-01-06T09:27:42Z</time>
      </trkpt>
      <trkpt lat="48.95622" lon="1.15899">
        <ele>141.399994</ele>
        <time>2019-01-06T09:27:44Z</time>
      </trkpt>
      <trkpt lat="48.95612" lon="1.15903">
        <ele>141.300003</ele>
        <time>2019-01-06T09:27:46Z</time>
      </trkpt>
      <trkpt lat="48.95603" lon="1.15907">
        <ele>141.100006</ele>
        <time>2019-01-06T09:27:48Z</time>
      </trkpt>
      <trkpt lat="48.95593" lon="1.15911">
        <ele>140.300003</ele>
        <time>2019-01-06T09:27:50Z</time>
      </trkpt>
      <trkpt lat="48.95584" lon="1.15915">
        <ele>140</ele>
        <time>2019-01-06T09:27:52Z</time>
      </trkpt>
      <trkpt lat="48.95574" lon="1.15919">
        <ele>139.199997</ele>
        <time>2019-01-06T09:27:54Z</time>
      </trkpt>
      <trkpt lat="48.95565" lon="1.15923">
        <ele>139.800003</ele>
        <time>2019-01-06T09:27:56Z</time>
      </trkpt>
      <trkpt lat="48.95555" lon="1.15926">
        <ele>139.800003</ele>
        <time>2019-01-06T09:27:58Z</time>
      </trkpt>
      <trkpt lat="48.95545" lon="1.1593">
        <ele>140.100006</ele>
        <time>2019-01-06T09:28:00Z</time>
      </trkpt>
      <trkpt lat="48.95536" lon="1.15932">
        <ele>139.600006</ele>
        <time>2019-01-06T09:28:02Z</time>
      </trkpt>
      <trkpt lat="48.95526" lon="1.15935">
        <ele>139.800003</ele>
        <time>2019-01-06T09:28:04Z</time>
      </trkpt>
      <trkpt lat="48.95516" lon="1.15938">
        <ele>139.399994</ele>
        <time>2019-01-06T09:28:06Z</time>
      </trkpt>
      <trkpt lat="48.95507" lon="1.15942">
        <ele>139.399994</ele>
        <time>2019-01-06T09:28:08Z</time>
      </trkpt>
      <trkpt lat="48.95498" lon="1.15948">
        <ele>139</ele>
        <time>2019-01-06T09:28:10Z</time>
      </trkpt>
      <trkpt lat="48.95489" lon="1.15955">
        <ele>138.399994</ele>
        <time>2019-01-06T09:28:12Z</time>
      </trkpt>
      <trkpt lat="48.9548" lon="1.15963">
        <ele>138.300003</ele>
        <time>2019-01-06T09:28:14Z</time>
      </trkpt>
      <trkpt lat="48.95471" lon="1.1597">
        <ele>137.899994</ele>
        <time>2019-01-06T09:28:16Z</time>
      </trkpt>
      <trkpt lat="48.95462" lon="1.15978">
        <ele>137.399994</ele>
        <time>2019-01-06T09:28:18Z</time>
      </trkpt>
      <trkpt lat="48.95454" lon="1.15987">
        <ele>137.300003</ele>
        <time>2019-01-06T09:28:20Z</time>
      </trkpt>
      <trkpt lat="48.95446" lon="1.15997">
        <ele>137.600006</ele>
        <time>2019-01-06T09:28:22Z</time>
      </trkpt>
      <trkpt lat="48.95438" lon="1.16008">
        <ele>136.899994</ele>
        <time>2019-01-06T09:28:24Z</time>
      </trkpt>
      <trkpt lat="48.95432" lon="1.1602">
        <ele>137.600006</ele>
        <time>2019-01-06T09:28:26Z</time>
      </trkpt>
      <trkpt lat="48.95426" lon="1.16033">
        <ele>137.5</ele>
        <time>2019-01-06T09:28:28Z</time>
      </trkpt>
      <trkpt lat="48.9542" lon="1.16045">
        <ele>137.300003</ele>
        <time>2019-01-06T09:28:30Z</time>
      </trkpt>
      <trkpt lat="48.95413" lon="1.16058">
        <ele>137.100006</ele>
        <time>2019-01-06T09:28:32Z</time>
      </trkpt>
      <trkpt lat="48.95407" lon="1.16072">
        <ele>137.199997</ele>
        <time>2019-01-06T09:28:34Z</time>
      </trkpt>
      <trkpt lat="48.95402" lon="1.16086">
        <ele>137.5</ele>
        <time>2019-01-06T09:28:36Z</time>
      </trkpt>
      <trkpt lat="48.95397" lon="1.16101">
        <ele>136.800003</ele>
        <time>2019-01-06T09:28:38Z</time>
      </trkpt>
      <trkpt lat="48.95392" lon="1.16115">
        <ele>136.899994</ele>
        <time>2019-01-06T09:28:40Z</time>
      </trkpt>
      <trkpt lat="48.95387" lon="1.1613">
        <ele>137.100006</ele>
        <time>2019-01-06T09:28:42Z</time>
      </trkpt>
      <trkpt lat="48.95383" lon="1.16143">
        <ele>137.100006</ele>
        <time>2019-01-06T09:28:44Z</time>
      </trkpt>
      <trkpt lat="48.9538" lon="1.16157">
        <ele>137.100006</ele>
        <time>2019-01-06T09:28:46Z</time>
      </trkpt>
      <trkpt lat="48.95378" lon="1.16175">
        <ele>137.399994</ele>
        <time>2019-01-06T09:28:49Z</time>
      </trkpt>
      <trkpt lat="48.95376" lon="1.16191">
        <ele>137.399994</ele>
        <time>2019-01-06T09:28:52Z</time>
      </trkpt>
      <trkpt lat="48.95375" lon="1.16207">
        <ele>137.600006</ele>
        <time>2019-01-06T09:28:56Z</time>
      </trkpt>
      <trkpt lat="48.95373" lon="1.16224">
        <ele>138.300003</ele>
        <time>2019-01-06T09:29:01Z</time>
      </trkpt>
      <trkpt lat="48.9537" lon="1.1624">
        <ele>138.5</ele>
        <time>2019-01-06T09:29:04Z</time>
      </trkpt>
      <trkpt lat="48.95364" lon="1.16258">
        <ele>138.199997</ele>
        <time>2019-01-06T09:29:07Z</time>
      </trkpt>
      <trkpt lat="48.95359" lon="1.1627">
        <ele>138.100006</ele>
        <time>2019-01-06T09:29:09Z</time>
      </trkpt>
      <trkpt lat="48.95353" lon="1.16287">
        <ele>138.100006</ele>
        <time>2019-01-06T09:29:12Z</time>
      </trkpt>
      <trkpt lat="48.95347" lon="1.16302">
        <ele>138.100006</ele>
        <time>2019-01-06T09:29:15Z</time>
      </trkpt>
      <trkpt lat="48.95342" lon="1.16316">
        <ele>138.399994</ele>
        <time>2019-01-06T09:29:18Z</time>
      </trkpt>
      <trkpt lat="48.95344" lon="1.16331">
        <ele>138.399994</ele>
        <time>2019-01-06T09:29:21Z</time>
      </trkpt>
      <trkpt lat="48.95351" lon="1.16345">
        <ele>138.100006</ele>
        <time>2019-01-06T09:29:24Z</time>
      </trkpt>
      <trkpt lat="48.95359" lon="1.16361">
        <ele>138.300003</ele>
        <time>2019-01-06T09:29:27Z</time>
      </trkpt>
      <trkpt lat="48.95364" lon="1.16372">
        <ele>139.100006</ele>
        <time>2019-01-06T09:29:29Z</time>
      </trkpt>
      <trkpt lat="48.9537" lon="1.16383">
        <ele>139</ele>
        <time>2019-01-06T09:29:31Z</time>
      </trkpt>
      <trkpt lat="48.95376" lon="1.16394">
        <ele>139.300003</ele>
        <time>2019-01-06T09:29:33Z</time>
      </trkpt>
      <trkpt lat="48.95381" lon="1.16405">
        <ele>138.699997</ele>
        <time>2019-01-06T09:29:35Z</time>
      </trkpt>
      <trkpt lat="48.95386" lon="1.16417">
        <ele>138.600006</ele>
        <time>2019-01-06T09:29:37Z</time>
      </trkpt>
      <trkpt lat="48.95394" lon="1.16433">
        <ele>139.600006</ele>
        <time>2019-01-06T09:29:40Z</time>
      </trkpt>
      <trkpt lat="48.95402" lon="1.16445">
        <ele>140</ele>
        <time>2019-01-06T09:29:43Z</time>
      </trkpt>
      <trkpt lat="48.95413" lon="1.16451">
        <ele>140.800003</ele>
        <time>2019-01-06T09:29:46Z</time>
      </trkpt>
      <trkpt lat="48.95424" lon="1.16445">
        <ele>140.699997</ele>
        <time>2019-01-06T09:29:49Z</time>
      </trkpt>
      <trkpt lat="48.95436" lon="1.16438">
        <ele>140.5</ele>
        <time>2019-01-06T09:29:52Z</time>
      </trkpt>
      <trkpt lat="48.95445" lon="1.16434">
        <ele>140</ele>
        <time>2019-01-06T09:29:54Z</time>
      </trkpt>
      <trkpt lat="48.95454" lon="1.1643">
        <ele>140.199997</ele>
        <time>2019-01-06T09:29:56Z</time>
      </trkpt>
      <trkpt lat="48.95463" lon="1.16427">
        <ele>140.399994</ele>
        <time>2019-01-06T09:29:58Z</time>
      </trkpt>
      <trkpt lat="48.95476" lon="1.16422">
        <ele>140.300003</ele>
        <time>2019-01-06T09:30:01Z</time>
      </trkpt>
      <trkpt lat="48.95485" lon="1.1642">
        <ele>140.100006</ele>
        <time>2019-01-06T09:30:03Z</time>
      </trkpt>
      <trkpt lat="48.95495" lon="1.16419">
        <ele>140</ele>
        <time>2019-01-06T09:30:05Z</time>
      </trkpt>
      <trkpt lat="48.95504" lon="1.16418">
        <ele>140.600006</ele>
        <time>2019-01-06T09:30:07Z</time>
      </trkpt>
      <trkpt lat="48.95514" lon="1.16419">
        <ele>141</ele>
        <time>2019-01-06T09:30:09Z</time>
      </trkpt>
      <trkpt lat="48.95523" lon="1.16424">
        <ele>140.100006</ele>
        <time>2019-01-06T09:30:11Z</time>
      </trkpt>
      <trkpt lat="48.95531" lon="1.16431">
        <ele>139.300003</ele>
        <time>2019-01-06T09:30:13Z</time>
      </trkpt>
      <trkpt lat="48.95537" lon="1.16441">
        <ele>140.100006</ele>
        <time>2019-01-06T09:30:15Z</time>
      </trkpt>
      <trkpt lat="48.95543" lon="1.16453">
        <ele>140</ele>
        <time>2019-01-06T09:30:17Z</time>
      </trkpt>
      <trkpt lat="48.95547" lon="1.16465">
        <ele>140</ele>
        <time>2019-01-06T09:30:19Z</time>
      </trkpt>
      <trkpt lat="48.95552" lon="1.16477">
        <ele>140.600006</ele>
        <time>2019-01-06T09:30:21Z</time>
      </trkpt>
      <trkpt lat="48.95557" lon="1.16489">
        <ele>140.399994</ele>
        <time>2019-01-06T09:30:23Z</time>
      </trkpt>
      <trkpt lat="48.95561" lon="1.16502">
        <ele>140.300003</ele>
        <time>2019-01-06T09:30:25Z</time>
      </trkpt>
      <trkpt lat="48.95566" lon="1.16515">
        <ele>140.699997</ele>
        <time>2019-01-06T09:30:27Z</time>
      </trkpt>
      <trkpt lat="48.9557" lon="1.16529">
        <ele>140.300003</ele>
        <time>2019-01-06T09:30:29Z</time>
      </trkpt>
      <trkpt lat="48.95575" lon="1.16542">
        <ele>140.399994</ele>
        <time>2019-01-06T09:30:31Z</time>
      </trkpt>
      <trkpt lat="48.95579" lon="1.16556">
        <ele>140.5</ele>
        <time>2019-01-06T09:30:33Z</time>
      </trkpt>
      <trkpt lat="48.95583" lon="1.16569">
        <ele>140.199997</ele>
        <time>2019-01-06T09:30:35Z</time>
      </trkpt>
      <trkpt lat="48.95588" lon="1.16584">
        <ele>141.199997</ele>
        <time>2019-01-06T09:30:37Z</time>
      </trkpt>
      <trkpt lat="48.95592" lon="1.16598">
        <ele>140.199997</ele>
        <time>2019-01-06T09:30:39Z</time>
      </trkpt>
      <trkpt lat="48.95596" lon="1.16613">
        <ele>140.399994</ele>
        <time>2019-01-06T09:30:41Z</time>
      </trkpt>
      <trkpt lat="48.95599" lon="1.16628">
        <ele>141</ele>
        <time>2019-01-06T09:30:43Z</time>
      </trkpt>
      <trkpt lat="48.95603" lon="1.16643">
        <ele>141</ele>
        <time>2019-01-06T09:30:45Z</time>
      </trkpt>
      <trkpt lat="48.95607" lon="1.16657">
        <ele>141.699997</ele>
        <time>2019-01-06T09:30:47Z</time>
      </trkpt>
      <trkpt lat="48.9561" lon="1.16672">
        <ele>142</ele>
        <time>2019-01-06T09:30:49Z</time>
      </trkpt>
      <trkpt lat="48.95614" lon="1.16686">
        <ele>142</ele>
        <time>2019-01-06T09:30:51Z</time>
      </trkpt>
      <trkpt lat="48.95617" lon="1.167">
        <ele>142</ele>
        <time>2019-01-06T09:30:53Z</time>
      </trkpt>
      <trkpt lat="48.95621" lon="1.16715">
        <ele>141.800003</ele>
        <time>2019-01-06T09:30:55Z</time>
      </trkpt>
      <trkpt lat="48.95625" lon="1.16729">
        <ele>141.800003</ele>
        <time>2019-01-06T09:30:57Z</time>
      </trkpt>
      <trkpt lat="48.95629" lon="1.16743">
        <ele>142.5</ele>
        <time>2019-01-06T09:30:59Z</time>
      </trkpt>
      <trkpt lat="48.95634" lon="1.16757">
        <ele>142.800003</ele>
        <time>2019-01-06T09:31:01Z</time>
      </trkpt>
      <trkpt lat="48.95638" lon="1.16771">
        <ele>142.800003</ele>
        <time>2019-01-06T09:31:03Z</time>
      </trkpt>
      <trkpt lat="48.95643" lon="1.16785">
        <ele>142.399994</ele>
        <time>2019-01-06T09:31:05Z</time>
      </trkpt>
      <trkpt lat="48.95648" lon="1.16799">
        <ele>142.100006</ele>
        <time>2019-01-06T09:31:07Z</time>
      </trkpt>
      <trkpt lat="48.95653" lon="1.16813">
        <ele>142.100006</ele>
        <time>2019-01-06T09:31:09Z</time>
      </trkpt>
      <trkpt lat="48.95658" lon="1.16827">
        <ele>143.100006</ele>
        <time>2019-01-06T09:31:11Z</time>
      </trkpt>
      <trkpt lat="48.95663" lon="1.1684">
        <ele>143.600006</ele>
        <time>2019-01-06T09:31:13Z</time>
      </trkpt>
      <trkpt lat="48.95667" lon="1.16854">
        <ele>143.300003</ele>
        <time>2019-01-06T09:31:15Z</time>
      </trkpt>
      <trkpt lat="48.95672" lon="1.16868">
        <ele>143.399994</ele>
        <time>2019-01-06T09:31:17Z</time>
      </trkpt>
      <trkpt lat="48.95677" lon="1.16882">
        <ele>143.800003</ele>
        <time>2019-01-06T09:31:19Z</time>
      </trkpt>
      <trkpt lat="48.95681" lon="1.16896">
        <ele>143.899994</ele>
        <time>2019-01-06T09:31:21Z</time>
      </trkpt>
      <trkpt lat="48.95686" lon="1.1691">
        <ele>142.899994</ele>
        <time>2019-01-06T09:31:23Z</time>
      </trkpt>
      <trkpt lat="48.95691" lon="1.16924">
        <ele>143.399994</ele>
        <time>2019-01-06T09:31:25Z</time>
      </trkpt>
      <trkpt lat="48.95695" lon="1.16938">
        <ele>143.300003</ele>
        <time>2019-01-06T09:31:27Z</time>
      </trkpt>
      <trkpt lat="48.957" lon="1.16952">
        <ele>143.600006</ele>
        <time>2019-01-06T09:31:29Z</time>
      </trkpt>
      <trkpt lat="48.95704" lon="1.16966">
        <ele>143.199997</ele>
        <time>2019-01-06T09:31:31Z</time>
      </trkpt>
      <trkpt lat="48.95709" lon="1.1698">
        <ele>143.399994</ele>
        <time>2019-01-06T09:31:33Z</time>
      </trkpt>
      <trkpt lat="48.95714" lon="1.16994">
        <ele>143</ele>
        <time>2019-01-06T09:31:35Z</time>
      </trkpt>
      <trkpt lat="48.95718" lon="1.17008">
        <ele>143.199997</ele>
        <time>2019-01-06T09:31:37Z</time>
      </trkpt>
      <trkpt lat="48.95723" lon="1.17021">
        <ele>143.100006</ele>
        <time>2019-01-06T09:31:39Z</time>
      </trkpt>
      <trkpt lat="48.95727" lon="1.17035">
        <ele>143.300003</ele>
        <time>2019-01-06T09:31:41Z</time>
      </trkpt>
      <trkpt lat="48.95732" lon="1.17049">
        <ele>143.600006</ele>
        <time>2019-01-06T09:31:43Z</time>
      </trkpt>
      <trkpt lat="48.95736" lon="1.17063">
        <ele>143.5</ele>
        <time>2019-01-06T09:31:45Z</time>
      </trkpt>
      <trkpt lat="48.95741" lon="1.17076">
        <ele>142.699997</ele>
        <time>2019-01-06T09:31:47Z</time>
      </trkpt>
      <trkpt lat="48.95746" lon="1.17091">
        <ele>142.699997</ele>
        <time>2019-01-06T09:31:49Z</time>
      </trkpt>
      <trkpt lat="48.9575" lon="1.17105">
        <ele>142.899994</ele>
        <time>2019-01-06T09:31:51Z</time>
      </trkpt>
      <trkpt lat="48.95755" lon="1.17119">
        <ele>142.899994</ele>
        <time>2019-01-06T09:31:53Z</time>
      </trkpt>
      <trkpt lat="48.9576" lon="1.17133">
        <ele>143.399994</ele>
        <time>2019-01-06T09:31:55Z</time>
      </trkpt>
      <trkpt lat="48.95764" lon="1.17147">
        <ele>143.5</ele>
        <time>2019-01-06T09:31:57Z</time>
      </trkpt>
      <trkpt lat="48.95769" lon="1.17159">
        <ele>142.699997</ele>
        <time>2019-01-06T09:31:59Z</time>
      </trkpt>
      <trkpt lat="48.95773" lon="1.17172">
        <ele>142.699997</ele>
        <time>2019-01-06T09:32:01Z</time>
      </trkpt>
      <trkpt lat="48.95777" lon="1.17185">
        <ele>142.800003</ele>
        <time>2019-01-06T09:32:03Z</time>
      </trkpt>
      <trkpt lat="48.95782" lon="1.17198">
        <ele>142.5</ele>
        <time>2019-01-06T09:32:05Z</time>
      </trkpt>
      <trkpt lat="48.95786" lon="1.17212">
        <ele>142.800003</ele>
        <time>2019-01-06T09:32:07Z</time>
      </trkpt>
      <trkpt lat="48.9579" lon="1.17225">
        <ele>142.699997</ele>
        <time>2019-01-06T09:32:09Z</time>
      </trkpt>
      <trkpt lat="48.95795" lon="1.17238">
        <ele>142.899994</ele>
        <time>2019-01-06T09:32:11Z</time>
      </trkpt>
      <trkpt lat="48.958" lon="1.17252">
        <ele>142.399994</ele>
        <time>2019-01-06T09:32:13Z</time>
      </trkpt>
      <trkpt lat="48.95804" lon="1.17265">
        <ele>142.800003</ele>
        <time>2019-01-06T09:32:15Z</time>
      </trkpt>
      <trkpt lat="48.95808" lon="1.17278">
        <ele>142.899994</ele>
        <time>2019-01-06T09:32:17Z</time>
      </trkpt>
      <trkpt lat="48.95813" lon="1.17291">
        <ele>142.699997</ele>
        <time>2019-01-06T09:32:19Z</time>
      </trkpt>
      <trkpt lat="48.95817" lon="1.17304">
        <ele>142.699997</ele>
        <time>2019-01-06T09:32:21Z</time>
      </trkpt>
      <trkpt lat="48.95821" lon="1.17317">
        <ele>142.600006</ele>
        <time>2019-01-06T09:32:23Z</time>
      </trkpt>
      <trkpt lat="48.95825" lon="1.1733">
        <ele>143</ele>
        <time>2019-01-06T09:32:25Z</time>
      </trkpt>
      <trkpt lat="48.9583" lon="1.17342">
        <ele>143.399994</ele>
        <time>2019-01-06T09:32:27Z</time>
      </trkpt>
      <trkpt lat="48.95834" lon="1.17356">
        <ele>143.100006</ele>
        <time>2019-01-06T09:32:29Z</time>
      </trkpt>
      <trkpt lat="48.95839" lon="1.17369">
        <ele>142.699997</ele>
        <time>2019-01-06T09:32:31Z</time>
      </trkpt>
      <trkpt lat="48.95843" lon="1.17382">
        <ele>142.600006</ele>
        <time>2019-01-06T09:32:33Z</time>
      </trkpt>
      <trkpt lat="48.95848" lon="1.17395">
        <ele>142.600006</ele>
        <time>2019-01-06T09:32:35Z</time>
      </trkpt>
      <trkpt lat="48.95852" lon="1.17408">
        <ele>142.300003</ele>
        <time>2019-01-06T09:32:37Z</time>
      </trkpt>
      <trkpt lat="48.95856" lon="1.17421">
        <ele>142.300003</ele>
        <time>2019-01-06T09:32:39Z</time>
      </trkpt>
      <trkpt lat="48.95861" lon="1.17434">
        <ele>142.199997</ele>
        <time>2019-01-06T09:32:41Z</time>
      </trkpt>
      <trkpt lat="48.95866" lon="1.17446">
        <ele>142.5</ele>
        <time>2019-01-06T09:32:43Z</time>
      </trkpt>
      <trkpt lat="48.95871" lon="1.17458">
        <ele>142.100006</ele>
        <time>2019-01-06T09:32:45Z</time>
      </trkpt>
      <trkpt lat="48.95876" lon="1.1747">
        <ele>142.699997</ele>
        <time>2019-01-06T09:32:47Z</time>
      </trkpt>
      <trkpt lat="48.95882" lon="1.17481">
        <ele>142.699997</ele>
        <time>2019-01-06T09:32:49Z</time>
      </trkpt>
      <trkpt lat="48.95887" lon="1.17492">
        <ele>142.699997</ele>
        <time>2019-01-06T09:32:51Z</time>
      </trkpt>
      <trkpt lat="48.95893" lon="1.17504">
        <ele>142.5</ele>
        <time>2019-01-06T09:32:53Z</time>
      </trkpt>
      <trkpt lat="48.95899" lon="1.17516">
        <ele>142.399994</ele>
        <time>2019-01-06T09:32:55Z</time>
      </trkpt>
      <trkpt lat="48.95905" lon="1.17527">
        <ele>142</ele>
        <time>2019-01-06T09:32:57Z</time>
      </trkpt>
      <trkpt lat="48.95912" lon="1.17537">
        <ele>141.5</ele>
        <time>2019-01-06T09:32:59Z</time>
      </trkpt>
      <trkpt lat="48.9592" lon="1.17547">
        <ele>141.600006</ele>
        <time>2019-01-06T09:33:01Z</time>
      </trkpt>
      <trkpt lat="48.95927" lon="1.17556">
        <ele>141.600006</ele>
        <time>2019-01-06T09:33:03Z</time>
      </trkpt>
      <trkpt lat="48.95935" lon="1.17566">
        <ele>141.5</ele>
        <time>2019-01-06T09:33:05Z</time>
      </trkpt>
      <trkpt lat="48.95943" lon="1.17575">
        <ele>141.5</ele>
        <time>2019-01-06T09:33:07Z</time>
      </trkpt>
      <trkpt lat="48.95951" lon="1.17584">
        <ele>141.399994</ele>
        <time>2019-01-06T09:33:09Z</time>
      </trkpt>
      <trkpt lat="48.95959" lon="1.17593">
        <ele>141.600006</ele>
        <time>2019-01-06T09:33:11Z</time>
      </trkpt>
      <trkpt lat="48.95967" lon="1.17602">
        <ele>141.699997</ele>
        <time>2019-01-06T09:33:13Z</time>
      </trkpt>
      <trkpt lat="48.95975" lon="1.17611">
        <ele>141.699997</ele>
        <time>2019-01-06T09:33:15Z</time>
      </trkpt>
      <trkpt lat="48.95982" lon="1.17619">
        <ele>141.5</ele>
        <time>2019-01-06T09:33:17Z</time>
      </trkpt>
      <trkpt lat="48.9599" lon="1.17628">
        <ele>141.399994</ele>
        <time>2019-01-06T09:33:19Z</time>
      </trkpt>
      <trkpt lat="48.95997" lon="1.17636">
        <ele>141.300003</ele>
        <time>2019-01-06T09:33:21Z</time>
      </trkpt>
      <trkpt lat="48.96005" lon="1.17644">
        <ele>141.399994</ele>
        <time>2019-01-06T09:33:23Z</time>
      </trkpt>
      <trkpt lat="48.96013" lon="1.17652">
        <ele>141.5</ele>
        <time>2019-01-06T09:33:25Z</time>
      </trkpt>
      <trkpt lat="48.9602" lon="1.1766">
        <ele>141.199997</ele>
        <time>2019-01-06T09:33:27Z</time>
      </trkpt>
      <trkpt lat="48.9603" lon="1.17671">
        <ele>141.199997</ele>
        <time>2019-01-06T09:33:30Z</time>
      </trkpt>
      <trkpt lat="48.96041" lon="1.17683">
        <ele>141.100006</ele>
        <time>2019-01-06T09:33:33Z</time>
      </trkpt>
      <trkpt lat="48.96051" lon="1.17695">
        <ele>141</ele>
        <time>2019-01-06T09:33:36Z</time>
      </trkpt>
      <trkpt lat="48.96062" lon="1.17707">
        <ele>141</ele>
        <time>2019-01-06T09:33:39Z</time>
      </trkpt>
      <trkpt lat="48.96069" lon="1.17716">
        <ele>140.899994</ele>
        <time>2019-01-06T09:33:41Z</time>
      </trkpt>
      <trkpt lat="48.96077" lon="1.17724">
        <ele>141</ele>
        <time>2019-01-06T09:33:43Z</time>
      </trkpt>
      <trkpt lat="48.96084" lon="1.17733">
        <ele>140.800003</ele>
        <time>2019-01-06T09:33:45Z</time>
      </trkpt>
      <trkpt lat="48.96092" lon="1.17743">
        <ele>140.5</ele>
        <time>2019-01-06T09:33:47Z</time>
      </trkpt>
      <trkpt lat="48.96099" lon="1.17753">
        <ele>140.399994</ele>
        <time>2019-01-06T09:33:49Z</time>
      </trkpt>
      <trkpt lat="48.96107" lon="1.17763">
        <ele>140.300003</ele>
        <time>2019-01-06T09:33:51Z</time>
      </trkpt>
      <trkpt lat="48.96113" lon="1.17773">
        <ele>140.699997</ele>
        <time>2019-01-06T09:33:53Z</time>
      </trkpt>
      <trkpt lat="48.96119" lon="1.17784">
        <ele>140.600006</ele>
        <time>2019-01-06T09:33:55Z</time>
      </trkpt>
      <trkpt lat="48.96125" lon="1.17795">
        <ele>140.600006</ele>
        <time>2019-01-06T09:33:57Z</time>
      </trkpt>
      <trkpt lat="48.96131" lon="1.17806">
        <ele>140.600006</ele>
        <time>2019-01-06T09:33:59Z</time>
      </trkpt>
      <trkpt lat="48.96137" lon="1.17823">
        <ele>140.699997</ele>
        <time>2019-01-06T09:34:02Z</time>
      </trkpt>
      <trkpt lat="48.96145" lon="1.17815">
        <ele>140.800003</ele>
        <time>2019-01-06T09:34:09Z</time>
      </trkpt>
      <trkpt lat="48.96145" lon="1.17801">
        <ele>140.699997</ele>
        <time>2019-01-06T09:34:12Z</time>
      </trkpt>
      <trkpt lat="48.96146" lon="1.17786">
        <ele>140</ele>
        <time>2019-01-06T09:34:15Z</time>
      </trkpt>
      <trkpt lat="48.96147" lon="1.17771">
        <ele>139.699997</ele>
        <time>2019-01-06T09:34:18Z</time>
      </trkpt>
      <trkpt lat="48.9615" lon="1.17754">
        <ele>139.699997</ele>
        <time>2019-01-06T09:34:21Z</time>
      </trkpt>
      <trkpt lat="48.96155" lon="1.17737">
        <ele>138.899994</ele>
        <time>2019-01-06T09:34:24Z</time>
      </trkpt>
      <trkpt lat="48.96161" lon="1.1772">
        <ele>139.199997</ele>
        <time>2019-01-06T09:34:27Z</time>
      </trkpt>
      <trkpt lat="48.96169" lon="1.17705">
        <ele>139.100006</ele>
        <time>2019-01-06T09:34:30Z</time>
      </trkpt>
      <trkpt lat="48.96178" lon="1.17691">
        <ele>139.199997</ele>
        <time>2019-01-06T09:34:33Z</time>
      </trkpt>
      <trkpt lat="48.96187" lon="1.17675">
        <ele>139.399994</ele>
        <time>2019-01-06T09:34:36Z</time>
      </trkpt>
      <trkpt lat="48.96193" lon="1.17665">
        <ele>139.399994</ele>
        <time>2019-01-06T09:34:38Z</time>
      </trkpt>
      <trkpt lat="48.96198" lon="1.17653">
        <ele>139.399994</ele>
        <time>2019-01-06T09:34:40Z</time>
      </trkpt>
      <trkpt lat="48.96204" lon="1.17642">
        <ele>139.5</ele>
        <time>2019-01-06T09:34:42Z</time>
      </trkpt>
      <trkpt lat="48.9621" lon="1.17631">
        <ele>139.5</ele>
        <time>2019-01-06T09:34:44Z</time>
      </trkpt>
      <trkpt lat="48.96215" lon="1.17619">
        <ele>139.199997</ele>
        <time>2019-01-06T09:34:46Z</time>
      </trkpt>
      <trkpt lat="48.9622" lon="1.17607">
        <ele>139.199997</ele>
        <time>2019-01-06T09:34:48Z</time>
      </trkpt>
      <trkpt lat="48.96225" lon="1.17595">
        <ele>139.300003</ele>
        <time>2019-01-06T09:34:50Z</time>
      </trkpt>
      <trkpt lat="48.96231" lon="1.17584">
        <ele>139.800003</ele>
        <time>2019-01-06T09:34:52Z</time>
      </trkpt>
      <trkpt lat="48.96239" lon="1.17569">
        <ele>138.800003</ele>
        <time>2019-01-06T09:34:55Z</time>
      </trkpt>
      <trkpt lat="48.96246" lon="1.17559">
        <ele>138.899994</ele>
        <time>2019-01-06T09:34:57Z</time>
      </trkpt>
      <trkpt lat="48.96254" lon="1.1755">
        <ele>139</ele>
        <time>2019-01-06T09:34:59Z</time>
      </trkpt>
      <trkpt lat="48.96261" lon="1.17542">
        <ele>139.100006</ele>
        <time>2019-01-06T09:35:01Z</time>
      </trkpt>
      <trkpt lat="48.96269" lon="1.17533">
        <ele>139</ele>
        <time>2019-01-06T09:35:03Z</time>
      </trkpt>
      <trkpt lat="48.96276" lon="1.17523">
        <ele>138.699997</ele>
        <time>2019-01-06T09:35:05Z</time>
      </trkpt>
      <trkpt lat="48.96283" lon="1.17514">
        <ele>138.699997</ele>
        <time>2019-01-06T09:35:07Z</time>
      </trkpt>
      <trkpt lat="48.9629" lon="1.17504">
        <ele>138.300003</ele>
        <time>2019-01-06T09:35:09Z</time>
      </trkpt>
      <trkpt lat="48.96297" lon="1.17495">
        <ele>137.699997</ele>
        <time>2019-01-06T09:35:11Z</time>
      </trkpt>
      <trkpt lat="48.96304" lon="1.17484">
        <ele>138.199997</ele>
        <time>2019-01-06T09:35:13Z</time>
      </trkpt>
      <trkpt lat="48.9631" lon="1.17472">
        <ele>138.199997</ele>
        <time>2019-01-06T09:35:15Z</time>
      </trkpt>
      <trkpt lat="48.96316" lon="1.1746">
        <ele>138.399994</ele>
        <time>2019-01-06T09:35:17Z</time>
      </trkpt>
      <trkpt lat="48.96321" lon="1.17447">
        <ele>138.699997</ele>
        <time>2019-01-06T09:35:19Z</time>
      </trkpt>
      <trkpt lat="48.96325" lon="1.17433">
        <ele>138.600006</ele>
        <time>2019-01-06T09:35:21Z</time>
      </trkpt>
      <trkpt lat="48.96329" lon="1.17419">
        <ele>138.300003</ele>
        <time>2019-01-06T09:35:23Z</time>
      </trkpt>
      <trkpt lat="48.96332" lon="1.17406">
        <ele>138.199997</ele>
        <time>2019-01-06T09:35:25Z</time>
      </trkpt>
      <trkpt lat="48.96335" lon="1.17393">
        <ele>138.300003</ele>
        <time>2019-01-06T09:35:27Z</time>
      </trkpt>
      <trkpt lat="48.96339" lon="1.1738">
        <ele>138.300003</ele>
        <time>2019-01-06T09:35:29Z</time>
      </trkpt>
      <trkpt lat="48.96342" lon="1.17367">
        <ele>137.800003</ele>
        <time>2019-01-06T09:35:31Z</time>
      </trkpt>
      <trkpt lat="48.96346" lon="1.17353">
        <ele>137.800003</ele>
        <time>2019-01-06T09:35:33Z</time>
      </trkpt>
      <trkpt lat="48.9635" lon="1.17338">
        <ele>137.699997</ele>
        <time>2019-01-06T09:35:35Z</time>
      </trkpt>
      <trkpt lat="48.96353" lon="1.17324">
        <ele>137.699997</ele>
        <time>2019-01-06T09:35:37Z</time>
      </trkpt>
      <trkpt lat="48.96356" lon="1.17309">
        <ele>137.800003</ele>
        <time>2019-01-06T09:35:39Z</time>
      </trkpt>
      <trkpt lat="48.96359" lon="1.17295">
        <ele>137.699997</ele>
        <time>2019-01-06T09:35:41Z</time>
      </trkpt>
      <trkpt lat="48.96362" lon="1.1728">
        <ele>137.300003</ele>
        <time>2019-01-06T09:35:43Z</time>
      </trkpt>
      <trkpt lat="48.96365" lon="1.17266">
        <ele>137.300003</ele>
        <time>2019-01-06T09:35:45Z</time>
      </trkpt>
      <trkpt lat="48.96368" lon="1.17251">
        <ele>137.399994</ele>
        <time>2019-01-06T09:35:47Z</time>
      </trkpt>
      <trkpt lat="48.96371" lon="1.17236">
        <ele>137.100006</ele>
        <time>2019-01-06T09:35:49Z</time>
      </trkpt>
      <trkpt lat="48.96373" lon="1.17221">
        <ele>136.899994</ele>
        <time>2019-01-06T09:35:51Z</time>
      </trkpt>
      <trkpt lat="48.96376" lon="1.17206">
        <ele>137</ele>
        <time>2019-01-06T09:35:53Z</time>
      </trkpt>
      <trkpt lat="48.96378" lon="1.17191">
        <ele>136.899994</ele>
        <time>2019-01-06T09:35:55Z</time>
      </trkpt>
      <trkpt lat="48.96379" lon="1.17176">
        <ele>137</ele>
        <time>2019-01-06T09:35:57Z</time>
      </trkpt>
      <trkpt lat="48.96381" lon="1.17161">
        <ele>137</ele>
        <time>2019-01-06T09:35:59Z</time>
      </trkpt>
      <trkpt lat="48.96382" lon="1.17145">
        <ele>137.199997</ele>
        <time>2019-01-06T09:36:01Z</time>
      </trkpt>
      <trkpt lat="48.96383" lon="1.17129">
        <ele>137.300003</ele>
        <time>2019-01-06T09:36:03Z</time>
      </trkpt>
      <trkpt lat="48.96385" lon="1.17113">
        <ele>137.399994</ele>
        <time>2019-01-06T09:36:05Z</time>
      </trkpt>
      <trkpt lat="48.96388" lon="1.17097">
        <ele>137.199997</ele>
        <time>2019-01-06T09:36:07Z</time>
      </trkpt>
      <trkpt lat="48.96394" lon="1.17083">
        <ele>137.199997</ele>
        <time>2019-01-06T09:36:09Z</time>
      </trkpt>
      <trkpt lat="48.96401" lon="1.17072">
        <ele>136.899994</ele>
        <time>2019-01-06T09:36:11Z</time>
      </trkpt>
      <trkpt lat="48.96411" lon="1.17064">
        <ele>136.800003</ele>
        <time>2019-01-06T09:36:13Z</time>
      </trkpt>
      <trkpt lat="48.9642" lon="1.17057">
        <ele>136.699997</ele>
        <time>2019-01-06T09:36:15Z</time>
      </trkpt>
      <trkpt lat="48.9643" lon="1.1705">
        <ele>136.399994</ele>
        <time>2019-01-06T09:36:17Z</time>
      </trkpt>
      <trkpt lat="48.96441" lon="1.17044">
        <ele>136.300003</ele>
        <time>2019-01-06T09:36:19Z</time>
      </trkpt>
      <trkpt lat="48.96451" lon="1.1704">
        <ele>136.100006</ele>
        <time>2019-01-06T09:36:21Z</time>
      </trkpt>
      <trkpt lat="48.96461" lon="1.17037">
        <ele>135.800003</ele>
        <time>2019-01-06T09:36:23Z</time>
      </trkpt>
      <trkpt lat="48.96471" lon="1.17036">
        <ele>135.600006</ele>
        <time>2019-01-06T09:36:25Z</time>
      </trkpt>
      <trkpt lat="48.96482" lon="1.17035">
        <ele>135.399994</ele>
        <time>2019-01-06T09:36:27Z</time>
      </trkpt>
      <trkpt lat="48.96494" lon="1.17035">
        <ele>135.399994</ele>
        <time>2019-01-06T09:36:29Z</time>
      </trkpt>
      <trkpt lat="48.96506" lon="1.17036">
        <ele>135.199997</ele>
        <time>2019-01-06T09:36:31Z</time>
      </trkpt>
      <trkpt lat="48.96517" lon="1.17038">
        <ele>135.199997</ele>
        <time>2019-01-06T09:36:33Z</time>
      </trkpt>
      <trkpt lat="48.96527" lon="1.17043">
        <ele>135.300003</ele>
        <time>2019-01-06T09:36:35Z</time>
      </trkpt>
      <trkpt lat="48.96538" lon="1.17049">
        <ele>135.300003</ele>
        <time>2019-01-06T09:36:37Z</time>
      </trkpt>
      <trkpt lat="48.96549" lon="1.17057">
        <ele>135.5</ele>
        <time>2019-01-06T09:36:39Z</time>
      </trkpt>
      <trkpt lat="48.96558" lon="1.17066">
        <ele>135.699997</ele>
        <time>2019-01-06T09:36:41Z</time>
      </trkpt>
      <trkpt lat="48.96566" lon="1.17074">
        <ele>136.100006</ele>
        <time>2019-01-06T09:36:43Z</time>
      </trkpt>
      <trkpt lat="48.96574" lon="1.17082">
        <ele>136.600006</ele>
        <time>2019-01-06T09:36:45Z</time>
      </trkpt>
      <trkpt lat="48.96583" lon="1.17096">
        <ele>135.800003</ele>
        <time>2019-01-06T09:36:48Z</time>
      </trkpt>
      <trkpt lat="48.96593" lon="1.1711">
        <ele>136.600006</ele>
        <time>2019-01-06T09:36:51Z</time>
      </trkpt>
      <trkpt lat="48.96602" lon="1.17123">
        <ele>136.899994</ele>
        <time>2019-01-06T09:36:54Z</time>
      </trkpt>
      <trkpt lat="48.9661" lon="1.17137">
        <ele>137.100006</ele>
        <time>2019-01-06T09:36:57Z</time>
      </trkpt>
      <trkpt lat="48.96619" lon="1.17148">
        <ele>137.600006</ele>
        <time>2019-01-06T09:37:00Z</time>
      </trkpt>
      <trkpt lat="48.96629" lon="1.17153">
        <ele>137.100006</ele>
        <time>2019-01-06T09:37:03Z</time>
      </trkpt>
      <trkpt lat="48.96636" lon="1.1716">
        <ele>137.199997</ele>
        <time>2019-01-06T09:37:07Z</time>
      </trkpt>
      <trkpt lat="48.96646" lon="1.17169">
        <ele>137.899994</ele>
        <time>2019-01-06T09:37:11Z</time>
      </trkpt>
      <trkpt lat="48.96648" lon="1.17183">
        <ele>138</ele>
        <time>2019-01-06T09:37:18Z</time>
      </trkpt>
      <trkpt lat="48.96642" lon="1.17194">
        <ele>138.5</ele>
        <time>2019-01-06T09:38:56Z</time>
      </trkpt>
      <trkpt lat="48.96636" lon="1.17206">
        <ele>137.399994</ele>
        <time>2019-01-06T09:45:14Z</time>
      </trkpt>
      <trkpt lat="48.96628" lon="1.17213">
        <ele>136.699997</ele>
        <time>2019-01-06T09:45:20Z</time>
      </trkpt>
      <trkpt lat="48.96618" lon="1.17221">
        <ele>136.5</ele>
        <time>2019-01-06T09:45:25Z</time>
      </trkpt>
      <trkpt lat="48.96609" lon="1.17229">
        <ele>136.600006</ele>
        <time>2019-01-06T09:45:28Z</time>
      </trkpt>
      <trkpt lat="48.96601" lon="1.17239">
        <ele>136.399994</ele>
        <time>2019-01-06T09:45:32Z</time>
      </trkpt>
      <trkpt lat="48.96593" lon="1.17249">
        <ele>137.5</ele>
        <time>2019-01-06T09:45:36Z</time>
      </trkpt>
      <trkpt lat="48.96584" lon="1.17259">
        <ele>137.399994</ele>
        <time>2019-01-06T09:45:40Z</time>
      </trkpt>
      <trkpt lat="48.96575" lon="1.17268">
        <ele>137.199997</ele>
        <time>2019-01-06T09:45:43Z</time>
      </trkpt>
      <trkpt lat="48.96564" lon="1.17282">
        <ele>137.5</ele>
        <time>2019-01-06T09:45:46Z</time>
      </trkpt>
      <trkpt lat="48.96554" lon="1.17294">
        <ele>137.5</ele>
        <time>2019-01-06T09:45:49Z</time>
      </trkpt>
      <trkpt lat="48.96546" lon="1.17302">
        <ele>137.300003</ele>
        <time>2019-01-06T09:45:52Z</time>
      </trkpt>
      <trkpt lat="48.96538" lon="1.1731">
        <ele>137.699997</ele>
        <time>2019-01-06T09:45:55Z</time>
      </trkpt>
      <trkpt lat="48.96529" lon="1.17322">
        <ele>138.199997</ele>
        <time>2019-01-06T09:45:58Z</time>
      </trkpt>
      <trkpt lat="48.96524" lon="1.17338">
        <ele>138.199997</ele>
        <time>2019-01-06T09:46:01Z</time>
      </trkpt>
      <trkpt lat="48.96528" lon="1.17353">
        <ele>138.300003</ele>
        <time>2019-01-06T09:46:04Z</time>
      </trkpt>
      <trkpt lat="48.96533" lon="1.17367">
        <ele>137.5</ele>
        <time>2019-01-06T09:46:07Z</time>
      </trkpt>
      <trkpt lat="48.96538" lon="1.17381">
        <ele>138.5</ele>
        <time>2019-01-06T09:46:10Z</time>
      </trkpt>
      <trkpt lat="48.96541" lon="1.17395">
        <ele>138.600006</ele>
        <time>2019-01-06T09:46:13Z</time>
      </trkpt>
      <trkpt lat="48.96546" lon="1.17409">
        <ele>138.300003</ele>
        <time>2019-01-06T09:46:16Z</time>
      </trkpt>
      <trkpt lat="48.96553" lon="1.1742">
        <ele>138.699997</ele>
        <time>2019-01-06T09:46:19Z</time>
      </trkpt>
      <trkpt lat="48.96563" lon="1.17427">
        <ele>138.600006</ele>
        <time>2019-01-06T09:46:22Z</time>
      </trkpt>
      <trkpt lat="48.96572" lon="1.17436">
        <ele>139</ele>
        <time>2019-01-06T09:46:25Z</time>
      </trkpt>
      <trkpt lat="48.96578" lon="1.17449">
        <ele>139.100006</ele>
        <time>2019-01-06T09:46:28Z</time>
      </trkpt>
      <trkpt lat="48.96585" lon="1.17461">
        <ele>139.100006</ele>
        <time>2019-01-06T09:46:31Z</time>
      </trkpt>
      <trkpt lat="48.96591" lon="1.17474">
        <ele>138.800003</ele>
        <time>2019-01-06T09:46:34Z</time>
      </trkpt>
      <trkpt lat="48.96598" lon="1.17488">
        <ele>139</ele>
        <time>2019-01-06T09:46:37Z</time>
      </trkpt>
      <trkpt lat="48.96604" lon="1.17501">
        <ele>138.899994</ele>
        <time>2019-01-06T09:46:40Z</time>
      </trkpt>
      <trkpt lat="48.96611" lon="1.17515">
        <ele>138.199997</ele>
        <time>2019-01-06T09:46:43Z</time>
      </trkpt>
      <trkpt lat="48.96618" lon="1.17529">
        <ele>138.5</ele>
        <time>2019-01-06T09:46:46Z</time>
      </trkpt>
      <trkpt lat="48.96625" lon="1.17543">
        <ele>138.899994</ele>
        <time>2019-01-06T09:46:49Z</time>
      </trkpt>
      <trkpt lat="48.96632" lon="1.17558">
        <ele>139.399994</ele>
        <time>2019-01-06T09:46:52Z</time>
      </trkpt>
      <trkpt lat="48.96638" lon="1.17572">
        <ele>139.300003</ele>
        <time>2019-01-06T09:46:55Z</time>
      </trkpt>
      <trkpt lat="48.96643" lon="1.17585">
        <ele>139.399994</ele>
        <time>2019-01-06T09:46:58Z</time>
      </trkpt>
      <trkpt lat="48.96649" lon="1.17598">
        <ele>139.899994</ele>
        <time>2019-01-06T09:47:01Z</time>
      </trkpt>
      <trkpt lat="48.96658" lon="1.17604">
        <ele>139.600006</ele>
        <time>2019-01-06T09:47:04Z</time>
      </trkpt>
      <trkpt lat="48.9667" lon="1.176">
        <ele>139.399994</ele>
        <time>2019-01-06T09:47:07Z</time>
      </trkpt>
      <trkpt lat="48.96681" lon="1.17596">
        <ele>139.399994</ele>
        <time>2019-01-06T09:47:10Z</time>
      </trkpt>
      <trkpt lat="48.96693" lon="1.17592">
        <ele>139.300003</ele>
        <time>2019-01-06T09:47:13Z</time>
      </trkpt>
      <trkpt lat="48.96706" lon="1.17587">
        <ele>138.800003</ele>
        <time>2019-01-06T09:47:16Z</time>
      </trkpt>
      <trkpt lat="48.96719" lon="1.17582">
        <ele>138.800003</ele>
        <time>2019-01-06T09:47:19Z</time>
      </trkpt>
      <trkpt lat="48.96728" lon="1.17578">
        <ele>138.800003</ele>
        <time>2019-01-06T09:47:21Z</time>
      </trkpt>
      <trkpt lat="48.96737" lon="1.17574">
        <ele>138.699997</ele>
        <time>2019-01-06T09:47:23Z</time>
      </trkpt>
      <trkpt lat="48.96747" lon="1.17571">
        <ele>138.399994</ele>
        <time>2019-01-06T09:47:25Z</time>
      </trkpt>
      <trkpt lat="48.96756" lon="1.17566">
        <ele>138.399994</ele>
        <time>2019-01-06T09:47:27Z</time>
      </trkpt>
      <trkpt lat="48.96765" lon="1.17562">
        <ele>138.100006</ele>
        <time>2019-01-06T09:47:29Z</time>
      </trkpt>
      <trkpt lat="48.96774" lon="1.17556">
        <ele>138</ele>
        <time>2019-01-06T09:47:31Z</time>
      </trkpt>
      <trkpt lat="48.96783" lon="1.17551">
        <ele>137.800003</ele>
        <time>2019-01-06T09:47:33Z</time>
      </trkpt>
      <trkpt lat="48.96792" lon="1.17544">
        <ele>137.699997</ele>
        <time>2019-01-06T09:47:35Z</time>
      </trkpt>
      <trkpt lat="48.96801" lon="1.17537">
        <ele>137.699997</ele>
        <time>2019-01-06T09:47:37Z</time>
      </trkpt>
      <trkpt lat="48.9681" lon="1.1753">
        <ele>137.5</ele>
        <time>2019-01-06T09:47:39Z</time>
      </trkpt>
      <trkpt lat="48.96818" lon="1.17523">
        <ele>137.399994</ele>
        <time>2019-01-06T09:47:41Z</time>
      </trkpt>
      <trkpt lat="48.96827" lon="1.17516">
        <ele>137.199997</ele>
        <time>2019-01-06T09:47:43Z</time>
      </trkpt>
      <trkpt lat="48.96836" lon="1.17509">
        <ele>136.899994</ele>
        <time>2019-01-06T09:47:45Z</time>
      </trkpt>
      <trkpt lat="48.96845" lon="1.17502">
        <ele>136.5</ele>
        <time>2019-01-06T09:47:47Z</time>
      </trkpt>
      <trkpt lat="48.96854" lon="1.17495">
        <ele>136.5</ele>
        <time>2019-01-06T09:47:49Z</time>
      </trkpt>
      <trkpt lat="48.96863" lon="1.17487">
        <ele>136.300003</ele>
        <time>2019-01-06T09:47:51Z</time>
      </trkpt>
      <trkpt lat="48.96872" lon="1.1748">
        <ele>136.100006</ele>
        <time>2019-01-06T09:47:53Z</time>
      </trkpt>
      <trkpt lat="48.96881" lon="1.17473">
        <ele>136.100006</ele>
        <time>2019-01-06T09:47:55Z</time>
      </trkpt>
      <trkpt lat="48.9689" lon="1.17465">
        <ele>136.100006</ele>
        <time>2019-01-06T09:47:57Z</time>
      </trkpt>
      <trkpt lat="48.96898" lon="1.17458">
        <ele>136.100006</ele>
        <time>2019-01-06T09:47:59Z</time>
      </trkpt>
      <trkpt lat="48.96907" lon="1.17451">
        <ele>136.100006</ele>
        <time>2019-01-06T09:48:01Z</time>
      </trkpt>
      <trkpt lat="48.96915" lon="1.17444">
        <ele>136.300003</ele>
        <time>2019-01-06T09:48:03Z</time>
      </trkpt>
      <trkpt lat="48.96924" lon="1.17438">
        <ele>136</ele>
        <time>2019-01-06T09:48:05Z</time>
      </trkpt>
      <trkpt lat="48.96933" lon="1.17432">
        <ele>136.100006</ele>
        <time>2019-01-06T09:48:07Z</time>
      </trkpt>
      <trkpt lat="48.96942" lon="1.17428">
        <ele>136.100006</ele>
        <time>2019-01-06T09:48:09Z</time>
      </trkpt>
      <trkpt lat="48.96952" lon="1.17428">
        <ele>136.199997</ele>
        <time>2019-01-06T09:48:11Z</time>
      </trkpt>
      <trkpt lat="48.96962" lon="1.1743">
        <ele>136.300003</ele>
        <time>2019-01-06T09:48:13Z</time>
      </trkpt>
      <trkpt lat="48.96971" lon="1.17436">
        <ele>136.399994</ele>
        <time>2019-01-06T09:48:15Z</time>
      </trkpt>
      <trkpt lat="48.96982" lon="1.17447">
        <ele>136.600006</ele>
        <time>2019-01-06T09:48:18Z</time>
      </trkpt>
      <trkpt lat="48.96992" lon="1.17462">
        <ele>137.199997</ele>
        <time>2019-01-06T09:48:21Z</time>
      </trkpt>
      <trkpt lat="48.97" lon="1.17477">
        <ele>137.800003</ele>
        <time>2019-01-06T09:48:24Z</time>
      </trkpt>
      <trkpt lat="48.97006" lon="1.17487">
        <ele>138.100006</ele>
        <time>2019-01-06T09:48:26Z</time>
      </trkpt>
      <trkpt lat="48.97015" lon="1.17502">
        <ele>138.300003</ele>
        <time>2019-01-06T09:48:29Z</time>
      </trkpt>
      <trkpt lat="48.97021" lon="1.17512">
        <ele>138.5</ele>
        <time>2019-01-06T09:48:31Z</time>
      </trkpt>
      <trkpt lat="48.97032" lon="1.17526">
        <ele>138.699997</ele>
        <time>2019-01-06T09:48:34Z</time>
      </trkpt>
      <trkpt lat="48.97038" lon="1.17535">
        <ele>138.899994</ele>
        <time>2019-01-06T09:48:36Z</time>
      </trkpt>
      <trkpt lat="48.97048" lon="1.1755">
        <ele>139.199997</ele>
        <time>2019-01-06T09:48:39Z</time>
      </trkpt>
      <trkpt lat="48.97057" lon="1.17565">
        <ele>139.600006</ele>
        <time>2019-01-06T09:48:42Z</time>
      </trkpt>
      <trkpt lat="48.97066" lon="1.17579">
        <ele>139.899994</ele>
        <time>2019-01-06T09:48:45Z</time>
      </trkpt>
      <trkpt lat="48.97075" lon="1.17593">
        <ele>139.800003</ele>
        <time>2019-01-06T09:48:48Z</time>
      </trkpt>
      <trkpt lat="48.97085" lon="1.17606">
        <ele>140</ele>
        <time>2019-01-06T09:48:51Z</time>
      </trkpt>
      <trkpt lat="48.97096" lon="1.17618">
        <ele>140.199997</ele>
        <time>2019-01-06T09:48:54Z</time>
      </trkpt>
      <trkpt lat="48.97106" lon="1.17629">
        <ele>140.5</ele>
        <time>2019-01-06T09:48:57Z</time>
      </trkpt>
      <trkpt lat="48.97117" lon="1.1764">
        <ele>140.800003</ele>
        <time>2019-01-06T09:49:00Z</time>
      </trkpt>
      <trkpt lat="48.97128" lon="1.17651">
        <ele>141.100006</ele>
        <time>2019-01-06T09:49:03Z</time>
      </trkpt>
      <trkpt lat="48.9714" lon="1.17661">
        <ele>141.399994</ele>
        <time>2019-01-06T09:49:06Z</time>
      </trkpt>
      <trkpt lat="48.97151" lon="1.17671">
        <ele>141.699997</ele>
        <time>2019-01-06T09:49:09Z</time>
      </trkpt>
      <trkpt lat="48.97161" lon="1.17681">
        <ele>141.300003</ele>
        <time>2019-01-06T09:49:12Z</time>
      </trkpt>
      <trkpt lat="48.97172" lon="1.17691">
        <ele>141.399994</ele>
        <time>2019-01-06T09:49:15Z</time>
      </trkpt>
      <trkpt lat="48.97181" lon="1.17704">
        <ele>141.800003</ele>
        <time>2019-01-06T09:49:18Z</time>
      </trkpt>
      <trkpt lat="48.9719" lon="1.17717">
        <ele>142.100006</ele>
        <time>2019-01-06T09:49:21Z</time>
      </trkpt>
      <trkpt lat="48.97198" lon="1.17732">
        <ele>142.100006</ele>
        <time>2019-01-06T09:49:24Z</time>
      </trkpt>
      <trkpt lat="48.97205" lon="1.17748">
        <ele>142.399994</ele>
        <time>2019-01-06T09:49:27Z</time>
      </trkpt>
      <trkpt lat="48.97212" lon="1.17764">
        <ele>142.300003</ele>
        <time>2019-01-06T09:49:30Z</time>
      </trkpt>
      <trkpt lat="48.97219" lon="1.17781">
        <ele>142.600006</ele>
        <time>2019-01-06T09:49:33Z</time>
      </trkpt>
      <trkpt lat="48.97226" lon="1.17798">
        <ele>142.5</ele>
        <time>2019-01-06T09:49:36Z</time>
      </trkpt>
      <trkpt lat="48.97233" lon="1.17815">
        <ele>142.800003</ele>
        <time>2019-01-06T09:49:39Z</time>
      </trkpt>
      <trkpt lat="48.97239" lon="1.17831">
        <ele>143</ele>
        <time>2019-01-06T09:49:42Z</time>
      </trkpt>
      <trkpt lat="48.97246" lon="1.17848">
        <ele>143.100006</ele>
        <time>2019-01-06T09:49:45Z</time>
      </trkpt>
      <trkpt lat="48.97253" lon="1.17865">
        <ele>143.199997</ele>
        <time>2019-01-06T09:49:48Z</time>
      </trkpt>
      <trkpt lat="48.9726" lon="1.17883">
        <ele>143.399994</ele>
        <time>2019-01-06T09:49:51Z</time>
      </trkpt>
      <trkpt lat="48.97266" lon="1.179">
        <ele>143.199997</ele>
        <time>2019-01-06T09:49:54Z</time>
      </trkpt>
      <trkpt lat="48.97272" lon="1.17918">
        <ele>143.5</ele>
        <time>2019-01-06T09:49:57Z</time>
      </trkpt>
      <trkpt lat="48.97276" lon="1.17931">
        <ele>143.5</ele>
        <time>2019-01-06T09:49:59Z</time>
      </trkpt>
      <trkpt lat="48.97279" lon="1.17944">
        <ele>142.5</ele>
        <time>2019-01-06T09:50:01Z</time>
      </trkpt>
      <trkpt lat="48.97283" lon="1.17956">
        <ele>142.800003</ele>
        <time>2019-01-06T09:50:03Z</time>
      </trkpt>
      <trkpt lat="48.97287" lon="1.17969">
        <ele>143.199997</ele>
        <time>2019-01-06T09:50:05Z</time>
      </trkpt>
      <trkpt lat="48.97293" lon="1.17988">
        <ele>143.199997</ele>
        <time>2019-01-06T09:50:08Z</time>
      </trkpt>
      <trkpt lat="48.97297" lon="1.18">
        <ele>143.5</ele>
        <time>2019-01-06T09:50:10Z</time>
      </trkpt>
      <trkpt lat="48.97303" lon="1.18019">
        <ele>143.600006</ele>
        <time>2019-01-06T09:50:13Z</time>
      </trkpt>
      <trkpt lat="48.97308" lon="1.18037">
        <ele>143.899994</ele>
        <time>2019-01-06T09:50:16Z</time>
      </trkpt>
      <trkpt lat="48.97314" lon="1.18055">
        <ele>143.899994</ele>
        <time>2019-01-06T09:50:19Z</time>
      </trkpt>
      <trkpt lat="48.9732" lon="1.18073">
        <ele>144</ele>
        <time>2019-01-06T09:50:22Z</time>
      </trkpt>
      <trkpt lat="48.97325" lon="1.18091">
        <ele>144.100006</ele>
        <time>2019-01-06T09:50:25Z</time>
      </trkpt>
      <trkpt lat="48.9733" lon="1.18108">
        <ele>143.899994</ele>
        <time>2019-01-06T09:50:28Z</time>
      </trkpt>
      <trkpt lat="48.97335" lon="1.18124">
        <ele>143.800003</ele>
        <time>2019-01-06T09:50:31Z</time>
      </trkpt>
      <trkpt lat="48.97334" lon="1.1814">
        <ele>143.899994</ele>
        <time>2019-01-06T09:50:35Z</time>
      </trkpt>
      <trkpt lat="48.97323" lon="1.18144">
        <ele>143.699997</ele>
        <time>2019-01-06T09:50:38Z</time>
      </trkpt>
      <trkpt lat="48.97311" lon="1.18149">
        <ele>143.5</ele>
        <time>2019-01-06T09:50:41Z</time>
      </trkpt>
      <trkpt lat="48.97298" lon="1.18155">
        <ele>143.899994</ele>
        <time>2019-01-06T09:50:44Z</time>
      </trkpt>
      <trkpt lat="48.9729" lon="1.18159">
        <ele>144.5</ele>
        <time>2019-01-06T09:50:46Z</time>
      </trkpt>
      <trkpt lat="48.9728" lon="1.18164">
        <ele>144.899994</ele>
        <time>2019-01-06T09:50:48Z</time>
      </trkpt>
      <trkpt lat="48.97271" lon="1.18168">
        <ele>144.800003</ele>
        <time>2019-01-06T09:50:50Z</time>
      </trkpt>
      <trkpt lat="48.97262" lon="1.18173">
        <ele>144.600006</ele>
        <time>2019-01-06T09:50:52Z</time>
      </trkpt>
      <trkpt lat="48.97253" lon="1.18177">
        <ele>143.800003</ele>
        <time>2019-01-06T09:50:54Z</time>
      </trkpt>
      <trkpt lat="48.97244" lon="1.18182">
        <ele>144.100006</ele>
        <time>2019-01-06T09:50:56Z</time>
      </trkpt>
      <trkpt lat="48.97235" lon="1.18186">
        <ele>143.899994</ele>
        <time>2019-01-06T09:50:58Z</time>
      </trkpt>
      <trkpt lat="48.97226" lon="1.18191">
        <ele>143.5</ele>
        <time>2019-01-06T09:51:00Z</time>
      </trkpt>
      <trkpt lat="48.97217" lon="1.18195">
        <ele>143.100006</ele>
        <time>2019-01-06T09:51:02Z</time>
      </trkpt>
      <trkpt lat="48.97208" lon="1.18198">
        <ele>143.100006</ele>
        <time>2019-01-06T09:51:04Z</time>
      </trkpt>
      <trkpt lat="48.97196" lon="1.18204">
        <ele>143.199997</ele>
        <time>2019-01-06T09:51:07Z</time>
      </trkpt>
      <trkpt lat="48.9719" lon="1.18219">
        <ele>142.800003</ele>
        <time>2019-01-06T09:51:10Z</time>
      </trkpt>
      <trkpt lat="48.97192" lon="1.18232">
        <ele>142.199997</ele>
        <time>2019-01-06T09:51:12Z</time>
      </trkpt>
      <trkpt lat="48.97194" lon="1.18246">
        <ele>141.199997</ele>
        <time>2019-01-06T09:51:14Z</time>
      </trkpt>
      <trkpt lat="48.97197" lon="1.18259">
        <ele>141.800003</ele>
        <time>2019-01-06T09:51:16Z</time>
      </trkpt>
      <trkpt lat="48.972" lon="1.18273">
        <ele>141.800003</ele>
        <time>2019-01-06T09:51:18Z</time>
      </trkpt>
      <trkpt lat="48.97203" lon="1.18286">
        <ele>142.100006</ele>
        <time>2019-01-06T09:51:20Z</time>
      </trkpt>
      <trkpt lat="48.97207" lon="1.18305">
        <ele>143</ele>
        <time>2019-01-06T09:51:23Z</time>
      </trkpt>
      <trkpt lat="48.9721" lon="1.18319">
        <ele>142.600006</ele>
        <time>2019-01-06T09:51:25Z</time>
      </trkpt>
      <trkpt lat="48.97213" lon="1.18332">
        <ele>142.899994</ele>
        <time>2019-01-06T09:51:27Z</time>
      </trkpt>
      <trkpt lat="48.97216" lon="1.18346">
        <ele>143.300003</ele>
        <time>2019-01-06T09:51:29Z</time>
      </trkpt>
      <trkpt lat="48.97219" lon="1.18359">
        <ele>143.100006</ele>
        <time>2019-01-06T09:51:31Z</time>
      </trkpt>
      <trkpt lat="48.97223" lon="1.18378">
        <ele>143.300003</ele>
        <time>2019-01-06T09:51:34Z</time>
      </trkpt>
      <trkpt lat="48.97228" lon="1.18397">
        <ele>143.300003</ele>
        <time>2019-01-06T09:51:37Z</time>
      </trkpt>
      <trkpt lat="48.97232" lon="1.18416">
        <ele>142.800003</ele>
        <time>2019-01-06T09:51:40Z</time>
      </trkpt>
      <trkpt lat="48.97236" lon="1.18434">
        <ele>143.199997</ele>
        <time>2019-01-06T09:51:43Z</time>
      </trkpt>
      <trkpt lat="48.9724" lon="1.18452">
        <ele>142.899994</ele>
        <time>2019-01-06T09:51:46Z</time>
      </trkpt>
      <trkpt lat="48.97245" lon="1.18471">
        <ele>142.899994</ele>
        <time>2019-01-06T09:51:49Z</time>
      </trkpt>
      <trkpt lat="48.97249" lon="1.18488">
        <ele>142.5</ele>
        <time>2019-01-06T09:51:52Z</time>
      </trkpt>
      <trkpt lat="48.97253" lon="1.18507">
        <ele>142.899994</ele>
        <time>2019-01-06T09:51:55Z</time>
      </trkpt>
      <trkpt lat="48.97257" lon="1.18525">
        <ele>143.5</ele>
        <time>2019-01-06T09:51:58Z</time>
      </trkpt>
      <trkpt lat="48.97261" lon="1.18543">
        <ele>143.100006</ele>
        <time>2019-01-06T09:52:01Z</time>
      </trkpt>
      <trkpt lat="48.97265" lon="1.18561">
        <ele>143.5</ele>
        <time>2019-01-06T09:52:04Z</time>
      </trkpt>
      <trkpt lat="48.97269" lon="1.18578">
        <ele>143.300003</ele>
        <time>2019-01-06T09:52:07Z</time>
      </trkpt>
      <trkpt lat="48.97273" lon="1.18595">
        <ele>143.300003</ele>
        <time>2019-01-06T09:52:10Z</time>
      </trkpt>
      <trkpt lat="48.97277" lon="1.18611">
        <ele>143.100006</ele>
        <time>2019-01-06T09:52:13Z</time>
      </trkpt>
      <trkpt lat="48.97281" lon="1.18629">
        <ele>143.399994</ele>
        <time>2019-01-06T09:52:16Z</time>
      </trkpt>
      <trkpt lat="48.97284" lon="1.18648">
        <ele>143.699997</ele>
        <time>2019-01-06T09:52:19Z</time>
      </trkpt>
      <trkpt lat="48.97288" lon="1.18666">
        <ele>143.800003</ele>
        <time>2019-01-06T09:52:22Z</time>
      </trkpt>
      <trkpt lat="48.97291" lon="1.18685">
        <ele>143.399994</ele>
        <time>2019-01-06T09:52:25Z</time>
      </trkpt>
      <trkpt lat="48.97295" lon="1.18705">
        <ele>144</ele>
        <time>2019-01-06T09:52:28Z</time>
      </trkpt>
      <trkpt lat="48.97299" lon="1.18724">
        <ele>143.699997</ele>
        <time>2019-01-06T09:52:31Z</time>
      </trkpt>
      <trkpt lat="48.97303" lon="1.18744">
        <ele>142.699997</ele>
        <time>2019-01-06T09:52:34Z</time>
      </trkpt>
      <trkpt lat="48.97306" lon="1.18757">
        <ele>143.600006</ele>
        <time>2019-01-06T09:52:36Z</time>
      </trkpt>
      <trkpt lat="48.9731" lon="1.18777">
        <ele>144.199997</ele>
        <time>2019-01-06T09:52:39Z</time>
      </trkpt>
      <trkpt lat="48.97312" lon="1.18791">
        <ele>143.899994</ele>
        <time>2019-01-06T09:52:41Z</time>
      </trkpt>
      <trkpt lat="48.97314" lon="1.18804">
        <ele>144.399994</ele>
        <time>2019-01-06T09:52:43Z</time>
      </trkpt>
      <trkpt lat="48.97316" lon="1.18818">
        <ele>144.199997</ele>
        <time>2019-01-06T09:52:45Z</time>
      </trkpt>
      <trkpt lat="48.97319" lon="1.18831">
        <ele>144</ele>
        <time>2019-01-06T09:52:47Z</time>
      </trkpt>
      <trkpt lat="48.97321" lon="1.18845">
        <ele>144.5</ele>
        <time>2019-01-06T09:52:49Z</time>
      </trkpt>
      <trkpt lat="48.97324" lon="1.18858">
        <ele>144.100006</ele>
        <time>2019-01-06T09:52:51Z</time>
      </trkpt>
      <trkpt lat="48.97327" lon="1.18871">
        <ele>144.199997</ele>
        <time>2019-01-06T09:52:53Z</time>
      </trkpt>
      <trkpt lat="48.97331" lon="1.1889">
        <ele>144</ele>
        <time>2019-01-06T09:52:56Z</time>
      </trkpt>
      <trkpt lat="48.97335" lon="1.18909">
        <ele>144.300003</ele>
        <time>2019-01-06T09:52:59Z</time>
      </trkpt>
      <trkpt lat="48.9734" lon="1.18927">
        <ele>143.899994</ele>
        <time>2019-01-06T09:53:02Z</time>
      </trkpt>
      <trkpt lat="48.97345" lon="1.18945">
        <ele>142.800003</ele>
        <time>2019-01-06T09:53:05Z</time>
      </trkpt>
      <trkpt lat="48.9735" lon="1.18964">
        <ele>143.100006</ele>
        <time>2019-01-06T09:53:08Z</time>
      </trkpt>
      <trkpt lat="48.97355" lon="1.18982">
        <ele>143.600006</ele>
        <time>2019-01-06T09:53:11Z</time>
      </trkpt>
      <trkpt lat="48.9736" lon="1.18999">
        <ele>144</ele>
        <time>2019-01-06T09:53:14Z</time>
      </trkpt>
      <trkpt lat="48.97366" lon="1.19016">
        <ele>143.600006</ele>
        <time>2019-01-06T09:53:17Z</time>
      </trkpt>
      <trkpt lat="48.97373" lon="1.19032">
        <ele>143.199997</ele>
        <time>2019-01-06T09:53:20Z</time>
      </trkpt>
      <trkpt lat="48.97381" lon="1.19046">
        <ele>143.300003</ele>
        <time>2019-01-06T09:53:23Z</time>
      </trkpt>
      <trkpt lat="48.97391" lon="1.19057">
        <ele>143.399994</ele>
        <time>2019-01-06T09:53:26Z</time>
      </trkpt>
      <trkpt lat="48.97402" lon="1.19066">
        <ele>144.699997</ele>
        <time>2019-01-06T09:53:29Z</time>
      </trkpt>
      <trkpt lat="48.97413" lon="1.19075">
        <ele>144.100006</ele>
        <time>2019-01-06T09:53:32Z</time>
      </trkpt>
      <trkpt lat="48.97423" lon="1.19082">
        <ele>144</ele>
        <time>2019-01-06T09:53:35Z</time>
      </trkpt>
      <trkpt lat="48.97432" lon="1.1909">
        <ele>143.699997</ele>
        <time>2019-01-06T09:53:38Z</time>
      </trkpt>
      <trkpt lat="48.97442" lon="1.19097">
        <ele>143.399994</ele>
        <time>2019-01-06T09:53:41Z</time>
      </trkpt>
      <trkpt lat="48.97452" lon="1.19102">
        <ele>143.600006</ele>
        <time>2019-01-06T09:53:44Z</time>
      </trkpt>
      <trkpt lat="48.97463" lon="1.19105">
        <ele>143.699997</ele>
        <time>2019-01-06T09:53:47Z</time>
      </trkpt>
      <trkpt lat="48.97474" lon="1.19107">
        <ele>143</ele>
        <time>2019-01-06T09:53:50Z</time>
      </trkpt>
      <trkpt lat="48.97485" lon="1.1911">
        <ele>143.800003</ele>
        <time>2019-01-06T09:53:53Z</time>
      </trkpt>
      <trkpt lat="48.97494" lon="1.19112">
        <ele>143.399994</ele>
        <time>2019-01-06T09:53:56Z</time>
      </trkpt>
      <trkpt lat="48.97503" lon="1.19113">
        <ele>143</ele>
        <time>2019-01-06T09:53:59Z</time>
      </trkpt>
      <trkpt lat="48.97513" lon="1.19112">
        <ele>143.899994</ele>
        <time>2019-01-06T09:54:02Z</time>
      </trkpt>
      <trkpt lat="48.97523" lon="1.19109">
        <ele>144.600006</ele>
        <time>2019-01-06T09:54:05Z</time>
      </trkpt>
      <trkpt lat="48.97534" lon="1.19105">
        <ele>144.600006</ele>
        <time>2019-01-06T09:54:09Z</time>
      </trkpt>
      <trkpt lat="48.97545" lon="1.19101">
        <ele>144.399994</ele>
        <time>2019-01-06T09:54:13Z</time>
      </trkpt>
      <trkpt lat="48.97556" lon="1.19096">
        <ele>143.100006</ele>
        <time>2019-01-06T09:54:17Z</time>
      </trkpt>
      <trkpt lat="48.97566" lon="1.19093">
        <ele>143.600006</ele>
        <time>2019-01-06T09:54:20Z</time>
      </trkpt>
      <trkpt lat="48.97577" lon="1.19088">
        <ele>143.800003</ele>
        <time>2019-01-06T09:54:23Z</time>
      </trkpt>
      <trkpt lat="48.97588" lon="1.19083">
        <ele>144</ele>
        <time>2019-01-06T09:54:26Z</time>
      </trkpt>
      <trkpt lat="48.97599" lon="1.19078">
        <ele>144.300003</ele>
        <time>2019-01-06T09:54:29Z</time>
      </trkpt>
      <trkpt lat="48.97611" lon="1.19072">
        <ele>144.5</ele>
        <time>2019-01-06T09:54:32Z</time>
      </trkpt>
      <trkpt lat="48.97623" lon="1.19067">
        <ele>144.699997</ele>
        <time>2019-01-06T09:54:35Z</time>
      </trkpt>
      <trkpt lat="48.97635" lon="1.19063">
        <ele>144.800003</ele>
        <time>2019-01-06T09:54:38Z</time>
      </trkpt>
      <trkpt lat="48.97647" lon="1.19059">
        <ele>144.800003</ele>
        <time>2019-01-06T09:54:41Z</time>
      </trkpt>
      <trkpt lat="48.9766" lon="1.19058">
        <ele>144.600006</ele>
        <time>2019-01-06T09:54:44Z</time>
      </trkpt>
      <trkpt lat="48.97673" lon="1.19057">
        <ele>144.800003</ele>
        <time>2019-01-06T09:54:47Z</time>
      </trkpt>
      <trkpt lat="48.97685" lon="1.19062">
        <ele>144.600006</ele>
        <time>2019-01-06T09:54:50Z</time>
      </trkpt>
      <trkpt lat="48.97694" lon="1.19071">
        <ele>144.5</ele>
        <time>2019-01-06T09:54:54Z</time>
      </trkpt>
      <trkpt lat="48.97703" lon="1.1907">
        <ele>144.399994</ele>
        <time>2019-01-06T09:55:03Z</time>
      </trkpt>
      <trkpt lat="48.97714" lon="1.19068">
        <ele>144</ele>
        <time>2019-01-06T09:55:09Z</time>
      </trkpt>
      <trkpt lat="48.97723" lon="1.19055">
        <ele>144.399994</ele>
        <time>2019-01-06T09:55:13Z</time>
      </trkpt>
      <trkpt lat="48.97729" lon="1.19043">
        <ele>144.5</ele>
        <time>2019-01-06T09:55:16Z</time>
      </trkpt>
      <trkpt lat="48.97736" lon="1.19029">
        <ele>144</ele>
        <time>2019-01-06T09:55:19Z</time>
      </trkpt>
      <trkpt lat="48.97743" lon="1.19016">
        <ele>144</ele>
        <time>2019-01-06T09:55:22Z</time>
      </trkpt>
      <trkpt lat="48.97752" lon="1.19006">
        <ele>143.899994</ele>
        <time>2019-01-06T09:55:25Z</time>
      </trkpt>
      <trkpt lat="48.97764" lon="1.18998">
        <ele>143.899994</ele>
        <time>2019-01-06T09:55:28Z</time>
      </trkpt>
      <trkpt lat="48.97772" lon="1.18991">
        <ele>143.5</ele>
        <time>2019-01-06T09:55:30Z</time>
      </trkpt>
      <trkpt lat="48.97783" lon="1.18981">
        <ele>143.800003</ele>
        <time>2019-01-06T09:55:33Z</time>
      </trkpt>
      <trkpt lat="48.97793" lon="1.18968">
        <ele>143.600006</ele>
        <time>2019-01-06T09:55:36Z</time>
      </trkpt>
      <trkpt lat="48.978" lon="1.18954">
        <ele>143.399994</ele>
        <time>2019-01-06T09:55:39Z</time>
      </trkpt>
      <trkpt lat="48.97807" lon="1.18942">
        <ele>143.100006</ele>
        <time>2019-01-06T09:55:42Z</time>
      </trkpt>
      <trkpt lat="48.97813" lon="1.18929">
        <ele>143</ele>
        <time>2019-01-06T09:55:45Z</time>
      </trkpt>
      <trkpt lat="48.97812" lon="1.18914">
        <ele>142.899994</ele>
        <time>2019-01-06T09:55:48Z</time>
      </trkpt>
      <trkpt lat="48.97812" lon="1.18897">
        <ele>142.600006</ele>
        <time>2019-01-06T09:55:51Z</time>
      </trkpt>
      <trkpt lat="48.97816" lon="1.1888">
        <ele>142.600006</ele>
        <time>2019-01-06T09:55:54Z</time>
      </trkpt>
      <trkpt lat="48.97822" lon="1.18866">
        <ele>142.5</ele>
        <time>2019-01-06T09:55:58Z</time>
      </trkpt>
      <trkpt lat="48.97833" lon="1.18861">
        <ele>142.300003</ele>
        <time>2019-01-06T09:56:01Z</time>
      </trkpt>
      <trkpt lat="48.97842" lon="1.18858">
        <ele>142</ele>
        <time>2019-01-06T09:56:03Z</time>
      </trkpt>
      <trkpt lat="48.97853" lon="1.18854">
        <ele>141.800003</ele>
        <time>2019-01-06T09:56:05Z</time>
      </trkpt>
      <trkpt lat="48.97861" lon="1.18848">
        <ele>141.199997</ele>
        <time>2019-01-06T09:56:07Z</time>
      </trkpt>
      <trkpt lat="48.9787" lon="1.18843">
        <ele>141.199997</ele>
        <time>2019-01-06T09:56:09Z</time>
      </trkpt>
      <trkpt lat="48.9788" lon="1.1884">
        <ele>141.399994</ele>
        <time>2019-01-06T09:56:11Z</time>
      </trkpt>
      <trkpt lat="48.97889" lon="1.18837">
        <ele>141.300003</ele>
        <time>2019-01-06T09:56:13Z</time>
      </trkpt>
      <trkpt lat="48.97899" lon="1.18834">
        <ele>141.699997</ele>
        <time>2019-01-06T09:56:15Z</time>
      </trkpt>
      <trkpt lat="48.97909" lon="1.18829">
        <ele>141.5</ele>
        <time>2019-01-06T09:56:17Z</time>
      </trkpt>
      <trkpt lat="48.97918" lon="1.18825">
        <ele>141.5</ele>
        <time>2019-01-06T09:56:19Z</time>
      </trkpt>
      <trkpt lat="48.97927" lon="1.18818">
        <ele>141.300003</ele>
        <time>2019-01-06T09:56:21Z</time>
      </trkpt>
      <trkpt lat="48.97934" lon="1.18808">
        <ele>141.399994</ele>
        <time>2019-01-06T09:56:23Z</time>
      </trkpt>
      <trkpt lat="48.9794" lon="1.18797">
        <ele>141.199997</ele>
        <time>2019-01-06T09:56:25Z</time>
      </trkpt>
      <trkpt lat="48.97944" lon="1.18777">
        <ele>140.399994</ele>
        <time>2019-01-06T09:56:28Z</time>
      </trkpt>
      <trkpt lat="48.97944" lon="1.18761">
        <ele>140.5</ele>
        <time>2019-01-06T09:56:30Z</time>
      </trkpt>
      <trkpt lat="48.97944" lon="1.18746">
        <ele>140.399994</ele>
        <time>2019-01-06T09:56:32Z</time>
      </trkpt>
      <trkpt lat="48.97942" lon="1.18732">
        <ele>139.800003</ele>
        <time>2019-01-06T09:56:34Z</time>
      </trkpt>
      <trkpt lat="48.97937" lon="1.18714">
        <ele>139.5</ele>
        <time>2019-01-06T09:56:37Z</time>
      </trkpt>
      <trkpt lat="48.97946" lon="1.18708">
        <ele>139.899994</ele>
        <time>2019-01-06T09:56:41Z</time>
      </trkpt>
      <trkpt lat="48.97956" lon="1.18709">
        <ele>140</ele>
        <time>2019-01-06T09:56:44Z</time>
      </trkpt>
      <trkpt lat="48.97963" lon="1.18697">
        <ele>140.199997</ele>
        <time>2019-01-06T09:56:47Z</time>
      </trkpt>
      <trkpt lat="48.97968" lon="1.1868">
        <ele>140.199997</ele>
        <time>2019-01-06T09:56:50Z</time>
      </trkpt>
      <trkpt lat="48.97977" lon="1.18666">
        <ele>140.199997</ele>
        <time>2019-01-06T09:56:53Z</time>
      </trkpt>
      <trkpt lat="48.97988" lon="1.18656">
        <ele>140.199997</ele>
        <time>2019-01-06T09:56:56Z</time>
      </trkpt>
      <trkpt lat="48.97996" lon="1.1865">
        <ele>140.199997</ele>
        <time>2019-01-06T09:56:58Z</time>
      </trkpt>
      <trkpt lat="48.98004" lon="1.18643">
        <ele>140</ele>
        <time>2019-01-06T09:57:00Z</time>
      </trkpt>
      <trkpt lat="48.98015" lon="1.18632">
        <ele>140.100006</ele>
        <time>2019-01-06T09:57:03Z</time>
      </trkpt>
      <trkpt lat="48.98019" lon="1.18617">
        <ele>140.5</ele>
        <time>2019-01-06T09:57:06Z</time>
      </trkpt>
      <trkpt lat="48.98013" lon="1.18603">
        <ele>139.800003</ele>
        <time>2019-01-06T09:57:09Z</time>
      </trkpt>
      <trkpt lat="48.98004" lon="1.18591">
        <ele>139.600006</ele>
        <time>2019-01-06T09:57:12Z</time>
      </trkpt>
      <trkpt lat="48.97994" lon="1.18581">
        <ele>139.600006</ele>
        <time>2019-01-06T09:57:15Z</time>
      </trkpt>
      <trkpt lat="48.97983" lon="1.18573">
        <ele>140.199997</ele>
        <time>2019-01-06T09:57:18Z</time>
      </trkpt>
      <trkpt lat="48.97971" lon="1.18567">
        <ele>141.199997</ele>
        <time>2019-01-06T09:57:21Z</time>
      </trkpt>
      <trkpt lat="48.97959" lon="1.18562">
        <ele>141.699997</ele>
        <time>2019-01-06T09:57:24Z</time>
      </trkpt>
      <trkpt lat="48.97946" lon="1.18557">
        <ele>141.699997</ele>
        <time>2019-01-06T09:57:27Z</time>
      </trkpt>
      <trkpt lat="48.97934" lon="1.18553">
        <ele>141.600006</ele>
        <time>2019-01-06T09:57:30Z</time>
      </trkpt>
      <trkpt lat="48.97922" lon="1.18548">
        <ele>141.399994</ele>
        <time>2019-01-06T09:57:33Z</time>
      </trkpt>
      <trkpt lat="48.9791" lon="1.18544">
        <ele>141.300003</ele>
        <time>2019-01-06T09:57:36Z</time>
      </trkpt>
      <trkpt lat="48.97898" lon="1.18539">
        <ele>141.100006</ele>
        <time>2019-01-06T09:57:39Z</time>
      </trkpt>
      <trkpt lat="48.97886" lon="1.18534">
        <ele>140.800003</ele>
        <time>2019-01-06T09:57:42Z</time>
      </trkpt>
      <trkpt lat="48.97874" lon="1.18525">
        <ele>141.100006</ele>
        <time>2019-01-06T09:57:45Z</time>
      </trkpt>
      <trkpt lat="48.97864" lon="1.18515">
        <ele>141</ele>
        <time>2019-01-06T09:57:48Z</time>
      </trkpt>
      <trkpt lat="48.97854" lon="1.18503">
        <ele>141.600006</ele>
        <time>2019-01-06T09:57:51Z</time>
      </trkpt>
      <trkpt lat="48.97845" lon="1.18491">
        <ele>142.100006</ele>
        <time>2019-01-06T09:57:54Z</time>
      </trkpt>
      <trkpt lat="48.97837" lon="1.18478">
        <ele>142.300003</ele>
        <time>2019-01-06T09:57:57Z</time>
      </trkpt>
      <trkpt lat="48.97829" lon="1.18465">
        <ele>142.5</ele>
        <time>2019-01-06T09:58:00Z</time>
      </trkpt>
      <trkpt lat="48.97821" lon="1.18451">
        <ele>142.800003</ele>
        <time>2019-01-06T09:58:03Z</time>
      </trkpt>
      <trkpt lat="48.97813" lon="1.18437">
        <ele>143.300003</ele>
        <time>2019-01-06T09:58:06Z</time>
      </trkpt>
      <trkpt lat="48.97805" lon="1.18422">
        <ele>143.100006</ele>
        <time>2019-01-06T09:58:09Z</time>
      </trkpt>
      <trkpt lat="48.97799" lon="1.18407">
        <ele>143.300003</ele>
        <time>2019-01-06T09:58:12Z</time>
      </trkpt>
      <trkpt lat="48.97794" lon="1.18389">
        <ele>143.300003</ele>
        <time>2019-01-06T09:58:15Z</time>
      </trkpt>
      <trkpt lat="48.97789" lon="1.18372">
        <ele>143.100006</ele>
        <time>2019-01-06T09:58:18Z</time>
      </trkpt>
      <trkpt lat="48.97783" lon="1.18354">
        <ele>143.100006</ele>
        <time>2019-01-06T09:58:21Z</time>
      </trkpt>
      <trkpt lat="48.97778" lon="1.18335">
        <ele>143.5</ele>
        <time>2019-01-06T09:58:24Z</time>
      </trkpt>
      <trkpt lat="48.97773" lon="1.18316">
        <ele>144</ele>
        <time>2019-01-06T09:58:27Z</time>
      </trkpt>
      <trkpt lat="48.97768" lon="1.18298">
        <ele>143.800003</ele>
        <time>2019-01-06T09:58:30Z</time>
      </trkpt>
      <trkpt lat="48.97763" lon="1.18279">
        <ele>143.899994</ele>
        <time>2019-01-06T09:58:33Z</time>
      </trkpt>
      <trkpt lat="48.97759" lon="1.18266">
        <ele>143.800003</ele>
        <time>2019-01-06T09:58:35Z</time>
      </trkpt>
      <trkpt lat="48.97756" lon="1.18253">
        <ele>144.199997</ele>
        <time>2019-01-06T09:58:37Z</time>
      </trkpt>
      <trkpt lat="48.97752" lon="1.18239">
        <ele>144.699997</ele>
        <time>2019-01-06T09:58:39Z</time>
      </trkpt>
      <trkpt lat="48.97749" lon="1.18225">
        <ele>144.600006</ele>
        <time>2019-01-06T09:58:41Z</time>
      </trkpt>
      <trkpt lat="48.97745" lon="1.18211">
        <ele>144.899994</ele>
        <time>2019-01-06T09:58:43Z</time>
      </trkpt>
      <trkpt lat="48.97742" lon="1.18198">
        <ele>144.899994</ele>
        <time>2019-01-06T09:58:45Z</time>
      </trkpt>
      <trkpt lat="48.97738" lon="1.18184">
        <ele>144.899994</ele>
        <time>2019-01-06T09:58:47Z</time>
      </trkpt>
      <trkpt lat="48.97735" lon="1.1817">
        <ele>144.899994</ele>
        <time>2019-01-06T09:58:49Z</time>
      </trkpt>
      <trkpt lat="48.97731" lon="1.18155">
        <ele>144.600006</ele>
        <time>2019-01-06T09:58:51Z</time>
      </trkpt>
      <trkpt lat="48.97727" lon="1.18141">
        <ele>144.300003</ele>
        <time>2019-01-06T09:58:53Z</time>
      </trkpt>
      <trkpt lat="48.97724" lon="1.18126">
        <ele>144.800003</ele>
        <time>2019-01-06T09:58:55Z</time>
      </trkpt>
      <trkpt lat="48.9772" lon="1.18112">
        <ele>145.199997</ele>
        <time>2019-01-06T09:58:57Z</time>
      </trkpt>
      <trkpt lat="48.97716" lon="1.18098">
        <ele>145</ele>
        <time>2019-01-06T09:58:59Z</time>
      </trkpt>
      <trkpt lat="48.97713" lon="1.18084">
        <ele>145.399994</ele>
        <time>2019-01-06T09:59:01Z</time>
      </trkpt>
      <trkpt lat="48.97709" lon="1.18069">
        <ele>145.300003</ele>
        <time>2019-01-06T09:59:03Z</time>
      </trkpt>
      <trkpt lat="48.97705" lon="1.18054">
        <ele>145.199997</ele>
        <time>2019-01-06T09:59:05Z</time>
      </trkpt>
      <trkpt lat="48.97701" lon="1.1804">
        <ele>145.399994</ele>
        <time>2019-01-06T09:59:07Z</time>
      </trkpt>
      <trkpt lat="48.97697" lon="1.18027">
        <ele>145.399994</ele>
        <time>2019-01-06T09:59:09Z</time>
      </trkpt>
      <trkpt lat="48.97692" lon="1.18014">
        <ele>145.5</ele>
        <time>2019-01-06T09:59:11Z</time>
      </trkpt>
      <trkpt lat="48.97687" lon="1.18002">
        <ele>144.899994</ele>
        <time>2019-01-06T09:59:13Z</time>
      </trkpt>
      <trkpt lat="48.97681" lon="1.17984">
        <ele>144.899994</ele>
        <time>2019-01-06T09:59:16Z</time>
      </trkpt>
      <trkpt lat="48.97674" lon="1.17974">
        <ele>143.899994</ele>
        <time>2019-01-06T09:59:18Z</time>
      </trkpt>
      <trkpt lat="48.97661" lon="1.17974">
        <ele>144</ele>
        <time>2019-01-06T09:59:21Z</time>
      </trkpt>
      <trkpt lat="48.97652" lon="1.17979">
        <ele>144.300003</ele>
        <time>2019-01-06T09:59:23Z</time>
      </trkpt>
      <trkpt lat="48.9764" lon="1.17984">
        <ele>144.399994</ele>
        <time>2019-01-06T09:59:26Z</time>
      </trkpt>
      <trkpt lat="48.97633" lon="1.17975">
        <ele>143.899994</ele>
        <time>2019-01-06T09:59:30Z</time>
      </trkpt>
      <trkpt lat="48.9763" lon="1.1796">
        <ele>143.899994</ele>
        <time>2019-01-06T09:59:33Z</time>
      </trkpt>
      <trkpt lat="48.97628" lon="1.17946">
        <ele>143.899994</ele>
        <time>2019-01-06T09:59:36Z</time>
      </trkpt>
      <trkpt lat="48.97625" lon="1.17928">
        <ele>144.399994</ele>
        <time>2019-01-06T09:59:40Z</time>
      </trkpt>
      <trkpt lat="48.97622" lon="1.17914">
        <ele>144.300003</ele>
        <time>2019-01-06T09:59:43Z</time>
      </trkpt>
      <trkpt lat="48.97619" lon="1.17899">
        <ele>144.399994</ele>
        <time>2019-01-06T09:59:46Z</time>
      </trkpt>
      <trkpt lat="48.97615" lon="1.17883">
        <ele>144.399994</ele>
        <time>2019-01-06T09:59:49Z</time>
      </trkpt>
      <trkpt lat="48.97611" lon="1.17867">
        <ele>144.399994</ele>
        <time>2019-01-06T09:59:52Z</time>
      </trkpt>
      <trkpt lat="48.97606" lon="1.17852">
        <ele>144.199997</ele>
        <time>2019-01-06T09:59:55Z</time>
      </trkpt>
      <trkpt lat="48.97602" lon="1.17838">
        <ele>144.100006</ele>
        <time>2019-01-06T09:59:58Z</time>
      </trkpt>
      <trkpt lat="48.97597" lon="1.17824">
        <ele>144.100006</ele>
        <time>2019-01-06T10:00:01Z</time>
      </trkpt>
      <trkpt lat="48.97592" lon="1.1781">
        <ele>144.199997</ele>
        <time>2019-01-06T10:00:04Z</time>
      </trkpt>
      <trkpt lat="48.97587" lon="1.17794">
        <ele>144</ele>
        <time>2019-01-06T10:00:07Z</time>
      </trkpt>
      <trkpt lat="48.97581" lon="1.17776">
        <ele>143.800003</ele>
        <time>2019-01-06T10:00:10Z</time>
      </trkpt>
      <trkpt lat="48.97575" lon="1.17758">
        <ele>143.699997</ele>
        <time>2019-01-06T10:00:13Z</time>
      </trkpt>
      <trkpt lat="48.97571" lon="1.17746">
        <ele>143.600006</ele>
        <time>2019-01-06T10:00:15Z</time>
      </trkpt>
      <trkpt lat="48.97566" lon="1.17733">
        <ele>143.399994</ele>
        <time>2019-01-06T10:00:17Z</time>
      </trkpt>
      <trkpt lat="48.97562" lon="1.1772">
        <ele>143.300003</ele>
        <time>2019-01-06T10:00:19Z</time>
      </trkpt>
      <trkpt lat="48.97558" lon="1.17708">
        <ele>143</ele>
        <time>2019-01-06T10:00:21Z</time>
      </trkpt>
      <trkpt lat="48.97554" lon="1.17695">
        <ele>142.899994</ele>
        <time>2019-01-06T10:00:23Z</time>
      </trkpt>
      <trkpt lat="48.97549" lon="1.17683">
        <ele>142.899994</ele>
        <time>2019-01-06T10:00:25Z</time>
      </trkpt>
      <trkpt lat="48.97545" lon="1.17671">
        <ele>142.699997</ele>
        <time>2019-01-06T10:00:27Z</time>
      </trkpt>
      <trkpt lat="48.97541" lon="1.17658">
        <ele>142.600006</ele>
        <time>2019-01-06T10:00:29Z</time>
      </trkpt>
      <trkpt lat="48.97536" lon="1.17644">
        <ele>142.399994</ele>
        <time>2019-01-06T10:00:31Z</time>
      </trkpt>
      <trkpt lat="48.97532" lon="1.17632">
        <ele>142</ele>
        <time>2019-01-06T10:00:33Z</time>
      </trkpt>
      <trkpt lat="48.97527" lon="1.17619">
        <ele>142</ele>
        <time>2019-01-06T10:00:35Z</time>
      </trkpt>
      <trkpt lat="48.97523" lon="1.17606">
        <ele>142</ele>
        <time>2019-01-06T10:00:37Z</time>
      </trkpt>
      <trkpt lat="48.97518" lon="1.17593">
        <ele>141.800003</ele>
        <time>2019-01-06T10:00:39Z</time>
      </trkpt>
      <trkpt lat="48.97514" lon="1.1758">
        <ele>141.699997</ele>
        <time>2019-01-06T10:00:41Z</time>
      </trkpt>
      <trkpt lat="48.9751" lon="1.17567">
        <ele>141.800003</ele>
        <time>2019-01-06T10:00:43Z</time>
      </trkpt>
      <trkpt lat="48.97507" lon="1.17553">
        <ele>141.800003</ele>
        <time>2019-01-06T10:00:45Z</time>
      </trkpt>
      <trkpt lat="48.97503" lon="1.1754">
        <ele>141.600006</ele>
        <time>2019-01-06T10:00:47Z</time>
      </trkpt>
      <trkpt lat="48.975" lon="1.17526">
        <ele>141.600006</ele>
        <time>2019-01-06T10:00:49Z</time>
      </trkpt>
      <trkpt lat="48.97498" lon="1.17511">
        <ele>141.5</ele>
        <time>2019-01-06T10:00:51Z</time>
      </trkpt>
      <trkpt lat="48.97496" lon="1.17496">
        <ele>141.5</ele>
        <time>2019-01-06T10:00:53Z</time>
      </trkpt>
      <trkpt lat="48.97495" lon="1.17481">
        <ele>141.5</ele>
        <time>2019-01-06T10:00:55Z</time>
      </trkpt>
      <trkpt lat="48.97494" lon="1.17466">
        <ele>141.600006</ele>
        <time>2019-01-06T10:00:57Z</time>
      </trkpt>
      <trkpt lat="48.97492" lon="1.17451">
        <ele>141.600006</ele>
        <time>2019-01-06T10:00:59Z</time>
      </trkpt>
      <trkpt lat="48.97492" lon="1.17436">
        <ele>141.399994</ele>
        <time>2019-01-06T10:01:01Z</time>
      </trkpt>
      <trkpt lat="48.97492" lon="1.17421">
        <ele>141.300003</ele>
        <time>2019-01-06T10:01:03Z</time>
      </trkpt>
      <trkpt lat="48.97492" lon="1.17406">
        <ele>141.199997</ele>
        <time>2019-01-06T10:01:05Z</time>
      </trkpt>
      <trkpt lat="48.97493" lon="1.17391">
        <ele>140.800003</ele>
        <time>2019-01-06T10:01:07Z</time>
      </trkpt>
      <trkpt lat="48.97494" lon="1.17376">
        <ele>140.699997</ele>
        <time>2019-01-06T10:01:09Z</time>
      </trkpt>
      <trkpt lat="48.97495" lon="1.1736">
        <ele>141</ele>
        <time>2019-01-06T10:01:11Z</time>
      </trkpt>
      <trkpt lat="48.97497" lon="1.17345">
        <ele>141.199997</ele>
        <time>2019-01-06T10:01:13Z</time>
      </trkpt>
      <trkpt lat="48.97498" lon="1.17329">
        <ele>141.100006</ele>
        <time>2019-01-06T10:01:15Z</time>
      </trkpt>
      <trkpt lat="48.97499" lon="1.17315">
        <ele>141.300003</ele>
        <time>2019-01-06T10:01:17Z</time>
      </trkpt>
      <trkpt lat="48.97501" lon="1.17301">
        <ele>141.199997</ele>
        <time>2019-01-06T10:01:19Z</time>
      </trkpt>
      <trkpt lat="48.97502" lon="1.1728">
        <ele>141.300003</ele>
        <time>2019-01-06T10:01:22Z</time>
      </trkpt>
      <trkpt lat="48.97503" lon="1.17266">
        <ele>141.199997</ele>
        <time>2019-01-06T10:01:24Z</time>
      </trkpt>
      <trkpt lat="48.97504" lon="1.17251">
        <ele>141.100006</ele>
        <time>2019-01-06T10:01:26Z</time>
      </trkpt>
      <trkpt lat="48.97507" lon="1.17237">
        <ele>140.699997</ele>
        <time>2019-01-06T10:01:28Z</time>
      </trkpt>
      <trkpt lat="48.97511" lon="1.17222">
        <ele>140.5</ele>
        <time>2019-01-06T10:01:30Z</time>
      </trkpt>
      <trkpt lat="48.97514" lon="1.17208">
        <ele>140.5</ele>
        <time>2019-01-06T10:01:32Z</time>
      </trkpt>
      <trkpt lat="48.97517" lon="1.17193">
        <ele>140.199997</ele>
        <time>2019-01-06T10:01:34Z</time>
      </trkpt>
      <trkpt lat="48.9752" lon="1.17178">
        <ele>140.199997</ele>
        <time>2019-01-06T10:01:36Z</time>
      </trkpt>
      <trkpt lat="48.97523" lon="1.17163">
        <ele>139.800003</ele>
        <time>2019-01-06T10:01:38Z</time>
      </trkpt>
      <trkpt lat="48.97526" lon="1.17147">
        <ele>139</ele>
        <time>2019-01-06T10:01:40Z</time>
      </trkpt>
      <trkpt lat="48.97528" lon="1.17132">
        <ele>138.899994</ele>
        <time>2019-01-06T10:01:42Z</time>
      </trkpt>
      <trkpt lat="48.9753" lon="1.17117">
        <ele>139.600006</ele>
        <time>2019-01-06T10:01:44Z</time>
      </trkpt>
      <trkpt lat="48.97533" lon="1.17101">
        <ele>139.399994</ele>
        <time>2019-01-06T10:01:46Z</time>
      </trkpt>
      <trkpt lat="48.97535" lon="1.17085">
        <ele>139.800003</ele>
        <time>2019-01-06T10:01:48Z</time>
      </trkpt>
      <trkpt lat="48.97537" lon="1.17068">
        <ele>140.199997</ele>
        <time>2019-01-06T10:01:50Z</time>
      </trkpt>
      <trkpt lat="48.97539" lon="1.17051">
        <ele>139.899994</ele>
        <time>2019-01-06T10:01:52Z</time>
      </trkpt>
      <trkpt lat="48.9754" lon="1.17035">
        <ele>139.600006</ele>
        <time>2019-01-06T10:01:54Z</time>
      </trkpt>
      <trkpt lat="48.97541" lon="1.17019">
        <ele>139.100006</ele>
        <time>2019-01-06T10:01:56Z</time>
      </trkpt>
      <trkpt lat="48.97541" lon="1.17003">
        <ele>138.600006</ele>
        <time>2019-01-06T10:01:58Z</time>
      </trkpt>
      <trkpt lat="48.97541" lon="1.16987">
        <ele>138.399994</ele>
        <time>2019-01-06T10:02:00Z</time>
      </trkpt>
      <trkpt lat="48.97542" lon="1.1697">
        <ele>139</ele>
        <time>2019-01-06T10:02:02Z</time>
      </trkpt>
      <trkpt lat="48.97543" lon="1.16953">
        <ele>138</ele>
        <time>2019-01-06T10:02:04Z</time>
      </trkpt>
      <trkpt lat="48.97544" lon="1.16937">
        <ele>138.5</ele>
        <time>2019-01-06T10:02:06Z</time>
      </trkpt>
      <trkpt lat="48.97545" lon="1.16921">
        <ele>139.699997</ele>
        <time>2019-01-06T10:02:08Z</time>
      </trkpt>
      <trkpt lat="48.97546" lon="1.16905">
        <ele>139.5</ele>
        <time>2019-01-06T10:02:10Z</time>
      </trkpt>
      <trkpt lat="48.97546" lon="1.1689">
        <ele>139.800003</ele>
        <time>2019-01-06T10:02:12Z</time>
      </trkpt>
      <trkpt lat="48.97546" lon="1.16874">
        <ele>138.899994</ele>
        <time>2019-01-06T10:02:14Z</time>
      </trkpt>
      <trkpt lat="48.97546" lon="1.16857">
        <ele>138.300003</ele>
        <time>2019-01-06T10:02:16Z</time>
      </trkpt>
      <trkpt lat="48.97547" lon="1.16841">
        <ele>138.300003</ele>
        <time>2019-01-06T10:02:18Z</time>
      </trkpt>
      <trkpt lat="48.97547" lon="1.16824">
        <ele>138</ele>
        <time>2019-01-06T10:02:20Z</time>
      </trkpt>
      <trkpt lat="48.97547" lon="1.16807">
        <ele>137.899994</ele>
        <time>2019-01-06T10:02:22Z</time>
      </trkpt>
      <trkpt lat="48.97548" lon="1.16791">
        <ele>138.399994</ele>
        <time>2019-01-06T10:02:24Z</time>
      </trkpt>
      <trkpt lat="48.97549" lon="1.16775">
        <ele>139.300003</ele>
        <time>2019-01-06T10:02:26Z</time>
      </trkpt>
      <trkpt lat="48.97549" lon="1.16759">
        <ele>138.5</ele>
        <time>2019-01-06T10:02:28Z</time>
      </trkpt>
      <trkpt lat="48.9755" lon="1.16742">
        <ele>138.300003</ele>
        <time>2019-01-06T10:02:30Z</time>
      </trkpt>
      <trkpt lat="48.97551" lon="1.16726">
        <ele>138.899994</ele>
        <time>2019-01-06T10:02:32Z</time>
      </trkpt>
      <trkpt lat="48.97552" lon="1.16709">
        <ele>138.5</ele>
        <time>2019-01-06T10:02:34Z</time>
      </trkpt>
      <trkpt lat="48.97552" lon="1.16693">
        <ele>139.699997</ele>
        <time>2019-01-06T10:02:36Z</time>
      </trkpt>
      <trkpt lat="48.97553" lon="1.16676">
        <ele>139.300003</ele>
        <time>2019-01-06T10:02:38Z</time>
      </trkpt>
      <trkpt lat="48.97553" lon="1.1666">
        <ele>139.699997</ele>
        <time>2019-01-06T10:02:40Z</time>
      </trkpt>
      <trkpt lat="48.97554" lon="1.16644">
        <ele>139.899994</ele>
        <time>2019-01-06T10:02:42Z</time>
      </trkpt>
      <trkpt lat="48.97554" lon="1.16628">
        <ele>139.699997</ele>
        <time>2019-01-06T10:02:44Z</time>
      </trkpt>
      <trkpt lat="48.97554" lon="1.16611">
        <ele>140.199997</ele>
        <time>2019-01-06T10:02:46Z</time>
      </trkpt>
      <trkpt lat="48.97553" lon="1.16595">
        <ele>139.800003</ele>
        <time>2019-01-06T10:02:48Z</time>
      </trkpt>
      <trkpt lat="48.97552" lon="1.16579">
        <ele>139.300003</ele>
        <time>2019-01-06T10:02:50Z</time>
      </trkpt>
      <trkpt lat="48.9755" lon="1.16563">
        <ele>138.899994</ele>
        <time>2019-01-06T10:02:52Z</time>
      </trkpt>
      <trkpt lat="48.97549" lon="1.16546">
        <ele>139</ele>
        <time>2019-01-06T10:02:54Z</time>
      </trkpt>
      <trkpt lat="48.97547" lon="1.1653">
        <ele>138.699997</ele>
        <time>2019-01-06T10:02:56Z</time>
      </trkpt>
      <trkpt lat="48.97545" lon="1.16513">
        <ele>139.199997</ele>
        <time>2019-01-06T10:02:58Z</time>
      </trkpt>
      <trkpt lat="48.97544" lon="1.16496">
        <ele>139.600006</ele>
        <time>2019-01-06T10:03:00Z</time>
      </trkpt>
      <trkpt lat="48.97542" lon="1.1648">
        <ele>139.899994</ele>
        <time>2019-01-06T10:03:02Z</time>
      </trkpt>
      <trkpt lat="48.97542" lon="1.16465">
        <ele>140.5</ele>
        <time>2019-01-06T10:03:04Z</time>
      </trkpt>
      <trkpt lat="48.97542" lon="1.16449">
        <ele>140.800003</ele>
        <time>2019-01-06T10:03:06Z</time>
      </trkpt>
      <trkpt lat="48.97542" lon="1.16433">
        <ele>140.399994</ele>
        <time>2019-01-06T10:03:08Z</time>
      </trkpt>
      <trkpt lat="48.97542" lon="1.16417">
        <ele>140.5</ele>
        <time>2019-01-06T10:03:10Z</time>
      </trkpt>
      <trkpt lat="48.97542" lon="1.16402">
        <ele>140.800003</ele>
        <time>2019-01-06T10:03:12Z</time>
      </trkpt>
      <trkpt lat="48.97543" lon="1.16387">
        <ele>140.399994</ele>
        <time>2019-01-06T10:03:14Z</time>
      </trkpt>
      <trkpt lat="48.97544" lon="1.16372">
        <ele>140.800003</ele>
        <time>2019-01-06T10:03:16Z</time>
      </trkpt>
      <trkpt lat="48.97545" lon="1.16357">
        <ele>140.5</ele>
        <time>2019-01-06T10:03:18Z</time>
      </trkpt>
      <trkpt lat="48.97546" lon="1.16343">
        <ele>140.600006</ele>
        <time>2019-01-06T10:03:20Z</time>
      </trkpt>
      <trkpt lat="48.97552" lon="1.16329">
        <ele>140.5</ele>
        <time>2019-01-06T10:03:23Z</time>
      </trkpt>
      <trkpt lat="48.97562" lon="1.16332">
        <ele>139.600006</ele>
        <time>2019-01-06T10:03:26Z</time>
      </trkpt>
      <trkpt lat="48.9757" lon="1.16342">
        <ele>140.100006</ele>
        <time>2019-01-06T10:03:29Z</time>
      </trkpt>
      <trkpt lat="48.97581" lon="1.16352">
        <ele>140.399994</ele>
        <time>2019-01-06T10:03:32Z</time>
      </trkpt>
      <trkpt lat="48.97593" lon="1.1636">
        <ele>141.199997</ele>
        <time>2019-01-06T10:03:35Z</time>
      </trkpt>
      <trkpt lat="48.97604" lon="1.16369">
        <ele>141.199997</ele>
        <time>2019-01-06T10:03:38Z</time>
      </trkpt>
      <trkpt lat="48.97615" lon="1.16377">
        <ele>141.300003</ele>
        <time>2019-01-06T10:03:41Z</time>
      </trkpt>
      <trkpt lat="48.97627" lon="1.16385">
        <ele>141.399994</ele>
        <time>2019-01-06T10:03:44Z</time>
      </trkpt>
      <trkpt lat="48.97639" lon="1.16393">
        <ele>141.899994</ele>
        <time>2019-01-06T10:03:47Z</time>
      </trkpt>
      <trkpt lat="48.97651" lon="1.16402">
        <ele>142.399994</ele>
        <time>2019-01-06T10:03:50Z</time>
      </trkpt>
      <trkpt lat="48.97663" lon="1.1641">
        <ele>142.199997</ele>
        <time>2019-01-06T10:03:53Z</time>
      </trkpt>
      <trkpt lat="48.97671" lon="1.16416">
        <ele>142.199997</ele>
        <time>2019-01-06T10:03:55Z</time>
      </trkpt>
      <trkpt lat="48.9768" lon="1.16421">
        <ele>141.899994</ele>
        <time>2019-01-06T10:03:57Z</time>
      </trkpt>
      <trkpt lat="48.97688" lon="1.16427">
        <ele>142</ele>
        <time>2019-01-06T10:03:59Z</time>
      </trkpt>
      <trkpt lat="48.97701" lon="1.16434">
        <ele>141.800003</ele>
        <time>2019-01-06T10:04:02Z</time>
      </trkpt>
      <trkpt lat="48.97713" lon="1.1644">
        <ele>142</ele>
        <time>2019-01-06T10:04:05Z</time>
      </trkpt>
      <trkpt lat="48.97722" lon="1.16442">
        <ele>142.199997</ele>
        <time>2019-01-06T10:04:07Z</time>
      </trkpt>
      <trkpt lat="48.97736" lon="1.16445">
        <ele>142.800003</ele>
        <time>2019-01-06T10:04:10Z</time>
      </trkpt>
      <trkpt lat="48.97749" lon="1.16447">
        <ele>142.699997</ele>
        <time>2019-01-06T10:04:13Z</time>
      </trkpt>
      <trkpt lat="48.97758" lon="1.16451">
        <ele>143.399994</ele>
        <time>2019-01-06T10:04:15Z</time>
      </trkpt>
      <trkpt lat="48.97767" lon="1.16455">
        <ele>143.300003</ele>
        <time>2019-01-06T10:04:17Z</time>
      </trkpt>
      <trkpt lat="48.97775" lon="1.1646">
        <ele>143</ele>
        <time>2019-01-06T10:04:19Z</time>
      </trkpt>
      <trkpt lat="48.97784" lon="1.16465">
        <ele>143.5</ele>
        <time>2019-01-06T10:04:21Z</time>
      </trkpt>
      <trkpt lat="48.97793" lon="1.1647">
        <ele>143.600006</ele>
        <time>2019-01-06T10:04:23Z</time>
      </trkpt>
      <trkpt lat="48.97802" lon="1.16476">
        <ele>143.899994</ele>
        <time>2019-01-06T10:04:25Z</time>
      </trkpt>
      <trkpt lat="48.97811" lon="1.16481">
        <ele>144</ele>
        <time>2019-01-06T10:04:27Z</time>
      </trkpt>
      <trkpt lat="48.97819" lon="1.16486">
        <ele>143.699997</ele>
        <time>2019-01-06T10:04:29Z</time>
      </trkpt>
      <trkpt lat="48.97828" lon="1.16492">
        <ele>143.800003</ele>
        <time>2019-01-06T10:04:31Z</time>
      </trkpt>
      <trkpt lat="48.97837" lon="1.16498">
        <ele>143</ele>
        <time>2019-01-06T10:04:33Z</time>
      </trkpt>
      <trkpt lat="48.97846" lon="1.16504">
        <ele>143.600006</ele>
        <time>2019-01-06T10:04:35Z</time>
      </trkpt>
      <trkpt lat="48.97855" lon="1.16509">
        <ele>142.899994</ele>
        <time>2019-01-06T10:04:37Z</time>
      </trkpt>
      <trkpt lat="48.97864" lon="1.16515">
        <ele>142.5</ele>
        <time>2019-01-06T10:04:39Z</time>
      </trkpt>
      <trkpt lat="48.97873" lon="1.16521">
        <ele>142.5</ele>
        <time>2019-01-06T10:04:41Z</time>
      </trkpt>
      <trkpt lat="48.97883" lon="1.16527">
        <ele>142.800003</ele>
        <time>2019-01-06T10:04:43Z</time>
      </trkpt>
      <trkpt lat="48.97892" lon="1.16533">
        <ele>143.300003</ele>
        <time>2019-01-06T10:04:45Z</time>
      </trkpt>
      <trkpt lat="48.97901" lon="1.16539">
        <ele>142.600006</ele>
        <time>2019-01-06T10:04:47Z</time>
      </trkpt>
      <trkpt lat="48.97911" lon="1.16544">
        <ele>142.600006</ele>
        <time>2019-01-06T10:04:49Z</time>
      </trkpt>
      <trkpt lat="48.9792" lon="1.1655">
        <ele>142.399994</ele>
        <time>2019-01-06T10:04:51Z</time>
      </trkpt>
      <trkpt lat="48.97929" lon="1.16555">
        <ele>143.100006</ele>
        <time>2019-01-06T10:04:53Z</time>
      </trkpt>
      <trkpt lat="48.97937" lon="1.16561">
        <ele>143.699997</ele>
        <time>2019-01-06T10:04:55Z</time>
      </trkpt>
      <trkpt lat="48.97946" lon="1.16566">
        <ele>144.199997</ele>
        <time>2019-01-06T10:04:57Z</time>
      </trkpt>
      <trkpt lat="48.97954" lon="1.1657">
        <ele>144.300003</ele>
        <time>2019-01-06T10:04:59Z</time>
      </trkpt>
      <trkpt lat="48.97963" lon="1.16575">
        <ele>143.800003</ele>
        <time>2019-01-06T10:05:01Z</time>
      </trkpt>
      <trkpt lat="48.97975" lon="1.16582">
        <ele>143.5</ele>
        <time>2019-01-06T10:05:04Z</time>
      </trkpt>
      <trkpt lat="48.97988" lon="1.16589">
        <ele>143.600006</ele>
        <time>2019-01-06T10:05:07Z</time>
      </trkpt>
      <trkpt lat="48.98001" lon="1.16595">
        <ele>143.5</ele>
        <time>2019-01-06T10:05:10Z</time>
      </trkpt>
      <trkpt lat="48.9801" lon="1.166">
        <ele>144.399994</ele>
        <time>2019-01-06T10:05:12Z</time>
      </trkpt>
      <trkpt lat="48.98023" lon="1.16606">
        <ele>144.300003</ele>
        <time>2019-01-06T10:05:15Z</time>
      </trkpt>
      <trkpt lat="48.98031" lon="1.1661">
        <ele>144.399994</ele>
        <time>2019-01-06T10:05:17Z</time>
      </trkpt>
      <trkpt lat="48.9804" lon="1.16614">
        <ele>145</ele>
        <time>2019-01-06T10:05:19Z</time>
      </trkpt>
      <trkpt lat="48.98049" lon="1.16619">
        <ele>145</ele>
        <time>2019-01-06T10:05:21Z</time>
      </trkpt>
      <trkpt lat="48.98057" lon="1.16623">
        <ele>145.100006</ele>
        <time>2019-01-06T10:05:23Z</time>
      </trkpt>
      <trkpt lat="48.98066" lon="1.16628">
        <ele>144.800003</ele>
        <time>2019-01-06T10:05:25Z</time>
      </trkpt>
      <trkpt lat="48.98074" lon="1.16633">
        <ele>145</ele>
        <time>2019-01-06T10:05:27Z</time>
      </trkpt>
      <trkpt lat="48.98083" lon="1.16638">
        <ele>144.899994</ele>
        <time>2019-01-06T10:05:29Z</time>
      </trkpt>
      <trkpt lat="48.98095" lon="1.16646">
        <ele>145.399994</ele>
        <time>2019-01-06T10:05:32Z</time>
      </trkpt>
      <trkpt lat="48.98104" lon="1.16651">
        <ele>145.199997</ele>
        <time>2019-01-06T10:05:34Z</time>
      </trkpt>
      <trkpt lat="48.98113" lon="1.16656">
        <ele>145.300003</ele>
        <time>2019-01-06T10:05:36Z</time>
      </trkpt>
      <trkpt lat="48.98122" lon="1.16662">
        <ele>144.800003</ele>
        <time>2019-01-06T10:05:38Z</time>
      </trkpt>
      <trkpt lat="48.98131" lon="1.16667">
        <ele>144.800003</ele>
        <time>2019-01-06T10:05:40Z</time>
      </trkpt>
      <trkpt lat="48.9814" lon="1.16673">
        <ele>144.899994</ele>
        <time>2019-01-06T10:05:42Z</time>
      </trkpt>
      <trkpt lat="48.98149" lon="1.16678">
        <ele>144.899994</ele>
        <time>2019-01-06T10:05:44Z</time>
      </trkpt>
      <trkpt lat="48.98158" lon="1.16684">
        <ele>145.100006</ele>
        <time>2019-01-06T10:05:46Z</time>
      </trkpt>
      <trkpt lat="48.98167" lon="1.1669">
        <ele>145.100006</ele>
        <time>2019-01-06T10:05:48Z</time>
      </trkpt>
      <trkpt lat="48.98176" lon="1.16695">
        <ele>145</ele>
        <time>2019-01-06T10:05:50Z</time>
      </trkpt>
      <trkpt lat="48.98185" lon="1.16701">
        <ele>144.600006</ele>
        <time>2019-01-06T10:05:52Z</time>
      </trkpt>
      <trkpt lat="48.98194" lon="1.16707">
        <ele>144.699997</ele>
        <time>2019-01-06T10:05:54Z</time>
      </trkpt>
      <trkpt lat="48.98203" lon="1.16713">
        <ele>144.199997</ele>
        <time>2019-01-06T10:05:56Z</time>
      </trkpt>
      <trkpt lat="48.98212" lon="1.16719">
        <ele>143.600006</ele>
        <time>2019-01-06T10:05:58Z</time>
      </trkpt>
      <trkpt lat="48.98221" lon="1.16724">
        <ele>143.699997</ele>
        <time>2019-01-06T10:06:00Z</time>
      </trkpt>
      <trkpt lat="48.98231" lon="1.1673">
        <ele>144.300003</ele>
        <time>2019-01-06T10:06:02Z</time>
      </trkpt>
      <trkpt lat="48.9824" lon="1.16735">
        <ele>144.100006</ele>
        <time>2019-01-06T10:06:04Z</time>
      </trkpt>
      <trkpt lat="48.98249" lon="1.16741">
        <ele>143.699997</ele>
        <time>2019-01-06T10:06:06Z</time>
      </trkpt>
      <trkpt lat="48.98259" lon="1.16747">
        <ele>143.899994</ele>
        <time>2019-01-06T10:06:08Z</time>
      </trkpt>
      <trkpt lat="48.98268" lon="1.16753">
        <ele>143.100006</ele>
        <time>2019-01-06T10:06:10Z</time>
      </trkpt>
      <trkpt lat="48.98277" lon="1.16758">
        <ele>142.100006</ele>
        <time>2019-01-06T10:06:12Z</time>
      </trkpt>
      <trkpt lat="48.98287" lon="1.16764">
        <ele>142.199997</ele>
        <time>2019-01-06T10:06:14Z</time>
      </trkpt>
      <trkpt lat="48.98296" lon="1.1677">
        <ele>141.699997</ele>
        <time>2019-01-06T10:06:16Z</time>
      </trkpt>
      <trkpt lat="48.98306" lon="1.16776">
        <ele>141.800003</ele>
        <time>2019-01-06T10:06:18Z</time>
      </trkpt>
      <trkpt lat="48.98315" lon="1.16781">
        <ele>142</ele>
        <time>2019-01-06T10:06:20Z</time>
      </trkpt>
      <trkpt lat="48.98325" lon="1.16787">
        <ele>142.399994</ele>
        <time>2019-01-06T10:06:22Z</time>
      </trkpt>
      <trkpt lat="48.98335" lon="1.16792">
        <ele>141.5</ele>
        <time>2019-01-06T10:06:24Z</time>
      </trkpt>
      <trkpt lat="48.98344" lon="1.16797">
        <ele>142.399994</ele>
        <time>2019-01-06T10:06:26Z</time>
      </trkpt>
      <trkpt lat="48.98354" lon="1.16802">
        <ele>142.800003</ele>
        <time>2019-01-06T10:06:28Z</time>
      </trkpt>
      <trkpt lat="48.98364" lon="1.16807">
        <ele>142.699997</ele>
        <time>2019-01-06T10:06:30Z</time>
      </trkpt>
      <trkpt lat="48.98374" lon="1.16812">
        <ele>142</ele>
        <time>2019-01-06T10:06:32Z</time>
      </trkpt>
      <trkpt lat="48.98384" lon="1.16817">
        <ele>141.800003</ele>
        <time>2019-01-06T10:06:34Z</time>
      </trkpt>
      <trkpt lat="48.98393" lon="1.16822">
        <ele>141.600006</ele>
        <time>2019-01-06T10:06:36Z</time>
      </trkpt>
      <trkpt lat="48.98403" lon="1.16827">
        <ele>141.5</ele>
        <time>2019-01-06T10:06:38Z</time>
      </trkpt>
      <trkpt lat="48.98414" lon="1.16832">
        <ele>141.600006</ele>
        <time>2019-01-06T10:06:40Z</time>
      </trkpt>
      <trkpt lat="48.98425" lon="1.16837">
        <ele>141.399994</ele>
        <time>2019-01-06T10:06:42Z</time>
      </trkpt>
      <trkpt lat="48.98435" lon="1.16842">
        <ele>140.699997</ele>
        <time>2019-01-06T10:06:44Z</time>
      </trkpt>
      <trkpt lat="48.98444" lon="1.16846">
        <ele>140.199997</ele>
        <time>2019-01-06T10:06:46Z</time>
      </trkpt>
      <trkpt lat="48.98454" lon="1.1685">
        <ele>139.699997</ele>
        <time>2019-01-06T10:06:48Z</time>
      </trkpt>
      <trkpt lat="48.98464" lon="1.16855">
        <ele>140.199997</ele>
        <time>2019-01-06T10:06:50Z</time>
      </trkpt>
      <trkpt lat="48.98475" lon="1.16859">
        <ele>140</ele>
        <time>2019-01-06T10:06:52Z</time>
      </trkpt>
      <trkpt lat="48.98484" lon="1.16863">
        <ele>140.300003</ele>
        <time>2019-01-06T10:06:54Z</time>
      </trkpt>
      <trkpt lat="48.98494" lon="1.16868">
        <ele>140.199997</ele>
        <time>2019-01-06T10:06:56Z</time>
      </trkpt>
      <trkpt lat="48.98503" lon="1.16874">
        <ele>139.399994</ele>
        <time>2019-01-06T10:06:58Z</time>
      </trkpt>
      <trkpt lat="48.98512" lon="1.1688">
        <ele>139.300003</ele>
        <time>2019-01-06T10:07:00Z</time>
      </trkpt>
      <trkpt lat="48.98521" lon="1.16886">
        <ele>139.300003</ele>
        <time>2019-01-06T10:07:02Z</time>
      </trkpt>
      <trkpt lat="48.9853" lon="1.16893">
        <ele>139.300003</ele>
        <time>2019-01-06T10:07:04Z</time>
      </trkpt>
      <trkpt lat="48.98538" lon="1.16899">
        <ele>139.300003</ele>
        <time>2019-01-06T10:07:06Z</time>
      </trkpt>
      <trkpt lat="48.98547" lon="1.16905">
        <ele>138.100006</ele>
        <time>2019-01-06T10:07:08Z</time>
      </trkpt>
      <trkpt lat="48.98558" lon="1.16915">
        <ele>136.5</ele>
        <time>2019-01-06T10:07:11Z</time>
      </trkpt>
      <trkpt lat="48.98567" lon="1.16926">
        <ele>136.699997</ele>
        <time>2019-01-06T10:07:14Z</time>
      </trkpt>
      <trkpt lat="48.98572" lon="1.1694">
        <ele>137.100006</ele>
        <time>2019-01-06T10:07:17Z</time>
      </trkpt>
      <trkpt lat="48.98572" lon="1.16958">
        <ele>137.199997</ele>
        <time>2019-01-06T10:07:21Z</time>
      </trkpt>
      <trkpt lat="48.9857" lon="1.16973">
        <ele>137.300003</ele>
        <time>2019-01-06T10:07:25Z</time>
      </trkpt>
      <trkpt lat="48.98568" lon="1.16989">
        <ele>137.199997</ele>
        <time>2019-01-06T10:07:30Z</time>
      </trkpt>
      <trkpt lat="48.98568" lon="1.17003">
        <ele>136.899994</ele>
        <time>2019-01-06T10:07:35Z</time>
      </trkpt>
      <trkpt lat="48.98567" lon="1.1702">
        <ele>136.699997</ele>
        <time>2019-01-06T10:07:40Z</time>
      </trkpt>
      <trkpt lat="48.98566" lon="1.17035">
        <ele>136.699997</ele>
        <time>2019-01-06T10:07:44Z</time>
      </trkpt>
      <trkpt lat="48.98564" lon="1.1705">
        <ele>136.600006</ele>
        <time>2019-01-06T10:08:52Z</time>
      </trkpt>
      <trkpt lat="48.98563" lon="1.17064">
        <ele>136.600006</ele>
        <time>2019-01-06T10:08:54Z</time>
      </trkpt>
      <trkpt lat="48.98561" lon="1.17079">
        <ele>136.199997</ele>
        <time>2019-01-06T10:08:56Z</time>
      </trkpt>
      <trkpt lat="48.98559" lon="1.17094">
        <ele>136.300003</ele>
        <time>2019-01-06T10:08:58Z</time>
      </trkpt>
      <trkpt lat="48.98557" lon="1.17109">
        <ele>136.399994</ele>
        <time>2019-01-06T10:09:00Z</time>
      </trkpt>
      <trkpt lat="48.98556" lon="1.17123">
        <ele>136.5</ele>
        <time>2019-01-06T10:09:02Z</time>
      </trkpt>
      <trkpt lat="48.98554" lon="1.1714">
        <ele>136.300003</ele>
        <time>2019-01-06T10:09:05Z</time>
      </trkpt>
      <trkpt lat="48.98551" lon="1.17156">
        <ele>136.300003</ele>
        <time>2019-01-06T10:09:09Z</time>
      </trkpt>
      <trkpt lat="48.98547" lon="1.17168">
        <ele>136.399994</ele>
        <time>2019-01-06T10:09:15Z</time>
      </trkpt>
      <trkpt lat="48.98546" lon="1.17184">
        <ele>136.800003</ele>
        <time>2019-01-06T10:10:02Z</time>
      </trkpt>
      <trkpt lat="48.98544" lon="1.17197">
        <ele>136.699997</ele>
        <time>2019-01-06T10:10:05Z</time>
      </trkpt>
      <trkpt lat="48.98541" lon="1.17216">
        <ele>136.899994</ele>
        <time>2019-01-06T10:10:08Z</time>
      </trkpt>
      <trkpt lat="48.98538" lon="1.17235">
        <ele>136.600006</ele>
        <time>2019-01-06T10:10:11Z</time>
      </trkpt>
      <trkpt lat="48.98535" lon="1.17252">
        <ele>136.800003</ele>
        <time>2019-01-06T10:10:14Z</time>
      </trkpt>
      <trkpt lat="48.98533" lon="1.17269">
        <ele>136.800003</ele>
        <time>2019-01-06T10:10:17Z</time>
      </trkpt>
      <trkpt lat="48.98531" lon="1.17285">
        <ele>137</ele>
        <time>2019-01-06T10:10:20Z</time>
      </trkpt>
      <trkpt lat="48.98529" lon="1.17301">
        <ele>137.199997</ele>
        <time>2019-01-06T10:10:23Z</time>
      </trkpt>
      <trkpt lat="48.98526" lon="1.17316">
        <ele>137.300003</ele>
        <time>2019-01-06T10:10:26Z</time>
      </trkpt>
      <trkpt lat="48.98524" lon="1.17332">
        <ele>137.5</ele>
        <time>2019-01-06T10:10:29Z</time>
      </trkpt>
      <trkpt lat="48.98521" lon="1.17348">
        <ele>137.5</ele>
        <time>2019-01-06T10:10:32Z</time>
      </trkpt>
      <trkpt lat="48.98518" lon="1.17365">
        <ele>137.699997</ele>
        <time>2019-01-06T10:10:35Z</time>
      </trkpt>
      <trkpt lat="48.98515" lon="1.17382">
        <ele>137.699997</ele>
        <time>2019-01-06T10:10:38Z</time>
      </trkpt>
      <trkpt lat="48.98512" lon="1.174">
        <ele>137.5</ele>
        <time>2019-01-06T10:10:41Z</time>
      </trkpt>
      <trkpt lat="48.9851" lon="1.17418">
        <ele>137.600006</ele>
        <time>2019-01-06T10:10:44Z</time>
      </trkpt>
      <trkpt lat="48.98507" lon="1.17435">
        <ele>137.699997</ele>
        <time>2019-01-06T10:10:47Z</time>
      </trkpt>
      <trkpt lat="48.98503" lon="1.17453">
        <ele>137.899994</ele>
        <time>2019-01-06T10:10:50Z</time>
      </trkpt>
      <trkpt lat="48.98501" lon="1.1747">
        <ele>138.300003</ele>
        <time>2019-01-06T10:10:53Z</time>
      </trkpt>
      <trkpt lat="48.98498" lon="1.17488">
        <ele>138.300003</ele>
        <time>2019-01-06T10:10:56Z</time>
      </trkpt>
      <trkpt lat="48.98495" lon="1.17507">
        <ele>138.399994</ele>
        <time>2019-01-06T10:10:59Z</time>
      </trkpt>
      <trkpt lat="48.98492" lon="1.17527">
        <ele>138.5</ele>
        <time>2019-01-06T10:11:02Z</time>
      </trkpt>
      <trkpt lat="48.98489" lon="1.1754">
        <ele>138.199997</ele>
        <time>2019-01-06T10:11:04Z</time>
      </trkpt>
      <trkpt lat="48.98486" lon="1.17553">
        <ele>138.300003</ele>
        <time>2019-01-06T10:11:06Z</time>
      </trkpt>
      <trkpt lat="48.98484" lon="1.17572">
        <ele>137.899994</ele>
        <time>2019-01-06T10:11:09Z</time>
      </trkpt>
      <trkpt lat="48.98493" lon="1.17578">
        <ele>138.5</ele>
        <time>2019-01-06T10:11:12Z</time>
      </trkpt>
      <trkpt lat="48.98504" lon="1.17572">
        <ele>138.100006</ele>
        <time>2019-01-06T10:11:15Z</time>
      </trkpt>
      <trkpt lat="48.98516" lon="1.17567">
        <ele>138.199997</ele>
        <time>2019-01-06T10:11:18Z</time>
      </trkpt>
      <trkpt lat="48.98528" lon="1.17561">
        <ele>138.600006</ele>
        <time>2019-01-06T10:11:21Z</time>
      </trkpt>
      <trkpt lat="48.9854" lon="1.17556">
        <ele>138.600006</ele>
        <time>2019-01-06T10:11:24Z</time>
      </trkpt>
      <trkpt lat="48.98549" lon="1.17552">
        <ele>138</ele>
        <time>2019-01-06T10:11:26Z</time>
      </trkpt>
      <trkpt lat="48.98558" lon="1.17548">
        <ele>138.100006</ele>
        <time>2019-01-06T10:11:28Z</time>
      </trkpt>
      <trkpt lat="48.98567" lon="1.17543">
        <ele>137.399994</ele>
        <time>2019-01-06T10:11:30Z</time>
      </trkpt>
      <trkpt lat="48.98576" lon="1.17539">
        <ele>137.899994</ele>
        <time>2019-01-06T10:11:32Z</time>
      </trkpt>
      <trkpt lat="48.98586" lon="1.17534">
        <ele>137.100006</ele>
        <time>2019-01-06T10:11:34Z</time>
      </trkpt>
      <trkpt lat="48.98596" lon="1.17529">
        <ele>136.399994</ele>
        <time>2019-01-06T10:11:36Z</time>
      </trkpt>
      <trkpt lat="48.98606" lon="1.17524">
        <ele>136.600006</ele>
        <time>2019-01-06T10:11:38Z</time>
      </trkpt>
      <trkpt lat="48.98616" lon="1.17519">
        <ele>136.5</ele>
        <time>2019-01-06T10:11:40Z</time>
      </trkpt>
      <trkpt lat="48.98626" lon="1.17514">
        <ele>136.100006</ele>
        <time>2019-01-06T10:11:42Z</time>
      </trkpt>
      <trkpt lat="48.98635" lon="1.1751">
        <ele>135.800003</ele>
        <time>2019-01-06T10:11:44Z</time>
      </trkpt>
      <trkpt lat="48.98645" lon="1.17505">
        <ele>135.600006</ele>
        <time>2019-01-06T10:11:46Z</time>
      </trkpt>
      <trkpt lat="48.98656" lon="1.17499">
        <ele>135.899994</ele>
        <time>2019-01-06T10:11:48Z</time>
      </trkpt>
      <trkpt lat="48.98666" lon="1.17494">
        <ele>135.399994</ele>
        <time>2019-01-06T10:11:50Z</time>
      </trkpt>
      <trkpt lat="48.98677" lon="1.17489">
        <ele>135.800003</ele>
        <time>2019-01-06T10:11:52Z</time>
      </trkpt>
      <trkpt lat="48.98688" lon="1.17483">
        <ele>135.100006</ele>
        <time>2019-01-06T10:11:54Z</time>
      </trkpt>
      <trkpt lat="48.98698" lon="1.17478">
        <ele>134.5</ele>
        <time>2019-01-06T10:11:56Z</time>
      </trkpt>
      <trkpt lat="48.98709" lon="1.17473">
        <ele>134.100006</ele>
        <time>2019-01-06T10:11:58Z</time>
      </trkpt>
      <trkpt lat="48.9872" lon="1.17468">
        <ele>134</ele>
        <time>2019-01-06T10:12:00Z</time>
      </trkpt>
      <trkpt lat="48.98731" lon="1.17462">
        <ele>133.5</ele>
        <time>2019-01-06T10:12:02Z</time>
      </trkpt>
      <trkpt lat="48.98742" lon="1.17456">
        <ele>132.699997</ele>
        <time>2019-01-06T10:12:04Z</time>
      </trkpt>
      <trkpt lat="48.98752" lon="1.17451">
        <ele>132.399994</ele>
        <time>2019-01-06T10:12:06Z</time>
      </trkpt>
      <trkpt lat="48.98763" lon="1.17446">
        <ele>132.899994</ele>
        <time>2019-01-06T10:12:08Z</time>
      </trkpt>
      <trkpt lat="48.98773" lon="1.17442">
        <ele>133.399994</ele>
        <time>2019-01-06T10:12:10Z</time>
      </trkpt>
      <trkpt lat="48.98783" lon="1.17438">
        <ele>133.800003</ele>
        <time>2019-01-06T10:12:12Z</time>
      </trkpt>
      <trkpt lat="48.98793" lon="1.17434">
        <ele>133.199997</ele>
        <time>2019-01-06T10:12:14Z</time>
      </trkpt>
      <trkpt lat="48.98803" lon="1.17429">
        <ele>132.800003</ele>
        <time>2019-01-06T10:12:16Z</time>
      </trkpt>
      <trkpt lat="48.98812" lon="1.17425">
        <ele>131.899994</ele>
        <time>2019-01-06T10:12:18Z</time>
      </trkpt>
      <trkpt lat="48.98822" lon="1.1742">
        <ele>132.100006</ele>
        <time>2019-01-06T10:12:20Z</time>
      </trkpt>
      <trkpt lat="48.98832" lon="1.17415">
        <ele>131.5</ele>
        <time>2019-01-06T10:12:22Z</time>
      </trkpt>
      <trkpt lat="48.98843" lon="1.1741">
        <ele>130.899994</ele>
        <time>2019-01-06T10:12:24Z</time>
      </trkpt>
      <trkpt lat="48.98853" lon="1.17404">
        <ele>130.100006</ele>
        <time>2019-01-06T10:12:26Z</time>
      </trkpt>
      <trkpt lat="48.98864" lon="1.17398">
        <ele>129.300003</ele>
        <time>2019-01-06T10:12:28Z</time>
      </trkpt>
      <trkpt lat="48.98875" lon="1.17393">
        <ele>129.5</ele>
        <time>2019-01-06T10:12:30Z</time>
      </trkpt>
      <trkpt lat="48.98885" lon="1.17388">
        <ele>130.199997</ele>
        <time>2019-01-06T10:12:32Z</time>
      </trkpt>
      <trkpt lat="48.98894" lon="1.17383">
        <ele>130.800003</ele>
        <time>2019-01-06T10:12:34Z</time>
      </trkpt>
      <trkpt lat="48.98904" lon="1.17378">
        <ele>130.899994</ele>
        <time>2019-01-06T10:12:36Z</time>
      </trkpt>
      <trkpt lat="48.98913" lon="1.17374">
        <ele>130.800003</ele>
        <time>2019-01-06T10:12:38Z</time>
      </trkpt>
      <trkpt lat="48.98922" lon="1.17369">
        <ele>130</ele>
        <time>2019-01-06T10:12:40Z</time>
      </trkpt>
      <trkpt lat="48.98929" lon="1.17359">
        <ele>130.300003</ele>
        <time>2019-01-06T10:12:42Z</time>
      </trkpt>
      <trkpt lat="48.98933" lon="1.1734">
        <ele>130.699997</ele>
        <time>2019-01-06T10:12:45Z</time>
      </trkpt>
      <trkpt lat="48.98937" lon="1.17326">
        <ele>130.899994</ele>
        <time>2019-01-06T10:12:47Z</time>
      </trkpt>
      <trkpt lat="48.9894" lon="1.17312">
        <ele>130.5</ele>
        <time>2019-01-06T10:12:49Z</time>
      </trkpt>
      <trkpt lat="48.98944" lon="1.17298">
        <ele>130.399994</ele>
        <time>2019-01-06T10:12:51Z</time>
      </trkpt>
      <trkpt lat="48.98947" lon="1.17284">
        <ele>130.399994</ele>
        <time>2019-01-06T10:12:53Z</time>
      </trkpt>
      <trkpt lat="48.98951" lon="1.17271">
        <ele>130.699997</ele>
        <time>2019-01-06T10:12:55Z</time>
      </trkpt>
      <trkpt lat="48.98954" lon="1.17257">
        <ele>130.899994</ele>
        <time>2019-01-06T10:12:57Z</time>
      </trkpt>
      <trkpt lat="48.98958" lon="1.17244">
        <ele>130.800003</ele>
        <time>2019-01-06T10:12:59Z</time>
      </trkpt>
      <trkpt lat="48.98961" lon="1.1723">
        <ele>131.100006</ele>
        <time>2019-01-06T10:13:01Z</time>
      </trkpt>
      <trkpt lat="48.98965" lon="1.17217">
        <ele>131.199997</ele>
        <time>2019-01-06T10:13:03Z</time>
      </trkpt>
      <trkpt lat="48.98968" lon="1.17203">
        <ele>131.300003</ele>
        <time>2019-01-06T10:13:05Z</time>
      </trkpt>
      <trkpt lat="48.98971" lon="1.1719">
        <ele>131.300003</ele>
        <time>2019-01-06T10:13:07Z</time>
      </trkpt>
      <trkpt lat="48.98975" lon="1.17177">
        <ele>131.300003</ele>
        <time>2019-01-06T10:13:09Z</time>
      </trkpt>
      <trkpt lat="48.98978" lon="1.17164">
        <ele>131.199997</ele>
        <time>2019-01-06T10:13:11Z</time>
      </trkpt>
      <trkpt lat="48.98981" lon="1.17151">
        <ele>131.199997</ele>
        <time>2019-01-06T10:13:13Z</time>
      </trkpt>
      <trkpt lat="48.98986" lon="1.17133">
        <ele>131.600006</ele>
        <time>2019-01-06T10:13:16Z</time>
      </trkpt>
      <trkpt lat="48.9899" lon="1.17114">
        <ele>131.600006</ele>
        <time>2019-01-06T10:13:19Z</time>
      </trkpt>
      <trkpt lat="48.98995" lon="1.17095">
        <ele>132.100006</ele>
        <time>2019-01-06T10:13:22Z</time>
      </trkpt>
      <trkpt lat="48.99" lon="1.17077">
        <ele>132</ele>
        <time>2019-01-06T10:13:25Z</time>
      </trkpt>
      <trkpt lat="48.99005" lon="1.17058">
        <ele>132.199997</ele>
        <time>2019-01-06T10:13:28Z</time>
      </trkpt>
      <trkpt lat="48.99009" lon="1.17039">
        <ele>132.399994</ele>
        <time>2019-01-06T10:13:31Z</time>
      </trkpt>
      <trkpt lat="48.99013" lon="1.17021">
        <ele>132.800003</ele>
        <time>2019-01-06T10:13:34Z</time>
      </trkpt>
      <trkpt lat="48.99016" lon="1.17003">
        <ele>132.699997</ele>
        <time>2019-01-06T10:13:37Z</time>
      </trkpt>
      <trkpt lat="48.99018" lon="1.16985">
        <ele>132.699997</ele>
        <time>2019-01-06T10:13:40Z</time>
      </trkpt>
      <trkpt lat="48.99019" lon="1.16969">
        <ele>132.899994</ele>
        <time>2019-01-06T10:13:43Z</time>
      </trkpt>
      <trkpt lat="48.9902" lon="1.16952">
        <ele>133.5</ele>
        <time>2019-01-06T10:13:47Z</time>
      </trkpt>
      <trkpt lat="48.99026" lon="1.1694">
        <ele>133.899994</ele>
        <time>2019-01-06T10:13:54Z</time>
      </trkpt>
      <trkpt lat="48.99034" lon="1.1693">
        <ele>134.100006</ele>
        <time>2019-01-06T10:14:01Z</time>
      </trkpt>
      <trkpt lat="48.99043" lon="1.16924">
        <ele>134</ele>
        <time>2019-01-06T10:14:05Z</time>
      </trkpt>
      <trkpt lat="48.99052" lon="1.16915">
        <ele>134.300003</ele>
        <time>2019-01-06T10:14:10Z</time>
      </trkpt>
      <trkpt lat="48.9906" lon="1.16908">
        <ele>134.800003</ele>
        <time>2019-01-06T10:14:14Z</time>
      </trkpt>
      <trkpt lat="48.99068" lon="1.16898">
        <ele>134.800003</ele>
        <time>2019-01-06T10:14:18Z</time>
      </trkpt>
      <trkpt lat="48.99076" lon="1.16888">
        <ele>134.600006</ele>
        <time>2019-01-06T10:14:22Z</time>
      </trkpt>
      <trkpt lat="48.99083" lon="1.16878">
        <ele>135.5</ele>
        <time>2019-01-06T10:14:26Z</time>
      </trkpt>
      <trkpt lat="48.99091" lon="1.1687">
        <ele>135.800003</ele>
        <time>2019-01-06T10:14:29Z</time>
      </trkpt>
      <trkpt lat="48.99099" lon="1.16861">
        <ele>136</ele>
        <time>2019-01-06T10:14:32Z</time>
      </trkpt>
      <trkpt lat="48.99107" lon="1.16852">
        <ele>136.5</ele>
        <time>2019-01-06T10:14:35Z</time>
      </trkpt>
      <trkpt lat="48.99115" lon="1.16845">
        <ele>136.5</ele>
        <time>2019-01-06T10:14:38Z</time>
      </trkpt>
      <trkpt lat="48.99125" lon="1.16834">
        <ele>136.899994</ele>
        <time>2019-01-06T10:14:42Z</time>
      </trkpt>
      <trkpt lat="48.99132" lon="1.16823">
        <ele>136.699997</ele>
        <time>2019-01-06T10:14:45Z</time>
      </trkpt>
      <trkpt lat="48.9914" lon="1.16815">
        <ele>137.100006</ele>
        <time>2019-01-06T10:14:48Z</time>
      </trkpt>
      <trkpt lat="48.99149" lon="1.16804">
        <ele>137.199997</ele>
        <time>2019-01-06T10:14:52Z</time>
      </trkpt>
      <trkpt lat="48.99158" lon="1.16794">
        <ele>137.5</ele>
        <time>2019-01-06T10:14:56Z</time>
      </trkpt>
      <trkpt lat="48.99166" lon="1.16786">
        <ele>138.300003</ele>
        <time>2019-01-06T10:14:59Z</time>
      </trkpt>
      <trkpt lat="48.99176" lon="1.16776">
        <ele>138.300003</ele>
        <time>2019-01-06T10:15:03Z</time>
      </trkpt>
      <trkpt lat="48.99185" lon="1.16766">
        <ele>138.899994</ele>
        <time>2019-01-06T10:15:07Z</time>
      </trkpt>
      <trkpt lat="48.99193" lon="1.16757">
        <ele>138.600006</ele>
        <time>2019-01-06T10:15:10Z</time>
      </trkpt>
      <trkpt lat="48.99203" lon="1.16748">
        <ele>138.899994</ele>
        <time>2019-01-06T10:15:14Z</time>
      </trkpt>
      <trkpt lat="48.99211" lon="1.16738">
        <ele>139.300003</ele>
        <time>2019-01-06T10:15:18Z</time>
      </trkpt>
      <trkpt lat="48.99207" lon="1.16722">
        <ele>139</ele>
        <time>2019-01-06T10:15:22Z</time>
      </trkpt>
      <trkpt lat="48.99201" lon="1.16708">
        <ele>139.100006</ele>
        <time>2019-01-06T10:15:26Z</time>
      </trkpt>
      <trkpt lat="48.99196" lon="1.16697">
        <ele>138</ele>
        <time>2019-01-06T10:15:29Z</time>
      </trkpt>
      <trkpt lat="48.99189" lon="1.16681">
        <ele>137.399994</ele>
        <time>2019-01-06T10:15:32Z</time>
      </trkpt>
      <trkpt lat="48.99183" lon="1.16664">
        <ele>136.600006</ele>
        <time>2019-01-06T10:15:35Z</time>
      </trkpt>
      <trkpt lat="48.99177" lon="1.16648">
        <ele>136.800003</ele>
        <time>2019-01-06T10:15:38Z</time>
      </trkpt>
      <trkpt lat="48.99171" lon="1.16636">
        <ele>136.699997</ele>
        <time>2019-01-06T10:15:41Z</time>
      </trkpt>
      <trkpt lat="48.99165" lon="1.16624">
        <ele>136.5</ele>
        <time>2019-01-06T10:15:44Z</time>
      </trkpt>
      <trkpt lat="48.9916" lon="1.16612">
        <ele>136.300003</ele>
        <time>2019-01-06T10:15:47Z</time>
      </trkpt>
      <trkpt lat="48.99155" lon="1.16595">
        <ele>135.899994</ele>
        <time>2019-01-06T10:15:51Z</time>
      </trkpt>
      <trkpt lat="48.99163" lon="1.16584">
        <ele>135.100006</ele>
        <time>2019-01-06T10:15:54Z</time>
      </trkpt>
      <trkpt lat="48.99173" lon="1.16573">
        <ele>134.600006</ele>
        <time>2019-01-06T10:15:57Z</time>
      </trkpt>
      <trkpt lat="48.99184" lon="1.16562">
        <ele>134.5</ele>
        <time>2019-01-06T10:16:00Z</time>
      </trkpt>
      <trkpt lat="48.99194" lon="1.1655">
        <ele>134.5</ele>
        <time>2019-01-06T10:16:03Z</time>
      </trkpt>
      <trkpt lat="48.99205" lon="1.16539">
        <ele>135</ele>
        <time>2019-01-06T10:16:06Z</time>
      </trkpt>
      <trkpt lat="48.99216" lon="1.16528">
        <ele>135.300003</ele>
        <time>2019-01-06T10:16:09Z</time>
      </trkpt>
      <trkpt lat="48.99223" lon="1.16519">
        <ele>135</ele>
        <time>2019-01-06T10:16:11Z</time>
      </trkpt>
      <trkpt lat="48.99233" lon="1.16508">
        <ele>135.300003</ele>
        <time>2019-01-06T10:16:14Z</time>
      </trkpt>
      <trkpt lat="48.99243" lon="1.16498">
        <ele>135</ele>
        <time>2019-01-06T10:16:17Z</time>
      </trkpt>
      <trkpt lat="48.99253" lon="1.16487">
        <ele>134.800003</ele>
        <time>2019-01-06T10:16:20Z</time>
      </trkpt>
      <trkpt lat="48.99262" lon="1.16477">
        <ele>135.100006</ele>
        <time>2019-01-06T10:16:23Z</time>
      </trkpt>
      <trkpt lat="48.99272" lon="1.16467">
        <ele>134.899994</ele>
        <time>2019-01-06T10:16:26Z</time>
      </trkpt>
      <trkpt lat="48.99281" lon="1.16457">
        <ele>135.5</ele>
        <time>2019-01-06T10:16:29Z</time>
      </trkpt>
      <trkpt lat="48.99292" lon="1.16447">
        <ele>135.600006</ele>
        <time>2019-01-06T10:16:32Z</time>
      </trkpt>
      <trkpt lat="48.99303" lon="1.16435">
        <ele>135</ele>
        <time>2019-01-06T10:16:35Z</time>
      </trkpt>
      <trkpt lat="48.99311" lon="1.16428">
        <ele>135.199997</ele>
        <time>2019-01-06T10:16:37Z</time>
      </trkpt>
      <trkpt lat="48.99318" lon="1.16421">
        <ele>135.300003</ele>
        <time>2019-01-06T10:16:39Z</time>
      </trkpt>
      <trkpt lat="48.99331" lon="1.16414">
        <ele>135.300003</ele>
        <time>2019-01-06T10:16:42Z</time>
      </trkpt>
      <trkpt lat="48.99343" lon="1.16408">
        <ele>135.5</ele>
        <time>2019-01-06T10:16:45Z</time>
      </trkpt>
      <trkpt lat="48.99356" lon="1.16403">
        <ele>135.199997</ele>
        <time>2019-01-06T10:16:48Z</time>
      </trkpt>
      <trkpt lat="48.99369" lon="1.16399">
        <ele>135.399994</ele>
        <time>2019-01-06T10:16:51Z</time>
      </trkpt>
      <trkpt lat="48.99381" lon="1.16394">
        <ele>135.699997</ele>
        <time>2019-01-06T10:16:54Z</time>
      </trkpt>
      <trkpt lat="48.99393" lon="1.16389">
        <ele>135.600006</ele>
        <time>2019-01-06T10:16:57Z</time>
      </trkpt>
      <trkpt lat="48.99405" lon="1.16385">
        <ele>135.399994</ele>
        <time>2019-01-06T10:17:00Z</time>
      </trkpt>
      <trkpt lat="48.99417" lon="1.1638">
        <ele>134.5</ele>
        <time>2019-01-06T10:17:03Z</time>
      </trkpt>
      <trkpt lat="48.99429" lon="1.16376">
        <ele>135.399994</ele>
        <time>2019-01-06T10:17:06Z</time>
      </trkpt>
      <trkpt lat="48.9944" lon="1.16371">
        <ele>135.800003</ele>
        <time>2019-01-06T10:17:09Z</time>
      </trkpt>
      <trkpt lat="48.99451" lon="1.16366">
        <ele>135.399994</ele>
        <time>2019-01-06T10:17:12Z</time>
      </trkpt>
      <trkpt lat="48.99463" lon="1.16361">
        <ele>135.899994</ele>
        <time>2019-01-06T10:17:15Z</time>
      </trkpt>
      <trkpt lat="48.99473" lon="1.16356">
        <ele>135.199997</ele>
        <time>2019-01-06T10:17:18Z</time>
      </trkpt>
      <trkpt lat="48.99484" lon="1.1635">
        <ele>135.699997</ele>
        <time>2019-01-06T10:17:21Z</time>
      </trkpt>
      <trkpt lat="48.99495" lon="1.16344">
        <ele>136.199997</ele>
        <time>2019-01-06T10:17:24Z</time>
      </trkpt>
      <trkpt lat="48.99505" lon="1.16338">
        <ele>135.300003</ele>
        <time>2019-01-06T10:17:27Z</time>
      </trkpt>
      <trkpt lat="48.99516" lon="1.16332">
        <ele>135.600006</ele>
        <time>2019-01-06T10:17:30Z</time>
      </trkpt>
      <trkpt lat="48.99527" lon="1.16326">
        <ele>136.199997</ele>
        <time>2019-01-06T10:17:33Z</time>
      </trkpt>
      <trkpt lat="48.99537" lon="1.16321">
        <ele>136.699997</ele>
        <time>2019-01-06T10:17:36Z</time>
      </trkpt>
      <trkpt lat="48.99547" lon="1.16315">
        <ele>136.699997</ele>
        <time>2019-01-06T10:17:39Z</time>
      </trkpt>
      <trkpt lat="48.99559" lon="1.1631">
        <ele>137</ele>
        <time>2019-01-06T10:17:42Z</time>
      </trkpt>
      <trkpt lat="48.9957" lon="1.16306">
        <ele>136.899994</ele>
        <time>2019-01-06T10:17:45Z</time>
      </trkpt>
      <trkpt lat="48.99582" lon="1.16302">
        <ele>136.300003</ele>
        <time>2019-01-06T10:17:48Z</time>
      </trkpt>
      <trkpt lat="48.99592" lon="1.16299">
        <ele>135.800003</ele>
        <time>2019-01-06T10:17:51Z</time>
      </trkpt>
      <trkpt lat="48.99603" lon="1.16296">
        <ele>137.100006</ele>
        <time>2019-01-06T10:17:54Z</time>
      </trkpt>
      <trkpt lat="48.99615" lon="1.16294">
        <ele>137.300003</ele>
        <time>2019-01-06T10:17:57Z</time>
      </trkpt>
      <trkpt lat="48.99626" lon="1.16292">
        <ele>138</ele>
        <time>2019-01-06T10:18:00Z</time>
      </trkpt>
      <trkpt lat="48.99637" lon="1.1629">
        <ele>137.399994</ele>
        <time>2019-01-06T10:18:03Z</time>
      </trkpt>
      <trkpt lat="48.99648" lon="1.16286">
        <ele>137.5</ele>
        <time>2019-01-06T10:18:06Z</time>
      </trkpt>
      <trkpt lat="48.99659" lon="1.16281">
        <ele>137.5</ele>
        <time>2019-01-06T10:18:09Z</time>
      </trkpt>
      <trkpt lat="48.99671" lon="1.16276">
        <ele>137.699997</ele>
        <time>2019-01-06T10:18:12Z</time>
      </trkpt>
      <trkpt lat="48.99682" lon="1.16273">
        <ele>137.800003</ele>
        <time>2019-01-06T10:18:15Z</time>
      </trkpt>
      <trkpt lat="48.99693" lon="1.1627">
        <ele>137.899994</ele>
        <time>2019-01-06T10:18:18Z</time>
      </trkpt>
      <trkpt lat="48.99705" lon="1.16265">
        <ele>138.399994</ele>
        <time>2019-01-06T10:18:21Z</time>
      </trkpt>
      <trkpt lat="48.99715" lon="1.1626">
        <ele>138.199997</ele>
        <time>2019-01-06T10:18:24Z</time>
      </trkpt>
      <trkpt lat="48.99726" lon="1.16254">
        <ele>138.699997</ele>
        <time>2019-01-06T10:18:27Z</time>
      </trkpt>
      <trkpt lat="48.99737" lon="1.16248">
        <ele>137.899994</ele>
        <time>2019-01-06T10:18:30Z</time>
      </trkpt>
      <trkpt lat="48.99748" lon="1.16241">
        <ele>138</ele>
        <time>2019-01-06T10:18:33Z</time>
      </trkpt>
      <trkpt lat="48.99759" lon="1.16233">
        <ele>138.600006</ele>
        <time>2019-01-06T10:18:36Z</time>
      </trkpt>
      <trkpt lat="48.99769" lon="1.16225">
        <ele>138.300003</ele>
        <time>2019-01-06T10:18:39Z</time>
      </trkpt>
      <trkpt lat="48.99779" lon="1.16217">
        <ele>138.699997</ele>
        <time>2019-01-06T10:18:42Z</time>
      </trkpt>
      <trkpt lat="48.99789" lon="1.16209">
        <ele>138.399994</ele>
        <time>2019-01-06T10:18:45Z</time>
      </trkpt>
      <trkpt lat="48.99799" lon="1.16199">
        <ele>138.399994</ele>
        <time>2019-01-06T10:18:48Z</time>
      </trkpt>
      <trkpt lat="48.99808" lon="1.1619">
        <ele>138.399994</ele>
        <time>2019-01-06T10:18:51Z</time>
      </trkpt>
      <trkpt lat="48.99816" lon="1.16181">
        <ele>138.100006</ele>
        <time>2019-01-06T10:18:54Z</time>
      </trkpt>
      <trkpt lat="48.99825" lon="1.1617">
        <ele>138.699997</ele>
        <time>2019-01-06T10:18:57Z</time>
      </trkpt>
      <trkpt lat="48.99833" lon="1.1616">
        <ele>138.899994</ele>
        <time>2019-01-06T10:19:00Z</time>
      </trkpt>
      <trkpt lat="48.9984" lon="1.16149">
        <ele>139.100006</ele>
        <time>2019-01-06T10:19:03Z</time>
      </trkpt>
      <trkpt lat="48.99848" lon="1.16138">
        <ele>139.399994</ele>
        <time>2019-01-06T10:19:06Z</time>
      </trkpt>
      <trkpt lat="48.99855" lon="1.16128">
        <ele>139.199997</ele>
        <time>2019-01-06T10:19:09Z</time>
      </trkpt>
      <trkpt lat="48.99862" lon="1.16119">
        <ele>139.300003</ele>
        <time>2019-01-06T10:19:12Z</time>
      </trkpt>
      <trkpt lat="48.99868" lon="1.16106">
        <ele>139.5</ele>
        <time>2019-01-06T10:19:19Z</time>
      </trkpt>
      <trkpt lat="48.99874" lon="1.16091">
        <ele>139.300003</ele>
        <time>2019-01-06T10:19:26Z</time>
      </trkpt>
      <trkpt lat="48.99876" lon="1.16075">
        <ele>138.899994</ele>
        <time>2019-01-06T10:19:30Z</time>
      </trkpt>
      <trkpt lat="48.99877" lon="1.16058">
        <ele>139.5</ele>
        <time>2019-01-06T10:19:34Z</time>
      </trkpt>
      <trkpt lat="48.99879" lon="1.16042">
        <ele>139.899994</ele>
        <time>2019-01-06T10:19:38Z</time>
      </trkpt>
      <trkpt lat="48.9988" lon="1.16025">
        <ele>139.800003</ele>
        <time>2019-01-06T10:19:42Z</time>
      </trkpt>
      <trkpt lat="48.99882" lon="1.16008">
        <ele>140.300003</ele>
        <time>2019-01-06T10:19:46Z</time>
      </trkpt>
      <trkpt lat="48.99883" lon="1.1599">
        <ele>140.600006</ele>
        <time>2019-01-06T10:19:50Z</time>
      </trkpt>
      <trkpt lat="48.99884" lon="1.15976">
        <ele>140.800003</ele>
        <time>2019-01-06T10:19:53Z</time>
      </trkpt>
      <trkpt lat="48.99883" lon="1.15933">
        <ele>141</ele>
        <time>2019-01-06T10:22:11Z</time>
      </trkpt>
      <trkpt lat="48.99882" lon="1.15918">
        <ele>140.699997</ele>
        <time>2019-01-06T10:25:31Z</time>
      </trkpt>
      <trkpt lat="48.99878" lon="1.15905">
        <ele>140.600006</ele>
        <time>2019-01-06T10:25:37Z</time>
      </trkpt>
      <trkpt lat="48.99874" lon="1.15891">
        <ele>140.600006</ele>
        <time>2019-01-06T10:25:43Z</time>
      </trkpt>
      <trkpt lat="48.9987" lon="1.15877">
        <ele>140.600006</ele>
        <time>2019-01-06T10:25:49Z</time>
      </trkpt>
      <trkpt lat="48.99866" lon="1.15864">
        <ele>140.600006</ele>
        <time>2019-01-06T10:25:54Z</time>
      </trkpt>
      <trkpt lat="48.99861" lon="1.15852">
        <ele>141.100006</ele>
        <time>2019-01-06T10:25:59Z</time>
      </trkpt>
      <trkpt lat="48.99855" lon="1.15837">
        <ele>141</ele>
        <time>2019-01-06T10:26:04Z</time>
      </trkpt>
      <trkpt lat="48.99851" lon="1.15823">
        <ele>141.5</ele>
        <time>2019-01-06T10:26:08Z</time>
      </trkpt>
      <trkpt lat="48.99845" lon="1.15809">
        <ele>141.600006</ele>
        <time>2019-01-06T10:26:13Z</time>
      </trkpt>
      <trkpt lat="48.9984" lon="1.15796">
        <ele>141.600006</ele>
        <time>2019-01-06T10:26:17Z</time>
      </trkpt>
      <trkpt lat="48.99835" lon="1.1578">
        <ele>141.300003</ele>
        <time>2019-01-06T10:26:21Z</time>
      </trkpt>
      <trkpt lat="48.9983" lon="1.15765">
        <ele>141.5</ele>
        <time>2019-01-06T10:26:25Z</time>
      </trkpt>
      <trkpt lat="48.99825" lon="1.15749">
        <ele>141.600006</ele>
        <time>2019-01-06T10:26:29Z</time>
      </trkpt>
      <trkpt lat="48.9982" lon="1.15733">
        <ele>141.600006</ele>
        <time>2019-01-06T10:26:33Z</time>
      </trkpt>
      <trkpt lat="48.99817" lon="1.1572">
        <ele>141.800003</ele>
        <time>2019-01-06T10:26:37Z</time>
      </trkpt>
      <trkpt lat="48.99813" lon="1.15708">
        <ele>142.300003</ele>
        <time>2019-01-06T10:26:43Z</time>
      </trkpt>
      <trkpt lat="48.9981" lon="1.15693">
        <ele>141.800003</ele>
        <time>2019-01-06T10:26:48Z</time>
      </trkpt>
      <trkpt lat="48.99807" lon="1.15679">
        <ele>142.100006</ele>
        <time>2019-01-06T10:26:52Z</time>
      </trkpt>
      <trkpt lat="48.99804" lon="1.15665">
        <ele>142.5</ele>
        <time>2019-01-06T10:26:56Z</time>
      </trkpt>
      <trkpt lat="48.998" lon="1.15651">
        <ele>142.300003</ele>
        <time>2019-01-06T10:27:00Z</time>
      </trkpt>
      <trkpt lat="48.99796" lon="1.15634">
        <ele>142.199997</ele>
        <time>2019-01-06T10:27:04Z</time>
      </trkpt>
      <trkpt lat="48.99793" lon="1.1562">
        <ele>142.399994</ele>
        <time>2019-01-06T10:27:07Z</time>
      </trkpt>
      <trkpt lat="48.99789" lon="1.15607">
        <ele>142.699997</ele>
        <time>2019-01-06T10:27:10Z</time>
      </trkpt>
      <trkpt lat="48.99786" lon="1.15593">
        <ele>143</ele>
        <time>2019-01-06T10:27:13Z</time>
      </trkpt>
      <trkpt lat="48.99782" lon="1.1558">
        <ele>142.800003</ele>
        <time>2019-01-06T10:27:16Z</time>
      </trkpt>
      <trkpt lat="48.99777" lon="1.15567">
        <ele>142.699997</ele>
        <time>2019-01-06T10:27:19Z</time>
      </trkpt>
      <trkpt lat="48.99773" lon="1.15553">
        <ele>142.600006</ele>
        <time>2019-01-06T10:27:22Z</time>
      </trkpt>
      <trkpt lat="48.99769" lon="1.15539">
        <ele>142.600006</ele>
        <time>2019-01-06T10:27:25Z</time>
      </trkpt>
      <trkpt lat="48.99767" lon="1.15525">
        <ele>142.399994</ele>
        <time>2019-01-06T10:27:29Z</time>
      </trkpt>
      <trkpt lat="48.99762" lon="1.1551">
        <ele>143</ele>
        <time>2019-01-06T10:27:36Z</time>
      </trkpt>
      <trkpt lat="48.99755" lon="1.15499">
        <ele>143.100006</ele>
        <time>2019-01-06T10:27:39Z</time>
      </trkpt>
      <trkpt lat="48.9975" lon="1.15482">
        <ele>142.800003</ele>
        <time>2019-01-06T10:27:42Z</time>
      </trkpt>
      <trkpt lat="48.99746" lon="1.15464">
        <ele>142.800003</ele>
        <time>2019-01-06T10:27:45Z</time>
      </trkpt>
      <trkpt lat="48.99742" lon="1.15448">
        <ele>142.600006</ele>
        <time>2019-01-06T10:27:48Z</time>
      </trkpt>
      <trkpt lat="48.9974" lon="1.15432">
        <ele>142.399994</ele>
        <time>2019-01-06T10:27:51Z</time>
      </trkpt>
      <trkpt lat="48.99736" lon="1.15415">
        <ele>142.300003</ele>
        <time>2019-01-06T10:27:54Z</time>
      </trkpt>
      <trkpt lat="48.99733" lon="1.15399">
        <ele>142.199997</ele>
        <time>2019-01-06T10:27:57Z</time>
      </trkpt>
      <trkpt lat="48.99729" lon="1.15382">
        <ele>142.399994</ele>
        <time>2019-01-06T10:28:00Z</time>
      </trkpt>
      <trkpt lat="48.99725" lon="1.15366">
        <ele>142.399994</ele>
        <time>2019-01-06T10:28:03Z</time>
      </trkpt>
      <trkpt lat="48.99721" lon="1.15351">
        <ele>141.800003</ele>
        <time>2019-01-06T10:28:06Z</time>
      </trkpt>
      <trkpt lat="48.99717" lon="1.15335">
        <ele>141.600006</ele>
        <time>2019-01-06T10:28:09Z</time>
      </trkpt>
      <trkpt lat="48.99712" lon="1.15321">
        <ele>141.699997</ele>
        <time>2019-01-06T10:28:12Z</time>
      </trkpt>
      <trkpt lat="48.99707" lon="1.15306">
        <ele>141.899994</ele>
        <time>2019-01-06T10:28:15Z</time>
      </trkpt>
      <trkpt lat="48.99702" lon="1.15292">
        <ele>141</ele>
        <time>2019-01-06T10:28:18Z</time>
      </trkpt>
      <trkpt lat="48.99698" lon="1.15277">
        <ele>141.199997</ele>
        <time>2019-01-06T10:28:21Z</time>
      </trkpt>
      <trkpt lat="48.99694" lon="1.15262">
        <ele>140.699997</ele>
        <time>2019-01-06T10:28:24Z</time>
      </trkpt>
      <trkpt lat="48.99698" lon="1.15248">
        <ele>141.100006</ele>
        <time>2019-01-06T10:28:27Z</time>
      </trkpt>
      <trkpt lat="48.99708" lon="1.1524">
        <ele>141.100006</ele>
        <time>2019-01-06T10:28:31Z</time>
      </trkpt>
      <trkpt lat="48.99719" lon="1.15234">
        <ele>140.800003</ele>
        <time>2019-01-06T10:28:35Z</time>
      </trkpt>
      <trkpt lat="48.99727" lon="1.15227">
        <ele>140.699997</ele>
        <time>2019-01-06T10:28:38Z</time>
      </trkpt>
      <trkpt lat="48.99735" lon="1.15222">
        <ele>141</ele>
        <time>2019-01-06T10:28:41Z</time>
      </trkpt>
      <trkpt lat="48.99745" lon="1.15218">
        <ele>141.300003</ele>
        <time>2019-01-06T10:28:44Z</time>
      </trkpt>
      <trkpt lat="48.99755" lon="1.15215">
        <ele>141.399994</ele>
        <time>2019-01-06T10:28:47Z</time>
      </trkpt>
      <trkpt lat="48.99764" lon="1.15212">
        <ele>141.300003</ele>
        <time>2019-01-06T10:28:50Z</time>
      </trkpt>
      <trkpt lat="48.99775" lon="1.15208">
        <ele>141.399994</ele>
        <time>2019-01-06T10:28:54Z</time>
      </trkpt>
      <trkpt lat="48.99786" lon="1.15204">
        <ele>142</ele>
        <time>2019-01-06T10:28:58Z</time>
      </trkpt>
      <trkpt lat="48.99797" lon="1.15201">
        <ele>142.100006</ele>
        <time>2019-01-06T10:29:01Z</time>
      </trkpt>
      <trkpt lat="48.99808" lon="1.15198">
        <ele>142.100006</ele>
        <time>2019-01-06T10:29:04Z</time>
      </trkpt>
      <trkpt lat="48.99819" lon="1.15196">
        <ele>142.100006</ele>
        <time>2019-01-06T10:29:07Z</time>
      </trkpt>
      <trkpt lat="48.99831" lon="1.15193">
        <ele>142.300003</ele>
        <time>2019-01-06T10:29:10Z</time>
      </trkpt>
      <trkpt lat="48.99842" lon="1.15189">
        <ele>142.5</ele>
        <time>2019-01-06T10:29:13Z</time>
      </trkpt>
      <trkpt lat="48.99849" lon="1.15175">
        <ele>142.5</ele>
        <time>2019-01-06T10:29:16Z</time>
      </trkpt>
      <trkpt lat="48.99846" lon="1.15157">
        <ele>142.399994</ele>
        <time>2019-01-06T10:29:19Z</time>
      </trkpt>
      <trkpt lat="48.99841" lon="1.15141">
        <ele>142.300003</ele>
        <time>2019-01-06T10:29:22Z</time>
      </trkpt>
      <trkpt lat="48.99836" lon="1.15125">
        <ele>142.199997</ele>
        <time>2019-01-06T10:29:25Z</time>
      </trkpt>
      <trkpt lat="48.99831" lon="1.15109">
        <ele>142.399994</ele>
        <time>2019-01-06T10:29:28Z</time>
      </trkpt>
      <trkpt lat="48.99825" lon="1.1509">
        <ele>142.300003</ele>
        <time>2019-01-06T10:29:31Z</time>
      </trkpt>
      <trkpt lat="48.99821" lon="1.15077">
        <ele>142.199997</ele>
        <time>2019-01-06T10:29:33Z</time>
      </trkpt>
      <trkpt lat="48.99817" lon="1.15065">
        <ele>141.899994</ele>
        <time>2019-01-06T10:29:35Z</time>
      </trkpt>
      <trkpt lat="48.99814" lon="1.15052">
        <ele>142</ele>
        <time>2019-01-06T10:29:37Z</time>
      </trkpt>
      <trkpt lat="48.99811" lon="1.15038">
        <ele>141.899994</ele>
        <time>2019-01-06T10:29:39Z</time>
      </trkpt>
      <trkpt lat="48.99807" lon="1.15025">
        <ele>141.699997</ele>
        <time>2019-01-06T10:29:41Z</time>
      </trkpt>
      <trkpt lat="48.99806" lon="1.1501">
        <ele>141.399994</ele>
        <time>2019-01-06T10:29:43Z</time>
      </trkpt>
      <trkpt lat="48.99806" lon="1.14995">
        <ele>141.300003</ele>
        <time>2019-01-06T10:29:45Z</time>
      </trkpt>
      <trkpt lat="48.99806" lon="1.14981">
        <ele>141.399994</ele>
        <time>2019-01-06T10:29:47Z</time>
      </trkpt>
      <trkpt lat="48.99806" lon="1.14967">
        <ele>141.199997</ele>
        <time>2019-01-06T10:29:49Z</time>
      </trkpt>
      <trkpt lat="48.99808" lon="1.14952">
        <ele>141.199997</ele>
        <time>2019-01-06T10:29:51Z</time>
      </trkpt>
      <trkpt lat="48.99812" lon="1.14939">
        <ele>141</ele>
        <time>2019-01-06T10:29:53Z</time>
      </trkpt>
      <trkpt lat="48.99817" lon="1.14927">
        <ele>140.800003</ele>
        <time>2019-01-06T10:29:55Z</time>
      </trkpt>
      <trkpt lat="48.99823" lon="1.14915">
        <ele>140.800003</ele>
        <time>2019-01-06T10:29:57Z</time>
      </trkpt>
      <trkpt lat="48.9983" lon="1.14902">
        <ele>140.699997</ele>
        <time>2019-01-06T10:29:59Z</time>
      </trkpt>
      <trkpt lat="48.99835" lon="1.14889">
        <ele>140.5</ele>
        <time>2019-01-06T10:30:01Z</time>
      </trkpt>
      <trkpt lat="48.99838" lon="1.14875">
        <ele>140.399994</ele>
        <time>2019-01-06T10:30:03Z</time>
      </trkpt>
      <trkpt lat="48.99839" lon="1.14861">
        <ele>140.199997</ele>
        <time>2019-01-06T10:30:05Z</time>
      </trkpt>
      <trkpt lat="48.9984" lon="1.14846">
        <ele>140</ele>
        <time>2019-01-06T10:30:07Z</time>
      </trkpt>
      <trkpt lat="48.9984" lon="1.14831">
        <ele>139.699997</ele>
        <time>2019-01-06T10:30:09Z</time>
      </trkpt>
      <trkpt lat="48.9984" lon="1.14815">
        <ele>139.600006</ele>
        <time>2019-01-06T10:30:11Z</time>
      </trkpt>
      <trkpt lat="48.99839" lon="1.14801">
        <ele>139.699997</ele>
        <time>2019-01-06T10:30:13Z</time>
      </trkpt>
      <trkpt lat="48.99839" lon="1.14787">
        <ele>139.5</ele>
        <time>2019-01-06T10:30:15Z</time>
      </trkpt>
      <trkpt lat="48.99838" lon="1.14773">
        <ele>139.300003</ele>
        <time>2019-01-06T10:30:17Z</time>
      </trkpt>
      <trkpt lat="48.99837" lon="1.14752">
        <ele>139.300003</ele>
        <time>2019-01-06T10:30:20Z</time>
      </trkpt>
      <trkpt lat="48.99835" lon="1.14739">
        <ele>139.300003</ele>
        <time>2019-01-06T10:30:22Z</time>
      </trkpt>
      <trkpt lat="48.99831" lon="1.14726">
        <ele>139.199997</ele>
        <time>2019-01-06T10:30:24Z</time>
      </trkpt>
      <trkpt lat="48.99826" lon="1.14713">
        <ele>139.199997</ele>
        <time>2019-01-06T10:30:26Z</time>
      </trkpt>
      <trkpt lat="48.99818" lon="1.14703">
        <ele>139.199997</ele>
        <time>2019-01-06T10:30:28Z</time>
      </trkpt>
      <trkpt lat="48.9981" lon="1.14695">
        <ele>138.899994</ele>
        <time>2019-01-06T10:30:30Z</time>
      </trkpt>
      <trkpt lat="48.99802" lon="1.14686">
        <ele>138.899994</ele>
        <time>2019-01-06T10:30:32Z</time>
      </trkpt>
      <trkpt lat="48.99794" lon="1.14678">
        <ele>138.899994</ele>
        <time>2019-01-06T10:30:34Z</time>
      </trkpt>
      <trkpt lat="48.99786" lon="1.1467">
        <ele>138.899994</ele>
        <time>2019-01-06T10:30:36Z</time>
      </trkpt>
      <trkpt lat="48.99777" lon="1.14662">
        <ele>138.800003</ele>
        <time>2019-01-06T10:30:38Z</time>
      </trkpt>
      <trkpt lat="48.99769" lon="1.14653">
        <ele>139</ele>
        <time>2019-01-06T10:30:40Z</time>
      </trkpt>
      <trkpt lat="48.99761" lon="1.14645">
        <ele>139</ele>
        <time>2019-01-06T10:30:42Z</time>
      </trkpt>
      <trkpt lat="48.99752" lon="1.14637">
        <ele>138.699997</ele>
        <time>2019-01-06T10:30:44Z</time>
      </trkpt>
      <trkpt lat="48.99744" lon="1.14629">
        <ele>138.699997</ele>
        <time>2019-01-06T10:30:46Z</time>
      </trkpt>
      <trkpt lat="48.99735" lon="1.14621">
        <ele>138.800003</ele>
        <time>2019-01-06T10:30:48Z</time>
      </trkpt>
      <trkpt lat="48.99727" lon="1.14614">
        <ele>138.800003</ele>
        <time>2019-01-06T10:30:50Z</time>
      </trkpt>
      <trkpt lat="48.99719" lon="1.14606">
        <ele>138.699997</ele>
        <time>2019-01-06T10:30:52Z</time>
      </trkpt>
      <trkpt lat="48.99711" lon="1.14598">
        <ele>138.699997</ele>
        <time>2019-01-06T10:30:54Z</time>
      </trkpt>
      <trkpt lat="48.99702" lon="1.1459">
        <ele>138.600006</ele>
        <time>2019-01-06T10:30:56Z</time>
      </trkpt>
      <trkpt lat="48.99694" lon="1.14582">
        <ele>138.399994</ele>
        <time>2019-01-06T10:30:58Z</time>
      </trkpt>
      <trkpt lat="48.99686" lon="1.14574">
        <ele>138.5</ele>
        <time>2019-01-06T10:31:00Z</time>
      </trkpt>
      <trkpt lat="48.99678" lon="1.14567">
        <ele>138.600006</ele>
        <time>2019-01-06T10:31:02Z</time>
      </trkpt>
      <trkpt lat="48.9967" lon="1.1456">
        <ele>138.600006</ele>
        <time>2019-01-06T10:31:04Z</time>
      </trkpt>
      <trkpt lat="48.99662" lon="1.14552">
        <ele>138.399994</ele>
        <time>2019-01-06T10:31:06Z</time>
      </trkpt>
      <trkpt lat="48.99654" lon="1.14545">
        <ele>138.300003</ele>
        <time>2019-01-06T10:31:08Z</time>
      </trkpt>
      <trkpt lat="48.99646" lon="1.14538">
        <ele>138.399994</ele>
        <time>2019-01-06T10:31:10Z</time>
      </trkpt>
      <trkpt lat="48.99635" lon="1.14528">
        <ele>138.300003</ele>
        <time>2019-01-06T10:31:13Z</time>
      </trkpt>
      <trkpt lat="48.99625" lon="1.14518">
        <ele>138.5</ele>
        <time>2019-01-06T10:31:16Z</time>
      </trkpt>
      <trkpt lat="48.99615" lon="1.14508">
        <ele>138.800003</ele>
        <time>2019-01-06T10:31:19Z</time>
      </trkpt>
      <trkpt lat="48.99604" lon="1.14498">
        <ele>138.899994</ele>
        <time>2019-01-06T10:31:22Z</time>
      </trkpt>
      <trkpt lat="48.99594" lon="1.14489">
        <ele>139</ele>
        <time>2019-01-06T10:31:25Z</time>
      </trkpt>
      <trkpt lat="48.99584" lon="1.14482">
        <ele>139.100006</ele>
        <time>2019-01-06T10:31:28Z</time>
      </trkpt>
      <trkpt lat="48.99574" lon="1.14476">
        <ele>139</ele>
        <time>2019-01-06T10:31:31Z</time>
      </trkpt>
      <trkpt lat="48.99564" lon="1.14467">
        <ele>139.5</ele>
        <time>2019-01-06T10:31:34Z</time>
      </trkpt>
      <trkpt lat="48.99557" lon="1.14459">
        <ele>138.899994</ele>
        <time>2019-01-06T10:31:36Z</time>
      </trkpt>
      <trkpt lat="48.99549" lon="1.1445">
        <ele>138.399994</ele>
        <time>2019-01-06T10:31:38Z</time>
      </trkpt>
      <trkpt lat="48.99542" lon="1.14439">
        <ele>138.5</ele>
        <time>2019-01-06T10:31:40Z</time>
      </trkpt>
      <trkpt lat="48.99535" lon="1.14424">
        <ele>139.199997</ele>
        <time>2019-01-06T10:31:43Z</time>
      </trkpt>
      <trkpt lat="48.99531" lon="1.14409">
        <ele>138.800003</ele>
        <time>2019-01-06T10:31:46Z</time>
      </trkpt>
      <trkpt lat="48.99527" lon="1.14392">
        <ele>138.600006</ele>
        <time>2019-01-06T10:31:50Z</time>
      </trkpt>
      <trkpt lat="48.99524" lon="1.14377">
        <ele>138.699997</ele>
        <time>2019-01-06T10:31:54Z</time>
      </trkpt>
      <trkpt lat="48.99519" lon="1.14364">
        <ele>138.699997</ele>
        <time>2019-01-06T10:31:57Z</time>
      </trkpt>
      <trkpt lat="48.99514" lon="1.14351">
        <ele>138.800003</ele>
        <time>2019-01-06T10:32:00Z</time>
      </trkpt>
      <trkpt lat="48.99511" lon="1.14338">
        <ele>138.899994</ele>
        <time>2019-01-06T10:32:03Z</time>
      </trkpt>
      <trkpt lat="48.99512" lon="1.14323">
        <ele>138.899994</ele>
        <time>2019-01-06T10:32:07Z</time>
      </trkpt>
      <trkpt lat="48.99521" lon="1.14318">
        <ele>139.399994</ele>
        <time>2019-01-06T10:32:12Z</time>
      </trkpt>
      <trkpt lat="48.99532" lon="1.14312">
        <ele>139.899994</ele>
        <time>2019-01-06T10:32:16Z</time>
      </trkpt>
      <trkpt lat="48.99541" lon="1.14305">
        <ele>140.100006</ele>
        <time>2019-01-06T10:32:20Z</time>
      </trkpt>
      <trkpt lat="48.99552" lon="1.14298">
        <ele>140.399994</ele>
        <time>2019-01-06T10:32:23Z</time>
      </trkpt>
      <trkpt lat="48.9956" lon="1.14291">
        <ele>140.800003</ele>
        <time>2019-01-06T10:32:26Z</time>
      </trkpt>
      <trkpt lat="48.9957" lon="1.14286">
        <ele>140.899994</ele>
        <time>2019-01-06T10:32:29Z</time>
      </trkpt>
      <trkpt lat="48.99579" lon="1.14281">
        <ele>141.300003</ele>
        <time>2019-01-06T10:32:32Z</time>
      </trkpt>
      <trkpt lat="48.99589" lon="1.14276">
        <ele>141.600006</ele>
        <time>2019-01-06T10:32:36Z</time>
      </trkpt>
      <trkpt lat="48.99597" lon="1.14268">
        <ele>141.699997</ele>
        <time>2019-01-06T10:32:39Z</time>
      </trkpt>
      <trkpt lat="48.99607" lon="1.14264">
        <ele>142.100006</ele>
        <time>2019-01-06T10:32:41Z</time>
      </trkpt>
      <trkpt lat="48.99618" lon="1.14259">
        <ele>142.600006</ele>
        <time>2019-01-06T10:32:44Z</time>
      </trkpt>
      <trkpt lat="48.9963" lon="1.14253">
        <ele>142.800003</ele>
        <time>2019-01-06T10:32:47Z</time>
      </trkpt>
      <trkpt lat="48.9964" lon="1.14246">
        <ele>142.899994</ele>
        <time>2019-01-06T10:32:49Z</time>
      </trkpt>
      <trkpt lat="48.99653" lon="1.14239">
        <ele>142.300003</ele>
        <time>2019-01-06T10:32:52Z</time>
      </trkpt>
      <trkpt lat="48.99665" lon="1.14234">
        <ele>143</ele>
        <time>2019-01-06T10:32:55Z</time>
      </trkpt>
      <trkpt lat="48.99678" lon="1.14226">
        <ele>143.100006</ele>
        <time>2019-01-06T10:32:58Z</time>
      </trkpt>
      <trkpt lat="48.99691" lon="1.14219">
        <ele>143.399994</ele>
        <time>2019-01-06T10:33:01Z</time>
      </trkpt>
      <trkpt lat="48.99705" lon="1.14212">
        <ele>143.699997</ele>
        <time>2019-01-06T10:33:04Z</time>
      </trkpt>
      <trkpt lat="48.99714" lon="1.14208">
        <ele>144.100006</ele>
        <time>2019-01-06T10:33:06Z</time>
      </trkpt>
      <trkpt lat="48.99726" lon="1.14204">
        <ele>143.800003</ele>
        <time>2019-01-06T10:33:09Z</time>
      </trkpt>
      <trkpt lat="48.99737" lon="1.14199">
        <ele>144.300003</ele>
        <time>2019-01-06T10:33:12Z</time>
      </trkpt>
      <trkpt lat="48.99746" lon="1.14192">
        <ele>144.100006</ele>
        <time>2019-01-06T10:33:15Z</time>
      </trkpt>
      <trkpt lat="48.99754" lon="1.14183">
        <ele>143.899994</ele>
        <time>2019-01-06T10:33:18Z</time>
      </trkpt>
      <trkpt lat="48.99759" lon="1.14166">
        <ele>144</ele>
        <time>2019-01-06T10:33:21Z</time>
      </trkpt>
      <trkpt lat="48.99759" lon="1.14147">
        <ele>143.100006</ele>
        <time>2019-01-06T10:33:25Z</time>
      </trkpt>
      <trkpt lat="48.99759" lon="1.1413">
        <ele>144.199997</ele>
        <time>2019-01-06T10:33:28Z</time>
      </trkpt>
      <trkpt lat="48.99757" lon="1.14116">
        <ele>144</ele>
        <time>2019-01-06T10:33:30Z</time>
      </trkpt>
      <trkpt lat="48.99756" lon="1.14102">
        <ele>143.899994</ele>
        <time>2019-01-06T10:33:32Z</time>
      </trkpt>
      <trkpt lat="48.99754" lon="1.14084">
        <ele>144.5</ele>
        <time>2019-01-06T10:33:35Z</time>
      </trkpt>
      <trkpt lat="48.99752" lon="1.14065">
        <ele>143.899994</ele>
        <time>2019-01-06T10:33:38Z</time>
      </trkpt>
      <trkpt lat="48.99751" lon="1.14047">
        <ele>144.5</ele>
        <time>2019-01-06T10:33:42Z</time>
      </trkpt>
      <trkpt lat="48.99747" lon="1.14032">
        <ele>144.399994</ele>
        <time>2019-01-06T10:33:45Z</time>
      </trkpt>
      <trkpt lat="48.99744" lon="1.14013">
        <ele>144.600006</ele>
        <time>2019-01-06T10:33:47Z</time>
      </trkpt>
      <trkpt lat="48.99741" lon="1.13996">
        <ele>144.699997</ele>
        <time>2019-01-06T10:33:49Z</time>
      </trkpt>
      <trkpt lat="48.99738" lon="1.13982">
        <ele>144.100006</ele>
        <time>2019-01-06T10:33:51Z</time>
      </trkpt>
      <trkpt lat="48.99735" lon="1.13961">
        <ele>144</ele>
        <time>2019-01-06T10:33:54Z</time>
      </trkpt>
      <trkpt lat="48.99733" lon="1.13941">
        <ele>144.399994</ele>
        <time>2019-01-06T10:33:56Z</time>
      </trkpt>
      <trkpt lat="48.99731" lon="1.13926">
        <ele>144.600006</ele>
        <time>2019-01-06T10:33:58Z</time>
      </trkpt>
      <trkpt lat="48.99728" lon="1.13912">
        <ele>144.399994</ele>
        <time>2019-01-06T10:34:00Z</time>
      </trkpt>
      <trkpt lat="48.99726" lon="1.13898">
        <ele>144.5</ele>
        <time>2019-01-06T10:34:02Z</time>
      </trkpt>
      <trkpt lat="48.99723" lon="1.1388">
        <ele>144.899994</ele>
        <time>2019-01-06T10:34:05Z</time>
      </trkpt>
      <trkpt lat="48.9972" lon="1.13863">
        <ele>145.199997</ele>
        <time>2019-01-06T10:34:08Z</time>
      </trkpt>
      <trkpt lat="48.99716" lon="1.13848">
        <ele>145</ele>
        <time>2019-01-06T10:34:11Z</time>
      </trkpt>
      <trkpt lat="48.99714" lon="1.13834">
        <ele>144.899994</ele>
        <time>2019-01-06T10:34:13Z</time>
      </trkpt>
      <trkpt lat="48.99711" lon="1.1382">
        <ele>144.699997</ele>
        <time>2019-01-06T10:34:15Z</time>
      </trkpt>
      <trkpt lat="48.99708" lon="1.13806">
        <ele>144.899994</ele>
        <time>2019-01-06T10:34:17Z</time>
      </trkpt>
      <trkpt lat="48.99706" lon="1.13792">
        <ele>145.100006</ele>
        <time>2019-01-06T10:34:19Z</time>
      </trkpt>
      <trkpt lat="48.99704" lon="1.13779">
        <ele>145.300003</ele>
        <time>2019-01-06T10:34:21Z</time>
      </trkpt>
      <trkpt lat="48.99702" lon="1.13759">
        <ele>144.399994</ele>
        <time>2019-01-06T10:34:24Z</time>
      </trkpt>
      <trkpt lat="48.99701" lon="1.13738">
        <ele>144</ele>
        <time>2019-01-06T10:34:27Z</time>
      </trkpt>
      <trkpt lat="48.99699" lon="1.13724">
        <ele>143.600006</ele>
        <time>2019-01-06T10:34:29Z</time>
      </trkpt>
      <trkpt lat="48.99697" lon="1.1371">
        <ele>144</ele>
        <time>2019-01-06T10:34:31Z</time>
      </trkpt>
      <trkpt lat="48.99695" lon="1.13695">
        <ele>143.899994</ele>
        <time>2019-01-06T10:34:33Z</time>
      </trkpt>
      <trkpt lat="48.99692" lon="1.13675">
        <ele>144.399994</ele>
        <time>2019-01-06T10:34:36Z</time>
      </trkpt>
      <trkpt lat="48.99689" lon="1.13657">
        <ele>144.199997</ele>
        <time>2019-01-06T10:34:39Z</time>
      </trkpt>
      <trkpt lat="48.99682" lon="1.13648">
        <ele>143.5</ele>
        <time>2019-01-06T10:34:42Z</time>
      </trkpt>
      <trkpt lat="48.99673" lon="1.13646">
        <ele>142.899994</ele>
        <time>2019-01-06T10:34:45Z</time>
      </trkpt>
      <trkpt lat="48.99663" lon="1.13647">
        <ele>144</ele>
        <time>2019-01-06T10:34:48Z</time>
      </trkpt>
      <trkpt lat="48.99653" lon="1.13647">
        <ele>145.100006</ele>
        <time>2019-01-06T10:34:51Z</time>
      </trkpt>
      <trkpt lat="48.99641" lon="1.1365">
        <ele>144.899994</ele>
        <time>2019-01-06T10:34:54Z</time>
      </trkpt>
      <trkpt lat="48.99631" lon="1.13652">
        <ele>145</ele>
        <time>2019-01-06T10:34:57Z</time>
      </trkpt>
      <trkpt lat="48.99621" lon="1.13654">
        <ele>144.800003</ele>
        <time>2019-01-06T10:35:00Z</time>
      </trkpt>
      <trkpt lat="48.9961" lon="1.13655">
        <ele>144.699997</ele>
        <time>2019-01-06T10:35:03Z</time>
      </trkpt>
      <trkpt lat="48.996" lon="1.13659">
        <ele>144.399994</ele>
        <time>2019-01-06T10:35:06Z</time>
      </trkpt>
      <trkpt lat="48.9959" lon="1.13662">
        <ele>144.800003</ele>
        <time>2019-01-06T10:35:10Z</time>
      </trkpt>
      <trkpt lat="48.99579" lon="1.13665">
        <ele>144.800003</ele>
        <time>2019-01-06T10:35:15Z</time>
      </trkpt>
      <trkpt lat="48.99568" lon="1.13666">
        <ele>144.899994</ele>
        <time>2019-01-06T10:35:20Z</time>
      </trkpt>
      <trkpt lat="48.99566" lon="1.1365">
        <ele>144.399994</ele>
        <time>2019-01-06T10:35:26Z</time>
      </trkpt>
      <trkpt lat="48.99563" lon="1.13635">
        <ele>143.899994</ele>
        <time>2019-01-06T10:35:30Z</time>
      </trkpt>
      <trkpt lat="48.99563" lon="1.13618">
        <ele>143.199997</ele>
        <time>2019-01-06T10:35:34Z</time>
      </trkpt>
      <trkpt lat="48.9956" lon="1.13602">
        <ele>143.5</ele>
        <time>2019-01-06T10:35:37Z</time>
      </trkpt>
      <trkpt lat="48.99558" lon="1.13588">
        <ele>143.5</ele>
        <time>2019-01-06T10:35:40Z</time>
      </trkpt>
      <trkpt lat="48.99555" lon="1.13573">
        <ele>144</ele>
        <time>2019-01-06T10:35:43Z</time>
      </trkpt>
      <trkpt lat="48.99553" lon="1.13555">
        <ele>143.399994</ele>
        <time>2019-01-06T10:35:47Z</time>
      </trkpt>
      <trkpt lat="48.99553" lon="1.13541">
        <ele>142.5</ele>
        <time>2019-01-06T10:35:50Z</time>
      </trkpt>
      <trkpt lat="48.99549" lon="1.13523">
        <ele>143.100006</ele>
        <time>2019-01-06T10:35:53Z</time>
      </trkpt>
      <trkpt lat="48.99548" lon="1.13509">
        <ele>143.100006</ele>
        <time>2019-01-06T10:35:55Z</time>
      </trkpt>
      <trkpt lat="48.99548" lon="1.13495">
        <ele>143.199997</ele>
        <time>2019-01-06T10:35:57Z</time>
      </trkpt>
      <trkpt lat="48.99548" lon="1.13475">
        <ele>143.199997</ele>
        <time>2019-01-06T10:36:00Z</time>
      </trkpt>
      <trkpt lat="48.99542" lon="1.13458">
        <ele>142.600006</ele>
        <time>2019-01-06T10:36:03Z</time>
      </trkpt>
      <trkpt lat="48.99538" lon="1.13445">
        <ele>142.800003</ele>
        <time>2019-01-06T10:36:05Z</time>
      </trkpt>
      <trkpt lat="48.99534" lon="1.1343">
        <ele>142.899994</ele>
        <time>2019-01-06T10:36:08Z</time>
      </trkpt>
      <trkpt lat="48.99531" lon="1.13415">
        <ele>142.600006</ele>
        <time>2019-01-06T10:36:11Z</time>
      </trkpt>
      <trkpt lat="48.99528" lon="1.13398">
        <ele>142.899994</ele>
        <time>2019-01-06T10:36:14Z</time>
      </trkpt>
      <trkpt lat="48.99524" lon="1.13382">
        <ele>143.100006</ele>
        <time>2019-01-06T10:36:17Z</time>
      </trkpt>
      <trkpt lat="48.9952" lon="1.13366">
        <ele>142.399994</ele>
        <time>2019-01-06T10:36:20Z</time>
      </trkpt>
      <trkpt lat="48.99517" lon="1.1335">
        <ele>143.5</ele>
        <time>2019-01-06T10:36:24Z</time>
      </trkpt>
      <trkpt lat="48.99514" lon="1.13337">
        <ele>143.100006</ele>
        <time>2019-01-06T10:36:27Z</time>
      </trkpt>
      <trkpt lat="48.99512" lon="1.13321">
        <ele>142.899994</ele>
        <time>2019-01-06T10:36:31Z</time>
      </trkpt>
      <trkpt lat="48.9951" lon="1.13307">
        <ele>142.699997</ele>
        <time>2019-01-06T10:36:34Z</time>
      </trkpt>
      <trkpt lat="48.99509" lon="1.13293">
        <ele>143.100006</ele>
        <time>2019-01-06T10:36:37Z</time>
      </trkpt>
      <trkpt lat="48.99507" lon="1.13278">
        <ele>142.300003</ele>
        <time>2019-01-06T10:36:40Z</time>
      </trkpt>
      <trkpt lat="48.99504" lon="1.13265">
        <ele>142.199997</ele>
        <time>2019-01-06T10:36:43Z</time>
      </trkpt>
      <trkpt lat="48.99502" lon="1.1325">
        <ele>142.100006</ele>
        <time>2019-01-06T10:36:46Z</time>
      </trkpt>
      <trkpt lat="48.99499" lon="1.13235">
        <ele>141.100006</ele>
        <time>2019-01-06T10:36:49Z</time>
      </trkpt>
      <trkpt lat="48.99498" lon="1.13221">
        <ele>141.300003</ele>
        <time>2019-01-06T10:36:52Z</time>
      </trkpt>
      <trkpt lat="48.99496" lon="1.13206">
        <ele>141.600006</ele>
        <time>2019-01-06T10:36:55Z</time>
      </trkpt>
      <trkpt lat="48.99494" lon="1.13186">
        <ele>141.399994</ele>
        <time>2019-01-06T10:36:58Z</time>
      </trkpt>
      <trkpt lat="48.99493" lon="1.13171">
        <ele>141.300003</ele>
        <time>2019-01-06T10:37:00Z</time>
      </trkpt>
      <trkpt lat="48.9949" lon="1.13157">
        <ele>140.899994</ele>
        <time>2019-01-06T10:37:02Z</time>
      </trkpt>
      <trkpt lat="48.99486" lon="1.13139">
        <ele>140.300003</ele>
        <time>2019-01-06T10:37:06Z</time>
      </trkpt>
      <trkpt lat="48.99483" lon="1.13124">
        <ele>140.199997</ele>
        <time>2019-01-06T10:37:09Z</time>
      </trkpt>
      <trkpt lat="48.9948" lon="1.1311">
        <ele>139.600006</ele>
        <time>2019-01-06T10:37:12Z</time>
      </trkpt>
      <trkpt lat="48.99478" lon="1.13092">
        <ele>139.199997</ele>
        <time>2019-01-06T10:37:16Z</time>
      </trkpt>
      <trkpt lat="48.99476" lon="1.13075">
        <ele>138.5</ele>
        <time>2019-01-06T10:37:19Z</time>
      </trkpt>
      <trkpt lat="48.99474" lon="1.13061">
        <ele>138.199997</ele>
        <time>2019-01-06T10:37:21Z</time>
      </trkpt>
      <trkpt lat="48.99471" lon="1.13047">
        <ele>138.399994</ele>
        <time>2019-01-06T10:37:23Z</time>
      </trkpt>
      <trkpt lat="48.99468" lon="1.13026">
        <ele>137.800003</ele>
        <time>2019-01-06T10:37:26Z</time>
      </trkpt>
      <trkpt lat="48.99467" lon="1.13011">
        <ele>136.5</ele>
        <time>2019-01-06T10:37:28Z</time>
      </trkpt>
      <trkpt lat="48.99465" lon="1.12993">
        <ele>136.199997</ele>
        <time>2019-01-06T10:37:30Z</time>
      </trkpt>
      <trkpt lat="48.99462" lon="1.12976">
        <ele>135.5</ele>
        <time>2019-01-06T10:37:32Z</time>
      </trkpt>
      <trkpt lat="48.99459" lon="1.12957">
        <ele>135.300003</ele>
        <time>2019-01-06T10:37:34Z</time>
      </trkpt>
      <trkpt lat="48.99455" lon="1.12938">
        <ele>134.699997</ele>
        <time>2019-01-06T10:37:36Z</time>
      </trkpt>
      <trkpt lat="48.99451" lon="1.1292">
        <ele>134.100006</ele>
        <time>2019-01-06T10:37:38Z</time>
      </trkpt>
      <trkpt lat="48.99448" lon="1.12904">
        <ele>133.100006</ele>
        <time>2019-01-06T10:37:40Z</time>
      </trkpt>
      <trkpt lat="48.99446" lon="1.12887">
        <ele>132.600006</ele>
        <time>2019-01-06T10:37:42Z</time>
      </trkpt>
      <trkpt lat="48.99444" lon="1.1287">
        <ele>132.899994</ele>
        <time>2019-01-06T10:37:44Z</time>
      </trkpt>
      <trkpt lat="48.99442" lon="1.12853">
        <ele>132.699997</ele>
        <time>2019-01-06T10:37:46Z</time>
      </trkpt>
      <trkpt lat="48.99439" lon="1.12837">
        <ele>132.399994</ele>
        <time>2019-01-06T10:37:48Z</time>
      </trkpt>
      <trkpt lat="48.99437" lon="1.12822">
        <ele>132.199997</ele>
        <time>2019-01-06T10:37:50Z</time>
      </trkpt>
      <trkpt lat="48.99434" lon="1.12806">
        <ele>131.600006</ele>
        <time>2019-01-06T10:37:52Z</time>
      </trkpt>
      <trkpt lat="48.99432" lon="1.12792">
        <ele>130.699997</ele>
        <time>2019-01-06T10:37:54Z</time>
      </trkpt>
      <trkpt lat="48.99426" lon="1.12777">
        <ele>130.399994</ele>
        <time>2019-01-06T10:37:57Z</time>
      </trkpt>
      <trkpt lat="48.99418" lon="1.12769">
        <ele>130.5</ele>
        <time>2019-01-06T10:38:00Z</time>
      </trkpt>
      <trkpt lat="48.99407" lon="1.12762">
        <ele>129.699997</ele>
        <time>2019-01-06T10:38:03Z</time>
      </trkpt>
      <trkpt lat="48.99396" lon="1.12759">
        <ele>129.800003</ele>
        <time>2019-01-06T10:38:06Z</time>
      </trkpt>
      <trkpt lat="48.99386" lon="1.12759">
        <ele>129.600006</ele>
        <time>2019-01-06T10:38:08Z</time>
      </trkpt>
      <trkpt lat="48.99377" lon="1.12756">
        <ele>129.100006</ele>
        <time>2019-01-06T10:38:10Z</time>
      </trkpt>
      <trkpt lat="48.99368" lon="1.12753">
        <ele>128.199997</ele>
        <time>2019-01-06T10:38:12Z</time>
      </trkpt>
      <trkpt lat="48.99358" lon="1.12752">
        <ele>127.300003</ele>
        <time>2019-01-06T10:38:14Z</time>
      </trkpt>
      <trkpt lat="48.99349" lon="1.12751">
        <ele>127.300003</ele>
        <time>2019-01-06T10:38:16Z</time>
      </trkpt>
      <trkpt lat="48.99339" lon="1.1275">
        <ele>126.900002</ele>
        <time>2019-01-06T10:38:18Z</time>
      </trkpt>
      <trkpt lat="48.9933" lon="1.12747">
        <ele>126.5</ele>
        <time>2019-01-06T10:38:20Z</time>
      </trkpt>
      <trkpt lat="48.9932" lon="1.12745">
        <ele>125.800003</ele>
        <time>2019-01-06T10:38:22Z</time>
      </trkpt>
      <trkpt lat="48.99309" lon="1.12744">
        <ele>124.900002</ele>
        <time>2019-01-06T10:38:24Z</time>
      </trkpt>
      <trkpt lat="48.99297" lon="1.12741">
        <ele>124.300003</ele>
        <time>2019-01-06T10:38:26Z</time>
      </trkpt>
      <trkpt lat="48.99284" lon="1.1274">
        <ele>123</ele>
        <time>2019-01-06T10:38:28Z</time>
      </trkpt>
      <trkpt lat="48.99271" lon="1.12739">
        <ele>123</ele>
        <time>2019-01-06T10:38:30Z</time>
      </trkpt>
      <trkpt lat="48.99259" lon="1.12737">
        <ele>121.400002</ele>
        <time>2019-01-06T10:38:32Z</time>
      </trkpt>
      <trkpt lat="48.99249" lon="1.12735">
        <ele>121.400002</ele>
        <time>2019-01-06T10:38:34Z</time>
      </trkpt>
      <trkpt lat="48.99243" lon="1.12724">
        <ele>120.599998</ele>
        <time>2019-01-06T10:38:37Z</time>
      </trkpt>
      <trkpt lat="48.99242" lon="1.12706">
        <ele>119.800003</ele>
        <time>2019-01-06T10:38:40Z</time>
      </trkpt>
      <trkpt lat="48.99242" lon="1.12687">
        <ele>120.199997</ele>
        <time>2019-01-06T10:38:43Z</time>
      </trkpt>
      <trkpt lat="48.99242" lon="1.12673">
        <ele>118.5</ele>
        <time>2019-01-06T10:38:45Z</time>
      </trkpt>
      <trkpt lat="48.99242" lon="1.12659">
        <ele>119.099998</ele>
        <time>2019-01-06T10:38:47Z</time>
      </trkpt>
      <trkpt lat="48.99242" lon="1.12643">
        <ele>119.199997</ele>
        <time>2019-01-06T10:38:49Z</time>
      </trkpt>
      <trkpt lat="48.99242" lon="1.12626">
        <ele>119.400002</ele>
        <time>2019-01-06T10:38:51Z</time>
      </trkpt>
      <trkpt lat="48.99242" lon="1.12608">
        <ele>119.199997</ele>
        <time>2019-01-06T10:38:53Z</time>
      </trkpt>
      <trkpt lat="48.99244" lon="1.1259">
        <ele>117.900002</ele>
        <time>2019-01-06T10:38:55Z</time>
      </trkpt>
      <trkpt lat="48.99244" lon="1.12571">
        <ele>117.599998</ele>
        <time>2019-01-06T10:38:57Z</time>
      </trkpt>
      <trkpt lat="48.99245" lon="1.12551">
        <ele>116.599998</ele>
        <time>2019-01-06T10:38:59Z</time>
      </trkpt>
      <trkpt lat="48.99245" lon="1.12532">
        <ele>116.699997</ele>
        <time>2019-01-06T10:39:01Z</time>
      </trkpt>
      <trkpt lat="48.99243" lon="1.12512">
        <ele>116.800003</ele>
        <time>2019-01-06T10:39:03Z</time>
      </trkpt>
      <trkpt lat="48.99243" lon="1.12491">
        <ele>117</ele>
        <time>2019-01-06T10:39:05Z</time>
      </trkpt>
      <trkpt lat="48.99243" lon="1.12472">
        <ele>116.800003</ele>
        <time>2019-01-06T10:39:07Z</time>
      </trkpt>
      <trkpt lat="48.99243" lon="1.12455">
        <ele>117.400002</ele>
        <time>2019-01-06T10:39:09Z</time>
      </trkpt>
      <trkpt lat="48.99243" lon="1.12438">
        <ele>117.5</ele>
        <time>2019-01-06T10:39:11Z</time>
      </trkpt>
      <trkpt lat="48.99244" lon="1.12423">
        <ele>118.199997</ele>
        <time>2019-01-06T10:39:13Z</time>
      </trkpt>
      <trkpt lat="48.99244" lon="1.12408">
        <ele>117.900002</ele>
        <time>2019-01-06T10:39:15Z</time>
      </trkpt>
      <trkpt lat="48.99245" lon="1.12393">
        <ele>117.599998</ele>
        <time>2019-01-06T10:39:17Z</time>
      </trkpt>
      <trkpt lat="48.99248" lon="1.12377">
        <ele>118.099998</ele>
        <time>2019-01-06T10:39:19Z</time>
      </trkpt>
      <trkpt lat="48.99251" lon="1.12361">
        <ele>118.300003</ele>
        <time>2019-01-06T10:39:21Z</time>
      </trkpt>
      <trkpt lat="48.99254" lon="1.12344">
        <ele>118.300003</ele>
        <time>2019-01-06T10:39:23Z</time>
      </trkpt>
      <trkpt lat="48.99257" lon="1.12327">
        <ele>117.199997</ele>
        <time>2019-01-06T10:39:25Z</time>
      </trkpt>
      <trkpt lat="48.99262" lon="1.1231">
        <ele>116.300003</ele>
        <time>2019-01-06T10:39:27Z</time>
      </trkpt>
      <trkpt lat="48.99267" lon="1.12292">
        <ele>117.199997</ele>
        <time>2019-01-06T10:39:29Z</time>
      </trkpt>
      <trkpt lat="48.99273" lon="1.12276">
        <ele>116.599998</ele>
        <time>2019-01-06T10:39:31Z</time>
      </trkpt>
      <trkpt lat="48.99278" lon="1.12262">
        <ele>115.699997</ele>
        <time>2019-01-06T10:39:33Z</time>
      </trkpt>
      <trkpt lat="48.99283" lon="1.12248">
        <ele>115.400002</ele>
        <time>2019-01-06T10:39:35Z</time>
      </trkpt>
      <trkpt lat="48.99288" lon="1.12233">
        <ele>115.199997</ele>
        <time>2019-01-06T10:39:37Z</time>
      </trkpt>
      <trkpt lat="48.99293" lon="1.12222">
        <ele>115</ele>
        <time>2019-01-06T10:39:39Z</time>
      </trkpt>
      <trkpt lat="48.99298" lon="1.12209">
        <ele>115.900002</ele>
        <time>2019-01-06T10:39:41Z</time>
      </trkpt>
      <trkpt lat="48.99306" lon="1.12197">
        <ele>115.900002</ele>
        <time>2019-01-06T10:39:44Z</time>
      </trkpt>
      <trkpt lat="48.99314" lon="1.12193">
        <ele>116.099998</ele>
        <time>2019-01-06T10:39:47Z</time>
      </trkpt>
      <trkpt lat="48.99325" lon="1.12187">
        <ele>117.5</ele>
        <time>2019-01-06T10:39:50Z</time>
      </trkpt>
      <trkpt lat="48.99338" lon="1.12182">
        <ele>117.699997</ele>
        <time>2019-01-06T10:39:53Z</time>
      </trkpt>
      <trkpt lat="48.99349" lon="1.12177">
        <ele>118.699997</ele>
        <time>2019-01-06T10:39:56Z</time>
      </trkpt>
      <trkpt lat="48.9936" lon="1.12172">
        <ele>119.599998</ele>
        <time>2019-01-06T10:39:59Z</time>
      </trkpt>
      <trkpt lat="48.9937" lon="1.12167">
        <ele>120.400002</ele>
        <time>2019-01-06T10:40:02Z</time>
      </trkpt>
      <trkpt lat="48.9938" lon="1.12163">
        <ele>121.699997</ele>
        <time>2019-01-06T10:40:06Z</time>
      </trkpt>
      <trkpt lat="48.99377" lon="1.12176">
        <ele>122.599998</ele>
        <time>2019-01-06T10:40:22Z</time>
      </trkpt>
      <trkpt lat="48.9938" lon="1.12192">
        <ele>122.699997</ele>
        <time>2019-01-06T10:40:27Z</time>
      </trkpt>
      <trkpt lat="48.99381" lon="1.12211">
        <ele>123.400002</ele>
        <time>2019-01-06T10:40:31Z</time>
      </trkpt>
      <trkpt lat="48.99384" lon="1.12227">
        <ele>123.5</ele>
        <time>2019-01-06T10:40:35Z</time>
      </trkpt>
      <trkpt lat="48.99389" lon="1.12243">
        <ele>123.599998</ele>
        <time>2019-01-06T10:40:39Z</time>
      </trkpt>
      <trkpt lat="48.99392" lon="1.12261">
        <ele>124.699997</ele>
        <time>2019-01-06T10:40:43Z</time>
      </trkpt>
      <trkpt lat="48.99396" lon="1.12277">
        <ele>125.599998</ele>
        <time>2019-01-06T10:40:47Z</time>
      </trkpt>
      <trkpt lat="48.99399" lon="1.1229">
        <ele>125.5</ele>
        <time>2019-01-06T10:40:50Z</time>
      </trkpt>
      <trkpt lat="48.99402" lon="1.12305">
        <ele>125.599998</ele>
        <time>2019-01-06T10:40:53Z</time>
      </trkpt>
      <trkpt lat="48.99404" lon="1.12321">
        <ele>125.900002</ele>
        <time>2019-01-06T10:40:56Z</time>
      </trkpt>
      <trkpt lat="48.99406" lon="1.12337">
        <ele>125.800003</ele>
        <time>2019-01-06T10:40:59Z</time>
      </trkpt>
      <trkpt lat="48.99408" lon="1.12351">
        <ele>126.099998</ele>
        <time>2019-01-06T10:41:02Z</time>
      </trkpt>
      <trkpt lat="48.99411" lon="1.12368">
        <ele>127</ele>
        <time>2019-01-06T10:41:05Z</time>
      </trkpt>
      <trkpt lat="48.99414" lon="1.12384">
        <ele>127.199997</ele>
        <time>2019-01-06T10:41:08Z</time>
      </trkpt>
      <trkpt lat="48.99416" lon="1.12401">
        <ele>127.5</ele>
        <time>2019-01-06T10:41:11Z</time>
      </trkpt>
      <trkpt lat="48.99419" lon="1.12415">
        <ele>127.599998</ele>
        <time>2019-01-06T10:41:14Z</time>
      </trkpt>
      <trkpt lat="48.99421" lon="1.12431">
        <ele>126.699997</ele>
        <time>2019-01-06T10:41:17Z</time>
      </trkpt>
      <trkpt lat="48.99423" lon="1.12447">
        <ele>127.5</ele>
        <time>2019-01-06T10:41:20Z</time>
      </trkpt>
      <trkpt lat="48.99426" lon="1.12463">
        <ele>127.900002</ele>
        <time>2019-01-06T10:41:23Z</time>
      </trkpt>
      <trkpt lat="48.99428" lon="1.1248">
        <ele>129.199997</ele>
        <time>2019-01-06T10:41:26Z</time>
      </trkpt>
      <trkpt lat="48.99431" lon="1.12497">
        <ele>129.199997</ele>
        <time>2019-01-06T10:41:29Z</time>
      </trkpt>
      <trkpt lat="48.99433" lon="1.12512">
        <ele>129.399994</ele>
        <time>2019-01-06T10:41:32Z</time>
      </trkpt>
      <trkpt lat="48.99436" lon="1.12529">
        <ele>129.5</ele>
        <time>2019-01-06T10:41:35Z</time>
      </trkpt>
      <trkpt lat="48.99438" lon="1.12546">
        <ele>130.5</ele>
        <time>2019-01-06T10:41:38Z</time>
      </trkpt>
      <trkpt lat="48.9944" lon="1.12563">
        <ele>129.800003</ele>
        <time>2019-01-06T10:41:41Z</time>
      </trkpt>
      <trkpt lat="48.99443" lon="1.12581">
        <ele>130.100006</ele>
        <time>2019-01-06T10:41:44Z</time>
      </trkpt>
      <trkpt lat="48.99446" lon="1.12597">
        <ele>130.399994</ele>
        <time>2019-01-06T10:41:47Z</time>
      </trkpt>
      <trkpt lat="48.99449" lon="1.1261">
        <ele>131.199997</ele>
        <time>2019-01-06T10:41:50Z</time>
      </trkpt>
      <trkpt lat="48.9945" lon="1.12627">
        <ele>131.300003</ele>
        <time>2019-01-06T10:41:53Z</time>
      </trkpt>
      <trkpt lat="48.99453" lon="1.12644">
        <ele>131.800003</ele>
        <time>2019-01-06T10:41:56Z</time>
      </trkpt>
      <trkpt lat="48.99456" lon="1.12662">
        <ele>131.899994</ele>
        <time>2019-01-06T10:41:59Z</time>
      </trkpt>
      <trkpt lat="48.9946" lon="1.12676">
        <ele>131</ele>
        <time>2019-01-06T10:42:02Z</time>
      </trkpt>
      <trkpt lat="48.99469" lon="1.1267">
        <ele>130.899994</ele>
        <time>2019-01-06T10:42:07Z</time>
      </trkpt>
      <trkpt lat="48.99476" lon="1.12659">
        <ele>131.600006</ele>
        <time>2019-01-06T10:42:11Z</time>
      </trkpt>
      <trkpt lat="48.99485" lon="1.12649">
        <ele>131.800003</ele>
        <time>2019-01-06T10:42:16Z</time>
      </trkpt>
      <trkpt lat="48.99493" lon="1.1264">
        <ele>132.399994</ele>
        <time>2019-01-06T10:42:23Z</time>
      </trkpt>
      <trkpt lat="48.99501" lon="1.12629">
        <ele>132.199997</ele>
        <time>2019-01-06T10:42:31Z</time>
      </trkpt>
      <trkpt lat="48.99508" lon="1.12618">
        <ele>132</ele>
        <time>2019-01-06T10:42:36Z</time>
      </trkpt>
      <trkpt lat="48.99515" lon="1.12606">
        <ele>132.300003</ele>
        <time>2019-01-06T10:42:42Z</time>
      </trkpt>
      <trkpt lat="48.99522" lon="1.12595">
        <ele>132.100006</ele>
        <time>2019-01-06T10:42:47Z</time>
      </trkpt>
      <trkpt lat="48.99531" lon="1.12581">
        <ele>131.800003</ele>
        <time>2019-01-06T10:42:51Z</time>
      </trkpt>
      <trkpt lat="48.99537" lon="1.12571">
        <ele>131.600006</ele>
        <time>2019-01-06T10:42:55Z</time>
      </trkpt>
      <trkpt lat="48.99544" lon="1.12561">
        <ele>131.699997</ele>
        <time>2019-01-06T10:43:00Z</time>
      </trkpt>
      <trkpt lat="48.99546" lon="1.12547">
        <ele>131.5</ele>
        <time>2019-01-06T10:44:05Z</time>
      </trkpt>
      <trkpt lat="48.99553" lon="1.12535">
        <ele>131.199997</ele>
        <time>2019-01-06T10:44:18Z</time>
      </trkpt>
      <trkpt lat="48.99561" lon="1.12522">
        <ele>130.199997</ele>
        <time>2019-01-06T10:44:22Z</time>
      </trkpt>
      <trkpt lat="48.99569" lon="1.12509">
        <ele>130.100006</ele>
        <time>2019-01-06T10:44:25Z</time>
      </trkpt>
      <trkpt lat="48.99578" lon="1.12496">
        <ele>129.699997</ele>
        <time>2019-01-06T10:44:28Z</time>
      </trkpt>
      <trkpt lat="48.99588" lon="1.12484">
        <ele>129.699997</ele>
        <time>2019-01-06T10:44:31Z</time>
      </trkpt>
      <trkpt lat="48.99594" lon="1.12473">
        <ele>129.899994</ele>
        <time>2019-01-06T10:44:33Z</time>
      </trkpt>
      <trkpt lat="48.99601" lon="1.12463">
        <ele>130.100006</ele>
        <time>2019-01-06T10:44:35Z</time>
      </trkpt>
      <trkpt lat="48.99609" lon="1.12453">
        <ele>129.899994</ele>
        <time>2019-01-06T10:44:37Z</time>
      </trkpt>
      <trkpt lat="48.99616" lon="1.12443">
        <ele>129.600006</ele>
        <time>2019-01-06T10:44:39Z</time>
      </trkpt>
      <trkpt lat="48.99622" lon="1.12432">
        <ele>130</ele>
        <time>2019-01-06T10:44:41Z</time>
      </trkpt>
      <trkpt lat="48.9963" lon="1.1242">
        <ele>129.399994</ele>
        <time>2019-01-06T10:44:43Z</time>
      </trkpt>
      <trkpt lat="48.99639" lon="1.12404">
        <ele>129.800003</ele>
        <time>2019-01-06T10:44:46Z</time>
      </trkpt>
      <trkpt lat="48.99645" lon="1.12392">
        <ele>128.699997</ele>
        <time>2019-01-06T10:44:48Z</time>
      </trkpt>
      <trkpt lat="48.99653" lon="1.1238">
        <ele>128.600006</ele>
        <time>2019-01-06T10:44:50Z</time>
      </trkpt>
      <trkpt lat="48.9966" lon="1.1237">
        <ele>129</ele>
        <time>2019-01-06T10:44:52Z</time>
      </trkpt>
      <trkpt lat="48.99667" lon="1.12361">
        <ele>128.399994</ele>
        <time>2019-01-06T10:44:54Z</time>
      </trkpt>
      <trkpt lat="48.99674" lon="1.1235">
        <ele>127.099998</ele>
        <time>2019-01-06T10:44:56Z</time>
      </trkpt>
      <trkpt lat="48.99682" lon="1.12336">
        <ele>127.099998</ele>
        <time>2019-01-06T10:44:59Z</time>
      </trkpt>
      <trkpt lat="48.99689" lon="1.12325">
        <ele>127.699997</ele>
        <time>2019-01-06T10:45:01Z</time>
      </trkpt>
      <trkpt lat="48.99697" lon="1.12312">
        <ele>128</ele>
        <time>2019-01-06T10:45:03Z</time>
      </trkpt>
      <trkpt lat="48.99702" lon="1.12301">
        <ele>128.100006</ele>
        <time>2019-01-06T10:45:05Z</time>
      </trkpt>
      <trkpt lat="48.9971" lon="1.12285">
        <ele>128.300003</ele>
        <time>2019-01-06T10:45:08Z</time>
      </trkpt>
      <trkpt lat="48.99718" lon="1.12271">
        <ele>128.300003</ele>
        <time>2019-01-06T10:45:11Z</time>
      </trkpt>
      <trkpt lat="48.99728" lon="1.12257">
        <ele>128.199997</ele>
        <time>2019-01-06T10:45:14Z</time>
      </trkpt>
      <trkpt lat="48.99738" lon="1.12242">
        <ele>127.400002</ele>
        <time>2019-01-06T10:45:17Z</time>
      </trkpt>
      <trkpt lat="48.99744" lon="1.12232">
        <ele>127.199997</ele>
        <time>2019-01-06T10:45:19Z</time>
      </trkpt>
      <trkpt lat="48.99751" lon="1.12221">
        <ele>126.5</ele>
        <time>2019-01-06T10:45:21Z</time>
      </trkpt>
      <trkpt lat="48.99759" lon="1.12209">
        <ele>126.599998</ele>
        <time>2019-01-06T10:45:24Z</time>
      </trkpt>
      <trkpt lat="48.99769" lon="1.12194">
        <ele>125.099998</ele>
        <time>2019-01-06T10:45:27Z</time>
      </trkpt>
      <trkpt lat="48.99775" lon="1.12184">
        <ele>125</ele>
        <time>2019-01-06T10:45:29Z</time>
      </trkpt>
      <trkpt lat="48.99783" lon="1.12172">
        <ele>125</ele>
        <time>2019-01-06T10:45:31Z</time>
      </trkpt>
      <trkpt lat="48.99792" lon="1.12162">
        <ele>123.699997</ele>
        <time>2019-01-06T10:45:33Z</time>
      </trkpt>
      <trkpt lat="48.99798" lon="1.12153">
        <ele>123.599998</ele>
        <time>2019-01-06T10:45:35Z</time>
      </trkpt>
      <trkpt lat="48.99808" lon="1.12152">
        <ele>122.699997</ele>
        <time>2019-01-06T10:45:39Z</time>
      </trkpt>
      <trkpt lat="48.99812" lon="1.12165">
        <ele>122.699997</ele>
        <time>2019-01-06T10:45:43Z</time>
      </trkpt>
      <trkpt lat="48.99813" lon="1.1218">
        <ele>122.300003</ele>
        <time>2019-01-06T10:45:46Z</time>
      </trkpt>
      <trkpt lat="48.99817" lon="1.12192">
        <ele>122.5</ele>
        <time>2019-01-06T10:45:48Z</time>
      </trkpt>
      <trkpt lat="48.99825" lon="1.122">
        <ele>123</ele>
        <time>2019-01-06T10:45:51Z</time>
      </trkpt>
      <trkpt lat="48.99836" lon="1.12197">
        <ele>122.099998</ele>
        <time>2019-01-06T10:45:55Z</time>
      </trkpt>
      <trkpt lat="48.99848" lon="1.12198">
        <ele>121.699997</ele>
        <time>2019-01-06T10:45:58Z</time>
      </trkpt>
      <trkpt lat="48.9986" lon="1.12202">
        <ele>121.800003</ele>
        <time>2019-01-06T10:46:02Z</time>
      </trkpt>
      <trkpt lat="48.99869" lon="1.12194">
        <ele>121.699997</ele>
        <time>2019-01-06T10:46:05Z</time>
      </trkpt>
      <trkpt lat="48.99879" lon="1.12189">
        <ele>120.900002</ele>
        <time>2019-01-06T10:46:08Z</time>
      </trkpt>
      <trkpt lat="48.99888" lon="1.12183">
        <ele>120.599998</ele>
        <time>2019-01-06T10:46:11Z</time>
      </trkpt>
      <trkpt lat="48.99901" lon="1.12173">
        <ele>119.199997</ele>
        <time>2019-01-06T10:46:14Z</time>
      </trkpt>
      <trkpt lat="48.99913" lon="1.12166">
        <ele>118.300003</ele>
        <time>2019-01-06T10:46:17Z</time>
      </trkpt>
      <trkpt lat="48.99926" lon="1.12165">
        <ele>117.599998</ele>
        <time>2019-01-06T10:46:20Z</time>
      </trkpt>
      <trkpt lat="48.99935" lon="1.12159">
        <ele>116.300003</ele>
        <time>2019-01-06T10:46:23Z</time>
      </trkpt>
      <trkpt lat="48.99948" lon="1.12151">
        <ele>116.699997</ele>
        <time>2019-01-06T10:46:26Z</time>
      </trkpt>
      <trkpt lat="48.99957" lon="1.12145">
        <ele>116.599998</ele>
        <time>2019-01-06T10:46:28Z</time>
      </trkpt>
      <trkpt lat="48.99969" lon="1.12138">
        <ele>116.300003</ele>
        <time>2019-01-06T10:46:31Z</time>
      </trkpt>
      <trkpt lat="48.99978" lon="1.12135">
        <ele>116</ele>
        <time>2019-01-06T10:46:33Z</time>
      </trkpt>
      <trkpt lat="48.99987" lon="1.12131">
        <ele>115.900002</ele>
        <time>2019-01-06T10:46:35Z</time>
      </trkpt>
      <trkpt lat="48.99996" lon="1.12127">
        <ele>115.900002</ele>
        <time>2019-01-06T10:46:38Z</time>
      </trkpt>
      <trkpt lat="49.00008" lon="1.12119">
        <ele>114.699997</ele>
        <time>2019-01-06T10:46:42Z</time>
      </trkpt>
      <trkpt lat="49.00019" lon="1.12113">
        <ele>114</ele>
        <time>2019-01-06T10:46:44Z</time>
      </trkpt>
      <trkpt lat="49.0003" lon="1.12108">
        <ele>114</ele>
        <time>2019-01-06T10:46:46Z</time>
      </trkpt>
      <trkpt lat="49.00046" lon="1.12103">
        <ele>113.400002</ele>
        <time>2019-01-06T10:46:49Z</time>
      </trkpt>
      <trkpt lat="49.00056" lon="1.121">
        <ele>112.300003</ele>
        <time>2019-01-06T10:46:52Z</time>
      </trkpt>
      <trkpt lat="49.00065" lon="1.12105">
        <ele>112.199997</ele>
        <time>2019-01-06T10:46:57Z</time>
      </trkpt>
      <trkpt lat="49.00078" lon="1.12106">
        <ele>111</ele>
        <time>2019-01-06T10:47:02Z</time>
      </trkpt>
      <trkpt lat="49.00083" lon="1.1212">
        <ele>110.599998</ele>
        <time>2019-01-06T10:47:08Z</time>
      </trkpt>
      <trkpt lat="49.00081" lon="1.12135">
        <ele>110.900002</ele>
        <time>2019-01-06T10:47:12Z</time>
      </trkpt>
      <trkpt lat="49.00085" lon="1.12151">
        <ele>111</ele>
        <time>2019-01-06T10:47:16Z</time>
      </trkpt>
      <trkpt lat="49.00086" lon="1.12165">
        <ele>110.699997</ele>
        <time>2019-01-06T10:47:19Z</time>
      </trkpt>
      <trkpt lat="49.00085" lon="1.1218">
        <ele>111.300003</ele>
        <time>2019-01-06T10:47:23Z</time>
      </trkpt>
      <trkpt lat="49.00079" lon="1.12191">
        <ele>112.900002</ele>
        <time>2019-01-06T10:47:27Z</time>
      </trkpt>
      <trkpt lat="49.00072" lon="1.12199">
        <ele>113.900002</ele>
        <time>2019-01-06T10:47:31Z</time>
      </trkpt>
      <trkpt lat="49.00068" lon="1.12215">
        <ele>114</ele>
        <time>2019-01-06T10:47:35Z</time>
      </trkpt>
      <trkpt lat="49.00066" lon="1.12231">
        <ele>114.599998</ele>
        <time>2019-01-06T10:47:38Z</time>
      </trkpt>
      <trkpt lat="49.00057" lon="1.12241">
        <ele>115.199997</ele>
        <time>2019-01-06T10:47:41Z</time>
      </trkpt>
      <trkpt lat="49.00047" lon="1.12243">
        <ele>115.099998</ele>
        <time>2019-01-06T10:47:44Z</time>
      </trkpt>
      <trkpt lat="49.00037" lon="1.12245">
        <ele>116</ele>
        <time>2019-01-06T10:47:47Z</time>
      </trkpt>
      <trkpt lat="49.0003" lon="1.12255">
        <ele>116.699997</ele>
        <time>2019-01-06T10:47:50Z</time>
      </trkpt>
      <trkpt lat="49.00025" lon="1.12268">
        <ele>117.300003</ele>
        <time>2019-01-06T10:47:53Z</time>
      </trkpt>
      <trkpt lat="49.0002" lon="1.1228">
        <ele>118.5</ele>
        <time>2019-01-06T10:47:57Z</time>
      </trkpt>
      <trkpt lat="49.0001" lon="1.12284">
        <ele>119</ele>
        <time>2019-01-06T10:48:00Z</time>
      </trkpt>
      <trkpt lat="49.00002" lon="1.12289">
        <ele>119.900002</ele>
        <time>2019-01-06T10:48:02Z</time>
      </trkpt>
      <trkpt lat="48.9999" lon="1.12293">
        <ele>120.099998</ele>
        <time>2019-01-06T10:48:05Z</time>
      </trkpt>
      <trkpt lat="48.99979" lon="1.12297">
        <ele>120.099998</ele>
        <time>2019-01-06T10:48:08Z</time>
      </trkpt>
      <trkpt lat="48.9997" lon="1.12296">
        <ele>121.099998</ele>
        <time>2019-01-06T10:48:11Z</time>
      </trkpt>
      <trkpt lat="48.9996" lon="1.12302">
        <ele>121.5</ele>
        <time>2019-01-06T10:48:14Z</time>
      </trkpt>
      <trkpt lat="48.99951" lon="1.12312">
        <ele>121.5</ele>
        <time>2019-01-06T10:48:17Z</time>
      </trkpt>
      <trkpt lat="48.99944" lon="1.12325">
        <ele>121.5</ele>
        <time>2019-01-06T10:48:22Z</time>
      </trkpt>
      <trkpt lat="48.99931" lon="1.12329">
        <ele>122.199997</ele>
        <time>2019-01-06T10:48:25Z</time>
      </trkpt>
      <trkpt lat="48.9992" lon="1.1234">
        <ele>122.199997</ele>
        <time>2019-01-06T10:48:29Z</time>
      </trkpt>
      <trkpt lat="48.99911" lon="1.1235">
        <ele>122.400002</ele>
        <time>2019-01-06T10:48:32Z</time>
      </trkpt>
      <trkpt lat="48.99903" lon="1.12361">
        <ele>123.300003</ele>
        <time>2019-01-06T10:48:35Z</time>
      </trkpt>
      <trkpt lat="48.99895" lon="1.12373">
        <ele>123.800003</ele>
        <time>2019-01-06T10:48:38Z</time>
      </trkpt>
      <trkpt lat="48.99886" lon="1.12384">
        <ele>124</ele>
        <time>2019-01-06T10:48:41Z</time>
      </trkpt>
      <trkpt lat="48.99875" lon="1.12392">
        <ele>124.199997</ele>
        <time>2019-01-06T10:48:44Z</time>
      </trkpt>
      <trkpt lat="48.9987" lon="1.12405">
        <ele>124.800003</ele>
        <time>2019-01-06T10:48:47Z</time>
      </trkpt>
      <trkpt lat="48.99868" lon="1.1242">
        <ele>125</ele>
        <time>2019-01-06T10:48:50Z</time>
      </trkpt>
      <trkpt lat="48.99866" lon="1.12433">
        <ele>124.5</ele>
        <time>2019-01-06T10:48:53Z</time>
      </trkpt>
      <trkpt lat="48.99869" lon="1.12447">
        <ele>123.900002</ele>
        <time>2019-01-06T10:48:58Z</time>
      </trkpt>
      <trkpt lat="48.99867" lon="1.12465">
        <ele>124.5</ele>
        <time>2019-01-06T10:49:02Z</time>
      </trkpt>
      <trkpt lat="48.99869" lon="1.12481">
        <ele>125.699997</ele>
        <time>2019-01-06T10:49:06Z</time>
      </trkpt>
      <trkpt lat="48.99869" lon="1.12498">
        <ele>126.400002</ele>
        <time>2019-01-06T10:49:10Z</time>
      </trkpt>
      <trkpt lat="48.99872" lon="1.12514">
        <ele>127</ele>
        <time>2019-01-06T10:49:14Z</time>
      </trkpt>
      <trkpt lat="48.99871" lon="1.12529">
        <ele>126.800003</ele>
        <time>2019-01-06T10:49:18Z</time>
      </trkpt>
      <trkpt lat="48.99865" lon="1.12543">
        <ele>126.900002</ele>
        <time>2019-01-06T10:49:23Z</time>
      </trkpt>
      <trkpt lat="48.9986" lon="1.1256">
        <ele>128.100006</ele>
        <time>2019-01-06T10:49:27Z</time>
      </trkpt>
      <trkpt lat="48.99858" lon="1.12574">
        <ele>128.699997</ele>
        <time>2019-01-06T10:49:30Z</time>
      </trkpt>
      <trkpt lat="48.99858" lon="1.12591">
        <ele>129</ele>
        <time>2019-01-06T10:49:34Z</time>
      </trkpt>
      <trkpt lat="48.9986" lon="1.12609">
        <ele>128.899994</ele>
        <time>2019-01-06T10:49:38Z</time>
      </trkpt>
      <trkpt lat="48.99862" lon="1.12626">
        <ele>130</ele>
        <time>2019-01-06T10:49:42Z</time>
      </trkpt>
      <trkpt lat="48.99866" lon="1.12639">
        <ele>130.5</ele>
        <time>2019-01-06T10:49:45Z</time>
      </trkpt>
      <trkpt lat="48.99872" lon="1.12651">
        <ele>131.100006</ele>
        <time>2019-01-06T10:49:48Z</time>
      </trkpt>
      <trkpt lat="48.99879" lon="1.12661">
        <ele>131</ele>
        <time>2019-01-06T10:49:51Z</time>
      </trkpt>
      <trkpt lat="48.99887" lon="1.12672">
        <ele>130.199997</ele>
        <time>2019-01-06T10:49:54Z</time>
      </trkpt>
      <trkpt lat="48.99893" lon="1.12684">
        <ele>130.800003</ele>
        <time>2019-01-06T10:49:57Z</time>
      </trkpt>
      <trkpt lat="48.99897" lon="1.12699">
        <ele>131.399994</ele>
        <time>2019-01-06T10:50:00Z</time>
      </trkpt>
      <trkpt lat="48.99898" lon="1.12715">
        <ele>131.899994</ele>
        <time>2019-01-06T10:50:03Z</time>
      </trkpt>
      <trkpt lat="48.99895" lon="1.12729">
        <ele>132.399994</ele>
        <time>2019-01-06T10:50:06Z</time>
      </trkpt>
      <trkpt lat="48.9989" lon="1.12742">
        <ele>132.800003</ele>
        <time>2019-01-06T10:50:09Z</time>
      </trkpt>
      <trkpt lat="48.99886" lon="1.12755">
        <ele>133.100006</ele>
        <time>2019-01-06T10:50:12Z</time>
      </trkpt>
      <trkpt lat="48.99881" lon="1.12769">
        <ele>133.800003</ele>
        <time>2019-01-06T10:50:15Z</time>
      </trkpt>
      <trkpt lat="48.99876" lon="1.12785">
        <ele>134.5</ele>
        <time>2019-01-06T10:50:19Z</time>
      </trkpt>
      <trkpt lat="48.99875" lon="1.128">
        <ele>135.600006</ele>
        <time>2019-01-06T10:50:23Z</time>
      </trkpt>
      <trkpt lat="48.99884" lon="1.12804">
        <ele>135.800003</ele>
        <time>2019-01-06T10:50:37Z</time>
      </trkpt>
      <trkpt lat="48.99894" lon="1.12808">
        <ele>135.800003</ele>
        <time>2019-01-06T10:50:54Z</time>
      </trkpt>
      <trkpt lat="48.99904" lon="1.1281">
        <ele>135.800003</ele>
        <time>2019-01-06T10:50:58Z</time>
      </trkpt>
      <trkpt lat="48.99914" lon="1.12812">
        <ele>135.699997</ele>
        <time>2019-01-06T10:51:02Z</time>
      </trkpt>
      <trkpt lat="48.99924" lon="1.12812">
        <ele>135.600006</ele>
        <time>2019-01-06T10:51:06Z</time>
      </trkpt>
      <trkpt lat="48.99935" lon="1.12813">
        <ele>135.5</ele>
        <time>2019-01-06T10:51:11Z</time>
      </trkpt>
      <trkpt lat="48.99945" lon="1.12813">
        <ele>135.399994</ele>
        <time>2019-01-06T10:51:17Z</time>
      </trkpt>
      <trkpt lat="48.99955" lon="1.12818">
        <ele>135.399994</ele>
        <time>2019-01-06T10:51:34Z</time>
      </trkpt>
      <trkpt lat="48.99965" lon="1.12816">
        <ele>134.800003</ele>
        <time>2019-01-06T10:51:39Z</time>
      </trkpt>
      <trkpt lat="48.99975" lon="1.12821">
        <ele>134.199997</ele>
        <time>2019-01-06T10:51:44Z</time>
      </trkpt>
      <trkpt lat="48.99986" lon="1.12822">
        <ele>134.100006</ele>
        <time>2019-01-06T10:51:52Z</time>
      </trkpt>
      <trkpt lat="48.99996" lon="1.12822">
        <ele>132.800003</ele>
        <time>2019-01-06T10:51:56Z</time>
      </trkpt>
      <trkpt lat="49.00004" lon="1.12817">
        <ele>132.899994</ele>
        <time>2019-01-06T10:52:01Z</time>
      </trkpt>
      <trkpt lat="49.00013" lon="1.12806">
        <ele>133.399994</ele>
        <time>2019-01-06T10:52:06Z</time>
      </trkpt>
      <trkpt lat="49.00023" lon="1.12805">
        <ele>132.399994</ele>
        <time>2019-01-06T10:52:10Z</time>
      </trkpt>
      <trkpt lat="49.00031" lon="1.12809">
        <ele>132.899994</ele>
        <time>2019-01-06T10:52:17Z</time>
      </trkpt>
      <trkpt lat="49.00042" lon="1.12806">
        <ele>132.600006</ele>
        <time>2019-01-06T10:52:26Z</time>
      </trkpt>
      <trkpt lat="49.00052" lon="1.12806">
        <ele>132.5</ele>
        <time>2019-01-06T10:52:33Z</time>
      </trkpt>
      <trkpt lat="49.0006" lon="1.12811">
        <ele>132.100006</ele>
        <time>2019-01-06T10:52:40Z</time>
      </trkpt>
      <trkpt lat="49.0007" lon="1.12811">
        <ele>131.800003</ele>
        <time>2019-01-06T10:52:49Z</time>
      </trkpt>
      <trkpt lat="49.00079" lon="1.12806">
        <ele>131.100006</ele>
        <time>2019-01-06T10:52:55Z</time>
      </trkpt>
      <trkpt lat="49.00089" lon="1.12806">
        <ele>131</ele>
        <time>2019-01-06T10:53:03Z</time>
      </trkpt>
      <trkpt lat="49.00098" lon="1.12805">
        <ele>130.600006</ele>
        <time>2019-01-06T10:53:08Z</time>
      </trkpt>
      <trkpt lat="49.00108" lon="1.12804">
        <ele>130.300003</ele>
        <time>2019-01-06T10:53:13Z</time>
      </trkpt>
      <trkpt lat="49.00119" lon="1.12799">
        <ele>129.399994</ele>
        <time>2019-01-06T10:53:27Z</time>
      </trkpt>
      <trkpt lat="49.0013" lon="1.12801">
        <ele>129.5</ele>
        <time>2019-01-06T10:53:31Z</time>
      </trkpt>
      <trkpt lat="49.00141" lon="1.12803">
        <ele>129.399994</ele>
        <time>2019-01-06T10:53:34Z</time>
      </trkpt>
      <trkpt lat="49.00154" lon="1.12805">
        <ele>129.100006</ele>
        <time>2019-01-06T10:53:37Z</time>
      </trkpt>
      <trkpt lat="49.00163" lon="1.12807">
        <ele>129.199997</ele>
        <time>2019-01-06T10:53:39Z</time>
      </trkpt>
      <trkpt lat="49.00174" lon="1.12807">
        <ele>129.100006</ele>
        <time>2019-01-06T10:53:41Z</time>
      </trkpt>
      <trkpt lat="49.00184" lon="1.12809">
        <ele>128.699997</ele>
        <time>2019-01-06T10:53:43Z</time>
      </trkpt>
      <trkpt lat="49.00194" lon="1.1281">
        <ele>128.699997</ele>
        <time>2019-01-06T10:53:45Z</time>
      </trkpt>
      <trkpt lat="49.00203" lon="1.12813">
        <ele>128.600006</ele>
        <time>2019-01-06T10:53:47Z</time>
      </trkpt>
      <trkpt lat="49.00213" lon="1.12821">
        <ele>128.399994</ele>
        <time>2019-01-06T10:53:50Z</time>
      </trkpt>
      <trkpt lat="49.0022" lon="1.12831">
        <ele>128.899994</ele>
        <time>2019-01-06T10:54:01Z</time>
      </trkpt>
      <trkpt lat="49.00272" lon="1.12906">
        <ele>138.180344</ele>
        <time>2019-01-06T10:54:01Z</time>
      </trkpt>
      <trkpt lat="49.00343" lon="1.13187">
        <ele>137.238281</ele>
        <time>2019-01-06T10:54:01Z</time>
      </trkpt>
      <trkpt lat="49.0042" lon="1.13183">
        <ele>137.174393</ele>
        <time>2019-01-06T10:54:01Z</time>
      </trkpt>
      <trkpt lat="49.0051" lon="1.13174">
        <ele>136.686768</ele>
        <time>2019-01-06T10:54:01Z</time>
      </trkpt>
      <trkpt lat="49.00567" lon="1.13191">
        <ele>135.343674</ele>
        <time>2019-01-06T10:54:01Z</time>
      </trkpt>
      <trkpt lat="49.00584" lon="1.1325">
        <ele>135.012131</ele>
        <time>2019-01-06T10:54:01Z</time>
      </trkpt>
      <trkpt lat="49.00605" lon="1.13302">
        <ele>135.717834</ele>
        <time>2019-01-06T10:54:01Z</time>
      </trkpt>
      <trkpt lat="49.00647" lon="1.13318">
        <ele>135.955139</ele>
        <time>2019-01-06T10:54:01Z</time>
      </trkpt>
      <trkpt lat="49.00683" lon="1.13329">
        <ele>136.189285</ele>
        <time>2019-01-06T10:54:01Z</time>
      </trkpt>
      <trkpt lat="49.00717" lon="1.13442">
        <ele>136.590485</ele>
        <time>2019-01-06T10:54:01Z</time>
      </trkpt>
      <trkpt lat="49.00737" lon="1.13517">
        <ele>135.47406</ele>
        <time>2019-01-06T10:54:01Z</time>
      </trkpt>
      <trkpt lat="49.00725" lon="1.13591">
        <ele>134</ele>
        <time>2019-01-06T10:54:01Z</time>
      </trkpt>
      <trkpt lat="49.00766" lon="1.13751">
        <ele>133.974442</ele>
        <time>2019-01-06T10:54:01Z</time>
      </trkpt>
      <trkpt lat="49.00807" lon="1.13857">
        <ele>128.272705</ele>
        <time>2019-01-06T10:54:01Z</time>
      </trkpt>
      <trkpt lat="49.00852" lon="1.13835">
        <ele>129.677002</ele>
        <time>2019-01-06T10:54:01Z</time>
      </trkpt>
      <trkpt lat="49.0088" lon="1.1378">
        <ele>130.21814</ele>
        <time>2019-01-06T10:54:01Z</time>
      </trkpt>
      <trkpt lat="49.00939" lon="1.13757">
        <ele>126.977234</ele>
        <time>2019-01-06T10:54:01Z</time>
      </trkpt>
      <trkpt lat="49.01023" lon="1.13736">
        <ele>124.146072</ele>
        <time>2019-01-06T10:54:01Z</time>
      </trkpt>
      <trkpt lat="49.01016" lon="1.1366">
        <ele>126.566124</ele>
        <time>2019-01-06T10:54:01Z</time>
      </trkpt>
      <trkpt lat="49.01042" lon="1.13596">
        <ele>126.767815</ele>
        <time>2019-01-06T10:54:01Z</time>
      </trkpt>
      <trkpt lat="49.01085" lon="1.13528">
        <ele>126.995216</ele>
        <time>2019-01-06T10:54:01Z</time>
      </trkpt>
      <trkpt lat="49.01109" lon="1.13433">
        <ele>129.373276</ele>
        <time>2019-01-06T10:54:01Z</time>
      </trkpt>
      <trkpt lat="49.01137" lon="1.13399">
        <ele>129.075592</ele>
        <time>2019-01-06T10:54:01Z</time>
      </trkpt>
      <trkpt lat="49.0122" lon="1.13449">
        <ele>129.010925</ele>
        <time>2019-01-06T10:54:01Z</time>
      </trkpt>
      <trkpt lat="49.01322" lon="1.13523">
        <ele>127.530273</ele>
        <time>2019-01-06T10:54:01Z</time>
      </trkpt>
      <trkpt lat="49.01426" lon="1.13582">
        <ele>118.094437</ele>
        <time>2019-01-06T10:54:01Z</time>
      </trkpt>
      <trkpt lat="49.01544" lon="1.13653">
        <ele>88.877991</ele>
        <time>2019-01-06T10:54:01Z</time>
      </trkpt>
      <trkpt lat="49.01666" lon="1.13721">
        <ele>71.376038</ele>
        <time>2019-01-06T10:54:01Z</time>
      </trkpt>
      <trkpt lat="49.01774" lon="1.13766">
        <ele>66.803314</ele>
        <time>2019-01-06T10:54:01Z</time>
      </trkpt>
      <trkpt lat="49.01815" lon="1.13815">
        <ele>68.503441</ele>
        <time>2019-01-06T10:54:01Z</time>
      </trkpt>
      <trkpt lat="49.0193" lon="1.13779">
        <ele>66.48877</ele>
        <time>2019-01-06T10:54:01Z</time>
      </trkpt>
      <trkpt lat="49.01947" lon="1.13912">
        <ele>64.695068</ele>
        <time>2019-01-06T10:54:01Z</time>
      </trkpt>
      <trkpt lat="49.01995" lon="1.13882">
        <ele>64.4729</ele>
        <time>2019-01-06T10:54:01Z</time>
      </trkpt>
      <trkpt lat="49.02161" lon="1.14004">
        <ele>65.934082</ele>
        <time>2019-01-06T10:54:01Z</time>
      </trkpt>
    </trkseg>
  </trk>
</gpx>